<?xml version='1.0' encoding='UTF-8'?><gpx version="1.1" creator="JPX - https://github.com/jenetics/jpx" xmlns="http://www.topografix.com/GPX/1/1"><trk><trkseg><trkpt lat="45.2355684" lon="9.0371683"><ele>66.85714285714286</ele><time>2026-05-01T07:31:22.431Z</time></trkpt><trkpt lat="45.2356382" lon="9.0371555"><ele>66.71428571428571</ele><time>2026-05-01T07:31:34.428Z</time></trkpt><trkpt lat="45.2356892" lon="9.0370845"><ele>66.57142857142857</ele><time>2026-05-01T07:31:38.429Z</time></trkpt><trkpt lat="45.2357417" lon="9.0369992"><ele>66.42857142857143</ele><time>2026-05-01T07:31:43.429Z</time></trkpt><trkpt lat="45.2357825" lon="9.0369294"><ele>66.28571428571429</ele><time>2026-05-01T07:31:46.364Z</time></trkpt><trkpt lat="45.2358228" lon="9.0368479"><ele>66.14285714285714</ele><time>2026-05-01T07:31:49.427Z</time></trkpt><trkpt lat="45.2358681" lon="9.0367755"><ele>66.0</ele><time>2026-05-01T07:31:52.429Z</time></trkpt><trkpt lat="45.2359227" lon="9.036715"><ele>66.0</ele><time>2026-05-01T07:31:55.438Z</time></trkpt><trkpt lat="45.2359825" lon="9.0366425"><ele>66.0</ele><time>2026-05-01T07:31:58.423Z</time></trkpt><trkpt lat="45.2360316" lon="9.0365579"><ele>66.0</ele><time>2026-05-01T07:32:01.433Z</time></trkpt><trkpt lat="45.2360766" lon="9.0364845"><ele>66.0</ele><time>2026-05-01T07:32:04.432Z</time></trkpt><trkpt lat="45.2361283" lon="9.0364051"><ele>66.0</ele><time>2026-05-01T07:32:07.344Z</time></trkpt><trkpt lat="45.2361822" lon="9.0363265"><ele>66.0</ele><time>2026-05-01T07:32:10.43Z</time></trkpt><trkpt lat="45.23625" lon="9.0362389"><ele>66.16666666666667</ele><time>2026-05-01T07:32:12.43Z</time></trkpt><trkpt lat="45.2363032" lon="9.0361649"><ele>66.33333333333333</ele><time>2026-05-01T07:32:15.428Z</time></trkpt><trkpt lat="45.2363804" lon="9.0360647"><ele>66.5</ele><time>2026-05-01T07:32:19.441Z</time></trkpt><trkpt lat="45.236434" lon="9.035966"><ele>66.66666666666666</ele><time>2026-05-01T07:32:22.43Z</time></trkpt><trkpt lat="45.2364849" lon="9.0358737"><ele>66.83333333333333</ele><time>2026-05-01T07:32:25.427Z</time></trkpt><trkpt lat="45.236534" lon="9.0358013"><ele>67.0</ele><time>2026-05-01T07:32:28.427Z</time></trkpt><trkpt lat="45.2365518" lon="9.0356902"><ele>67.33333333333333</ele><time>2026-05-01T07:32:31.427Z</time></trkpt><trkpt lat="45.236557" lon="9.0355773"><ele>67.66666666666666</ele><time>2026-05-01T07:32:34.428Z</time></trkpt><trkpt lat="45.2365488" lon="9.0354562"><ele>68.0</ele><time>2026-05-01T07:32:37.436Z</time></trkpt><trkpt lat="45.2365509" lon="9.0353469"><ele>68.33333333333333</ele><time>2026-05-01T07:32:39.43Z</time></trkpt><trkpt lat="45.236555" lon="9.0352455"><ele>68.66666666666667</ele><time>2026-05-01T07:32:41.423Z</time></trkpt><trkpt lat="45.2365523" lon="9.0351429"><ele>69.0</ele><time>2026-05-01T07:32:44.427Z</time></trkpt><trkpt lat="45.2365207" lon="9.0350609"><ele>69.0</ele><time>2026-05-01T07:32:47.424Z</time></trkpt><trkpt lat="45.2364716" lon="9.0349737"><ele>69.0</ele><time>2026-05-01T07:32:50.431Z</time></trkpt><trkpt lat="45.2364715" lon="9.0348651"><ele>69.0</ele><time>2026-05-01T07:32:54.429Z</time></trkpt><trkpt lat="45.2365405" lon="9.0348118"><ele>69.0</ele><time>2026-05-01T07:33:00.429Z</time></trkpt><trkpt lat="45.2365855" lon="9.034745"><ele>69.0</ele><time>2026-05-01T07:33:04.427Z</time></trkpt><trkpt lat="45.236615" lon="9.0346613"><ele>69.0</ele><time>2026-05-01T07:33:07.489Z</time></trkpt><trkpt lat="45.236651" lon="9.0345631"><ele>69.0</ele><time>2026-05-01T07:33:11.409Z</time></trkpt><trkpt lat="45.2367113" lon="9.0344773"><ele>69.0</ele><time>2026-05-01T07:33:22.434Z</time></trkpt><trkpt lat="45.2367331" lon="9.0343149"><ele>69.0</ele><time>2026-05-01T07:33:24.422Z</time></trkpt><trkpt lat="45.2367865" lon="9.0341868"><ele>69.0</ele><time>2026-05-01T07:33:26.43Z</time></trkpt><trkpt lat="45.236865" lon="9.034142"><ele>69.0</ele><time>2026-05-01T07:33:28.42Z</time></trkpt><trkpt lat="45.2369652" lon="9.034148"><ele>69.0</ele><time>2026-05-01T07:33:30.424Z</time></trkpt><trkpt lat="45.2370393" lon="9.0341836"><ele>69.0</ele><time>2026-05-01T07:33:32.429Z</time></trkpt><trkpt lat="45.2371167" lon="9.0342324"><ele>69.0</ele><time>2026-05-01T07:33:34.431Z</time></trkpt><trkpt lat="45.2371894" lon="9.0342796"><ele>69.0</ele><time>2026-05-01T07:33:36.428Z</time></trkpt><trkpt lat="45.2372463" lon="9.0343193"><ele>69.0</ele><time>2026-05-01T07:33:38.43Z</time></trkpt><trkpt lat="45.2373101" lon="9.0343593"><ele>69.0</ele><time>2026-05-01T07:33:41.424Z</time></trkpt><trkpt lat="45.2374045" lon="9.0343808"><ele>69.0</ele><time>2026-05-01T07:33:44.422Z</time></trkpt><trkpt lat="45.2375008" lon="9.0343952"><ele>69.0</ele><time>2026-05-01T07:33:46.429Z</time></trkpt><trkpt lat="45.2375758" lon="9.0344159"><ele>69.0</ele><time>2026-05-01T07:33:48.425Z</time></trkpt><trkpt lat="45.2376609" lon="9.0344462"><ele>69.0</ele><time>2026-05-01T07:33:51.438Z</time></trkpt><trkpt lat="45.2377475" lon="9.0344786"><ele>69.0</ele><time>2026-05-01T07:33:54.438Z</time></trkpt><trkpt lat="45.2378376" lon="9.034512"><ele>69.0</ele><time>2026-05-01T07:33:57.432Z</time></trkpt><trkpt lat="45.2379212" lon="9.0345423"><ele>69.0</ele><time>2026-05-01T07:34:00.437Z</time></trkpt><trkpt lat="45.2379981" lon="9.034572"><ele>69.0</ele><time>2026-05-01T07:34:03.429Z</time></trkpt><trkpt lat="45.238068" lon="9.0345986"><ele>69.0</ele><time>2026-05-01T07:34:06.428Z</time></trkpt><trkpt lat="45.2381455" lon="9.0346249"><ele>69.0</ele><time>2026-05-01T07:34:09.426Z</time></trkpt><trkpt lat="45.2382272" lon="9.0346546"><ele>69.0</ele><time>2026-05-01T07:34:12.428Z</time></trkpt><trkpt lat="45.238317" lon="9.0346948"><ele>69.0</ele><time>2026-05-01T07:34:15.494Z</time></trkpt><trkpt lat="45.238399" lon="9.034733"><ele>69.0</ele><time>2026-05-01T07:34:18.423Z</time></trkpt><trkpt lat="45.2384725" lon="9.034736"><ele>69.66666666666667</ele><time>2026-05-01T07:34:22.435Z</time></trkpt><trkpt lat="45.2385436" lon="9.0347394"><ele>70.33333333333333</ele><time>2026-05-01T07:34:26.426Z</time></trkpt><trkpt lat="45.2386122" lon="9.0347844"><ele>71.0</ele><time>2026-05-01T07:34:29.429Z</time></trkpt><trkpt lat="45.2386858" lon="9.0348173"><ele>71.66666666666666</ele><time>2026-05-01T07:34:32.425Z</time></trkpt><trkpt lat="45.2387695" lon="9.0348474"><ele>72.33333333333333</ele><time>2026-05-01T07:34:35.424Z</time></trkpt><trkpt lat="45.2388377" lon="9.0348715"><ele>73.0</ele><time>2026-05-01T07:34:38.432Z</time></trkpt><trkpt lat="45.2389068" lon="9.0348973"><ele>74.14285714285714</ele><time>2026-05-01T07:34:41.428Z</time></trkpt><trkpt lat="45.238981" lon="9.0349118"><ele>75.28571428571429</ele><time>2026-05-01T07:34:44.435Z</time></trkpt><trkpt lat="45.2390584" lon="9.0349311"><ele>76.42857142857143</ele><time>2026-05-01T07:34:47.428Z</time></trkpt><trkpt lat="45.2391244" lon="9.0349446"><ele>77.57142857142857</ele><time>2026-05-01T07:34:50.428Z</time></trkpt><trkpt lat="45.2391913" lon="9.0349557"><ele>78.71428571428571</ele><time>2026-05-01T07:34:53.422Z</time></trkpt><trkpt lat="45.2392564" lon="9.034983"><ele>79.85714285714286</ele><time>2026-05-01T07:34:56.423Z</time></trkpt><trkpt lat="45.2393301" lon="9.0350142"><ele>81.0</ele><time>2026-05-01T07:34:59.426Z</time></trkpt><trkpt lat="45.2394033" lon="9.0350538"><ele>81.0</ele><time>2026-05-01T07:35:02.432Z</time></trkpt><trkpt lat="45.2394758" lon="9.0350681"><ele>81.0</ele><time>2026-05-01T07:35:05.426Z</time></trkpt><trkpt lat="45.23954" lon="9.0350832"><ele>81.0</ele><time>2026-05-01T07:35:08.425Z</time></trkpt><trkpt lat="45.2396025" lon="9.0351071"><ele>81.0</ele><time>2026-05-01T07:35:11.433Z</time></trkpt><trkpt lat="45.2396713" lon="9.0351299"><ele>81.0</ele><time>2026-05-01T07:35:14.418Z</time></trkpt><trkpt lat="45.2397398" lon="9.0351642"><ele>81.0</ele><time>2026-05-01T07:35:17.431Z</time></trkpt><trkpt lat="45.2398102" lon="9.0351652"><ele>81.0</ele><time>2026-05-01T07:35:21.426Z</time></trkpt><trkpt lat="45.2397462" lon="9.0350895"><ele>81.0</ele><time>2026-05-01T07:35:27.427Z</time></trkpt><trkpt lat="45.239683" lon="9.0350434"><ele>81.0</ele><time>2026-05-01T07:35:30.426Z</time></trkpt><trkpt lat="45.2396177" lon="9.0350086"><ele>81.0</ele><time>2026-05-01T07:35:33.496Z</time></trkpt><trkpt lat="45.2395307" lon="9.0349739"><ele>81.0</ele><time>2026-05-01T07:35:36.43Z</time></trkpt><trkpt lat="45.2394706" lon="9.0349355"><ele>81.0</ele><time>2026-05-01T07:35:39.419Z</time></trkpt><trkpt lat="45.2394017" lon="9.0348964"><ele>81.0</ele><time>2026-05-01T07:35:49.433Z</time></trkpt><trkpt lat="45.2393228" lon="9.0348471"><ele>81.33333333333333</ele><time>2026-05-01T07:35:53.43Z</time></trkpt><trkpt lat="45.239266" lon="9.0347699"><ele>81.66666666666667</ele><time>2026-05-01T07:35:56.43Z</time></trkpt><trkpt lat="45.2392129" lon="9.0346907"><ele>82.0</ele><time>2026-05-01T07:35:59.428Z</time></trkpt><trkpt lat="45.239158" lon="9.034607"><ele>82.33333333333334</ele><time>2026-05-01T07:36:02.505Z</time></trkpt><trkpt lat="45.2390992" lon="9.0345246"><ele>82.66666666666667</ele><time>2026-05-01T07:36:05.439Z</time></trkpt><trkpt lat="45.23904" lon="9.0344391"><ele>83.0</ele><time>2026-05-01T07:36:08.428Z</time></trkpt><trkpt lat="45.2389752" lon="9.0343672"><ele>81.33333333333334</ele><time>2026-05-01T07:36:11.433Z</time></trkpt><trkpt lat="45.2389258" lon="9.0342968"><ele>79.66666666666667</ele><time>2026-05-01T07:36:14.495Z</time></trkpt><trkpt lat="45.2388794" lon="9.0342041"><ele>78.0</ele><time>2026-05-01T07:36:17.424Z</time></trkpt><trkpt lat="45.2388585" lon="9.0340889"><ele>76.33333333333333</ele><time>2026-05-01T07:36:20.426Z</time></trkpt><trkpt lat="45.2388539" lon="9.0339928"><ele>74.66666666666666</ele><time>2026-05-01T07:36:22.428Z</time></trkpt><trkpt lat="45.2388625" lon="9.0338757"><ele>73.0</ele><time>2026-05-01T07:36:25.424Z</time></trkpt><trkpt lat="45.2388705" lon="9.0337708"><ele>72.83333333333333</ele><time>2026-05-01T07:36:28.434Z</time></trkpt><trkpt lat="45.2389" lon="9.0336585"><ele>72.66666666666666</ele><time>2026-05-01T07:36:31.431Z</time></trkpt><trkpt lat="45.2389508" lon="9.0335532"><ele>72.5</ele><time>2026-05-01T07:36:34.432Z</time></trkpt><trkpt lat="45.238999" lon="9.0334737"><ele>72.33333333333333</ele><time>2026-05-01T07:36:37.426Z</time></trkpt><trkpt lat="45.2390446" lon="9.0334048"><ele>72.16666666666667</ele><time>2026-05-01T07:36:39.422Z</time></trkpt><trkpt lat="45.2390922" lon="9.033336"><ele>72.0</ele><time>2026-05-01T07:36:41.426Z</time></trkpt><trkpt lat="45.2391236" lon="9.0332208"><ele>72.16666666666667</ele><time>2026-05-01T07:36:44.427Z</time></trkpt><trkpt lat="45.2391244" lon="9.0331002"><ele>72.33333333333333</ele><time>2026-05-01T07:36:47.422Z</time></trkpt><trkpt lat="45.2391095" lon="9.0329929"><ele>72.5</ele><time>2026-05-01T07:36:50.429Z</time></trkpt><trkpt lat="45.2390532" lon="9.0329263"><ele>72.66666666666666</ele><time>2026-05-01T07:36:53.497Z</time></trkpt><trkpt lat="45.2389834" lon="9.0329222"><ele>72.83333333333333</ele><time>2026-05-01T07:36:56.421Z</time></trkpt><trkpt lat="45.2389101" lon="9.0329348"><ele>73.0</ele><time>2026-05-01T07:36:59.43Z</time></trkpt><trkpt lat="45.2388367" lon="9.0329273"><ele>73.0</ele><time>2026-05-01T07:37:02.431Z</time></trkpt><trkpt lat="45.2387715" lon="9.0329094"><ele>73.0</ele><time>2026-05-01T07:37:04.429Z</time></trkpt><trkpt lat="45.2387106" lon="9.0328661"><ele>73.0</ele><time>2026-05-01T07:37:06.429Z</time></trkpt><trkpt lat="45.2386636" lon="9.0327951"><ele>73.0</ele><time>2026-05-01T07:37:08.423Z</time></trkpt><trkpt lat="45.2386228" lon="9.0327124"><ele>73.0</ele><time>2026-05-01T07:37:10.426Z</time></trkpt><trkpt lat="45.2385911" lon="9.0325902"><ele>73.0</ele><time>2026-05-01T07:37:13.424Z</time></trkpt><trkpt lat="45.2385757" lon="9.032468"><ele>73.33333333333333</ele><time>2026-05-01T07:37:16.432Z</time></trkpt><trkpt lat="45.2385777" lon="9.0323381"><ele>73.66666666666666</ele><time>2026-05-01T07:37:19.42Z</time></trkpt><trkpt lat="45.2385895" lon="9.0322426"><ele>74.0</ele><time>2026-05-01T07:37:21.42Z</time></trkpt><trkpt lat="45.2385911" lon="9.032146"><ele>74.33333333333333</ele><time>2026-05-01T07:37:23.439Z</time></trkpt><trkpt lat="45.2385902" lon="9.0320311"><ele>74.66666666666667</ele><time>2026-05-01T07:37:26.426Z</time></trkpt><trkpt lat="45.2386105" lon="9.0319288"><ele>75.0</ele><time>2026-05-01T07:37:29.435Z</time></trkpt><trkpt lat="45.2386563" lon="9.0318221"><ele>75.0</ele><time>2026-05-01T07:37:32.428Z</time></trkpt><trkpt lat="45.2387123" lon="9.0317137"><ele>75.0</ele><time>2026-05-01T07:37:35.416Z</time></trkpt><trkpt lat="45.2387622" lon="9.0316176"><ele>75.0</ele><time>2026-05-01T07:37:38.426Z</time></trkpt><trkpt lat="45.2388305" lon="9.0315357"><ele>75.0</ele><time>2026-05-01T07:37:41.426Z</time></trkpt><trkpt lat="45.2388914" lon="9.031451"><ele>75.0</ele><time>2026-05-01T07:37:44.432Z</time></trkpt><trkpt lat="45.2389483" lon="9.0313581"><ele>75.0</ele><time>2026-05-01T07:37:47.431Z</time></trkpt><trkpt lat="45.2389891" lon="9.0312845"><ele>76.33333333333333</ele><time>2026-05-01T07:37:49.431Z</time></trkpt><trkpt lat="45.2390533" lon="9.0311893"><ele>77.66666666666667</ele><time>2026-05-01T07:37:52.427Z</time></trkpt><trkpt lat="45.2391005" lon="9.0311177"><ele>79.0</ele><time>2026-05-01T07:37:54.428Z</time></trkpt><trkpt lat="45.2391465" lon="9.0310465"><ele>80.33333333333334</ele><time>2026-05-01T07:37:56.427Z</time></trkpt><trkpt lat="45.2392138" lon="9.0309566"><ele>81.66666666666667</ele><time>2026-05-01T07:37:59.426Z</time></trkpt><trkpt lat="45.2392741" lon="9.0309202"><ele>83.0</ele><time>2026-05-01T07:38:01.423Z</time></trkpt><trkpt lat="45.239352" lon="9.0309668"><ele>83.0</ele><time>2026-05-01T07:38:04.424Z</time></trkpt><trkpt lat="45.2394217" lon="9.0310453"><ele>83.0</ele><time>2026-05-01T07:38:07.421Z</time></trkpt><trkpt lat="45.2394736" lon="9.0311009"><ele>83.0</ele><time>2026-05-01T07:38:09.429Z</time></trkpt><trkpt lat="45.2395366" lon="9.0311727"><ele>83.0</ele><time>2026-05-01T07:38:12.422Z</time></trkpt><trkpt lat="45.2396062" lon="9.0312407"><ele>83.0</ele><time>2026-05-01T07:38:15.431Z</time></trkpt><trkpt lat="45.2396786" lon="9.0313133"><ele>83.0</ele><time>2026-05-01T07:38:18.427Z</time></trkpt><trkpt lat="45.2397438" lon="9.0313873"><ele>82.83333333333334</ele><time>2026-05-01T07:38:21.43Z</time></trkpt><trkpt lat="45.2398114" lon="9.0314604"><ele>82.66666666666667</ele><time>2026-05-01T07:38:24.506Z</time></trkpt><trkpt lat="45.2398845" lon="9.0315302"><ele>82.5</ele><time>2026-05-01T07:38:27.421Z</time></trkpt><trkpt lat="45.2399539" lon="9.0315752"><ele>82.33333333333333</ele><time>2026-05-01T07:38:29.425Z</time></trkpt><trkpt lat="45.240026" lon="9.031605"><ele>82.16666666666666</ele><time>2026-05-01T07:38:31.427Z</time></trkpt><trkpt lat="45.2400937" lon="9.0316317"><ele>82.0</ele><time>2026-05-01T07:38:33.429Z</time></trkpt><trkpt lat="45.2401727" lon="9.0316596"><ele>81.99999999999999</ele><time>2026-05-01T07:38:36.428Z</time></trkpt><trkpt lat="45.2402451" lon="9.0317055"><ele>82.0</ele><time>2026-05-01T07:38:40.425Z</time></trkpt><trkpt lat="45.2402088" lon="9.0316212"><ele>82.0</ele><time>2026-05-01T07:38:46.425Z</time></trkpt><trkpt lat="45.2401545" lon="9.0315697"><ele>82.0</ele><time>2026-05-01T07:38:48.426Z</time></trkpt><trkpt lat="45.2400978" lon="9.0315096"><ele>82.0</ele><time>2026-05-01T07:38:50.426Z</time></trkpt><trkpt lat="45.2400512" lon="9.0314433"><ele>81.99999999999999</ele><time>2026-05-01T07:38:52.426Z</time></trkpt><trkpt lat="45.2399985" lon="9.0313735"><ele>82.0</ele><time>2026-05-01T07:38:54.424Z</time></trkpt><trkpt lat="45.2399413" lon="9.0312949"><ele>82.0</ele><time>2026-05-01T07:38:56.426Z</time></trkpt><trkpt lat="45.2398789" lon="9.0312168"><ele>82.0</ele><time>2026-05-01T07:38:58.426Z</time></trkpt><trkpt lat="45.2397995" lon="9.0311306"><ele>82.0</ele><time>2026-05-01T07:39:00.423Z</time></trkpt><trkpt lat="45.2397176" lon="9.0310425"><ele>82.0</ele><time>2026-05-01T07:39:02.434Z</time></trkpt><trkpt lat="45.2396394" lon="9.0309723"><ele>82.0</ele><time>2026-05-01T07:39:04.427Z</time></trkpt><trkpt lat="45.2395845" lon="9.0308968"><ele>80.8</ele><time>2026-05-01T07:39:06.427Z</time></trkpt><trkpt lat="45.239564" lon="9.030788"><ele>79.6</ele><time>2026-05-01T07:39:08.426Z</time></trkpt><trkpt lat="45.239555" lon="9.0306614"><ele>78.39999999999999</ele><time>2026-05-01T07:39:10.431Z</time></trkpt><trkpt lat="45.2395375" lon="9.0305117"><ele>77.19999999999999</ele><time>2026-05-01T07:39:12.423Z</time></trkpt><trkpt lat="45.2395118" lon="9.0303401"><ele>76.0</ele><time>2026-05-01T07:39:14.426Z</time></trkpt><trkpt lat="45.2394966" lon="9.030252"><ele>76.0</ele><time>2026-05-01T07:39:15.427Z</time></trkpt><trkpt lat="45.2394664" lon="9.0300855"><ele>76.0</ele><time>2026-05-01T07:39:17.425Z</time></trkpt><trkpt lat="45.2394354" lon="9.0299138"><ele>76.0</ele><time>2026-05-01T07:39:19.426Z</time></trkpt><trkpt lat="45.2394065" lon="9.0297496"><ele>76.0</ele><time>2026-05-01T07:39:21.431Z</time></trkpt><trkpt lat="45.2393784" lon="9.0296038"><ele>74.66666666666666</ele><time>2026-05-01T07:39:23.43Z</time></trkpt><trkpt lat="45.2393595" lon="9.0294811"><ele>73.33333333333333</ele><time>2026-05-01T07:39:25.436Z</time></trkpt><trkpt lat="45.2393394" lon="9.0293781"><ele>72.0</ele><time>2026-05-01T07:39:27.428Z</time></trkpt><trkpt lat="45.2393483" lon="9.0292813"><ele>70.66666666666667</ele><time>2026-05-01T07:39:29.422Z</time></trkpt><trkpt lat="45.2393858" lon="9.0291939"><ele>69.33333333333334</ele><time>2026-05-01T07:39:31.502Z</time></trkpt><trkpt lat="45.2394047" lon="9.0290978"><ele>68.0</ele><time>2026-05-01T07:39:33.434Z</time></trkpt><trkpt lat="45.23941" lon="9.028982"><ele>67.66666666666667</ele><time>2026-05-01T07:39:35.425Z</time></trkpt><trkpt lat="45.23942" lon="9.028881"><ele>67.33333333333334</ele><time>2026-05-01T07:39:37.432Z</time></trkpt><trkpt lat="45.2394633" lon="9.0287939"><ele>67.0</ele><time>2026-05-01T07:39:40.428Z</time></trkpt><trkpt lat="45.2395199" lon="9.028717"><ele>66.66666666666667</ele><time>2026-05-01T07:39:44.49Z</time></trkpt><trkpt lat="45.2395813" lon="9.0286515"><ele>66.33333333333333</ele><time>2026-05-01T07:39:47.422Z</time></trkpt><trkpt lat="45.2396459" lon="9.0285697"><ele>66.0</ele><time>2026-05-01T07:39:50.42Z</time></trkpt><trkpt lat="45.2397116" lon="9.0284895"><ele>66.0</ele><time>2026-05-01T07:39:53.428Z</time></trkpt><trkpt lat="45.2397769" lon="9.0284066"><ele>66.0</ele><time>2026-05-01T07:39:56.43Z</time></trkpt><trkpt lat="45.2398209" lon="9.0283314"><ele>66.0</ele><time>2026-05-01T07:39:58.43Z</time></trkpt><trkpt lat="45.239864" lon="9.0282512"><ele>66.0</ele><time>2026-05-01T07:40:00.426Z</time></trkpt><trkpt lat="45.2399092" lon="9.0281818"><ele>66.0</ele><time>2026-05-01T07:40:02.427Z</time></trkpt><trkpt lat="45.2399696" lon="9.0281022"><ele>66.0</ele><time>2026-05-01T07:40:05.426Z</time></trkpt><trkpt lat="45.2400325" lon="9.0280177"><ele>66.0</ele><time>2026-05-01T07:40:08.426Z</time></trkpt><trkpt lat="45.2400842" lon="9.0279047"><ele>66.0</ele><time>2026-05-01T07:40:11.424Z</time></trkpt><trkpt lat="45.2401214" lon="9.0278197"><ele>66.0</ele><time>2026-05-01T07:40:13.426Z</time></trkpt><trkpt lat="45.2401564" lon="9.0277296"><ele>66.0</ele><time>2026-05-01T07:40:15.426Z</time></trkpt><trkpt lat="45.2401909" lon="9.027645"><ele>66.0</ele><time>2026-05-01T07:40:17.429Z</time></trkpt><trkpt lat="45.2402347" lon="9.0275449"><ele>66.0</ele><time>2026-05-01T07:40:20.425Z</time></trkpt><trkpt lat="45.2402791" lon="9.0274323"><ele>66.0</ele><time>2026-05-01T07:40:23.433Z</time></trkpt><trkpt lat="45.2403206" lon="9.0273244"><ele>66.0</ele><time>2026-05-01T07:40:26.431Z</time></trkpt><trkpt lat="45.2403958" lon="9.0272783"><ele>66.0</ele><time>2026-05-01T07:40:30.429Z</time></trkpt><trkpt lat="45.2404696" lon="9.0273163"><ele>66.0</ele><time>2026-05-01T07:40:34.424Z</time></trkpt><trkpt lat="45.2405318" lon="9.0273696"><ele>66.0</ele><time>2026-05-01T07:40:36.42Z</time></trkpt><trkpt lat="45.2405915" lon="9.0274263"><ele>66.0</ele><time>2026-05-01T07:40:38.43Z</time></trkpt><trkpt lat="45.2406422" lon="9.0274844"><ele>66.0</ele><time>2026-05-01T07:40:40.423Z</time></trkpt><trkpt lat="45.2406937" lon="9.0275494"><ele>66.0</ele><time>2026-05-01T07:40:42.43Z</time></trkpt><trkpt lat="45.2407502" lon="9.0276104"><ele>66.0</ele><time>2026-05-01T07:40:44.43Z</time></trkpt><trkpt lat="45.2407988" lon="9.0276674"><ele>66.0</ele><time>2026-05-01T07:40:46.43Z</time></trkpt><trkpt lat="45.2408721" lon="9.0277473"><ele>66.0</ele><time>2026-05-01T07:40:49.419Z</time></trkpt><trkpt lat="45.2409464" lon="9.0278246"><ele>66.0</ele><time>2026-05-01T07:40:52.427Z</time></trkpt><trkpt lat="45.241019" lon="9.0278985"><ele>66.0</ele><time>2026-05-01T07:40:55.422Z</time></trkpt><trkpt lat="45.2410922" lon="9.0279747"><ele>66.0</ele><time>2026-05-01T07:40:58.427Z</time></trkpt><trkpt lat="45.2411407" lon="9.0280335"><ele>66.0</ele><time>2026-05-01T07:41:00.436Z</time></trkpt><trkpt lat="45.2412135" lon="9.0281093"><ele>66.0</ele><time>2026-05-01T07:41:03.421Z</time></trkpt><trkpt lat="45.2412822" lon="9.0281934"><ele>66.0</ele><time>2026-05-01T07:41:06.425Z</time></trkpt><trkpt lat="45.2413541" lon="9.0282715"><ele>66.0</ele><time>2026-05-01T07:41:09.42Z</time></trkpt><trkpt lat="45.2414287" lon="9.0283507"><ele>66.66666666666667</ele><time>2026-05-01T07:41:12.428Z</time></trkpt><trkpt lat="45.2414971" lon="9.0284227"><ele>67.33333333333333</ele><time>2026-05-01T07:41:15.427Z</time></trkpt><trkpt lat="45.2415568" lon="9.0285072"><ele>68.0</ele><time>2026-05-01T07:41:18.416Z</time></trkpt><trkpt lat="45.2416257" lon="9.0285739"><ele>68.66666666666666</ele><time>2026-05-01T07:41:21.428Z</time></trkpt><trkpt lat="45.2416883" lon="9.0286636"><ele>69.33333333333333</ele><time>2026-05-01T07:41:24.426Z</time></trkpt><trkpt lat="45.2417521" lon="9.0287546"><ele>70.0</ele><time>2026-05-01T07:41:27.421Z</time></trkpt><trkpt lat="45.241805" lon="9.0288159"><ele>70.0</ele><time>2026-05-01T07:41:29.499Z</time></trkpt><trkpt lat="45.2418549" lon="9.0288793"><ele>70.0</ele><time>2026-05-01T07:41:31.431Z</time></trkpt><trkpt lat="45.241908" lon="9.0289424"><ele>70.0</ele><time>2026-05-01T07:41:33.423Z</time></trkpt><trkpt lat="45.2419582" lon="9.0290063"><ele>70.0</ele><time>2026-05-01T07:41:35.43Z</time></trkpt><trkpt lat="45.2420095" lon="9.029077"><ele>70.0</ele><time>2026-05-01T07:41:37.427Z</time></trkpt><trkpt lat="45.242057" lon="9.0291406"><ele>70.0</ele><time>2026-05-01T07:41:39.426Z</time></trkpt><trkpt lat="45.2421009" lon="9.0292063"><ele>70.0</ele><time>2026-05-01T07:41:41.434Z</time></trkpt><trkpt lat="45.2421739" lon="9.0292921"><ele>70.33333333333333</ele><time>2026-05-01T07:41:44.427Z</time></trkpt><trkpt lat="45.242238" lon="9.0293764"><ele>70.66666666666666</ele><time>2026-05-01T07:41:47.427Z</time></trkpt><trkpt lat="45.2423015" lon="9.0294593"><ele>71.0</ele><time>2026-05-01T07:41:50.424Z</time></trkpt><trkpt lat="45.2423547" lon="9.0295362"><ele>71.33333333333333</ele><time>2026-05-01T07:41:53.424Z</time></trkpt><trkpt lat="45.2423528" lon="9.0296471"><ele>71.66666666666667</ele><time>2026-05-01T07:41:57.431Z</time></trkpt><trkpt lat="45.2422789" lon="9.0297023"><ele>72.0</ele><time>2026-05-01T07:42:00.421Z</time></trkpt><trkpt lat="45.2422086" lon="9.0297431"><ele>72.0</ele><time>2026-05-01T07:42:03.424Z</time></trkpt><trkpt lat="45.2421327" lon="9.0297866"><ele>72.0</ele><time>2026-05-01T07:42:06.42Z</time></trkpt><trkpt lat="45.2420569" lon="9.0298324"><ele>72.0</ele><time>2026-05-01T07:42:09.494Z</time></trkpt><trkpt lat="45.2419744" lon="9.0298891"><ele>72.0</ele><time>2026-05-01T07:42:12.422Z</time></trkpt><trkpt lat="45.2418936" lon="9.0299544"><ele>72.0</ele><time>2026-05-01T07:42:15.42Z</time></trkpt><trkpt lat="45.2418276" lon="9.0299965"><ele>72.0</ele><time>2026-05-01T07:42:17.431Z</time></trkpt><trkpt lat="45.2417658" lon="9.030029"><ele>72.71428571428572</ele><time>2026-05-01T07:42:19.498Z</time></trkpt><trkpt lat="45.2417058" lon="9.0300683"><ele>73.42857142857143</ele><time>2026-05-01T07:42:21.438Z</time></trkpt><trkpt lat="45.2416468" lon="9.0301094"><ele>74.14285714285714</ele><time>2026-05-01T07:42:23.422Z</time></trkpt><trkpt lat="45.2415892" lon="9.0301496"><ele>74.85714285714286</ele><time>2026-05-01T07:42:26.419Z</time></trkpt><trkpt lat="45.241626" lon="9.0302583"><ele>75.57142857142857</ele><time>2026-05-01T07:42:30.421Z</time></trkpt><trkpt lat="45.2416721" lon="9.0303252"><ele>76.28571428571429</ele><time>2026-05-01T07:42:32.42Z</time></trkpt><trkpt lat="45.2417253" lon="9.0303897"><ele>77.0</ele><time>2026-05-01T07:42:34.42Z</time></trkpt><trkpt lat="45.2417745" lon="9.0304549"><ele>77.0</ele><time>2026-05-01T07:42:36.421Z</time></trkpt><trkpt lat="45.2418228" lon="9.0305181"><ele>77.0</ele><time>2026-05-01T07:42:38.425Z</time></trkpt><trkpt lat="45.2418724" lon="9.030586"><ele>77.0</ele><time>2026-05-01T07:42:40.434Z</time></trkpt><trkpt lat="45.2419229" lon="9.030663"><ele>77.0</ele><time>2026-05-01T07:42:42.427Z</time></trkpt><trkpt lat="45.241969" lon="9.0307361"><ele>77.0</ele><time>2026-05-01T07:42:44.426Z</time></trkpt><trkpt lat="45.242016" lon="9.0308097"><ele>77.0</ele><time>2026-05-01T07:42:46.418Z</time></trkpt><trkpt lat="45.2420707" lon="9.0308815"><ele>77.0</ele><time>2026-05-01T07:42:48.421Z</time></trkpt><trkpt lat="45.2421217" lon="9.0309619"><ele>77.28571428571429</ele><time>2026-05-01T07:42:50.433Z</time></trkpt><trkpt lat="45.2421574" lon="9.0310522"><ele>77.57142857142857</ele><time>2026-05-01T07:42:52.433Z</time></trkpt><trkpt lat="45.2421671" lon="9.0311441"><ele>77.85714285714286</ele><time>2026-05-01T07:42:54.42Z</time></trkpt><trkpt lat="45.2421699" lon="9.0312472"><ele>78.14285714285714</ele><time>2026-05-01T07:42:56.423Z</time></trkpt><trkpt lat="45.242193" lon="9.0313308"><ele>78.42857142857143</ele><time>2026-05-01T07:42:58.49Z</time></trkpt><trkpt lat="45.2422327" lon="9.0314069"><ele>78.71428571428572</ele><time>2026-05-01T07:43:00.43Z</time></trkpt><trkpt lat="45.2422824" lon="9.0314725"><ele>79.0</ele><time>2026-05-01T07:43:02.422Z</time></trkpt><trkpt lat="45.2423334" lon="9.0315368"><ele>79.5</ele><time>2026-05-01T07:43:04.421Z</time></trkpt><trkpt lat="45.2424074" lon="9.0316215"><ele>80.0</ele><time>2026-05-01T07:43:07.421Z</time></trkpt><trkpt lat="45.2424582" lon="9.0316868"><ele>80.5</ele><time>2026-05-01T07:43:09.428Z</time></trkpt><trkpt lat="45.2425099" lon="9.031757"><ele>81.0</ele><time>2026-05-01T07:43:11.425Z</time></trkpt><trkpt lat="45.2425858" lon="9.0318491"><ele>81.5</ele><time>2026-05-01T07:43:14.427Z</time></trkpt><trkpt lat="45.2426399" lon="9.0319121"><ele>82.0</ele><time>2026-05-01T07:43:16.426Z</time></trkpt><trkpt lat="45.2426911" lon="9.0319806"><ele>82.28571428571428</ele><time>2026-05-01T07:43:18.426Z</time></trkpt><trkpt lat="45.242743" lon="9.0320411"><ele>82.57142857142857</ele><time>2026-05-01T07:43:20.423Z</time></trkpt><trkpt lat="45.2427902" lon="9.0321093"><ele>82.85714285714286</ele><time>2026-05-01T07:43:22.426Z</time></trkpt><trkpt lat="45.2428455" lon="9.0321751"><ele>83.14285714285714</ele><time>2026-05-01T07:43:24.427Z</time></trkpt><trkpt lat="45.2428966" lon="9.0322429"><ele>83.42857142857143</ele><time>2026-05-01T07:43:26.435Z</time></trkpt><trkpt lat="45.2429505" lon="9.0323145"><ele>83.71428571428571</ele><time>2026-05-01T07:43:28.427Z</time></trkpt><trkpt lat="45.2430048" lon="9.032377"><ele>84.0</ele><time>2026-05-01T07:43:30.436Z</time></trkpt><trkpt lat="45.2430568" lon="9.0324404"><ele>84.14285714285714</ele><time>2026-05-01T07:43:32.42Z</time></trkpt><trkpt lat="45.243113" lon="9.032505"><ele>84.28571428571428</ele><time>2026-05-01T07:43:34.425Z</time></trkpt><trkpt lat="45.2431675" lon="9.032571"><ele>84.42857142857143</ele><time>2026-05-01T07:43:36.425Z</time></trkpt><trkpt lat="45.2432263" lon="9.0326387"><ele>84.57142857142857</ele><time>2026-05-01T07:43:38.425Z</time></trkpt><trkpt lat="45.2432769" lon="9.0327099"><ele>84.71428571428571</ele><time>2026-05-01T07:43:40.427Z</time></trkpt><trkpt lat="45.2433257" lon="9.0327836"><ele>84.85714285714286</ele><time>2026-05-01T07:43:42.424Z</time></trkpt><trkpt lat="45.2433763" lon="9.032849"><ele>85.0</ele><time>2026-05-01T07:43:44.435Z</time></trkpt><trkpt lat="45.2434388" lon="9.032916"><ele>85.0</ele><time>2026-05-01T07:43:46.433Z</time></trkpt><trkpt lat="45.2434899" lon="9.0329898"><ele>85.0</ele><time>2026-05-01T07:43:48.422Z</time></trkpt><trkpt lat="45.2435403" lon="9.0330525"><ele>85.0</ele><time>2026-05-01T07:43:50.431Z</time></trkpt><trkpt lat="45.2435981" lon="9.0331098"><ele>85.0</ele><time>2026-05-01T07:43:52.424Z</time></trkpt><trkpt lat="45.2436621" lon="9.033182"><ele>85.0</ele><time>2026-05-01T07:43:55.422Z</time></trkpt><trkpt lat="45.2437229" lon="9.0331513"><ele>85.0</ele><time>2026-05-01T07:43:58.418Z</time></trkpt><trkpt lat="45.2437723" lon="9.03304"><ele>85.0</ele><time>2026-05-01T07:44:01.426Z</time></trkpt><trkpt lat="45.2438006" lon="9.0329601"><ele>85.0</ele><time>2026-05-01T07:44:03.419Z</time></trkpt><trkpt lat="45.2438327" lon="9.0328745"><ele>85.0</ele><time>2026-05-01T07:44:05.421Z</time></trkpt><trkpt lat="45.2438677" lon="9.0327929"><ele>85.0</ele><time>2026-05-01T07:44:07.422Z</time></trkpt><trkpt lat="45.2438985" lon="9.032713"><ele>85.0</ele><time>2026-05-01T07:44:09.436Z</time></trkpt><trkpt lat="45.243948" lon="9.0326057"><ele>85.0</ele><time>2026-05-01T07:44:12.431Z</time></trkpt><trkpt lat="45.2440383" lon="9.0325563"><ele>85.0</ele><time>2026-05-01T07:44:15.423Z</time></trkpt><trkpt lat="45.2441053" lon="9.0325902"><ele>85.28571428571429</ele><time>2026-05-01T07:44:17.429Z</time></trkpt><trkpt lat="45.2441676" lon="9.032643"><ele>85.57142857142857</ele><time>2026-05-01T07:44:19.422Z</time></trkpt><trkpt lat="45.244224" lon="9.0326992"><ele>85.85714285714286</ele><time>2026-05-01T07:44:21.433Z</time></trkpt><trkpt lat="45.244293" lon="9.0327372"><ele>86.14285714285714</ele><time>2026-05-01T07:44:23.427Z</time></trkpt><trkpt lat="45.2443549" lon="9.0327991"><ele>86.42857142857143</ele><time>2026-05-01T07:44:25.427Z</time></trkpt><trkpt lat="45.2444196" lon="9.0328484"><ele>86.71428571428571</ele><time>2026-05-01T07:44:27.424Z</time></trkpt><trkpt lat="45.2444871" lon="9.0328978"><ele>87.0</ele><time>2026-05-01T07:44:29.497Z</time></trkpt><trkpt lat="45.2445565" lon="9.0329434"><ele>87.0</ele><time>2026-05-01T07:44:31.431Z</time></trkpt><trkpt lat="45.2446244" lon="9.0329833"><ele>87.0</ele><time>2026-05-01T07:44:33.413Z</time></trkpt><trkpt lat="45.2446879" lon="9.0330255"><ele>87.0</ele><time>2026-05-01T07:44:35.427Z</time></trkpt><trkpt lat="45.2447555" lon="9.0330786"><ele>87.0</ele><time>2026-05-01T07:44:37.421Z</time></trkpt><trkpt lat="45.2448135" lon="9.0331213"><ele>87.0</ele><time>2026-05-01T07:44:39.427Z</time></trkpt><trkpt lat="45.2448771" lon="9.0331752"><ele>87.0</ele><time>2026-05-01T07:44:41.425Z</time></trkpt><trkpt lat="45.2449411" lon="9.0332216"><ele>87.0</ele><time>2026-05-01T07:44:43.425Z</time></trkpt><trkpt lat="45.2450056" lon="9.033264"><ele>87.0</ele><time>2026-05-01T07:44:45.428Z</time></trkpt><trkpt lat="45.2450663" lon="9.0333037"><ele>87.0</ele><time>2026-05-01T07:44:47.421Z</time></trkpt><trkpt lat="45.2451313" lon="9.0333557"><ele>87.0</ele><time>2026-05-01T07:44:49.426Z</time></trkpt><trkpt lat="45.2451954" lon="9.0334053"><ele>87.0</ele><time>2026-05-01T07:44:51.418Z</time></trkpt><trkpt lat="45.245262" lon="9.033449"><ele>87.0</ele><time>2026-05-01T07:44:53.434Z</time></trkpt><trkpt lat="45.245335" lon="9.0334986"><ele>87.0</ele><time>2026-05-01T07:44:55.428Z</time></trkpt><trkpt lat="45.2454037" lon="9.033551"><ele>87.0</ele><time>2026-05-01T07:44:57.427Z</time></trkpt><trkpt lat="45.2454699" lon="9.0335942"><ele>86.66666666666667</ele><time>2026-05-01T07:44:59.42Z</time></trkpt><trkpt lat="45.2455378" lon="9.0336402"><ele>86.33333333333333</ele><time>2026-05-01T07:45:01.427Z</time></trkpt><trkpt lat="45.2456003" lon="9.0336931"><ele>86.0</ele><time>2026-05-01T07:45:03.422Z</time></trkpt><trkpt lat="45.2456749" lon="9.0337479"><ele>85.66666666666666</ele><time>2026-05-01T07:45:05.43Z</time></trkpt><trkpt lat="45.2457432" lon="9.0338041"><ele>85.33333333333333</ele><time>2026-05-01T07:45:07.433Z</time></trkpt><trkpt lat="45.2458147" lon="9.0338559"><ele>85.0</ele><time>2026-05-01T07:45:09.425Z</time></trkpt><trkpt lat="45.2458851" lon="9.0339023"><ele>85.0</ele><time>2026-05-01T07:45:11.429Z</time></trkpt><trkpt lat="45.2459547" lon="9.0339527"><ele>85.0</ele><time>2026-05-01T07:45:13.419Z</time></trkpt><trkpt lat="45.2460264" lon="9.0340007"><ele>85.0</ele><time>2026-05-01T07:45:15.427Z</time></trkpt><trkpt lat="45.246099" lon="9.0340513"><ele>85.0</ele><time>2026-05-01T07:45:17.42Z</time></trkpt><trkpt lat="45.2461692" lon="9.0341018"><ele>85.0</ele><time>2026-05-01T07:45:19.423Z</time></trkpt><trkpt lat="45.2462366" lon="9.03415"><ele>85.0</ele><time>2026-05-01T07:45:21.421Z</time></trkpt><trkpt lat="45.2463054" lon="9.0341982"><ele>85.0</ele><time>2026-05-01T07:45:23.427Z</time></trkpt><trkpt lat="45.2463712" lon="9.034239"><ele>85.0</ele><time>2026-05-01T07:45:25.429Z</time></trkpt><trkpt lat="45.246444" lon="9.0342783"><ele>85.0</ele><time>2026-05-01T07:45:27.422Z</time></trkpt><trkpt lat="45.2465084" lon="9.0343277"><ele>85.0</ele><time>2026-05-01T07:45:29.43Z</time></trkpt><trkpt lat="45.2465877" lon="9.0343707"><ele>85.0</ele><time>2026-05-01T07:45:31.426Z</time></trkpt><trkpt lat="45.2466562" lon="9.0344152"><ele>85.0</ele><time>2026-05-01T07:45:33.425Z</time></trkpt><trkpt lat="45.2467274" lon="9.0344181"><ele>85.28571428571429</ele><time>2026-05-01T07:45:35.427Z</time></trkpt><trkpt lat="45.2467802" lon="9.0343609"><ele>85.57142857142857</ele><time>2026-05-01T07:45:37.426Z</time></trkpt><trkpt lat="45.2468225" lon="9.0342867"><ele>85.85714285714286</ele><time>2026-05-01T07:45:39.428Z</time></trkpt><trkpt lat="45.2468633" lon="9.0341958"><ele>86.14285714285714</ele><time>2026-05-01T07:45:41.427Z</time></trkpt><trkpt lat="45.2469009" lon="9.0341096"><ele>86.42857142857143</ele><time>2026-05-01T07:45:43.42Z</time></trkpt><trkpt lat="45.2469423" lon="9.0340268"><ele>86.71428571428571</ele><time>2026-05-01T07:45:45.49Z</time></trkpt><trkpt lat="45.2469874" lon="9.0339385"><ele>87.0</ele><time>2026-05-01T07:45:47.431Z</time></trkpt><trkpt lat="45.2470328" lon="9.0338525"><ele>87.0</ele><time>2026-05-01T07:45:49.426Z</time></trkpt><trkpt lat="45.2470751" lon="9.0337779"><ele>87.0</ele><time>2026-05-01T07:45:51.421Z</time></trkpt><trkpt lat="45.2471208" lon="9.0337037"><ele>87.0</ele><time>2026-05-01T07:45:53.429Z</time></trkpt><trkpt lat="45.2471648" lon="9.0336214"><ele>87.0</ele><time>2026-05-01T07:45:55.433Z</time></trkpt><trkpt lat="45.2472115" lon="9.0335469"><ele>87.0</ele><time>2026-05-01T07:45:57.43Z</time></trkpt><trkpt lat="45.2472537" lon="9.0334702"><ele>87.0</ele><time>2026-05-01T07:45:59.419Z</time></trkpt><trkpt lat="45.2472928" lon="9.0333899"><ele>87.0</ele><time>2026-05-01T07:46:01.421Z</time></trkpt><trkpt lat="45.2473335" lon="9.0333041"><ele>87.28571428571428</ele><time>2026-05-01T07:46:03.422Z</time></trkpt><trkpt lat="45.2473772" lon="9.0332288"><ele>87.57142857142857</ele><time>2026-05-01T07:46:05.424Z</time></trkpt><trkpt lat="45.2474181" lon="9.0331492"><ele>87.85714285714286</ele><time>2026-05-01T07:46:07.421Z</time></trkpt><trkpt lat="45.2474591" lon="9.0330674"><ele>88.14285714285714</ele><time>2026-05-01T07:46:09.424Z</time></trkpt><trkpt lat="45.2474915" lon="9.0329744"><ele>88.42857142857143</ele><time>2026-05-01T07:46:11.497Z</time></trkpt><trkpt lat="45.2475151" lon="9.0328821"><ele>88.71428571428571</ele><time>2026-05-01T07:46:13.422Z</time></trkpt><trkpt lat="45.2475349" lon="9.0327956"><ele>89.0</ele><time>2026-05-01T07:46:15.422Z</time></trkpt><trkpt lat="45.2475633" lon="9.0327103"><ele>88.99999999999999</ele><time>2026-05-01T07:46:17.43Z</time></trkpt><trkpt lat="45.2475983" lon="9.0326132"><ele>89.0</ele><time>2026-05-01T07:46:19.423Z</time></trkpt><trkpt lat="45.2476302" lon="9.0325223"><ele>89.0</ele><time>2026-05-01T07:46:21.424Z</time></trkpt><trkpt lat="45.2476603" lon="9.0324293"><ele>89.0</ele><time>2026-05-01T07:46:23.431Z</time></trkpt><trkpt lat="45.247696" lon="9.0323416"><ele>89.0</ele><time>2026-05-01T07:46:25.429Z</time></trkpt><trkpt lat="45.2477303" lon="9.0322591"><ele>88.99999999999999</ele><time>2026-05-01T07:46:27.422Z</time></trkpt><trkpt lat="45.2477652" lon="9.0321814"><ele>89.0</ele><time>2026-05-01T07:46:29.428Z</time></trkpt><trkpt lat="45.2477979" lon="9.0321022"><ele>88.83333333333334</ele><time>2026-05-01T07:46:31.429Z</time></trkpt><trkpt lat="45.2478464" lon="9.0319871"><ele>88.66666666666667</ele><time>2026-05-01T07:46:34.425Z</time></trkpt><trkpt lat="45.2479027" lon="9.0318803"><ele>88.5</ele><time>2026-05-01T07:46:37.423Z</time></trkpt><trkpt lat="45.2479382" lon="9.0317934"><ele>88.33333333333333</ele><time>2026-05-01T07:46:39.429Z</time></trkpt><trkpt lat="45.2479763" lon="9.0317038"><ele>88.16666666666666</ele><time>2026-05-01T07:46:41.419Z</time></trkpt><trkpt lat="45.2480112" lon="9.0316189"><ele>88.0</ele><time>2026-05-01T07:46:43.436Z</time></trkpt><trkpt lat="45.2480434" lon="9.0315233"><ele>88.0</ele><time>2026-05-01T07:46:45.427Z</time></trkpt><trkpt lat="45.2480818" lon="9.0314242"><ele>88.0</ele><time>2026-05-01T07:46:47.422Z</time></trkpt><trkpt lat="45.2481126" lon="9.0313259"><ele>88.0</ele><time>2026-05-01T07:46:49.428Z</time></trkpt><trkpt lat="45.2481403" lon="9.0312177"><ele>88.0</ele><time>2026-05-01T07:46:51.43Z</time></trkpt><trkpt lat="45.2481642" lon="9.0311263"><ele>88.0</ele><time>2026-05-01T07:46:53.426Z</time></trkpt><trkpt lat="45.2481963" lon="9.0310441"><ele>88.0</ele><time>2026-05-01T07:46:55.422Z</time></trkpt><trkpt lat="45.2482296" lon="9.0309601"><ele>88.0</ele><time>2026-05-01T07:46:57.427Z</time></trkpt><trkpt lat="45.24827" lon="9.0308707"><ele>88.28571428571429</ele><time>2026-05-01T07:46:59.425Z</time></trkpt><trkpt lat="45.2483117" lon="9.030791"><ele>88.57142857142857</ele><time>2026-05-01T07:47:01.488Z</time></trkpt><trkpt lat="45.2483527" lon="9.0307154"><ele>88.85714285714286</ele><time>2026-05-01T07:47:03.437Z</time></trkpt><trkpt lat="45.2483959" lon="9.0306452"><ele>89.14285714285714</ele><time>2026-05-01T07:47:05.427Z</time></trkpt><trkpt lat="45.2484404" lon="9.0305657"><ele>89.42857142857143</ele><time>2026-05-01T07:47:07.421Z</time></trkpt><trkpt lat="45.2484768" lon="9.0304842"><ele>89.71428571428571</ele><time>2026-05-01T07:47:09.425Z</time></trkpt><trkpt lat="45.2485101" lon="9.0304072"><ele>90.0</ele><time>2026-05-01T07:47:11.432Z</time></trkpt><trkpt lat="45.2485554" lon="9.0302849"><ele>90.0</ele><time>2026-05-01T07:47:14.427Z</time></trkpt><trkpt lat="45.2485867" lon="9.0301977"><ele>90.0</ele><time>2026-05-01T07:47:16.425Z</time></trkpt><trkpt lat="45.2486184" lon="9.0301115"><ele>90.0</ele><time>2026-05-01T07:47:18.419Z</time></trkpt><trkpt lat="45.248651" lon="9.0300221"><ele>90.0</ele><time>2026-05-01T07:47:20.426Z</time></trkpt><trkpt lat="45.2486795" lon="9.0299398"><ele>90.0</ele><time>2026-05-01T07:47:22.432Z</time></trkpt><trkpt lat="45.2487108" lon="9.0298514"><ele>90.0</ele><time>2026-05-01T07:47:24.429Z</time></trkpt><trkpt lat="45.2487414" lon="9.0297684"><ele>90.0</ele><time>2026-05-01T07:47:26.435Z</time></trkpt><trkpt lat="45.2487723" lon="9.0296833"><ele>90.0</ele><time>2026-05-01T07:47:28.426Z</time></trkpt><trkpt lat="45.2488049" lon="9.0295956"><ele>90.0</ele><time>2026-05-01T07:47:30.425Z</time></trkpt><trkpt lat="45.2488398" lon="9.0295052"><ele>90.0</ele><time>2026-05-01T07:47:32.427Z</time></trkpt><trkpt lat="45.248874" lon="9.0294142"><ele>90.0</ele><time>2026-05-01T07:47:34.428Z</time></trkpt><trkpt lat="45.2489031" lon="9.0293224"><ele>90.0</ele><time>2026-05-01T07:47:36.422Z</time></trkpt><trkpt lat="45.2489345" lon="9.0292329"><ele>90.0</ele><time>2026-05-01T07:47:38.424Z</time></trkpt><trkpt lat="45.2489647" lon="9.0291412"><ele>90.0</ele><time>2026-05-01T07:47:40.423Z</time></trkpt><trkpt lat="45.2490003" lon="9.029017"><ele>90.0</ele><time>2026-05-01T07:47:43.431Z</time></trkpt><trkpt lat="45.2490255" lon="9.0289288"><ele>90.0</ele><time>2026-05-01T07:47:45.429Z</time></trkpt><trkpt lat="45.2490525" lon="9.0288345"><ele>90.0</ele><time>2026-05-01T07:47:47.435Z</time></trkpt><trkpt lat="45.2490859" lon="9.0287484"><ele>90.0</ele><time>2026-05-01T07:47:49.42Z</time></trkpt><trkpt lat="45.2491197" lon="9.0286646"><ele>90.0</ele><time>2026-05-01T07:47:51.433Z</time></trkpt><trkpt lat="45.2491537" lon="9.0285734"><ele>90.0</ele><time>2026-05-01T07:47:53.429Z</time></trkpt><trkpt lat="45.2491825" lon="9.0284808"><ele>90.0</ele><time>2026-05-01T07:47:55.431Z</time></trkpt><trkpt lat="45.2492086" lon="9.0283883"><ele>90.0</ele><time>2026-05-01T07:47:57.436Z</time></trkpt><trkpt lat="45.2492468" lon="9.0283099"><ele>90.0</ele><time>2026-05-01T07:47:59.425Z</time></trkpt><trkpt lat="45.2492879" lon="9.0282018"><ele>90.0</ele><time>2026-05-01T07:48:02.426Z</time></trkpt><trkpt lat="45.24934" lon="9.0280961"><ele>90.0</ele><time>2026-05-01T07:48:05.422Z</time></trkpt><trkpt lat="45.2493962" lon="9.0279849"><ele>90.0</ele><time>2026-05-01T07:48:08.434Z</time></trkpt><trkpt lat="45.2494428" lon="9.0278737"><ele>90.0</ele><time>2026-05-01T07:48:11.428Z</time></trkpt><trkpt lat="45.2494124" lon="9.027782"><ele>89.85714285714285</ele><time>2026-05-01T07:48:15.42Z</time></trkpt><trkpt lat="45.2493214" lon="9.0277971"><ele>89.71428571428572</ele><time>2026-05-01T07:48:18.429Z</time></trkpt><trkpt lat="45.2492566" lon="9.0278099"><ele>89.57142857142857</ele><time>2026-05-01T07:48:20.43Z</time></trkpt><trkpt lat="45.2491933" lon="9.0278115"><ele>89.42857142857142</ele><time>2026-05-01T07:48:22.431Z</time></trkpt><trkpt lat="45.2491242" lon="9.0278132"><ele>89.28571428571428</ele><time>2026-05-01T07:48:24.428Z</time></trkpt><trkpt lat="45.2490583" lon="9.0278083"><ele>89.14285714285714</ele><time>2026-05-01T07:48:26.426Z</time></trkpt><trkpt lat="45.2489864" lon="9.0278093"><ele>89.0</ele><time>2026-05-01T07:48:28.498Z</time></trkpt><trkpt lat="45.2489146" lon="9.027799"><ele>88.99999999999999</ele><time>2026-05-01T07:48:30.432Z</time></trkpt><trkpt lat="45.2488469" lon="9.0277793"><ele>89.0</ele><time>2026-05-01T07:48:32.428Z</time></trkpt><trkpt lat="45.2487866" lon="9.0277499"><ele>89.0</ele><time>2026-05-01T07:48:34.424Z</time></trkpt><trkpt lat="45.2487146" lon="9.0277253"><ele>89.0</ele><time>2026-05-01T07:48:36.432Z</time></trkpt><trkpt lat="45.2486484" lon="9.0276903"><ele>89.0</ele><time>2026-05-01T07:48:38.426Z</time></trkpt><trkpt lat="45.248576" lon="9.0276565"><ele>88.99999999999999</ele><time>2026-05-01T07:48:40.423Z</time></trkpt><trkpt lat="45.2485083" lon="9.0276172"><ele>89.0</ele><time>2026-05-01T07:48:42.425Z</time></trkpt><trkpt lat="45.2484407" lon="9.027569"><ele>88.99999999999999</ele><time>2026-05-01T07:48:44.427Z</time></trkpt><trkpt lat="45.2483811" lon="9.0275209"><ele>89.0</ele><time>2026-05-01T07:48:46.425Z</time></trkpt><trkpt lat="45.2483185" lon="9.0274742"><ele>89.0</ele><time>2026-05-01T07:48:48.424Z</time></trkpt><trkpt lat="45.2482589" lon="9.0274265"><ele>89.0</ele><time>2026-05-01T07:48:50.427Z</time></trkpt><trkpt lat="45.2482026" lon="9.0273759"><ele>89.0</ele><time>2026-05-01T07:48:52.421Z</time></trkpt><trkpt lat="45.2481391" lon="9.0273238"><ele>88.99999999999999</ele><time>2026-05-01T07:48:54.425Z</time></trkpt><trkpt lat="45.2480774" lon="9.0272725"><ele>89.0</ele><time>2026-05-01T07:48:56.429Z</time></trkpt><trkpt lat="45.2480175" lon="9.0272172"><ele>88.85714285714285</ele><time>2026-05-01T07:48:58.424Z</time></trkpt><trkpt lat="45.2479544" lon="9.027164"><ele>88.71428571428571</ele><time>2026-05-01T07:49:00.424Z</time></trkpt><trkpt lat="45.2478952" lon="9.027109"><ele>88.57142857142857</ele><time>2026-05-01T07:49:02.425Z</time></trkpt><trkpt lat="45.2478279" lon="9.0270553"><ele>88.42857142857142</ele><time>2026-05-01T07:49:04.424Z</time></trkpt><trkpt lat="45.2477601" lon="9.027001"><ele>88.28571428571428</ele><time>2026-05-01T07:49:06.422Z</time></trkpt><trkpt lat="45.2476967" lon="9.0269459"><ele>88.14285714285714</ele><time>2026-05-01T07:49:08.427Z</time></trkpt><trkpt lat="45.2476381" lon="9.0268877"><ele>88.0</ele><time>2026-05-01T07:49:10.419Z</time></trkpt><trkpt lat="45.2475818" lon="9.0268277"><ele>88.0</ele><time>2026-05-01T07:49:12.422Z</time></trkpt><trkpt lat="45.2475193" lon="9.0267863"><ele>88.0</ele><time>2026-05-01T07:49:14.425Z</time></trkpt><trkpt lat="45.2474528" lon="9.0267325"><ele>88.0</ele><time>2026-05-01T07:49:16.422Z</time></trkpt><trkpt lat="45.2473865" lon="9.0266905"><ele>88.0</ele><time>2026-05-01T07:49:18.425Z</time></trkpt><trkpt lat="45.2473166" lon="9.0266498"><ele>88.0</ele><time>2026-05-01T07:49:20.425Z</time></trkpt><trkpt lat="45.2472553" lon="9.02661"><ele>88.0</ele><time>2026-05-01T07:49:22.427Z</time></trkpt><trkpt lat="45.2471879" lon="9.0265779"><ele>88.0</ele><time>2026-05-01T07:49:24.436Z</time></trkpt><trkpt lat="45.2471291" lon="9.0265356"><ele>87.42857142857143</ele><time>2026-05-01T07:49:26.424Z</time></trkpt><trkpt lat="45.2470664" lon="9.0264872"><ele>86.85714285714286</ele><time>2026-05-01T07:49:28.427Z</time></trkpt><trkpt lat="45.2470063" lon="9.0264431"><ele>86.28571428571428</ele><time>2026-05-01T07:49:30.424Z</time></trkpt><trkpt lat="45.2469381" lon="9.0264062"><ele>85.71428571428572</ele><time>2026-05-01T07:49:32.431Z</time></trkpt><trkpt lat="45.2468699" lon="9.0263975"><ele>85.14285714285714</ele><time>2026-05-01T07:49:34.419Z</time></trkpt><trkpt lat="45.2467896" lon="9.02646"><ele>84.57142857142857</ele><time>2026-05-01T07:49:37.421Z</time></trkpt><trkpt lat="45.246746" lon="9.026527"><ele>84.0</ele><time>2026-05-01T07:49:39.422Z</time></trkpt><trkpt lat="45.2467087" lon="9.0266109"><ele>84.5</ele><time>2026-05-01T07:49:41.43Z</time></trkpt><trkpt lat="45.2466845" lon="9.0267427"><ele>85.0</ele><time>2026-05-01T07:49:44.427Z</time></trkpt><trkpt lat="45.2466554" lon="9.0268762"><ele>85.5</ele><time>2026-05-01T07:49:47.42Z</time></trkpt><trkpt lat="45.2466356" lon="9.0269627"><ele>86.0</ele><time>2026-05-01T07:49:49.428Z</time></trkpt><trkpt lat="45.2466174" lon="9.0270537"><ele>86.5</ele><time>2026-05-01T07:49:51.421Z</time></trkpt><trkpt lat="45.2465993" lon="9.0271435"><ele>87.0</ele><time>2026-05-01T07:49:53.437Z</time></trkpt><trkpt lat="45.2465789" lon="9.027267"><ele>87.0</ele><time>2026-05-01T07:49:56.428Z</time></trkpt><trkpt lat="45.2465592" lon="9.0273525"><ele>87.0</ele><time>2026-05-01T07:49:58.426Z</time></trkpt><trkpt lat="45.2465428" lon="9.0274459"><ele>87.0</ele><time>2026-05-01T07:50:00.421Z</time></trkpt><trkpt lat="45.2465217" lon="9.027574"><ele>87.0</ele><time>2026-05-01T07:50:03.422Z</time></trkpt><trkpt lat="45.2465005" lon="9.0276589"><ele>87.0</ele><time>2026-05-01T07:50:05.422Z</time></trkpt><trkpt lat="45.2464843" lon="9.027751"><ele>87.0</ele><time>2026-05-01T07:50:07.436Z</time></trkpt><trkpt lat="45.2464689" lon="9.0278416"><ele>87.0</ele><time>2026-05-01T07:50:09.426Z</time></trkpt><trkpt lat="45.2464486" lon="9.0279381"><ele>86.71428571428571</ele><time>2026-05-01T07:50:11.488Z</time></trkpt><trkpt lat="45.2464223" lon="9.0280286"><ele>86.42857142857143</ele><time>2026-05-01T07:50:13.426Z</time></trkpt><trkpt lat="45.2464023" lon="9.0281194"><ele>86.14285714285714</ele><time>2026-05-01T07:50:15.424Z</time></trkpt><trkpt lat="45.2463779" lon="9.0282151"><ele>85.85714285714286</ele><time>2026-05-01T07:50:17.422Z</time></trkpt><trkpt lat="45.2463567" lon="9.0283129"><ele>85.57142857142857</ele><time>2026-05-01T07:50:19.428Z</time></trkpt><trkpt lat="45.2463358" lon="9.028406"><ele>85.28571428571429</ele><time>2026-05-01T07:50:21.43Z</time></trkpt><trkpt lat="45.2463091" lon="9.0284994"><ele>85.0</ele><time>2026-05-01T07:50:23.42Z</time></trkpt><trkpt lat="45.2462744" lon="9.0286263"><ele>84.85714285714286</ele><time>2026-05-01T07:50:26.429Z</time></trkpt><trkpt lat="45.2462525" lon="9.0287143"><ele>84.71428571428571</ele><time>2026-05-01T07:50:28.418Z</time></trkpt><trkpt lat="45.2462241" lon="9.0288149"><ele>84.57142857142857</ele><time>2026-05-01T07:50:30.421Z</time></trkpt><trkpt lat="45.2461999" lon="9.028906"><ele>84.42857142857143</ele><time>2026-05-01T07:50:32.43Z</time></trkpt><trkpt lat="45.246173" lon="9.0289926"><ele>84.28571428571428</ele><time>2026-05-01T07:50:34.42Z</time></trkpt><trkpt lat="45.2461366" lon="9.0290783"><ele>84.14285714285714</ele><time>2026-05-01T07:50:36.425Z</time></trkpt><trkpt lat="45.2461031" lon="9.0291587"><ele>84.0</ele><time>2026-05-01T07:50:38.426Z</time></trkpt><trkpt lat="45.2460593" lon="9.0292663"><ele>84.0</ele><time>2026-05-01T07:50:41.426Z</time></trkpt><trkpt lat="45.246022" lon="9.0293415"><ele>84.0</ele><time>2026-05-01T07:50:43.427Z</time></trkpt><trkpt lat="45.2459848" lon="9.0294144"><ele>84.0</ele><time>2026-05-01T07:50:45.447Z</time></trkpt><trkpt lat="45.2459188" lon="9.0294652"><ele>84.0</ele><time>2026-05-01T07:50:48.424Z</time></trkpt><trkpt lat="45.2458384" lon="9.0294401"><ele>84.0</ele><time>2026-05-01T07:50:51.422Z</time></trkpt><trkpt lat="45.2457638" lon="9.0293852"><ele>84.0</ele><time>2026-05-01T07:50:53.424Z</time></trkpt><trkpt lat="45.245674" lon="9.0293173"><ele>83.5</ele><time>2026-05-01T07:50:55.427Z</time></trkpt><trkpt lat="45.2455735" lon="9.029241"><ele>83.0</ele><time>2026-05-01T07:50:57.43Z</time></trkpt><trkpt lat="45.2454756" lon="9.0291605"><ele>82.5</ele><time>2026-05-01T07:50:59.415Z</time></trkpt><trkpt lat="45.2453812" lon="9.0290744"><ele>82.0</ele><time>2026-05-01T07:51:01.432Z</time></trkpt><trkpt lat="45.2452882" lon="9.0289883"><ele>81.8</ele><time>2026-05-01T07:51:03.43Z</time></trkpt><trkpt lat="45.2452009" lon="9.0289043"><ele>81.6</ele><time>2026-05-01T07:51:05.425Z</time></trkpt><trkpt lat="45.2451127" lon="9.0288315"><ele>81.39999999999999</ele><time>2026-05-01T07:51:07.425Z</time></trkpt><trkpt lat="45.2450355" lon="9.0287683"><ele>81.19999999999999</ele><time>2026-05-01T07:51:09.429Z</time></trkpt><trkpt lat="45.2449651" lon="9.028703"><ele>81.0</ele><time>2026-05-01T07:51:11.423Z</time></trkpt><trkpt lat="45.2449017" lon="9.0286543"><ele>81.0</ele><time>2026-05-01T07:51:13.414Z</time></trkpt><trkpt lat="45.2448287" lon="9.0285853"><ele>81.0</ele><time>2026-05-01T07:51:16.42Z</time></trkpt><trkpt lat="45.2447479" lon="9.0285137"><ele>81.0</ele><time>2026-05-01T07:51:19.429Z</time></trkpt><trkpt lat="45.2446914" lon="9.0284668"><ele>81.0</ele><time>2026-05-01T07:51:21.425Z</time></trkpt><trkpt lat="45.2446148" lon="9.0284031"><ele>81.0</ele><time>2026-05-01T07:51:24.424Z</time></trkpt><trkpt lat="45.2445351" lon="9.0283283"><ele>81.0</ele><time>2026-05-01T07:51:27.426Z</time></trkpt><trkpt lat="45.2444791" lon="9.0282767"><ele>81.0</ele><time>2026-05-01T07:51:29.426Z</time></trkpt><trkpt lat="45.2444177" lon="9.0282303"><ele>81.0</ele><time>2026-05-01T07:51:31.426Z</time></trkpt><trkpt lat="45.2443599" lon="9.0281813"><ele>81.0</ele><time>2026-05-01T07:51:33.436Z</time></trkpt><trkpt lat="45.2443024" lon="9.0281385"><ele>81.0</ele><time>2026-05-01T07:51:35.426Z</time></trkpt><trkpt lat="45.2442444" lon="9.0280939"><ele>81.0</ele><time>2026-05-01T07:51:37.421Z</time></trkpt><trkpt lat="45.2441874" lon="9.0280472"><ele>81.0</ele><time>2026-05-01T07:51:39.497Z</time></trkpt><trkpt lat="45.2441068" lon="9.0279756"><ele>81.0</ele><time>2026-05-01T07:51:42.427Z</time></trkpt><trkpt lat="45.2440508" lon="9.0279187"><ele>81.0</ele><time>2026-05-01T07:51:44.426Z</time></trkpt><trkpt lat="45.243989" lon="9.0278656"><ele>81.0</ele><time>2026-05-01T07:51:46.428Z</time></trkpt><trkpt lat="45.2439341" lon="9.0278086"><ele>81.0</ele><time>2026-05-01T07:51:48.428Z</time></trkpt><trkpt lat="45.2438725" lon="9.0277382"><ele>81.0</ele><time>2026-05-01T07:51:50.425Z</time></trkpt><trkpt lat="45.2438104" lon="9.027683"><ele>81.0</ele><time>2026-05-01T07:51:52.427Z</time></trkpt><trkpt lat="45.2437413" lon="9.0276322"><ele>81.0</ele><time>2026-05-01T07:51:54.434Z</time></trkpt><trkpt lat="45.2436678" lon="9.0275835"><ele>80.85714285714286</ele><time>2026-05-01T07:51:56.422Z</time></trkpt><trkpt lat="45.2435945" lon="9.0275527"><ele>80.71428571428571</ele><time>2026-05-01T07:51:58.427Z</time></trkpt><trkpt lat="45.2435259" lon="9.0275566"><ele>80.57142857142857</ele><time>2026-05-01T07:52:00.424Z</time></trkpt><trkpt lat="45.2434638" lon="9.0275922"><ele>80.42857142857143</ele><time>2026-05-01T07:52:02.42Z</time></trkpt><trkpt lat="45.2433972" lon="9.0276756"><ele>80.28571428571429</ele><time>2026-05-01T07:52:05.422Z</time></trkpt><trkpt lat="45.2433481" lon="9.0277399"><ele>80.14285714285714</ele><time>2026-05-01T07:52:07.424Z</time></trkpt><trkpt lat="45.243299" lon="9.0278074"><ele>80.0</ele><time>2026-05-01T07:52:09.422Z</time></trkpt><trkpt lat="45.2432505" lon="9.0278793"><ele>80.0</ele><time>2026-05-01T07:52:11.432Z</time></trkpt><trkpt lat="45.2432034" lon="9.0279519"><ele>80.0</ele><time>2026-05-01T07:52:13.42Z</time></trkpt><trkpt lat="45.2431516" lon="9.0280235"><ele>80.0</ele><time>2026-05-01T07:52:15.43Z</time></trkpt><trkpt lat="45.2430972" lon="9.0281039"><ele>80.0</ele><time>2026-05-01T07:52:17.426Z</time></trkpt><trkpt lat="45.2430505" lon="9.0281855"><ele>80.0</ele><time>2026-05-01T07:52:19.423Z</time></trkpt><trkpt lat="45.2430023" lon="9.0282682"><ele>80.0</ele><time>2026-05-01T07:52:21.422Z</time></trkpt><trkpt lat="45.2429622" lon="9.0283518"><ele>80.0</ele><time>2026-05-01T07:52:23.422Z</time></trkpt><trkpt lat="45.242926" lon="9.0284352"><ele>79.57142857142857</ele><time>2026-05-01T07:52:25.419Z</time></trkpt><trkpt lat="45.2429003" lon="9.0285175"><ele>79.14285714285714</ele><time>2026-05-01T07:52:27.416Z</time></trkpt><trkpt lat="45.2428886" lon="9.0286123"><ele>78.71428571428572</ele><time>2026-05-01T07:52:29.43Z</time></trkpt><trkpt lat="45.2428874" lon="9.0287076"><ele>78.28571428571428</ele><time>2026-05-01T07:52:31.412Z</time></trkpt><trkpt lat="45.2428952" lon="9.0287998"><ele>77.85714285714286</ele><time>2026-05-01T07:52:33.423Z</time></trkpt><trkpt lat="45.2429117" lon="9.0288973"><ele>77.42857142857143</ele><time>2026-05-01T07:52:35.428Z</time></trkpt><trkpt lat="45.2429259" lon="9.028996"><ele>77.0</ele><time>2026-05-01T07:52:37.418Z</time></trkpt><trkpt lat="45.2429303" lon="9.0290936"><ele>77.0</ele><time>2026-05-01T07:52:39.432Z</time></trkpt><trkpt lat="45.242898" lon="9.0291855"><ele>77.0</ele><time>2026-05-01T07:52:41.432Z</time></trkpt><trkpt lat="45.2428291" lon="9.0292636"><ele>77.0</ele><time>2026-05-01T07:52:44.429Z</time></trkpt><trkpt lat="45.2427702" lon="9.0293127"><ele>77.0</ele><time>2026-05-01T07:52:46.428Z</time></trkpt><trkpt lat="45.2427159" lon="9.0293743"><ele>77.0</ele><time>2026-05-01T07:52:48.425Z</time></trkpt><trkpt lat="45.2426621" lon="9.0294275"><ele>77.0</ele><time>2026-05-01T07:52:50.419Z</time></trkpt><trkpt lat="45.2426089" lon="9.0294777"><ele>77.0</ele><time>2026-05-01T07:52:52.426Z</time></trkpt><trkpt lat="45.2425377" lon="9.0295432"><ele>77.0</ele><time>2026-05-01T07:52:55.428Z</time></trkpt><trkpt lat="45.2424737" lon="9.0295881"><ele>77.0</ele><time>2026-05-01T07:52:58.416Z</time></trkpt><trkpt lat="45.2424061" lon="9.0296017"><ele>77.0</ele><time>2026-05-01T07:53:01.417Z</time></trkpt><trkpt lat="45.2423337" lon="9.0295167"><ele>77.0</ele><time>2026-05-01T07:53:04.424Z</time></trkpt><trkpt lat="45.2422689" lon="9.0294427"><ele>77.0</ele><time>2026-05-01T07:53:06.488Z</time></trkpt><trkpt lat="45.2422005" lon="9.0293438"><ele>77.0</ele><time>2026-05-01T07:53:08.444Z</time></trkpt><trkpt lat="45.2421184" lon="9.0292497"><ele>76.16666666666667</ele><time>2026-05-01T07:53:10.421Z</time></trkpt><trkpt lat="45.2420291" lon="9.0291453"><ele>75.33333333333334</ele><time>2026-05-01T07:53:12.428Z</time></trkpt><trkpt lat="45.2419334" lon="9.0290342"><ele>74.5</ele><time>2026-05-01T07:53:14.435Z</time></trkpt><trkpt lat="45.2418831" lon="9.0289683"><ele>73.66666666666667</ele><time>2026-05-01T07:53:15.425Z</time></trkpt><trkpt lat="45.2418309" lon="9.0289065"><ele>72.83333333333333</ele><time>2026-05-01T07:53:16.419Z</time></trkpt><trkpt lat="45.2417779" lon="9.0288412"><ele>72.0</ele><time>2026-05-01T07:53:17.422Z</time></trkpt><trkpt lat="45.2417275" lon="9.0287812"><ele>71.71428571428572</ele><time>2026-05-01T07:53:18.429Z</time></trkpt><trkpt lat="45.2416805" lon="9.0287157"><ele>71.42857142857143</ele><time>2026-05-01T07:53:19.483Z</time></trkpt><trkpt lat="45.2416344" lon="9.0286494"><ele>71.14285714285714</ele><time>2026-05-01T07:53:20.429Z</time></trkpt><trkpt lat="45.2415847" lon="9.028579"><ele>70.85714285714286</ele><time>2026-05-01T07:53:21.442Z</time></trkpt><trkpt lat="45.2415325" lon="9.0285076"><ele>70.57142857142857</ele><time>2026-05-01T07:53:22.422Z</time></trkpt><trkpt lat="45.2414819" lon="9.0284345"><ele>70.28571428571429</ele><time>2026-05-01T07:53:23.428Z</time></trkpt><trkpt lat="45.2414263" lon="9.0283781"><ele>70.0</ele><time>2026-05-01T07:53:24.426Z</time></trkpt><trkpt lat="45.241373" lon="9.0283179"><ele>69.33333333333333</ele><time>2026-05-01T07:53:25.429Z</time></trkpt><trkpt lat="45.2413177" lon="9.0282577"><ele>68.66666666666666</ele><time>2026-05-01T07:53:26.429Z</time></trkpt><trkpt lat="45.2412639" lon="9.0281979"><ele>68.0</ele><time>2026-05-01T07:53:27.42Z</time></trkpt><trkpt lat="45.2412149" lon="9.0281414"><ele>67.33333333333333</ele><time>2026-05-01T07:53:28.422Z</time></trkpt><trkpt lat="45.2411639" lon="9.028085"><ele>66.66666666666667</ele><time>2026-05-01T07:53:29.419Z</time></trkpt><trkpt lat="45.2411112" lon="9.028027"><ele>66.0</ele><time>2026-05-01T07:53:30.433Z</time></trkpt><trkpt lat="45.2410144" lon="9.0279217"><ele>66.0</ele><time>2026-05-01T07:53:32.418Z</time></trkpt><trkpt lat="45.2409227" lon="9.0278201"><ele>66.0</ele><time>2026-05-01T07:53:34.43Z</time></trkpt><trkpt lat="45.2408384" lon="9.0277234"><ele>66.0</ele><time>2026-05-01T07:53:36.432Z</time></trkpt><trkpt lat="45.2407627" lon="9.0276488"><ele>66.0</ele><time>2026-05-01T07:53:38.433Z</time></trkpt><trkpt lat="45.2406898" lon="9.0275799"><ele>66.0</ele><time>2026-05-01T07:53:40.427Z</time></trkpt><trkpt lat="45.2406369" lon="9.0275224"><ele>66.0</ele><time>2026-05-01T07:53:42.417Z</time></trkpt><trkpt lat="45.2405869" lon="9.0274661"><ele>66.0</ele><time>2026-05-01T07:53:44.428Z</time></trkpt><trkpt lat="45.2405291" lon="9.0274188"><ele>66.0</ele><time>2026-05-01T07:53:47.429Z</time></trkpt><trkpt lat="45.2404695" lon="9.0273694"><ele>66.0</ele><time>2026-05-01T07:53:50.424Z</time></trkpt><trkpt lat="45.2403846" lon="9.0273568"><ele>66.0</ele><time>2026-05-01T07:53:53.43Z</time></trkpt><trkpt lat="45.2403145" lon="9.0273873"><ele>66.0</ele><time>2026-05-01T07:53:56.424Z</time></trkpt><trkpt lat="45.2402883" lon="9.0274766"><ele>66.0</ele><time>2026-05-01T07:53:59.423Z</time></trkpt><trkpt lat="45.2402554" lon="9.0275854"><ele>65.83333333333333</ele><time>2026-05-01T07:54:01.426Z</time></trkpt><trkpt lat="45.2402086" lon="9.0276727"><ele>65.66666666666667</ele><time>2026-05-01T07:54:03.425Z</time></trkpt><trkpt lat="45.240166" lon="9.0277847"><ele>65.5</ele><time>2026-05-01T07:54:05.419Z</time></trkpt><trkpt lat="45.2401318" lon="9.0278744"><ele>65.33333333333334</ele><time>2026-05-01T07:54:07.427Z</time></trkpt><trkpt lat="45.2400847" lon="9.0279696"><ele>65.16666666666667</ele><time>2026-05-01T07:54:09.421Z</time></trkpt><trkpt lat="45.2400382" lon="9.0280596"><ele>65.0</ele><time>2026-05-01T07:54:11.425Z</time></trkpt><trkpt lat="45.2399917" lon="9.0281435"><ele>65.00000000000001</ele><time>2026-05-01T07:54:13.421Z</time></trkpt><trkpt lat="45.2399399" lon="9.0282182"><ele>65.0</ele><time>2026-05-01T07:54:15.423Z</time></trkpt><trkpt lat="45.2398912" lon="9.0282798"><ele>65.0</ele><time>2026-05-01T07:54:17.421Z</time></trkpt><trkpt lat="45.2398418" lon="9.0283457"><ele>65.0</ele><time>2026-05-01T07:54:19.425Z</time></trkpt><trkpt lat="45.2397885" lon="9.0284282"><ele>65.0</ele><time>2026-05-01T07:54:21.439Z</time></trkpt><trkpt lat="45.2397411" lon="9.0285098"><ele>65.00000000000001</ele><time>2026-05-01T07:54:23.499Z</time></trkpt><trkpt lat="45.2396918" lon="9.0285702"><ele>65.0</ele><time>2026-05-01T07:54:25.423Z</time></trkpt><trkpt lat="45.2396368" lon="9.0286352"><ele>65.16666666666667</ele><time>2026-05-01T07:54:27.426Z</time></trkpt><trkpt lat="45.239585" lon="9.0286996"><ele>65.33333333333334</ele><time>2026-05-01T07:54:29.423Z</time></trkpt><trkpt lat="45.2395305" lon="9.0287798"><ele>65.5</ele><time>2026-05-01T07:54:31.425Z</time></trkpt><trkpt lat="45.2394809" lon="9.0288461"><ele>65.66666666666667</ele><time>2026-05-01T07:54:33.428Z</time></trkpt><trkpt lat="45.2394297" lon="9.0289664"><ele>65.83333333333333</ele><time>2026-05-01T07:54:36.497Z</time></trkpt><trkpt lat="45.2394188" lon="9.0290797"><ele>66.0</ele><time>2026-05-01T07:54:38.427Z</time></trkpt><trkpt lat="45.2394205" lon="9.0291868"><ele>66.28571428571428</ele><time>2026-05-01T07:54:40.419Z</time></trkpt><trkpt lat="45.2393904" lon="9.0292694"><ele>66.57142857142857</ele><time>2026-05-01T07:54:42.426Z</time></trkpt><trkpt lat="45.2393502" lon="9.0293705"><ele>66.85714285714286</ele><time>2026-05-01T07:54:45.413Z</time></trkpt><trkpt lat="45.2393516" lon="9.0294629"><ele>67.14285714285714</ele><time>2026-05-01T07:54:47.426Z</time></trkpt><trkpt lat="45.2393716" lon="9.0295518"><ele>67.42857142857143</ele><time>2026-05-01T07:54:49.42Z</time></trkpt><trkpt lat="45.2393979" lon="9.0296463"><ele>67.71428571428571</ele><time>2026-05-01T07:54:51.422Z</time></trkpt><trkpt lat="45.2394209" lon="9.0297357"><ele>68.0</ele><time>2026-05-01T07:54:53.425Z</time></trkpt><trkpt lat="45.2394389" lon="9.0298332"><ele>67.99999999999999</ele><time>2026-05-01T07:54:55.424Z</time></trkpt><trkpt lat="45.2394589" lon="9.0299265"><ele>68.0</ele><time>2026-05-01T07:54:57.423Z</time></trkpt><trkpt lat="45.2394776" lon="9.0300452"><ele>68.0</ele><time>2026-05-01T07:55:00.424Z</time></trkpt><trkpt lat="45.239496" lon="9.0301384"><ele>68.0</ele><time>2026-05-01T07:55:02.484Z</time></trkpt><trkpt lat="45.2395105" lon="9.030227"><ele>68.0</ele><time>2026-05-01T07:55:04.421Z</time></trkpt><trkpt lat="45.2395314" lon="9.030324"><ele>67.99999999999999</ele><time>2026-05-01T07:55:06.427Z</time></trkpt><trkpt lat="45.2395467" lon="9.0304394"><ele>68.0</ele><time>2026-05-01T07:55:08.421Z</time></trkpt><trkpt lat="45.2395698" lon="9.0305575"><ele>69.33333333333334</ele><time>2026-05-01T07:55:10.416Z</time></trkpt><trkpt lat="45.2395792" lon="9.0306673"><ele>70.66666666666667</ele><time>2026-05-01T07:55:12.42Z</time></trkpt><trkpt lat="45.2395962" lon="9.0307787"><ele>72.0</ele><time>2026-05-01T07:55:14.426Z</time></trkpt><trkpt lat="45.2396089" lon="9.0308749"><ele>73.33333333333333</ele><time>2026-05-01T07:55:16.422Z</time></trkpt><trkpt lat="45.2396685" lon="9.0309739"><ele>74.66666666666666</ele><time>2026-05-01T07:55:19.421Z</time></trkpt><trkpt lat="45.2397252" lon="9.0310247"><ele>76.0</ele><time>2026-05-01T07:55:21.423Z</time></trkpt><trkpt lat="45.2397847" lon="9.0310832"><ele>76.85714285714285</ele><time>2026-05-01T07:55:23.43Z</time></trkpt><trkpt lat="45.2398397" lon="9.0311335"><ele>77.71428571428572</ele><time>2026-05-01T07:55:25.436Z</time></trkpt><trkpt lat="45.2398995" lon="9.0311884"><ele>78.57142857142857</ele><time>2026-05-01T07:55:27.424Z</time></trkpt><trkpt lat="45.2399589" lon="9.0312514"><ele>79.42857142857142</ele><time>2026-05-01T07:55:29.421Z</time></trkpt><trkpt lat="45.2400122" lon="9.0313142"><ele>80.28571428571428</ele><time>2026-05-01T07:55:31.424Z</time></trkpt><trkpt lat="45.240058" lon="9.0313762"><ele>81.14285714285714</ele><time>2026-05-01T07:55:33.421Z</time></trkpt><trkpt lat="45.2401061" lon="9.0314451"><ele>82.0</ele><time>2026-05-01T07:55:35.42Z</time></trkpt><trkpt lat="45.240152" lon="9.0315158"><ele>81.99999999999999</ele><time>2026-05-01T07:55:37.421Z</time></trkpt><trkpt lat="45.2401982" lon="9.0315782"><ele>82.0</ele><time>2026-05-01T07:55:39.418Z</time></trkpt><trkpt lat="45.2402634" lon="9.0316517"><ele>82.0</ele><time>2026-05-01T07:55:42.437Z</time></trkpt><trkpt lat="45.240202" lon="9.031694"><ele>82.0</ele><time>2026-05-01T07:55:48.422Z</time></trkpt><trkpt lat="45.2401419" lon="9.0316648"><ele>82.0</ele><time>2026-05-01T07:55:50.431Z</time></trkpt><trkpt lat="45.2400539" lon="9.0316296"><ele>81.99999999999999</ele><time>2026-05-01T07:55:53.422Z</time></trkpt><trkpt lat="45.239988" lon="9.031606"><ele>82.0</ele><time>2026-05-01T07:55:55.425Z</time></trkpt><trkpt lat="45.2399228" lon="9.0315748"><ele>81.99999999999999</ele><time>2026-05-01T07:55:57.425Z</time></trkpt><trkpt lat="45.2398578" lon="9.0315375"><ele>82.0</ele><time>2026-05-01T07:55:59.422Z</time></trkpt><trkpt lat="45.2398002" lon="9.0314904"><ele>82.0</ele><time>2026-05-01T07:56:01.43Z</time></trkpt><trkpt lat="45.2397427" lon="9.0314425"><ele>82.0</ele><time>2026-05-01T07:56:03.428Z</time></trkpt><trkpt lat="45.2396661" lon="9.0313733"><ele>82.0</ele><time>2026-05-01T07:56:06.423Z</time></trkpt><trkpt lat="45.2396128" lon="9.0313134"><ele>81.99999999999999</ele><time>2026-05-01T07:56:08.431Z</time></trkpt><trkpt lat="45.2395663" lon="9.0312464"><ele>82.0</ele><time>2026-05-01T07:56:10.428Z</time></trkpt><trkpt lat="45.2394948" lon="9.0311681"><ele>82.16666666666666</ele><time>2026-05-01T07:56:13.423Z</time></trkpt><trkpt lat="45.2394117" lon="9.0311054"><ele>82.33333333333333</ele><time>2026-05-01T07:56:16.425Z</time></trkpt><trkpt lat="45.2393602" lon="9.0310504"><ele>82.5</ele><time>2026-05-01T07:56:18.419Z</time></trkpt><trkpt lat="45.2392931" lon="9.0309719"><ele>82.66666666666667</ele><time>2026-05-01T07:56:21.419Z</time></trkpt><trkpt lat="45.2392135" lon="9.0310027"><ele>82.83333333333334</ele><time>2026-05-01T07:56:24.419Z</time></trkpt><trkpt lat="45.239151" lon="9.0310891"><ele>83.0</ele><time>2026-05-01T07:56:27.421Z</time></trkpt><trkpt lat="45.2391111" lon="9.0311621"><ele>83.0</ele><time>2026-05-01T07:56:29.414Z</time></trkpt><trkpt lat="45.2390673" lon="9.0312298"><ele>83.0</ele><time>2026-05-01T07:56:31.49Z</time></trkpt><trkpt lat="45.2390201" lon="9.0313063"><ele>83.0</ele><time>2026-05-01T07:56:33.428Z</time></trkpt><trkpt lat="45.2389732" lon="9.0313755"><ele>83.0</ele><time>2026-05-01T07:56:35.416Z</time></trkpt><trkpt lat="45.2389255" lon="9.0314443"><ele>83.0</ele><time>2026-05-01T07:56:37.418Z</time></trkpt><trkpt lat="45.2388803" lon="9.0315122"><ele>83.0</ele><time>2026-05-01T07:56:39.419Z</time></trkpt><trkpt lat="45.2388273" lon="9.0315793"><ele>83.0</ele><time>2026-05-01T07:56:41.414Z</time></trkpt><trkpt lat="45.2387788" lon="9.031651"><ele>81.85714285714285</ele><time>2026-05-01T07:56:43.424Z</time></trkpt><trkpt lat="45.2387338" lon="9.0317357"><ele>80.71428571428572</ele><time>2026-05-01T07:56:45.437Z</time></trkpt><trkpt lat="45.2386908" lon="9.0318102"><ele>79.57142857142857</ele><time>2026-05-01T07:56:47.424Z</time></trkpt><trkpt lat="45.2386506" lon="9.0318846"><ele>78.42857142857142</ele><time>2026-05-01T07:56:49.423Z</time></trkpt><trkpt lat="45.2386206" lon="9.0319661"><ele>77.28571428571428</ele><time>2026-05-01T07:56:51.42Z</time></trkpt><trkpt lat="45.2386142" lon="9.0320613"><ele>76.14285714285714</ele><time>2026-05-01T07:56:53.422Z</time></trkpt><trkpt lat="45.2386173" lon="9.0321566"><ele>75.0</ele><time>2026-05-01T07:56:55.426Z</time></trkpt><trkpt lat="45.2386179" lon="9.0322528"><ele>75.0</ele><time>2026-05-01T07:56:57.422Z</time></trkpt><trkpt lat="45.2386081" lon="9.0323826"><ele>75.0</ele><time>2026-05-01T07:57:00.422Z</time></trkpt><trkpt lat="45.2386131" lon="9.0325131"><ele>75.0</ele><time>2026-05-01T07:57:03.423Z</time></trkpt><trkpt lat="45.2386157" lon="9.0326049"><ele>75.0</ele><time>2026-05-01T07:57:05.422Z</time></trkpt><trkpt lat="45.2386385" lon="9.0326951"><ele>75.0</ele><time>2026-05-01T07:57:07.427Z</time></trkpt><trkpt lat="45.2386757" lon="9.0327976"><ele>75.0</ele><time>2026-05-01T07:57:10.427Z</time></trkpt><trkpt lat="45.238742" lon="9.0328792"><ele>74.71428571428571</ele><time>2026-05-01T07:57:13.433Z</time></trkpt><trkpt lat="45.2388117" lon="9.0328963"><ele>74.42857142857143</ele><time>2026-05-01T07:57:15.426Z</time></trkpt><trkpt lat="45.2388849" lon="9.0328917"><ele>74.14285714285714</ele><time>2026-05-01T07:57:17.411Z</time></trkpt><trkpt lat="45.2389521" lon="9.0328834"><ele>73.85714285714286</ele><time>2026-05-01T07:57:19.424Z</time></trkpt><trkpt lat="45.2390202" lon="9.0328873"><ele>73.57142857142857</ele><time>2026-05-01T07:57:21.424Z</time></trkpt><trkpt lat="45.2390865" lon="9.0329077"><ele>73.28571428571428</ele><time>2026-05-01T07:57:23.49Z</time></trkpt><trkpt lat="45.2391385" lon="9.0329897"><ele>73.0</ele><time>2026-05-01T07:57:25.501Z</time></trkpt><trkpt lat="45.2391658" lon="9.033103"><ele>72.83333333333333</ele><time>2026-05-01T07:57:28.418Z</time></trkpt><trkpt lat="45.239159" lon="9.0332367"><ele>72.66666666666666</ele><time>2026-05-01T07:57:31.42Z</time></trkpt><trkpt lat="45.2391357" lon="9.0333254"><ele>72.5</ele><time>2026-05-01T07:57:33.422Z</time></trkpt><trkpt lat="45.2390695" lon="9.0334261"><ele>72.33333333333333</ele><time>2026-05-01T07:57:36.429Z</time></trkpt><trkpt lat="45.2390207" lon="9.0334889"><ele>72.16666666666667</ele><time>2026-05-01T07:57:38.419Z</time></trkpt><trkpt lat="45.2389681" lon="9.0335384"><ele>72.0</ele><time>2026-05-01T07:57:40.429Z</time></trkpt><trkpt lat="45.2389291" lon="9.0336122"><ele>72.00000000000001</ele><time>2026-05-01T07:57:42.426Z</time></trkpt><trkpt lat="45.2389035" lon="9.0336962"><ele>72.0</ele><time>2026-05-01T07:57:44.421Z</time></trkpt><trkpt lat="45.2388839" lon="9.0337991"><ele>72.0</ele><time>2026-05-01T07:57:46.433Z</time></trkpt><trkpt lat="45.238871" lon="9.0338981"><ele>72.0</ele><time>2026-05-01T07:57:48.428Z</time></trkpt><trkpt lat="45.2388639" lon="9.0339922"><ele>72.0</ele><time>2026-05-01T07:57:50.483Z</time></trkpt><trkpt lat="45.238871" lon="9.0340862"><ele>72.00000000000001</ele><time>2026-05-01T07:57:52.421Z</time></trkpt><trkpt lat="45.2388905" lon="9.0341808"><ele>72.0</ele><time>2026-05-01T07:57:54.423Z</time></trkpt><trkpt lat="45.2389151" lon="9.0342643"><ele>72.14285714285715</ele><time>2026-05-01T07:57:56.428Z</time></trkpt><trkpt lat="45.2389562" lon="9.0343343"><ele>72.28571428571429</ele><time>2026-05-01T07:57:58.427Z</time></trkpt><trkpt lat="45.23901" lon="9.0344027"><ele>72.42857142857143</ele><time>2026-05-01T07:58:00.428Z</time></trkpt><trkpt lat="45.2390694" lon="9.0344722"><ele>72.57142857142858</ele><time>2026-05-01T07:58:02.422Z</time></trkpt><trkpt lat="45.2391233" lon="9.0345394"><ele>72.71428571428572</ele><time>2026-05-01T07:58:04.424Z</time></trkpt><trkpt lat="45.2391725" lon="9.0346075"><ele>72.85714285714286</ele><time>2026-05-01T07:58:06.43Z</time></trkpt><trkpt lat="45.2392263" lon="9.0346823"><ele>73.0</ele><time>2026-05-01T07:58:08.43Z</time></trkpt><trkpt lat="45.2392724" lon="9.0347462"><ele>74.14285714285714</ele><time>2026-05-01T07:58:10.427Z</time></trkpt><trkpt lat="45.2393333" lon="9.0348075"><ele>75.28571428571429</ele><time>2026-05-01T07:58:12.424Z</time></trkpt><trkpt lat="45.2393923" lon="9.0348604"><ele>76.42857142857143</ele><time>2026-05-01T07:58:14.417Z</time></trkpt><trkpt lat="45.2394495" lon="9.0349036"><ele>77.57142857142857</ele><time>2026-05-01T07:58:16.426Z</time></trkpt><trkpt lat="45.2395282" lon="9.0349521"><ele>78.71428571428571</ele><time>2026-05-01T07:58:19.417Z</time></trkpt><trkpt lat="45.2395863" lon="9.0349904"><ele>79.85714285714286</ele><time>2026-05-01T07:58:21.434Z</time></trkpt><trkpt lat="45.2396508" lon="9.0350234"><ele>81.0</ele><time>2026-05-01T07:58:23.427Z</time></trkpt><trkpt lat="45.2397097" lon="9.0350574"><ele>81.0</ele><time>2026-05-01T07:58:25.427Z</time></trkpt><trkpt lat="45.2397885" lon="9.0350962"><ele>81.0</ele><time>2026-05-01T07:58:28.426Z</time></trkpt><trkpt lat="45.2398547" lon="9.0351348"><ele>81.0</ele><time>2026-05-01T07:58:31.418Z</time></trkpt><trkpt lat="45.2397919" lon="9.0351947"><ele>81.0</ele><time>2026-05-01T07:58:38.419Z</time></trkpt><trkpt lat="45.2397029" lon="9.0351548"><ele>81.0</ele><time>2026-05-01T07:58:41.433Z</time></trkpt><trkpt lat="45.2396269" lon="9.0351355"><ele>81.0</ele><time>2026-05-01T07:58:43.425Z</time></trkpt><trkpt lat="45.2395319" lon="9.0351126"><ele>81.0</ele><time>2026-05-01T07:58:45.419Z</time></trkpt><trkpt lat="45.239426" lon="9.0350785"><ele>81.0</ele><time>2026-05-01T07:58:47.427Z</time></trkpt><trkpt lat="45.2393329" lon="9.0350357"><ele>81.0</ele><time>2026-05-01T07:58:49.427Z</time></trkpt><trkpt lat="45.2392511" lon="9.0349977"><ele>81.0</ele><time>2026-05-01T07:58:51.429Z</time></trkpt><trkpt lat="45.2391572" lon="9.0349721"><ele>81.0</ele><time>2026-05-01T07:58:53.495Z</time></trkpt><trkpt lat="45.2390425" lon="9.0349475"><ele>79.39999999999999</ele><time>2026-05-01T07:58:55.503Z</time></trkpt><trkpt lat="45.2389297" lon="9.0349209"><ele>77.8</ele><time>2026-05-01T07:58:57.419Z</time></trkpt><trkpt lat="45.2388105" lon="9.0348996"><ele>76.19999999999999</ele><time>2026-05-01T07:58:59.424Z</time></trkpt><trkpt lat="45.238725" lon="9.0348566"><ele>74.6</ele><time>2026-05-01T07:59:01.426Z</time></trkpt><trkpt lat="45.238648" lon="9.0348487"><ele>73.0</ele><time>2026-05-01T07:59:03.427Z</time></trkpt><trkpt lat="45.2385729" lon="9.0347927"><ele>73.0</ele><time>2026-05-01T07:59:06.493Z</time></trkpt><trkpt lat="45.2385157" lon="9.0347308"><ele>73.0</ele><time>2026-05-01T07:59:09.425Z</time></trkpt><trkpt lat="45.2384432" lon="9.0347526"><ele>73.0</ele><time>2026-05-01T07:59:13.425Z</time></trkpt><trkpt lat="45.2383654" lon="9.0347784"><ele>73.0</ele><time>2026-05-01T07:59:16.421Z</time></trkpt><trkpt lat="45.2382816" lon="9.0347324"><ele>73.0</ele><time>2026-05-01T07:59:19.423Z</time></trkpt><trkpt lat="45.2381917" lon="9.0346968"><ele>73.0</ele><time>2026-05-01T07:59:22.42Z</time></trkpt><trkpt lat="45.23812" lon="9.0346917"><ele>72.42857142857143</ele><time>2026-05-01T07:59:24.427Z</time></trkpt><trkpt lat="45.2380599" lon="9.0346568"><ele>71.85714285714286</ele><time>2026-05-01T07:59:26.423Z</time></trkpt><trkpt lat="45.2379948" lon="9.0346222"><ele>71.28571428571429</ele><time>2026-05-01T07:59:28.423Z</time></trkpt><trkpt lat="45.2379119" lon="9.0345885"><ele>70.71428571428572</ele><time>2026-05-01T07:59:31.424Z</time></trkpt><trkpt lat="45.2378448" lon="9.0345639"><ele>70.14285714285715</ele><time>2026-05-01T07:59:33.428Z</time></trkpt><trkpt lat="45.2377808" lon="9.0345449"><ele>69.57142857142857</ele><time>2026-05-01T07:59:35.421Z</time></trkpt><trkpt lat="45.2377166" lon="9.0345195"><ele>69.0</ele><time>2026-05-01T07:59:37.428Z</time></trkpt><trkpt lat="45.2376342" lon="9.034477"><ele>69.0</ele><time>2026-05-01T07:59:40.422Z</time></trkpt><trkpt lat="45.2375482" lon="9.0344508"><ele>69.0</ele><time>2026-05-01T07:59:43.421Z</time></trkpt><trkpt lat="45.2374821" lon="9.034432"><ele>69.0</ele><time>2026-05-01T07:59:45.425Z</time></trkpt><trkpt lat="45.2374176" lon="9.0344265"><ele>69.0</ele><time>2026-05-01T07:59:47.506Z</time></trkpt><trkpt lat="45.2373523" lon="9.0343966"><ele>69.0</ele><time>2026-05-01T07:59:49.426Z</time></trkpt><trkpt lat="45.237281" lon="9.0343746"><ele>69.0</ele><time>2026-05-01T07:59:51.424Z</time></trkpt><trkpt lat="45.2372167" lon="9.0343586"><ele>69.0</ele><time>2026-05-01T07:59:53.426Z</time></trkpt><trkpt lat="45.2371541" lon="9.0343125"><ele>69.0</ele><time>2026-05-01T07:59:55.425Z</time></trkpt><trkpt lat="45.2370817" lon="9.034248"><ele>69.0</ele><time>2026-05-01T07:59:58.433Z</time></trkpt><trkpt lat="45.2370161" lon="9.034206"><ele>69.0</ele><time>2026-05-01T08:00:00.503Z</time></trkpt><trkpt lat="45.2369347" lon="9.0341631"><ele>69.0</ele><time>2026-05-01T08:00:03.429Z</time></trkpt><trkpt lat="45.2368596" lon="9.0341842"><ele>69.0</ele><time>2026-05-01T08:00:06.43Z</time></trkpt><trkpt lat="45.2368028" lon="9.0342526"><ele>69.0</ele><time>2026-05-01T08:00:09.423Z</time></trkpt><trkpt lat="45.2367579" lon="9.0343281"><ele>69.0</ele><time>2026-05-01T08:00:12.431Z</time></trkpt><trkpt lat="45.236633" lon="9.0342415"><ele>69.0</ele><time>2026-05-01T08:00:15.422Z</time></trkpt><trkpt lat="45.2365665" lon="9.0341145"><ele>69.0</ele><time>2026-05-01T08:00:16.416Z</time></trkpt><trkpt lat="45.2364764" lon="9.0339247"><ele>69.0</ele><time>2026-05-01T08:00:17.43Z</time></trkpt><trkpt lat="45.2363604" lon="9.0337331"><ele>68.2</ele><time>2026-05-01T08:00:18.419Z</time></trkpt><trkpt lat="45.2363029" lon="9.0335694"><ele>67.4</ele><time>2026-05-01T08:00:19.411Z</time></trkpt><trkpt lat="45.2362287" lon="9.033445"><ele>66.6</ele><time>2026-05-01T08:00:20.412Z</time></trkpt><trkpt lat="45.2361842" lon="9.033374"><ele>65.8</ele><time>2026-05-01T08:00:21.42Z</time></trkpt><trkpt lat="45.2362443" lon="9.0334376"><ele>65.0</ele><time>2026-05-01T08:00:24.43Z</time></trkpt><trkpt lat="45.2364125" lon="9.0337311"><ele>65.0</ele><time>2026-05-01T08:00:25.424Z</time></trkpt><trkpt lat="45.2364449" lon="9.0339688"><ele>65.0</ele><time>2026-05-01T08:00:26.418Z</time></trkpt><trkpt lat="45.2364254" lon="9.0341583"><ele>65.0</ele><time>2026-05-01T08:00:27.421Z</time></trkpt><trkpt lat="45.2363982" lon="9.0342805"><ele>65.0</ele><time>2026-05-01T08:00:28.429Z</time></trkpt><trkpt lat="45.2363835" lon="9.0345427"><ele>65.33333333333334</ele><time>2026-05-01T08:00:29.423Z</time></trkpt><trkpt lat="45.2363064" lon="9.0346326"><ele>65.66666666666667</ele><time>2026-05-01T08:00:31.428Z</time></trkpt><trkpt lat="45.2362359" lon="9.034661"><ele>66.0</ele><time>2026-05-01T08:00:33.424Z</time></trkpt><trkpt lat="45.2361767" lon="9.0346062"><ele>66.33333333333333</ele><time>2026-05-01T08:00:36.427Z</time></trkpt><trkpt lat="45.2361103" lon="9.0345358"><ele>66.66666666666666</ele><time>2026-05-01T08:00:39.497Z</time></trkpt><trkpt lat="45.236054" lon="9.0344914"><ele>67.0</ele><time>2026-05-01T08:00:41.434Z</time></trkpt><trkpt lat="45.2360048" lon="9.0344329"><ele>67.0</ele><time>2026-05-01T08:00:43.492Z</time></trkpt><trkpt lat="45.2359405" lon="9.0343858"><ele>67.0</ele><time>2026-05-01T08:00:45.437Z</time></trkpt><trkpt lat="45.235872" lon="9.0343259"><ele>67.0</ele><time>2026-05-01T08:00:47.427Z</time></trkpt><trkpt lat="45.2358069" lon="9.0342835"><ele>67.0</ele><time>2026-05-01T08:00:49.424Z</time></trkpt><trkpt lat="45.2357257" lon="9.0342123"><ele>67.0</ele><time>2026-05-01T08:00:52.428Z</time></trkpt><trkpt lat="45.2356652" lon="9.0341545"><ele>67.0</ele><time>2026-05-01T08:00:54.434Z</time></trkpt><trkpt lat="45.2356184" lon="9.0340946"><ele>66.85714285714286</ele><time>2026-05-01T08:00:56.429Z</time></trkpt><trkpt lat="45.2355515" lon="9.0340385"><ele>66.71428571428571</ele><time>2026-05-01T08:00:58.419Z</time></trkpt><trkpt lat="45.2354913" lon="9.0339789"><ele>66.57142857142857</ele><time>2026-05-01T08:01:00.417Z</time></trkpt><trkpt lat="45.2354201" lon="9.0339217"><ele>66.42857142857143</ele><time>2026-05-01T08:01:02.425Z</time></trkpt><trkpt lat="45.2353508" lon="9.0338722"><ele>66.28571428571429</ele><time>2026-05-01T08:01:04.427Z</time></trkpt><trkpt lat="45.2352915" lon="9.033834"><ele>66.14285714285714</ele><time>2026-05-01T08:01:06.42Z</time></trkpt><trkpt lat="45.2352265" lon="9.0337898"><ele>66.0</ele><time>2026-05-01T08:01:08.422Z</time></trkpt><trkpt lat="45.2351544" lon="9.0337422"><ele>66.0</ele><time>2026-05-01T08:01:10.422Z</time></trkpt><trkpt lat="45.2350842" lon="9.0336919"><ele>66.0</ele><time>2026-05-01T08:01:12.433Z</time></trkpt><trkpt lat="45.2350162" lon="9.0336412"><ele>66.0</ele><time>2026-05-01T08:01:14.421Z</time></trkpt><trkpt lat="45.2349535" lon="9.0335894"><ele>66.0</ele><time>2026-05-01T08:01:16.488Z</time></trkpt><trkpt lat="45.2348835" lon="9.0335382"><ele>66.0</ele><time>2026-05-01T08:01:18.436Z</time></trkpt><trkpt lat="45.2348118" lon="9.0334992"><ele>66.0</ele><time>2026-05-01T08:01:20.422Z</time></trkpt><trkpt lat="45.2347439" lon="9.033447"><ele>66.14285714285714</ele><time>2026-05-01T08:01:22.427Z</time></trkpt><trkpt lat="45.2346803" lon="9.0333949"><ele>66.28571428571429</ele><time>2026-05-01T08:01:24.424Z</time></trkpt><trkpt lat="45.2346164" lon="9.0333433"><ele>66.42857142857143</ele><time>2026-05-01T08:01:26.423Z</time></trkpt><trkpt lat="45.2345463" lon="9.033288"><ele>66.57142857142857</ele><time>2026-05-01T08:01:28.431Z</time></trkpt><trkpt lat="45.2344807" lon="9.033232"><ele>66.71428571428571</ele><time>2026-05-01T08:01:30.422Z</time></trkpt><trkpt lat="45.2344197" lon="9.0331777"><ele>66.85714285714286</ele><time>2026-05-01T08:01:32.422Z</time></trkpt><trkpt lat="45.2343643" lon="9.0331215"><ele>67.0</ele><time>2026-05-01T08:01:34.415Z</time></trkpt><trkpt lat="45.2343135" lon="9.0330632"><ele>67.0</ele><time>2026-05-01T08:01:36.422Z</time></trkpt><trkpt lat="45.2342563" lon="9.033005"><ele>67.0</ele><time>2026-05-01T08:01:38.418Z</time></trkpt><trkpt lat="45.2341977" lon="9.0329512"><ele>67.0</ele><time>2026-05-01T08:01:40.421Z</time></trkpt><trkpt lat="45.2341307" lon="9.0328949"><ele>67.0</ele><time>2026-05-01T08:01:42.504Z</time></trkpt><trkpt lat="45.2340663" lon="9.0328415"><ele>67.0</ele><time>2026-05-01T08:01:44.431Z</time></trkpt><trkpt lat="45.2340031" lon="9.0327913"><ele>67.0</ele><time>2026-05-01T08:01:46.418Z</time></trkpt><trkpt lat="45.233938" lon="9.0327368"><ele>67.0</ele><time>2026-05-01T08:01:48.423Z</time></trkpt><trkpt lat="45.2338745" lon="9.0326796"><ele>66.71428571428572</ele><time>2026-05-01T08:01:50.42Z</time></trkpt><trkpt lat="45.2338157" lon="9.0326323"><ele>66.42857142857143</ele><time>2026-05-01T08:01:52.418Z</time></trkpt><trkpt lat="45.2337525" lon="9.0325759"><ele>66.14285714285714</ele><time>2026-05-01T08:01:54.413Z</time></trkpt><trkpt lat="45.2336862" lon="9.0325301"><ele>65.85714285714286</ele><time>2026-05-01T08:01:56.49Z</time></trkpt><trkpt lat="45.2336309" lon="9.0324721"><ele>65.57142857142857</ele><time>2026-05-01T08:01:58.436Z</time></trkpt><trkpt lat="45.2335666" lon="9.0324143"><ele>65.28571428571429</ele><time>2026-05-01T08:02:00.424Z</time></trkpt><trkpt lat="45.2335023" lon="9.032362"><ele>65.0</ele><time>2026-05-01T08:02:02.424Z</time></trkpt><trkpt lat="45.233447" lon="9.0323078"><ele>65.0</ele><time>2026-05-01T08:02:04.426Z</time></trkpt><trkpt lat="45.2333881" lon="9.0322539"><ele>65.0</ele><time>2026-05-01T08:02:06.423Z</time></trkpt><trkpt lat="45.2333078" lon="9.0321741"><ele>65.0</ele><time>2026-05-01T08:02:09.422Z</time></trkpt><trkpt lat="45.2332474" lon="9.0321353"><ele>65.0</ele><time>2026-05-01T08:02:11.425Z</time></trkpt><trkpt lat="45.2331908" lon="9.0320865"><ele>65.0</ele><time>2026-05-01T08:02:13.424Z</time></trkpt><trkpt lat="45.2331334" lon="9.0320322"><ele>65.0</ele><time>2026-05-01T08:02:15.432Z</time></trkpt><trkpt lat="45.2330514" lon="9.0319638"><ele>65.00000000000001</ele><time>2026-05-01T08:02:18.423Z</time></trkpt><trkpt lat="45.232992" lon="9.0318996"><ele>65.0</ele><time>2026-05-01T08:02:20.489Z</time></trkpt><trkpt lat="45.2329396" lon="9.0318344"><ele>65.0</ele><time>2026-05-01T08:02:22.428Z</time></trkpt><trkpt lat="45.2328745" lon="9.0317891"><ele>65.0</ele><time>2026-05-01T08:02:24.418Z</time></trkpt><trkpt lat="45.2328164" lon="9.0317484"><ele>65.0</ele><time>2026-05-01T08:02:26.422Z</time></trkpt><trkpt lat="45.2327508" lon="9.0317096"><ele>65.00000000000001</ele><time>2026-05-01T08:02:28.437Z</time></trkpt><trkpt lat="45.232694" lon="9.0316619"><ele>65.0</ele><time>2026-05-01T08:02:30.428Z</time></trkpt><trkpt lat="45.23263" lon="9.0316023"><ele>65.00000000000001</ele><time>2026-05-01T08:02:32.421Z</time></trkpt><trkpt lat="45.2325629" lon="9.0315497"><ele>65.0</ele><time>2026-05-01T08:02:34.42Z</time></trkpt><trkpt lat="45.2325011" lon="9.0314895"><ele>65.0</ele><time>2026-05-01T08:02:36.423Z</time></trkpt><trkpt lat="45.2324239" lon="9.0314259"><ele>65.0</ele><time>2026-05-01T08:02:39.424Z</time></trkpt><trkpt lat="45.232365" lon="9.0313873"><ele>65.0</ele><time>2026-05-01T08:02:41.43Z</time></trkpt><trkpt lat="45.2323016" lon="9.0313464"><ele>65.00000000000001</ele><time>2026-05-01T08:02:43.425Z</time></trkpt><trkpt lat="45.2322369" lon="9.0313004"><ele>65.0</ele><time>2026-05-01T08:02:45.421Z</time></trkpt><trkpt lat="45.2321552" lon="9.0312418"><ele>65.00000000000001</ele><time>2026-05-01T08:02:48.427Z</time></trkpt><trkpt lat="45.2320946" lon="9.0312148"><ele>65.0</ele><time>2026-05-01T08:02:50.426Z</time></trkpt><trkpt lat="45.232027" lon="9.0311663"><ele>65.0</ele><time>2026-05-01T08:02:53.432Z</time></trkpt><trkpt lat="45.2319435" lon="9.0311461"><ele>65.0</ele><time>2026-05-01T08:02:56.42Z</time></trkpt><trkpt lat="45.2318643" lon="9.0311262"><ele>65.0</ele><time>2026-05-01T08:02:59.419Z</time></trkpt><trkpt lat="45.2317937" lon="9.0311183"><ele>65.00000000000001</ele><time>2026-05-01T08:03:01.427Z</time></trkpt><trkpt lat="45.2317303" lon="9.0310975"><ele>65.0</ele><time>2026-05-01T08:03:03.432Z</time></trkpt><trkpt lat="45.2316477" lon="9.0310603"><ele>65.0</ele><time>2026-05-01T08:03:06.43Z</time></trkpt><trkpt lat="45.2315587" lon="9.0310259"><ele>65.0</ele><time>2026-05-01T08:03:09.42Z</time></trkpt><trkpt lat="45.2314686" lon="9.0309908"><ele>65.0</ele><time>2026-05-01T08:03:12.509Z</time></trkpt><trkpt lat="45.2313869" lon="9.0309595"><ele>65.0</ele><time>2026-05-01T08:03:15.423Z</time></trkpt><trkpt lat="45.2313221" lon="9.0309466"><ele>65.0</ele><time>2026-05-01T08:03:17.425Z</time></trkpt><trkpt lat="45.2312263" lon="9.0309526"><ele>65.0</ele><time>2026-05-01T08:03:20.421Z</time></trkpt><trkpt lat="45.2311636" lon="9.0309923"><ele>65.28571428571429</ele><time>2026-05-01T08:03:22.417Z</time></trkpt><trkpt lat="45.2310892" lon="9.0310639"><ele>65.57142857142857</ele><time>2026-05-01T08:03:25.426Z</time></trkpt><trkpt lat="45.2310396" lon="9.0311238"><ele>65.85714285714286</ele><time>2026-05-01T08:03:27.422Z</time></trkpt><trkpt lat="45.230986" lon="9.0311961"><ele>66.14285714285714</ele><time>2026-05-01T08:03:29.425Z</time></trkpt><trkpt lat="45.2309391" lon="9.031263"><ele>66.42857142857143</ele><time>2026-05-01T08:03:31.425Z</time></trkpt><trkpt lat="45.2308889" lon="9.0313381"><ele>66.71428571428572</ele><time>2026-05-01T08:03:33.424Z</time></trkpt><trkpt lat="45.2308519" lon="9.0314239"><ele>67.0</ele><time>2026-05-01T08:03:35.432Z</time></trkpt><trkpt lat="45.2308359" lon="9.0315132"><ele>67.0</ele><time>2026-05-01T08:03:37.426Z</time></trkpt><trkpt lat="45.2308083" lon="9.0316338"><ele>67.0</ele><time>2026-05-01T08:03:40.43Z</time></trkpt><trkpt lat="45.230763" lon="9.03171"><ele>67.0</ele><time>2026-05-01T08:03:43.418Z</time></trkpt><trkpt lat="45.2307038" lon="9.0317916"><ele>67.0</ele><time>2026-05-01T08:03:46.427Z</time></trkpt><trkpt lat="45.230644" lon="9.0318379"><ele>67.0</ele><time>2026-05-01T08:03:48.425Z</time></trkpt><trkpt lat="45.2305631" lon="9.0318946"><ele>67.0</ele><time>2026-05-01T08:03:51.423Z</time></trkpt><trkpt lat="45.2304847" lon="9.0319375"><ele>66.83333333333333</ele><time>2026-05-01T08:03:54.433Z</time></trkpt><trkpt lat="45.2304049" lon="9.0319861"><ele>66.66666666666666</ele><time>2026-05-01T08:03:57.425Z</time></trkpt><trkpt lat="45.230345" lon="9.0320321"><ele>66.5</ele><time>2026-05-01T08:03:59.434Z</time></trkpt><trkpt lat="45.2302848" lon="9.0320898"><ele>66.33333333333333</ele><time>2026-05-01T08:04:01.423Z</time></trkpt><trkpt lat="45.2302194" lon="9.0321457"><ele>66.16666666666667</ele><time>2026-05-01T08:04:03.419Z</time></trkpt><trkpt lat="45.230156" lon="9.0322064"><ele>66.0</ele><time>2026-05-01T08:04:05.414Z</time></trkpt><trkpt lat="45.2300772" lon="9.0322677"><ele>66.0</ele><time>2026-05-01T08:04:08.424Z</time></trkpt><trkpt lat="45.229997" lon="9.0323028"><ele>66.0</ele><time>2026-05-01T08:04:11.419Z</time></trkpt><trkpt lat="45.2299004" lon="9.0323314"><ele>66.0</ele><time>2026-05-01T08:04:14.423Z</time></trkpt><trkpt lat="45.2298281" lon="9.032363"><ele>66.0</ele><time>2026-05-01T08:04:16.423Z</time></trkpt><trkpt lat="45.2297501" lon="9.0324174"><ele>66.0</ele><time>2026-05-01T08:04:18.417Z</time></trkpt><trkpt lat="45.229691" lon="9.0324731"><ele>66.0</ele><time>2026-05-01T08:04:20.427Z</time></trkpt><trkpt lat="45.2296353" lon="9.0325171"><ele>65.83333333333333</ele><time>2026-05-01T08:04:22.422Z</time></trkpt><trkpt lat="45.2295722" lon="9.0326026"><ele>65.66666666666667</ele><time>2026-05-01T08:04:25.424Z</time></trkpt><trkpt lat="45.2294971" lon="9.0326927"><ele>65.5</ele><time>2026-05-01T08:04:28.427Z</time></trkpt><trkpt lat="45.229447" lon="9.032779"><ele>65.33333333333334</ele><time>2026-05-01T08:04:30.499Z</time></trkpt><trkpt lat="45.2294038" lon="9.0328776"><ele>65.16666666666667</ele><time>2026-05-01T08:04:32.491Z</time></trkpt><trkpt lat="45.2293546" lon="9.0329888"><ele>65.0</ele><time>2026-05-01T08:04:34.424Z</time></trkpt><trkpt lat="45.2293061" lon="9.0330657"><ele>65.0</ele><time>2026-05-01T08:04:36.425Z</time></trkpt><trkpt lat="45.2292339" lon="9.0331441"><ele>65.0</ele><time>2026-05-01T08:04:38.426Z</time></trkpt><trkpt lat="45.2291675" lon="9.0331915"><ele>65.0</ele><time>2026-05-01T08:04:40.432Z</time></trkpt><trkpt lat="45.2291015" lon="9.03324"><ele>65.0</ele><time>2026-05-01T08:04:42.422Z</time></trkpt><trkpt lat="45.2290319" lon="9.0333209"><ele>65.0</ele><time>2026-05-01T08:04:45.504Z</time></trkpt><trkpt lat="45.2289759" lon="9.0334195"><ele>65.0</ele><time>2026-05-01T08:04:48.427Z</time></trkpt><trkpt lat="45.2289339" lon="9.0334881"><ele>65.0</ele><time>2026-05-01T08:04:51.42Z</time></trkpt><trkpt lat="45.2288687" lon="9.0335645"><ele>65.0</ele><time>2026-05-01T08:04:54.412Z</time></trkpt><trkpt lat="45.228802" lon="9.033644"><ele>65.0</ele><time>2026-05-01T08:04:57.421Z</time></trkpt><trkpt lat="45.2287578" lon="9.0337085"><ele>65.0</ele><time>2026-05-01T08:04:59.428Z</time></trkpt><trkpt lat="45.2287146" lon="9.0337777"><ele>65.0</ele><time>2026-05-01T08:05:01.427Z</time></trkpt><trkpt lat="45.2286539" lon="9.0338609"><ele>65.0</ele><time>2026-05-01T08:05:03.422Z</time></trkpt><trkpt lat="45.2286078" lon="9.0339355"><ele>65.0</ele><time>2026-05-01T08:05:05.424Z</time></trkpt><trkpt lat="45.2285503" lon="9.0340033"><ele>65.0</ele><time>2026-05-01T08:05:07.422Z</time></trkpt><trkpt lat="45.2284973" lon="9.0340771"><ele>65.0</ele><time>2026-05-01T08:05:09.423Z</time></trkpt><trkpt lat="45.2284323" lon="9.0341563"><ele>65.0</ele><time>2026-05-01T08:05:11.492Z</time></trkpt><trkpt lat="45.2283687" lon="9.0342379"><ele>65.0</ele><time>2026-05-01T08:05:13.424Z</time></trkpt><trkpt lat="45.228314" lon="9.0343136"><ele>65.0</ele><time>2026-05-01T08:05:15.422Z</time></trkpt><trkpt lat="45.2282696" lon="9.0343843"><ele>64.85714285714286</ele><time>2026-05-01T08:05:17.42Z</time></trkpt><trkpt lat="45.2282123" lon="9.0344541"><ele>64.71428571428572</ele><time>2026-05-01T08:05:19.42Z</time></trkpt><trkpt lat="45.2281701" lon="9.0345254"><ele>64.57142857142857</ele><time>2026-05-01T08:05:21.419Z</time></trkpt><trkpt lat="45.2281181" lon="9.0345943"><ele>64.42857142857143</ele><time>2026-05-01T08:05:23.433Z</time></trkpt><trkpt lat="45.2280576" lon="9.0346603"><ele>64.28571428571428</ele><time>2026-05-01T08:05:25.425Z</time></trkpt><trkpt lat="45.227998" lon="9.0347216"><ele>64.14285714285714</ele><time>2026-05-01T08:05:27.421Z</time></trkpt><trkpt lat="45.2279489" lon="9.0347824"><ele>64.0</ele><time>2026-05-01T08:05:29.432Z</time></trkpt><trkpt lat="45.2278921" lon="9.0348355"><ele>63.83333333333333</ele><time>2026-05-01T08:05:31.433Z</time></trkpt><trkpt lat="45.2278115" lon="9.0348931"><ele>63.666666666666664</ele><time>2026-05-01T08:05:34.424Z</time></trkpt><trkpt lat="45.2277463" lon="9.0349317"><ele>63.5</ele><time>2026-05-01T08:05:36.435Z</time></trkpt><trkpt lat="45.2276768" lon="9.034958"><ele>63.33333333333333</ele><time>2026-05-01T08:05:38.431Z</time></trkpt><trkpt lat="45.2276045" lon="9.0349771"><ele>63.166666666666664</ele><time>2026-05-01T08:05:40.426Z</time></trkpt><trkpt lat="45.2275361" lon="9.0350069"><ele>63.0</ele><time>2026-05-01T08:05:42.424Z</time></trkpt><trkpt lat="45.2274509" lon="9.035057"><ele>63.0</ele><time>2026-05-01T08:05:45.422Z</time></trkpt><trkpt lat="45.2273871" lon="9.0351181"><ele>63.0</ele><time>2026-05-01T08:05:47.425Z</time></trkpt><trkpt lat="45.2273326" lon="9.0351653"><ele>63.0</ele><time>2026-05-01T08:05:49.428Z</time></trkpt><trkpt lat="45.2272755" lon="9.0352107"><ele>63.0</ele><time>2026-05-01T08:05:51.5Z</time></trkpt><trkpt lat="45.2272119" lon="9.0352853"><ele>63.0</ele><time>2026-05-01T08:05:54.427Z</time></trkpt><trkpt lat="45.2271514" lon="9.0353673"><ele>63.0</ele><time>2026-05-01T08:05:57.422Z</time></trkpt><trkpt lat="45.2271142" lon="9.0354734"><ele>62.833333333333336</ele><time>2026-05-01T08:06:00.419Z</time></trkpt><trkpt lat="45.2270996" lon="9.0355974"><ele>62.66666666666667</ele><time>2026-05-01T08:06:03.425Z</time></trkpt><trkpt lat="45.2270856" lon="9.0357288"><ele>62.5</ele><time>2026-05-01T08:06:06.425Z</time></trkpt><trkpt lat="45.2270566" lon="9.0358456"><ele>62.333333333333336</ele><time>2026-05-01T08:06:09.423Z</time></trkpt><trkpt lat="45.2270337" lon="9.0359315"><ele>62.16666666666667</ele><time>2026-05-01T08:06:11.421Z</time></trkpt><trkpt lat="45.2270057" lon="9.0360496"><ele>62.0</ele><time>2026-05-01T08:06:14.424Z</time></trkpt><trkpt lat="45.2269611" lon="9.0361738"><ele>62.00000000000001</ele><time>2026-05-01T08:06:16.431Z</time></trkpt><trkpt lat="45.2269187" lon="9.0362797"><ele>62.0</ele><time>2026-05-01T08:06:18.425Z</time></trkpt><trkpt lat="45.2268749" lon="9.0363865"><ele>62.0</ele><time>2026-05-01T08:06:20.432Z</time></trkpt><trkpt lat="45.2268337" lon="9.0364774"><ele>62.0</ele><time>2026-05-01T08:06:22.425Z</time></trkpt><trkpt lat="45.2267977" lon="9.0365873"><ele>62.00000000000001</ele><time>2026-05-01T08:06:24.425Z</time></trkpt><trkpt lat="45.2267616" lon="9.0366682"><ele>62.0</ele><time>2026-05-01T08:06:26.423Z</time></trkpt><trkpt lat="45.226725" lon="9.0367511"><ele>62.16666666666667</ele><time>2026-05-01T08:06:28.421Z</time></trkpt><trkpt lat="45.2266623" lon="9.0368298"><ele>62.333333333333336</ele><time>2026-05-01T08:06:30.424Z</time></trkpt><trkpt lat="45.2266125" lon="9.0368911"><ele>62.5</ele><time>2026-05-01T08:06:32.426Z</time></trkpt><trkpt lat="45.2265585" lon="9.0369791"><ele>62.66666666666667</ele><time>2026-05-01T08:06:35.424Z</time></trkpt><trkpt lat="45.2265025" lon="9.0370621"><ele>62.833333333333336</ele><time>2026-05-01T08:06:38.424Z</time></trkpt><trkpt lat="45.2264616" lon="9.037145"><ele>63.0</ele><time>2026-05-01T08:06:42.418Z</time></trkpt><trkpt lat="45.2263953" lon="9.0371291"><ele>63.14285714285714</ele><time>2026-05-01T08:06:45.42Z</time></trkpt><trkpt lat="45.2263279" lon="9.0371217"><ele>63.285714285714285</ele><time>2026-05-01T08:06:48.431Z</time></trkpt><trkpt lat="45.2262455" lon="9.0371216"><ele>63.42857142857143</ele><time>2026-05-01T08:06:51.431Z</time></trkpt><trkpt lat="45.226179" lon="9.0371579"><ele>63.57142857142857</ele><time>2026-05-01T08:06:54.418Z</time></trkpt><trkpt lat="45.226126" lon="9.037219"><ele>63.71428571428571</ele><time>2026-05-01T08:06:57.435Z</time></trkpt><trkpt lat="45.2260621" lon="9.0372827"><ele>63.857142857142854</ele><time>2026-05-01T08:07:00.425Z</time></trkpt><trkpt lat="45.2260021" lon="9.0373263"><ele>64.0</ele><time>2026-05-01T08:07:03.429Z</time></trkpt><trkpt lat="45.2259635" lon="9.0374304"><ele>63.99999999999999</ele><time>2026-05-01T08:07:06.425Z</time></trkpt><trkpt lat="45.2259103" lon="9.0375245"><ele>64.0</ele><time>2026-05-01T08:07:09.491Z</time></trkpt><trkpt lat="45.2258474" lon="9.0376083"><ele>64.0</ele><time>2026-05-01T08:07:12.422Z</time></trkpt><trkpt lat="45.225798" lon="9.0377112"><ele>64.0</ele><time>2026-05-01T08:07:15.426Z</time></trkpt><trkpt lat="45.2257778" lon="9.0378151"><ele>63.99999999999999</ele><time>2026-05-01T08:07:17.427Z</time></trkpt><trkpt lat="45.225725" lon="9.0379107"><ele>64.0</ele><time>2026-05-01T08:07:20.42Z</time></trkpt><trkpt lat="45.2256786" lon="9.0379758"><ele>63.83333333333333</ele><time>2026-05-01T08:07:22.421Z</time></trkpt><trkpt lat="45.2256249" lon="9.0380542"><ele>63.666666666666664</ele><time>2026-05-01T08:07:25.422Z</time></trkpt><trkpt lat="45.2255602" lon="9.0381553"><ele>63.5</ele><time>2026-05-01T08:07:28.428Z</time></trkpt><trkpt lat="45.2255202" lon="9.0382297"><ele>63.33333333333333</ele><time>2026-05-01T08:07:30.424Z</time></trkpt><trkpt lat="45.2254644" lon="9.0383298"><ele>63.166666666666664</ele><time>2026-05-01T08:07:33.426Z</time></trkpt><trkpt lat="45.2254264" lon="9.038412"><ele>63.0</ele><time>2026-05-01T08:07:35.43Z</time></trkpt><trkpt lat="45.2253959" lon="9.0384958"><ele>63.333333333333336</ele><time>2026-05-01T08:07:37.425Z</time></trkpt><trkpt lat="45.2253524" lon="9.0386139"><ele>63.66666666666667</ele><time>2026-05-01T08:07:40.425Z</time></trkpt><trkpt lat="45.2253232" lon="9.0387054"><ele>64.0</ele><time>2026-05-01T08:07:42.43Z</time></trkpt><trkpt lat="45.2252844" lon="9.0388176"><ele>64.33333333333334</ele><time>2026-05-01T08:07:44.436Z</time></trkpt><trkpt lat="45.2252542" lon="9.0389007"><ele>64.66666666666667</ele><time>2026-05-01T08:07:46.429Z</time></trkpt><trkpt lat="45.2252502" lon="9.0390062"><ele>65.0</ele><time>2026-05-01T08:07:49.429Z</time></trkpt><trkpt lat="45.2252388" lon="9.0391072"><ele>65.16666666666667</ele><time>2026-05-01T08:07:52.422Z</time></trkpt><trkpt lat="45.2252445" lon="9.0392171"><ele>65.33333333333334</ele><time>2026-05-01T08:07:55.419Z</time></trkpt><trkpt lat="45.2251825" lon="9.0392766"><ele>65.5</ele><time>2026-05-01T08:07:59.491Z</time></trkpt><trkpt lat="45.2251144" lon="9.0392796"><ele>65.66666666666667</ele><time>2026-05-01T08:08:05.425Z</time></trkpt><trkpt lat="45.2250492" lon="9.039267"><ele>65.83333333333333</ele><time>2026-05-01T08:08:11.419Z</time></trkpt><trkpt lat="45.2249721" lon="9.0393558"><ele>66.0</ele><time>2026-05-01T08:08:18.42Z</time></trkpt><trkpt lat="45.2249275" lon="9.0394254"><ele>66.0</ele><time>2026-05-01T08:08:21.418Z</time></trkpt><trkpt lat="45.2248858" lon="9.0395025"><ele>66.0</ele><time>2026-05-01T08:08:25.43Z</time></trkpt><trkpt lat="45.2248238" lon="9.0395848"><ele>66.0</ele><time>2026-05-01T08:08:29.427Z</time></trkpt><trkpt lat="45.2247636" lon="9.039637"><ele>66.0</ele><time>2026-05-01T08:08:32.417Z</time></trkpt><trkpt lat="45.2247126" lon="9.0397099"><ele>66.0</ele><time>2026-05-01T08:08:36.421Z</time></trkpt><trkpt lat="45.2246769" lon="9.0397923"><ele>66.0</ele><time>2026-05-01T08:08:40.429Z</time></trkpt><trkpt lat="45.224593" lon="9.0398765"><ele>66.0</ele><time>2026-05-01T08:08:46.426Z</time></trkpt><trkpt lat="45.2245441" lon="9.0399495"><ele>66.0</ele><time>2026-05-01T08:08:49.429Z</time></trkpt><trkpt lat="45.2245001" lon="9.0400345"><ele>66.0</ele><time>2026-05-01T08:08:53.495Z</time></trkpt><trkpt lat="45.2244576" lon="9.0401093"><ele>66.0</ele><time>2026-05-01T08:08:57.428Z</time></trkpt><trkpt lat="45.2243899" lon="9.0402515"><ele>66.0</ele><time>2026-05-01T08:09:04.418Z</time></trkpt><trkpt lat="45.2243315" lon="9.0403328"><ele>66.0</ele><time>2026-05-01T08:09:08.425Z</time></trkpt><trkpt lat="45.2242569" lon="9.04038"><ele>66.0</ele><time>2026-05-01T08:09:12.422Z</time></trkpt><trkpt lat="45.2241879" lon="9.0404167"><ele>66.0</ele><time>2026-05-01T08:09:15.422Z</time></trkpt><trkpt lat="45.2241281" lon="9.04046"><ele>66.0</ele><time>2026-05-01T08:09:18.418Z</time></trkpt><trkpt lat="45.2240699" lon="9.0405278"><ele>66.0</ele><time>2026-05-01T08:09:21.422Z</time></trkpt><trkpt lat="45.2240227" lon="9.0406046"><ele>66.0</ele><time>2026-05-01T08:09:24.421Z</time></trkpt><trkpt lat="45.223986" lon="9.0406978"><ele>66.0</ele><time>2026-05-01T08:09:28.415Z</time></trkpt><trkpt lat="45.223951" lon="9.0407854"><ele>66.0</ele><time>2026-05-01T08:09:31.423Z</time></trkpt><trkpt lat="45.2239042" lon="9.0408708"><ele>65.5</ele><time>2026-05-01T08:09:34.419Z</time></trkpt><trkpt lat="45.2238485" lon="9.0409363"><ele>65.0</ele><time>2026-05-01T08:09:37.419Z</time></trkpt><trkpt lat="45.2237757" lon="9.0409978"><ele>64.5</ele><time>2026-05-01T08:09:41.426Z</time></trkpt><trkpt lat="45.2237754" lon="9.0411284"><ele>64.0</ele><time>2026-05-01T08:09:45.488Z</time></trkpt><trkpt lat="45.2238173" lon="9.0412132"><ele>63.5</ele><time>2026-05-01T08:09:47.426Z</time></trkpt><trkpt lat="45.2238357" lon="9.041321"><ele>63.0</ele><time>2026-05-01T08:09:49.418Z</time></trkpt><trkpt lat="45.223865" lon="9.0414247"><ele>63.0</ele><time>2026-05-01T08:09:52.421Z</time></trkpt><trkpt lat="45.2238767" lon="9.0415377"><ele>63.0</ele><time>2026-05-01T08:09:55.42Z</time></trkpt><trkpt lat="45.2238991" lon="9.041647"><ele>63.0</ele><time>2026-05-01T08:09:58.418Z</time></trkpt><trkpt lat="45.2239044" lon="9.0417451"><ele>63.0</ele><time>2026-05-01T08:10:01.423Z</time></trkpt><trkpt lat="45.2239023" lon="9.0418488"><ele>63.0</ele><time>2026-05-01T08:10:04.423Z</time></trkpt><trkpt lat="45.2238967" lon="9.041961"><ele>63.0</ele><time>2026-05-01T08:10:07.415Z</time></trkpt><trkpt lat="45.2238981" lon="9.0420548"><ele>63.0</ele><time>2026-05-01T08:10:10.423Z</time></trkpt><trkpt lat="45.2239201" lon="9.0421396"><ele>63.0</ele><time>2026-05-01T08:10:13.435Z</time></trkpt><trkpt lat="45.2239359" lon="9.0422453"><ele>63.0</ele><time>2026-05-01T08:10:16.429Z</time></trkpt><trkpt lat="45.2239448" lon="9.0423561"><ele>63.0</ele><time>2026-05-01T08:10:21.425Z</time></trkpt><trkpt lat="45.2239353" lon="9.0424738"><ele>63.0</ele><time>2026-05-01T08:10:24.431Z</time></trkpt><trkpt lat="45.2239694" lon="9.0425675"><ele>63.0</ele><time>2026-05-01T08:10:27.412Z</time></trkpt><trkpt lat="45.2240152" lon="9.0426354"><ele>63.0</ele><time>2026-05-01T08:10:30.419Z</time></trkpt><trkpt lat="45.2240361" lon="9.0427535"><ele>63.5</ele><time>2026-05-01T08:10:35.43Z</time></trkpt><trkpt lat="45.2240832" lon="9.0428442"><ele>64.0</ele><time>2026-05-01T08:10:40.42Z</time></trkpt><trkpt lat="45.2241087" lon="9.0429384"><ele>64.5</ele><time>2026-05-01T08:10:44.425Z</time></trkpt><trkpt lat="45.224175" lon="9.0429981"><ele>65.0</ele><time>2026-05-01T08:10:49.419Z</time></trkpt><trkpt lat="45.2242092" lon="9.0430991"><ele>65.5</ele><time>2026-05-01T08:10:55.43Z</time></trkpt><trkpt lat="45.2242177" lon="9.0432045"><ele>66.0</ele><time>2026-05-01T08:10:58.418Z</time></trkpt><trkpt lat="45.2242128" lon="9.0433391"><ele>66.0</ele><time>2026-05-01T08:11:01.412Z</time></trkpt><trkpt lat="45.224215" lon="9.0434683"><ele>66.0</ele><time>2026-05-01T08:11:04.418Z</time></trkpt><trkpt lat="45.224204" lon="9.0435688"><ele>66.0</ele><time>2026-05-01T08:11:07.422Z</time></trkpt><trkpt lat="45.2242919" lon="9.0435827"><ele>66.0</ele><time>2026-05-01T08:11:15.484Z</time></trkpt><trkpt lat="45.2243557" lon="9.0435771"><ele>66.0</ele><time>2026-05-01T08:11:18.424Z</time></trkpt><trkpt lat="45.2243899" lon="9.0436658"><ele>66.0</ele><time>2026-05-01T08:11:23.421Z</time></trkpt><trkpt lat="45.2244753" lon="9.0437664"><ele>66.0</ele><time>2026-05-01T08:11:29.423Z</time></trkpt><trkpt lat="45.2244826" lon="9.0438709"><ele>66.0</ele><time>2026-05-01T08:11:32.416Z</time></trkpt><trkpt lat="45.2245381" lon="9.0439372"><ele>66.0</ele><time>2026-05-01T08:11:35.42Z</time></trkpt><trkpt lat="45.2245734" lon="9.0440205"><ele>66.0</ele><time>2026-05-01T08:11:37.416Z</time></trkpt><trkpt lat="45.2246071" lon="9.0441267"><ele>66.0</ele><time>2026-05-01T08:11:40.417Z</time></trkpt><trkpt lat="45.2246348" lon="9.0442182"><ele>66.0</ele><time>2026-05-01T08:11:43.421Z</time></trkpt><trkpt lat="45.2246916" lon="9.0442578"><ele>66.0</ele><time>2026-05-01T08:11:46.41Z</time></trkpt><trkpt lat="45.2247559" lon="9.0442132"><ele>66.0</ele><time>2026-05-01T08:11:49.413Z</time></trkpt><trkpt lat="45.2248605" lon="9.0442146"><ele>66.0</ele><time>2026-05-01T08:11:52.422Z</time></trkpt><trkpt lat="45.2249303" lon="9.0441969"><ele>66.0</ele><time>2026-05-01T08:11:56.419Z</time></trkpt><trkpt lat="45.2249797" lon="9.0440946"><ele>66.0</ele><time>2026-05-01T08:12:00.419Z</time></trkpt><trkpt lat="45.2250397" lon="9.0440587"><ele>66.0</ele><time>2026-05-01T08:12:02.423Z</time></trkpt><trkpt lat="45.2251347" lon="9.0440282"><ele>66.0</ele><time>2026-05-01T08:12:13.411Z</time></trkpt><trkpt lat="45.2251946" lon="9.0439998"><ele>66.0</ele><time>2026-05-01T08:12:34.419Z</time></trkpt><trkpt lat="45.2252543" lon="9.0440558"><ele>66.0</ele><time>2026-05-01T08:12:39.417Z</time></trkpt><trkpt lat="45.2253074" lon="9.0441146"><ele>66.0</ele><time>2026-05-01T08:12:42.421Z</time></trkpt><trkpt lat="45.2253459" lon="9.0442126"><ele>66.0</ele><time>2026-05-01T08:12:46.414Z</time></trkpt><trkpt lat="45.2254092" lon="9.0442967"><ele>66.0</ele><time>2026-05-01T08:12:49.435Z</time></trkpt><trkpt lat="45.2254631" lon="9.0443914"><ele>66.0</ele><time>2026-05-01T08:12:52.426Z</time></trkpt><trkpt lat="45.225512" lon="9.0444692"><ele>66.0</ele><time>2026-05-01T08:12:55.423Z</time></trkpt><trkpt lat="45.2255432" lon="9.044567"><ele>66.0</ele><time>2026-05-01T08:12:58.436Z</time></trkpt><trkpt lat="45.2255543" lon="9.0446621"><ele>66.0</ele><time>2026-05-01T08:13:01.423Z</time></trkpt><trkpt lat="45.2255672" lon="9.0447785"><ele>66.0</ele><time>2026-05-01T08:13:04.426Z</time></trkpt><trkpt lat="45.2255683" lon="9.0449009"><ele>66.0</ele><time>2026-05-01T08:13:07.422Z</time></trkpt><trkpt lat="45.2255796" lon="9.0449904"><ele>66.0</ele><time>2026-05-01T08:13:09.422Z</time></trkpt><trkpt lat="45.2255752" lon="9.0450867"><ele>66.0</ele><time>2026-05-01T08:13:11.419Z</time></trkpt><trkpt lat="45.2255578" lon="9.0451938"><ele>66.0</ele><time>2026-05-01T08:13:14.436Z</time></trkpt><trkpt lat="45.2255397" lon="9.0452821"><ele>66.0</ele><time>2026-05-01T08:13:17.419Z</time></trkpt><trkpt lat="45.2255027" lon="9.0453971"><ele>66.0</ele><time>2026-05-01T08:13:20.425Z</time></trkpt><trkpt lat="45.2254788" lon="9.0455048"><ele>66.0</ele><time>2026-05-01T08:13:23.421Z</time></trkpt><trkpt lat="45.2254629" lon="9.0456139"><ele>66.0</ele><time>2026-05-01T08:13:26.417Z</time></trkpt><trkpt lat="45.2254441" lon="9.0457232"><ele>66.0</ele><time>2026-05-01T08:13:29.423Z</time></trkpt><trkpt lat="45.2253981" lon="9.0458506"><ele>66.0</ele><time>2026-05-01T08:13:32.42Z</time></trkpt><trkpt lat="45.2253634" lon="9.0459307"><ele>66.0</ele><time>2026-05-01T08:13:34.419Z</time></trkpt><trkpt lat="45.2253124" lon="9.0460107"><ele>66.0</ele><time>2026-05-01T08:13:37.424Z</time></trkpt><trkpt lat="45.2252762" lon="9.0460949"><ele>66.0</ele><time>2026-05-01T08:13:40.412Z</time></trkpt><trkpt lat="45.2252317" lon="9.0461944"><ele>66.0</ele><time>2026-05-01T08:13:43.421Z</time></trkpt><trkpt lat="45.2251947" lon="9.0462894"><ele>66.0</ele><time>2026-05-01T08:13:45.42Z</time></trkpt><trkpt lat="45.225159" lon="9.046374"><ele>66.0</ele><time>2026-05-01T08:13:47.418Z</time></trkpt><trkpt lat="45.2251272" lon="9.0464994"><ele>66.0</ele><time>2026-05-01T08:13:50.42Z</time></trkpt><trkpt lat="45.2251493" lon="9.0466102"><ele>66.0</ele><time>2026-05-01T08:13:53.426Z</time></trkpt><trkpt lat="45.2252002" lon="9.046693"><ele>66.0</ele><time>2026-05-01T08:13:56.424Z</time></trkpt><trkpt lat="45.2252516" lon="9.0467573"><ele>66.0</ele><time>2026-05-01T08:13:58.417Z</time></trkpt><trkpt lat="45.22532" lon="9.0468364"><ele>66.0</ele><time>2026-05-01T08:14:01.427Z</time></trkpt><trkpt lat="45.2253991" lon="9.0468889"><ele>66.0</ele><time>2026-05-01T08:14:04.419Z</time></trkpt><trkpt lat="45.2254662" lon="9.0468862"><ele>65.85714285714286</ele><time>2026-05-01T08:14:06.419Z</time></trkpt><trkpt lat="45.2255345" lon="9.0468955"><ele>65.71428571428572</ele><time>2026-05-01T08:14:08.418Z</time></trkpt><trkpt lat="45.2256042" lon="9.0468819"><ele>65.57142857142858</ele><time>2026-05-01T08:14:10.418Z</time></trkpt><trkpt lat="45.2256795" lon="9.0468691"><ele>65.42857142857143</ele><time>2026-05-01T08:14:12.418Z</time></trkpt><trkpt lat="45.2257449" lon="9.0468571"><ele>65.28571428571429</ele><time>2026-05-01T08:14:14.415Z</time></trkpt><trkpt lat="45.2258086" lon="9.0468448"><ele>65.14285714285715</ele><time>2026-05-01T08:14:16.416Z</time></trkpt><trkpt lat="45.2258994" lon="9.0468344"><ele>65.0</ele><time>2026-05-01T08:14:19.418Z</time></trkpt><trkpt lat="45.2259926" lon="9.0468234"><ele>64.85714285714286</ele><time>2026-05-01T08:14:22.428Z</time></trkpt><trkpt lat="45.2260894" lon="9.0468113"><ele>64.71428571428572</ele><time>2026-05-01T08:14:25.421Z</time></trkpt><trkpt lat="45.2261588" lon="9.0468003"><ele>64.57142857142857</ele><time>2026-05-01T08:14:27.427Z</time></trkpt><trkpt lat="45.2262313" lon="9.0467813"><ele>64.42857142857143</ele><time>2026-05-01T08:14:29.439Z</time></trkpt><trkpt lat="45.2262962" lon="9.0467784"><ele>64.28571428571428</ele><time>2026-05-01T08:14:31.425Z</time></trkpt><trkpt lat="45.2263607" lon="9.046782"><ele>64.14285714285714</ele><time>2026-05-01T08:14:33.422Z</time></trkpt><trkpt lat="45.2264343" lon="9.0467818"><ele>64.0</ele><time>2026-05-01T08:14:35.424Z</time></trkpt><trkpt lat="45.2264993" lon="9.0467737"><ele>64.85714285714286</ele><time>2026-05-01T08:14:37.415Z</time></trkpt><trkpt lat="45.226597" lon="9.0467575"><ele>65.71428571428571</ele><time>2026-05-01T08:14:40.417Z</time></trkpt><trkpt lat="45.2266666" lon="9.0467246"><ele>66.57142857142857</ele><time>2026-05-01T08:14:42.414Z</time></trkpt><trkpt lat="45.2267302" lon="9.0466948"><ele>67.42857142857143</ele><time>2026-05-01T08:14:44.492Z</time></trkpt><trkpt lat="45.2267857" lon="9.0466284"><ele>68.28571428571428</ele><time>2026-05-01T08:14:46.423Z</time></trkpt><trkpt lat="45.2268202" lon="9.0465423"><ele>69.14285714285714</ele><time>2026-05-01T08:14:48.424Z</time></trkpt><trkpt lat="45.226844" lon="9.0464583"><ele>70.0</ele><time>2026-05-01T08:14:50.421Z</time></trkpt><trkpt lat="45.2268605" lon="9.0463622"><ele>70.33333333333333</ele><time>2026-05-01T08:14:52.431Z</time></trkpt><trkpt lat="45.2268506" lon="9.0462395"><ele>70.66666666666666</ele><time>2026-05-01T08:14:55.427Z</time></trkpt><trkpt lat="45.2268218" lon="9.0461231"><ele>71.0</ele><time>2026-05-01T08:14:58.435Z</time></trkpt><trkpt lat="45.2268025" lon="9.0460374"><ele>71.33333333333333</ele><time>2026-05-01T08:15:00.428Z</time></trkpt><trkpt lat="45.226791" lon="9.0459491"><ele>71.66666666666667</ele><time>2026-05-01T08:15:02.419Z</time></trkpt><trkpt lat="45.2268006" lon="9.0458513"><ele>72.0</ele><time>2026-05-01T08:15:04.422Z</time></trkpt><trkpt lat="45.2268603" lon="9.0457496"><ele>72.0</ele><time>2026-05-01T08:15:07.418Z</time></trkpt><trkpt lat="45.2269201" lon="9.0456958"><ele>72.0</ele><time>2026-05-01T08:15:09.423Z</time></trkpt><trkpt lat="45.2269813" lon="9.0456605"><ele>72.0</ele><time>2026-05-01T08:15:11.423Z</time></trkpt><trkpt lat="45.2270671" lon="9.0456385"><ele>72.0</ele><time>2026-05-01T08:15:14.421Z</time></trkpt><trkpt lat="45.2271376" lon="9.0456921"><ele>72.0</ele><time>2026-05-01T08:15:18.419Z</time></trkpt><trkpt lat="45.2271576" lon="9.0458204"><ele>72.0</ele><time>2026-05-01T08:15:21.425Z</time></trkpt><trkpt lat="45.2271699" lon="9.0459486"><ele>72.33333333333333</ele><time>2026-05-01T08:15:24.432Z</time></trkpt><trkpt lat="45.2271763" lon="9.0460382"><ele>72.66666666666667</ele><time>2026-05-01T08:15:26.421Z</time></trkpt><trkpt lat="45.2271789" lon="9.0461734"><ele>73.0</ele><time>2026-05-01T08:15:29.418Z</time></trkpt><trkpt lat="45.227188" lon="9.0463036"><ele>73.33333333333334</ele><time>2026-05-01T08:15:32.423Z</time></trkpt><trkpt lat="45.2271999" lon="9.0464177"><ele>73.66666666666667</ele><time>2026-05-01T08:15:35.434Z</time></trkpt><trkpt lat="45.2272538" lon="9.0465097"><ele>74.0</ele><time>2026-05-01T08:15:38.43Z</time></trkpt><trkpt lat="45.2273166" lon="9.046548"><ele>74.0</ele><time>2026-05-01T08:15:40.409Z</time></trkpt><trkpt lat="45.227378" lon="9.0465744"><ele>74.0</ele><time>2026-05-01T08:15:42.423Z</time></trkpt><trkpt lat="45.2274424" lon="9.0466007"><ele>74.0</ele><time>2026-05-01T08:15:44.423Z</time></trkpt><trkpt lat="45.2275114" lon="9.0466225"><ele>74.0</ele><time>2026-05-01T08:15:46.422Z</time></trkpt><trkpt lat="45.2275794" lon="9.0466411"><ele>74.0</ele><time>2026-05-01T08:15:48.436Z</time></trkpt><trkpt lat="45.2276734" lon="9.0466733"><ele>74.0</ele><time>2026-05-01T08:15:51.417Z</time></trkpt><trkpt lat="45.227763" lon="9.0467002"><ele>74.0</ele><time>2026-05-01T08:15:54.423Z</time></trkpt><trkpt lat="45.2278505" lon="9.0467223"><ele>74.0</ele><time>2026-05-01T08:15:57.422Z</time></trkpt><trkpt lat="45.227944" lon="9.0467479"><ele>74.0</ele><time>2026-05-01T08:16:00.419Z</time></trkpt><trkpt lat="45.2280075" lon="9.0467608"><ele>74.0</ele><time>2026-05-01T08:16:02.424Z</time></trkpt><trkpt lat="45.2280708" lon="9.0467831"><ele>74.0</ele><time>2026-05-01T08:16:04.418Z</time></trkpt><trkpt lat="45.2281331" lon="9.0468041"><ele>74.0</ele><time>2026-05-01T08:16:06.416Z</time></trkpt><trkpt lat="45.2281972" lon="9.0468198"><ele>74.0</ele><time>2026-05-01T08:16:08.421Z</time></trkpt><trkpt lat="45.2282606" lon="9.04684"><ele>74.16666666666667</ele><time>2026-05-01T08:16:10.419Z</time></trkpt><trkpt lat="45.2283222" lon="9.0468621"><ele>74.33333333333334</ele><time>2026-05-01T08:16:12.427Z</time></trkpt><trkpt lat="45.228411" lon="9.0468869"><ele>74.5</ele><time>2026-05-01T08:16:15.413Z</time></trkpt><trkpt lat="45.2284756" lon="9.0468852"><ele>74.66666666666667</ele><time>2026-05-01T08:16:17.416Z</time></trkpt><trkpt lat="45.2285617" lon="9.04688"><ele>74.83333333333333</ele><time>2026-05-01T08:16:20.43Z</time></trkpt><trkpt lat="45.2286425" lon="9.0469456"><ele>75.0</ele><time>2026-05-01T08:16:23.423Z</time></trkpt><trkpt lat="45.2286788" lon="9.047064"><ele>75.0</ele><time>2026-05-01T08:16:26.424Z</time></trkpt><trkpt lat="45.2286866" lon="9.047186"><ele>75.0</ele><time>2026-05-01T08:16:29.424Z</time></trkpt><trkpt lat="45.2286826" lon="9.0472765"><ele>75.0</ele><time>2026-05-01T08:16:31.419Z</time></trkpt><trkpt lat="45.228665" lon="9.0474048"><ele>75.0</ele><time>2026-05-01T08:16:34.429Z</time></trkpt><trkpt lat="45.2286452" lon="9.0475311"><ele>75.0</ele><time>2026-05-01T08:16:37.429Z</time></trkpt><trkpt lat="45.2286302" lon="9.0476574"><ele>75.0</ele><time>2026-05-01T08:16:40.425Z</time></trkpt><trkpt lat="45.2286181" lon="9.0477461"><ele>75.16666666666667</ele><time>2026-05-01T08:16:42.5Z</time></trkpt><trkpt lat="45.2286102" lon="9.0478393"><ele>75.33333333333333</ele><time>2026-05-01T08:16:44.423Z</time></trkpt><trkpt lat="45.2285952" lon="9.0479688"><ele>75.5</ele><time>2026-05-01T08:16:47.416Z</time></trkpt><trkpt lat="45.2285762" lon="9.0480874"><ele>75.66666666666666</ele><time>2026-05-01T08:16:50.423Z</time></trkpt><trkpt lat="45.2285592" lon="9.0482191"><ele>75.83333333333333</ele><time>2026-05-01T08:16:53.423Z</time></trkpt><trkpt lat="45.2285437" lon="9.0483449"><ele>76.0</ele><time>2026-05-01T08:16:56.491Z</time></trkpt><trkpt lat="45.2285354" lon="9.0484728"><ele>76.6</ele><time>2026-05-01T08:16:59.423Z</time></trkpt><trkpt lat="45.2285213" lon="9.048599"><ele>77.19999999999999</ele><time>2026-05-01T08:17:02.417Z</time></trkpt><trkpt lat="45.228503" lon="9.0487305"><ele>77.80000000000001</ele><time>2026-05-01T08:17:05.42Z</time></trkpt><trkpt lat="45.2284923" lon="9.0488598"><ele>78.4</ele><time>2026-05-01T08:17:08.425Z</time></trkpt><trkpt lat="45.2284792" lon="9.0489877"><ele>79.0</ele><time>2026-05-01T08:17:11.422Z</time></trkpt><trkpt lat="45.2284586" lon="9.0491119"><ele>78.83333333333333</ele><time>2026-05-01T08:17:14.422Z</time></trkpt><trkpt lat="45.2284517" lon="9.049204"><ele>78.66666666666666</ele><time>2026-05-01T08:17:16.417Z</time></trkpt><trkpt lat="45.2284353" lon="9.0493168"><ele>78.5</ele><time>2026-05-01T08:17:19.42Z</time></trkpt><trkpt lat="45.2284336" lon="9.0494204"><ele>78.33333333333333</ele><time>2026-05-01T08:17:22.422Z</time></trkpt><trkpt lat="45.2284235" lon="9.0495111"><ele>78.16666666666667</ele><time>2026-05-01T08:17:24.425Z</time></trkpt><trkpt lat="45.2284087" lon="9.0496399"><ele>78.0</ele><time>2026-05-01T08:17:27.419Z</time></trkpt><trkpt lat="45.2283907" lon="9.0497679"><ele>78.0</ele><time>2026-05-01T08:17:30.423Z</time></trkpt><trkpt lat="45.228384" lon="9.049901"><ele>78.0</ele><time>2026-05-01T08:17:33.423Z</time></trkpt><trkpt lat="45.2284235" lon="9.0499913"><ele>78.0</ele><time>2026-05-01T08:17:36.417Z</time></trkpt><trkpt lat="45.2284846" lon="9.0500168"><ele>78.0</ele><time>2026-05-01T08:17:38.42Z</time></trkpt><trkpt lat="45.2285737" lon="9.050049"><ele>78.0</ele><time>2026-05-01T08:17:41.421Z</time></trkpt><trkpt lat="45.228661" lon="9.0500836"><ele>78.0</ele><time>2026-05-01T08:17:44.41Z</time></trkpt><trkpt lat="45.2287309" lon="9.0501553"><ele>78.16666666666667</ele><time>2026-05-01T08:17:47.419Z</time></trkpt><trkpt lat="45.2287415" lon="9.0502791"><ele>78.33333333333333</ele><time>2026-05-01T08:17:50.416Z</time></trkpt><trkpt lat="45.2287219" lon="9.0503649"><ele>78.5</ele><time>2026-05-01T08:17:52.429Z</time></trkpt><trkpt lat="45.2286852" lon="9.050475"><ele>78.66666666666666</ele><time>2026-05-01T08:17:55.419Z</time></trkpt><trkpt lat="45.2286539" lon="9.0505842"><ele>78.83333333333333</ele><time>2026-05-01T08:17:58.415Z</time></trkpt><trkpt lat="45.2286296" lon="9.0507049"><ele>79.0</ele><time>2026-05-01T08:18:01.423Z</time></trkpt><trkpt lat="45.2286061" lon="9.0508102"><ele>79.0</ele><time>2026-05-01T08:18:04.42Z</time></trkpt><trkpt lat="45.2285909" lon="9.0509248"><ele>79.0</ele><time>2026-05-01T08:18:07.419Z</time></trkpt><trkpt lat="45.2285706" lon="9.0510157"><ele>79.0</ele><time>2026-05-01T08:18:09.421Z</time></trkpt><trkpt lat="45.2285558" lon="9.051103"><ele>79.0</ele><time>2026-05-01T08:18:11.43Z</time></trkpt><trkpt lat="45.2285377" lon="9.051228"><ele>79.0</ele><time>2026-05-01T08:18:14.43Z</time></trkpt><trkpt lat="45.2285202" lon="9.0513618"><ele>79.0</ele><time>2026-05-01T08:18:17.417Z</time></trkpt><trkpt lat="45.2285648" lon="9.0514657"><ele>79.0</ele><time>2026-05-01T08:18:20.422Z</time></trkpt><trkpt lat="45.2286331" lon="9.0514823"><ele>79.0</ele><time>2026-05-01T08:18:22.422Z</time></trkpt><trkpt lat="45.2286973" lon="9.0514968"><ele>79.0</ele><time>2026-05-01T08:18:24.425Z</time></trkpt><trkpt lat="45.228766" lon="9.0515568"><ele>79.0</ele><time>2026-05-01T08:18:27.427Z</time></trkpt><trkpt lat="45.2287986" lon="9.0516653"><ele>79.0</ele><time>2026-05-01T08:18:30.425Z</time></trkpt><trkpt lat="45.2287884" lon="9.05179"><ele>79.0</ele><time>2026-05-01T08:18:33.421Z</time></trkpt><trkpt lat="45.2287752" lon="9.0519072"><ele>78.5</ele><time>2026-05-01T08:18:36.426Z</time></trkpt><trkpt lat="45.2287686" lon="9.0520304"><ele>78.0</ele><time>2026-05-01T08:18:39.492Z</time></trkpt><trkpt lat="45.2287554" lon="9.0521544"><ele>77.5</ele><time>2026-05-01T08:18:42.422Z</time></trkpt><trkpt lat="45.2287458" lon="9.0522788"><ele>77.0</ele><time>2026-05-01T08:18:45.415Z</time></trkpt><trkpt lat="45.2287383" lon="9.0524023"><ele>76.5</ele><time>2026-05-01T08:18:48.422Z</time></trkpt><trkpt lat="45.2287232" lon="9.0525221"><ele>76.0</ele><time>2026-05-01T08:18:51.427Z</time></trkpt><trkpt lat="45.228716" lon="9.0526533"><ele>76.0</ele><time>2026-05-01T08:18:54.429Z</time></trkpt><trkpt lat="45.2287066" lon="9.0527511"><ele>76.0</ele><time>2026-05-01T08:18:56.419Z</time></trkpt><trkpt lat="45.2287023" lon="9.0528816"><ele>76.0</ele><time>2026-05-01T08:18:59.423Z</time></trkpt><trkpt lat="45.2286913" lon="9.0530164"><ele>76.0</ele><time>2026-05-01T08:19:02.425Z</time></trkpt><trkpt lat="45.2286818" lon="9.0531056"><ele>76.0</ele><time>2026-05-01T08:19:04.422Z</time></trkpt><trkpt lat="45.2286723" lon="9.0531988"><ele>76.0</ele><time>2026-05-01T08:19:06.422Z</time></trkpt><trkpt lat="45.2286622" lon="9.0532895"><ele>76.42857142857143</ele><time>2026-05-01T08:19:08.431Z</time></trkpt><trkpt lat="45.2286413" lon="9.0534155"><ele>76.85714285714286</ele><time>2026-05-01T08:19:11.429Z</time></trkpt><trkpt lat="45.2286118" lon="9.0534981"><ele>77.28571428571429</ele><time>2026-05-01T08:19:13.42Z</time></trkpt><trkpt lat="45.2285698" lon="9.0535804"><ele>77.71428571428572</ele><time>2026-05-01T08:19:15.425Z</time></trkpt><trkpt lat="45.228532" lon="9.0536551"><ele>78.14285714285714</ele><time>2026-05-01T08:19:17.417Z</time></trkpt><trkpt lat="45.2285066" lon="9.0537374"><ele>78.57142857142858</ele><time>2026-05-01T08:19:19.422Z</time></trkpt><trkpt lat="45.2284631" lon="9.0538287"><ele>79.0</ele><time>2026-05-01T08:19:22.424Z</time></trkpt><trkpt lat="45.2284152" lon="9.0539043"><ele>79.0</ele><time>2026-05-01T08:19:25.416Z</time></trkpt><trkpt lat="45.2283463" lon="9.0539751"><ele>79.0</ele><time>2026-05-01T08:19:28.425Z</time></trkpt><trkpt lat="45.2282766" lon="9.0539876"><ele>79.0</ele><time>2026-05-01T08:19:30.422Z</time></trkpt><trkpt lat="45.2282095" lon="9.0539472"><ele>79.0</ele><time>2026-05-01T08:19:32.427Z</time></trkpt><trkpt lat="45.2281283" lon="9.0538933"><ele>79.0</ele><time>2026-05-01T08:19:35.504Z</time></trkpt><trkpt lat="45.2280463" lon="9.0538418"><ele>79.0</ele><time>2026-05-01T08:19:38.424Z</time></trkpt><trkpt lat="45.2279586" lon="9.0538094"><ele>78.71428571428572</ele><time>2026-05-01T08:19:41.425Z</time></trkpt><trkpt lat="45.2278741" lon="9.0537557"><ele>78.42857142857143</ele><time>2026-05-01T08:19:44.419Z</time></trkpt><trkpt lat="45.2278099" lon="9.0537181"><ele>78.14285714285714</ele><time>2026-05-01T08:19:46.421Z</time></trkpt><trkpt lat="45.2277487" lon="9.0536866"><ele>77.85714285714286</ele><time>2026-05-01T08:19:48.428Z</time></trkpt><trkpt lat="45.2276891" lon="9.0536479"><ele>77.57142857142857</ele><time>2026-05-01T08:19:50.428Z</time></trkpt><trkpt lat="45.2276281" lon="9.0536143"><ele>77.28571428571429</ele><time>2026-05-01T08:19:52.43Z</time></trkpt><trkpt lat="45.227566" lon="9.0535786"><ele>77.0</ele><time>2026-05-01T08:19:54.422Z</time></trkpt><trkpt lat="45.2274759" lon="9.0535432"><ele>77.0</ele><time>2026-05-01T08:19:57.427Z</time></trkpt><trkpt lat="45.227402" lon="9.053548"><ele>77.0</ele><time>2026-05-01T08:19:59.424Z</time></trkpt><trkpt lat="45.2273199" lon="9.0535776"><ele>77.0</ele><time>2026-05-01T08:20:02.497Z</time></trkpt><trkpt lat="45.2272661" lon="9.0536686"><ele>77.0</ele><time>2026-05-01T08:20:05.423Z</time></trkpt><trkpt lat="45.2272308" lon="9.0537555"><ele>77.0</ele><time>2026-05-01T08:20:07.424Z</time></trkpt><trkpt lat="45.2271997" lon="9.0538382"><ele>77.0</ele><time>2026-05-01T08:20:09.425Z</time></trkpt><trkpt lat="45.2271678" lon="9.0539233"><ele>77.0</ele><time>2026-05-01T08:20:11.418Z</time></trkpt><trkpt lat="45.2271372" lon="9.0540154"><ele>76.71428571428571</ele><time>2026-05-01T08:20:13.421Z</time></trkpt><trkpt lat="45.2271053" lon="9.0541042"><ele>76.42857142857143</ele><time>2026-05-01T08:20:15.417Z</time></trkpt><trkpt lat="45.2270729" lon="9.054223"><ele>76.14285714285714</ele><time>2026-05-01T08:20:18.425Z</time></trkpt><trkpt lat="45.2270477" lon="9.0543074"><ele>75.85714285714286</ele><time>2026-05-01T08:20:20.426Z</time></trkpt><trkpt lat="45.227017" lon="9.0543921"><ele>75.57142857142857</ele><time>2026-05-01T08:20:22.419Z</time></trkpt><trkpt lat="45.2269873" lon="9.054473"><ele>75.28571428571428</ele><time>2026-05-01T08:20:24.421Z</time></trkpt><trkpt lat="45.2269588" lon="9.0545574"><ele>75.0</ele><time>2026-05-01T08:20:26.499Z</time></trkpt><trkpt lat="45.22693" lon="9.0546467"><ele>75.0</ele><time>2026-05-01T08:20:28.425Z</time></trkpt><trkpt lat="45.2268883" lon="9.0547703"><ele>75.0</ele><time>2026-05-01T08:20:31.435Z</time></trkpt><trkpt lat="45.2268541" lon="9.0548494"><ele>75.0</ele><time>2026-05-01T08:20:33.421Z</time></trkpt><trkpt lat="45.2268143" lon="9.054961"><ele>75.0</ele><time>2026-05-01T08:20:36.413Z</time></trkpt><trkpt lat="45.2267827" lon="9.0550679"><ele>75.0</ele><time>2026-05-01T08:20:39.42Z</time></trkpt><trkpt lat="45.2267464" lon="9.055174"><ele>75.0</ele><time>2026-05-01T08:20:42.421Z</time></trkpt><trkpt lat="45.2267038" lon="9.0552896"><ele>75.14285714285714</ele><time>2026-05-01T08:20:45.422Z</time></trkpt><trkpt lat="45.2266639" lon="9.0554047"><ele>75.28571428571428</ele><time>2026-05-01T08:20:48.43Z</time></trkpt><trkpt lat="45.226639" lon="9.0554871"><ele>75.42857142857142</ele><time>2026-05-01T08:20:50.418Z</time></trkpt><trkpt lat="45.2266088" lon="9.0555675"><ele>75.57142857142857</ele><time>2026-05-01T08:20:52.416Z</time></trkpt><trkpt lat="45.226573" lon="9.0556499"><ele>75.71428571428572</ele><time>2026-05-01T08:20:54.502Z</time></trkpt><trkpt lat="45.2265451" lon="9.0557359"><ele>75.85714285714285</ele><time>2026-05-01T08:20:56.427Z</time></trkpt><trkpt lat="45.2265146" lon="9.0558144"><ele>76.0</ele><time>2026-05-01T08:20:58.423Z</time></trkpt><trkpt lat="45.2264712" lon="9.0559329"><ele>75.71428571428571</ele><time>2026-05-01T08:21:01.42Z</time></trkpt><trkpt lat="45.2264397" lon="9.0560186"><ele>75.42857142857143</ele><time>2026-05-01T08:21:03.42Z</time></trkpt><trkpt lat="45.2264064" lon="9.0561042"><ele>75.14285714285714</ele><time>2026-05-01T08:21:05.424Z</time></trkpt><trkpt lat="45.2263698" lon="9.0562176"><ele>74.85714285714286</ele><time>2026-05-01T08:21:08.495Z</time></trkpt><trkpt lat="45.226339" lon="9.0562979"><ele>74.57142857142857</ele><time>2026-05-01T08:21:10.428Z</time></trkpt><trkpt lat="45.2263031" lon="9.0563748"><ele>74.28571428571429</ele><time>2026-05-01T08:21:12.424Z</time></trkpt><trkpt lat="45.2262539" lon="9.056485"><ele>74.0</ele><time>2026-05-01T08:21:15.422Z</time></trkpt><trkpt lat="45.2262105" lon="9.0565855"><ele>74.5</ele><time>2026-05-01T08:21:17.419Z</time></trkpt><trkpt lat="45.2261478" lon="9.0566678"><ele>75.0</ele><time>2026-05-01T08:21:19.416Z</time></trkpt><trkpt lat="45.2260707" lon="9.0567191"><ele>75.5</ele><time>2026-05-01T08:21:22.418Z</time></trkpt><trkpt lat="45.2260107" lon="9.0567565"><ele>76.0</ele><time>2026-05-01T08:21:25.431Z</time></trkpt><trkpt lat="45.2259503" lon="9.0568231"><ele>76.5</ele><time>2026-05-01T08:21:28.425Z</time></trkpt><trkpt lat="45.2258822" lon="9.0568952"><ele>77.0</ele><time>2026-05-01T08:21:31.423Z</time></trkpt><trkpt lat="45.2258286" lon="9.0569609"><ele>77.0</ele><time>2026-05-01T08:21:34.509Z</time></trkpt><trkpt lat="45.2257805" lon="9.0570394"><ele>77.0</ele><time>2026-05-01T08:21:37.422Z</time></trkpt><trkpt lat="45.2257265" lon="9.0571206"><ele>77.0</ele><time>2026-05-01T08:21:41.419Z</time></trkpt><trkpt lat="45.2256802" lon="9.0572146"><ele>77.0</ele><time>2026-05-01T08:21:45.415Z</time></trkpt><trkpt lat="45.225642" lon="9.0573137"><ele>77.0</ele><time>2026-05-01T08:21:48.414Z</time></trkpt><trkpt lat="45.2256107" lon="9.0573956"><ele>77.0</ele><time>2026-05-01T08:21:51.418Z</time></trkpt><trkpt lat="45.2255691" lon="9.0574748"><ele>77.0</ele><time>2026-05-01T08:21:54.42Z</time></trkpt><trkpt lat="45.2255188" lon="9.0575669"><ele>76.66666666666667</ele><time>2026-05-01T08:21:57.421Z</time></trkpt><trkpt lat="45.2254824" lon="9.0576743"><ele>76.33333333333334</ele><time>2026-05-01T08:22:00.414Z</time></trkpt><trkpt lat="45.225454" lon="9.0577679"><ele>76.0</ele><time>2026-05-01T08:22:02.416Z</time></trkpt><trkpt lat="45.2254238" lon="9.057859"><ele>75.66666666666667</ele><time>2026-05-01T08:22:04.415Z</time></trkpt><trkpt lat="45.225377" lon="9.0579629"><ele>75.33333333333333</ele><time>2026-05-01T08:22:07.418Z</time></trkpt><trkpt lat="45.2253464" lon="9.0580457"><ele>75.0</ele><time>2026-05-01T08:22:09.421Z</time></trkpt><trkpt lat="45.2253052" lon="9.0581427"><ele>75.0</ele><time>2026-05-01T08:22:11.428Z</time></trkpt><trkpt lat="45.2252141" lon="9.0582668"><ele>75.0</ele><time>2026-05-01T08:22:13.49Z</time></trkpt><trkpt lat="45.2251612" lon="9.0583399"><ele>75.0</ele><time>2026-05-01T08:22:14.416Z</time></trkpt><trkpt lat="45.2250683" lon="9.0584627"><ele>75.0</ele><time>2026-05-01T08:22:16.418Z</time></trkpt><trkpt lat="45.2250232" lon="9.0585352"><ele>75.0</ele><time>2026-05-01T08:22:17.416Z</time></trkpt><trkpt lat="45.2249785" lon="9.0586028"><ele>75.16666666666667</ele><time>2026-05-01T08:22:18.435Z</time></trkpt><trkpt lat="45.2248921" lon="9.0587124"><ele>75.33333333333333</ele><time>2026-05-01T08:22:20.419Z</time></trkpt><trkpt lat="45.2248288" lon="9.0587928"><ele>75.5</ele><time>2026-05-01T08:22:22.423Z</time></trkpt><trkpt lat="45.2247622" lon="9.058817"><ele>75.66666666666666</ele><time>2026-05-01T08:22:26.489Z</time></trkpt><trkpt lat="45.2247487" lon="9.0587082"><ele>75.83333333333333</ele><time>2026-05-01T08:22:30.423Z</time></trkpt><trkpt lat="45.2247528" lon="9.0586112"><ele>76.0</ele><time>2026-05-01T08:22:33.417Z</time></trkpt><trkpt lat="45.2247435" lon="9.0584979"><ele>75.66666666666666</ele><time>2026-05-01T08:22:36.422Z</time></trkpt><trkpt lat="45.2246788" lon="9.0583985"><ele>75.33333333333333</ele><time>2026-05-01T08:22:39.414Z</time></trkpt><trkpt lat="45.224612" lon="9.0583589"><ele>75.0</ele><time>2026-05-01T08:22:41.495Z</time></trkpt><trkpt lat="45.2245294" lon="9.0583466"><ele>74.66666666666667</ele><time>2026-05-01T08:22:43.426Z</time></trkpt><trkpt lat="45.2244619" lon="9.0583601"><ele>74.33333333333334</ele><time>2026-05-01T08:22:45.423Z</time></trkpt><trkpt lat="45.2243955" lon="9.0583702"><ele>74.0</ele><time>2026-05-01T08:22:47.417Z</time></trkpt><trkpt lat="45.2243278" lon="9.0583727"><ele>74.0</ele><time>2026-05-01T08:22:49.424Z</time></trkpt><trkpt lat="45.2242575" lon="9.0583834"><ele>74.0</ele><time>2026-05-01T08:22:51.499Z</time></trkpt><trkpt lat="45.2241878" lon="9.0583746"><ele>74.0</ele><time>2026-05-01T08:22:53.42Z</time></trkpt><trkpt lat="45.2241102" lon="9.0583689"><ele>74.0</ele><time>2026-05-01T08:22:55.409Z</time></trkpt><trkpt lat="45.2240397" lon="9.0583669"><ele>74.0</ele><time>2026-05-01T08:22:57.415Z</time></trkpt><trkpt lat="45.2239749" lon="9.0583702"><ele>74.0</ele><time>2026-05-01T08:22:59.416Z</time></trkpt><trkpt lat="45.2238923" lon="9.0583405"><ele>74.0</ele><time>2026-05-01T08:23:02.421Z</time></trkpt><trkpt lat="45.2238067" lon="9.0583185"><ele>74.0</ele><time>2026-05-01T08:23:05.426Z</time></trkpt><trkpt lat="45.2237303" lon="9.0582945"><ele>74.0</ele><time>2026-05-01T08:23:08.425Z</time></trkpt><trkpt lat="45.2236501" lon="9.0582692"><ele>74.0</ele><time>2026-05-01T08:23:11.42Z</time></trkpt><trkpt lat="45.2235591" lon="9.0582498"><ele>74.0</ele><time>2026-05-01T08:23:14.417Z</time></trkpt><trkpt lat="45.2234652" lon="9.0582249"><ele>74.0</ele><time>2026-05-01T08:23:17.426Z</time></trkpt><trkpt lat="45.2234027" lon="9.0582105"><ele>74.0</ele><time>2026-05-01T08:23:19.42Z</time></trkpt><trkpt lat="45.223317" lon="9.0581843"><ele>73.57142857142857</ele><time>2026-05-01T08:23:22.427Z</time></trkpt><trkpt lat="45.2232313" lon="9.0581514"><ele>73.14285714285714</ele><time>2026-05-01T08:23:25.428Z</time></trkpt><trkpt lat="45.2231657" lon="9.0581316"><ele>72.71428571428571</ele><time>2026-05-01T08:23:27.42Z</time></trkpt><trkpt lat="45.2231036" lon="9.0581096"><ele>72.28571428571428</ele><time>2026-05-01T08:23:29.419Z</time></trkpt><trkpt lat="45.2230344" lon="9.0580971"><ele>71.85714285714285</ele><time>2026-05-01T08:23:31.419Z</time></trkpt><trkpt lat="45.2229538" lon="9.0581385"><ele>71.42857142857143</ele><time>2026-05-01T08:23:34.42Z</time></trkpt><trkpt lat="45.222914" lon="9.0582203"><ele>71.0</ele><time>2026-05-01T08:23:36.425Z</time></trkpt><trkpt lat="45.2228845" lon="9.0583101"><ele>71.0</ele><time>2026-05-01T08:23:38.419Z</time></trkpt><trkpt lat="45.22285" lon="9.058387"><ele>71.0</ele><time>2026-05-01T08:23:40.431Z</time></trkpt><trkpt lat="45.2228171" lon="9.0584736"><ele>71.0</ele><time>2026-05-01T08:23:42.426Z</time></trkpt><trkpt lat="45.2227668" lon="9.0585935"><ele>71.0</ele><time>2026-05-01T08:23:45.43Z</time></trkpt><trkpt lat="45.2227196" lon="9.0587119"><ele>71.0</ele><time>2026-05-01T08:23:48.417Z</time></trkpt><trkpt lat="45.2226827" lon="9.0587965"><ele>71.0</ele><time>2026-05-01T08:23:50.418Z</time></trkpt><trkpt lat="45.2226363" lon="9.0588677"><ele>71.0</ele><time>2026-05-01T08:23:52.424Z</time></trkpt><trkpt lat="45.2225821" lon="9.0589146"><ele>71.0</ele><time>2026-05-01T08:23:54.424Z</time></trkpt><trkpt lat="45.2224975" lon="9.058961"><ele>71.0</ele><time>2026-05-01T08:23:57.417Z</time></trkpt><trkpt lat="45.2224348" lon="9.0590318"><ele>71.0</ele><time>2026-05-01T08:23:59.414Z</time></trkpt><trkpt lat="45.2223744" lon="9.0591223"><ele>71.0</ele><time>2026-05-01T08:24:01.414Z</time></trkpt><trkpt lat="45.2223291" lon="9.0592059"><ele>71.0</ele><time>2026-05-01T08:24:03.422Z</time></trkpt><trkpt lat="45.2222644" lon="9.0592927"><ele>71.16666666666667</ele><time>2026-05-01T08:24:06.424Z</time></trkpt><trkpt lat="45.2221955" lon="9.0593789"><ele>71.33333333333334</ele><time>2026-05-01T08:24:09.413Z</time></trkpt><trkpt lat="45.2221453" lon="9.0594438"><ele>71.5</ele><time>2026-05-01T08:24:11.416Z</time></trkpt><trkpt lat="45.2220911" lon="9.0595056"><ele>71.66666666666667</ele><time>2026-05-01T08:24:13.426Z</time></trkpt><trkpt lat="45.222034" lon="9.0595587"><ele>71.83333333333333</ele><time>2026-05-01T08:24:15.434Z</time></trkpt><trkpt lat="45.2219802" lon="9.0596091"><ele>72.0</ele><time>2026-05-01T08:24:17.417Z</time></trkpt><trkpt lat="45.2219075" lon="9.0596838"><ele>72.0</ele><time>2026-05-01T08:24:20.424Z</time></trkpt><trkpt lat="45.2218319" lon="9.0597681"><ele>72.0</ele><time>2026-05-01T08:24:23.424Z</time></trkpt><trkpt lat="45.2217816" lon="9.0598248"><ele>72.0</ele><time>2026-05-01T08:24:25.416Z</time></trkpt><trkpt lat="45.2217068" lon="9.0599047"><ele>72.0</ele><time>2026-05-01T08:24:28.414Z</time></trkpt><trkpt lat="45.2216531" lon="9.0599617"><ele>72.0</ele><time>2026-05-01T08:24:30.421Z</time></trkpt><trkpt lat="45.2216005" lon="9.0600209"><ele>72.0</ele><time>2026-05-01T08:24:32.43Z</time></trkpt><trkpt lat="45.2215457" lon="9.0600769"><ele>72.57142857142858</ele><time>2026-05-01T08:24:34.416Z</time></trkpt><trkpt lat="45.2214852" lon="9.0601354"><ele>73.14285714285714</ele><time>2026-05-01T08:24:36.412Z</time></trkpt><trkpt lat="45.2214303" lon="9.0601918"><ele>73.71428571428572</ele><time>2026-05-01T08:24:38.415Z</time></trkpt><trkpt lat="45.2213799" lon="9.0602485"><ele>74.28571428571429</ele><time>2026-05-01T08:24:40.422Z</time></trkpt><trkpt lat="45.2213287" lon="9.0603142"><ele>74.85714285714286</ele><time>2026-05-01T08:24:42.415Z</time></trkpt><trkpt lat="45.221277" lon="9.0603702"><ele>75.42857142857143</ele><time>2026-05-01T08:24:44.422Z</time></trkpt><trkpt lat="45.2212237" lon="9.0604288"><ele>76.0</ele><time>2026-05-01T08:24:46.426Z</time></trkpt><trkpt lat="45.2211475" lon="9.0605167"><ele>76.0</ele><time>2026-05-01T08:24:49.422Z</time></trkpt><trkpt lat="45.221095" lon="9.0605748"><ele>76.0</ele><time>2026-05-01T08:24:51.489Z</time></trkpt><trkpt lat="45.2210447" lon="9.0606317"><ele>76.0</ele><time>2026-05-01T08:24:53.424Z</time></trkpt><trkpt lat="45.2209906" lon="9.0606917"><ele>76.0</ele><time>2026-05-01T08:24:55.419Z</time></trkpt><trkpt lat="45.2209153" lon="9.0607759"><ele>76.0</ele><time>2026-05-01T08:24:58.423Z</time></trkpt><trkpt lat="45.2208646" lon="9.0608357"><ele>76.0</ele><time>2026-05-01T08:25:00.426Z</time></trkpt><trkpt lat="45.2207867" lon="9.0609166"><ele>76.14285714285714</ele><time>2026-05-01T08:25:03.435Z</time></trkpt><trkpt lat="45.2207329" lon="9.0609729"><ele>76.28571428571429</ele><time>2026-05-01T08:25:05.485Z</time></trkpt><trkpt lat="45.2206762" lon="9.0610342"><ele>76.42857142857143</ele><time>2026-05-01T08:25:07.418Z</time></trkpt><trkpt lat="45.2206197" lon="9.0610891"><ele>76.57142857142857</ele><time>2026-05-01T08:25:09.422Z</time></trkpt><trkpt lat="45.2205675" lon="9.0611452"><ele>76.71428571428572</ele><time>2026-05-01T08:25:11.411Z</time></trkpt><trkpt lat="45.2205195" lon="9.0612086"><ele>76.85714285714286</ele><time>2026-05-01T08:25:13.419Z</time></trkpt><trkpt lat="45.2204721" lon="9.061268"><ele>77.0</ele><time>2026-05-01T08:25:15.414Z</time></trkpt><trkpt lat="45.2204494" lon="9.0613578"><ele>77.0</ele><time>2026-05-01T08:25:18.415Z</time></trkpt><trkpt lat="45.220478" lon="9.0614546"><ele>77.0</ele><time>2026-05-01T08:25:21.417Z</time></trkpt><trkpt lat="45.2205187" lon="9.0615601"><ele>77.0</ele><time>2026-05-01T08:25:24.425Z</time></trkpt><trkpt lat="45.2205681" lon="9.0616644"><ele>77.0</ele><time>2026-05-01T08:25:27.418Z</time></trkpt><trkpt lat="45.2206149" lon="9.0617685"><ele>77.0</ele><time>2026-05-01T08:25:30.415Z</time></trkpt><trkpt lat="45.2206681" lon="9.0618726"><ele>77.0</ele><time>2026-05-01T08:25:33.416Z</time></trkpt><trkpt lat="45.2207178" lon="9.0619874"><ele>77.0</ele><time>2026-05-01T08:25:36.425Z</time></trkpt><trkpt lat="45.2207557" lon="9.062064"><ele>77.0</ele><time>2026-05-01T08:25:38.416Z</time></trkpt><trkpt lat="45.2207974" lon="9.0621452"><ele>77.0</ele><time>2026-05-01T08:25:40.429Z</time></trkpt><trkpt lat="45.2208371" lon="9.0622218"><ele>77.0</ele><time>2026-05-01T08:25:42.423Z</time></trkpt><trkpt lat="45.220874" lon="9.0623007"><ele>77.0</ele><time>2026-05-01T08:25:44.417Z</time></trkpt><trkpt lat="45.2209143" lon="9.062381"><ele>77.0</ele><time>2026-05-01T08:25:46.417Z</time></trkpt><trkpt lat="45.2209517" lon="9.0624647"><ele>77.0</ele><time>2026-05-01T08:25:48.419Z</time></trkpt><trkpt lat="45.22099" lon="9.0625479"><ele>77.14285714285714</ele><time>2026-05-01T08:25:50.431Z</time></trkpt><trkpt lat="45.2210374" lon="9.0626372"><ele>77.28571428571428</ele><time>2026-05-01T08:25:52.416Z</time></trkpt><trkpt lat="45.2210792" lon="9.0627248"><ele>77.42857142857143</ele><time>2026-05-01T08:25:54.419Z</time></trkpt><trkpt lat="45.2211181" lon="9.0628025"><ele>77.57142857142857</ele><time>2026-05-01T08:25:56.426Z</time></trkpt><trkpt lat="45.2211543" lon="9.0628771"><ele>77.71428571428571</ele><time>2026-05-01T08:25:58.419Z</time></trkpt><trkpt lat="45.2211927" lon="9.0629561"><ele>77.85714285714286</ele><time>2026-05-01T08:26:00.415Z</time></trkpt><trkpt lat="45.2212443" lon="9.0630569"><ele>78.0</ele><time>2026-05-01T08:26:03.411Z</time></trkpt><trkpt lat="45.2212796" lon="9.0631386"><ele>78.0</ele><time>2026-05-01T08:26:06.421Z</time></trkpt><trkpt lat="45.221307" lon="9.0632235"><ele>78.0</ele><time>2026-05-01T08:26:09.491Z</time></trkpt><trkpt lat="45.2212775" lon="9.0633312"><ele>78.0</ele><time>2026-05-01T08:26:12.434Z</time></trkpt><trkpt lat="45.2212149" lon="9.0634223"><ele>78.0</ele><time>2026-05-01T08:26:15.417Z</time></trkpt><trkpt lat="45.2211621" lon="9.0634797"><ele>78.0</ele><time>2026-05-01T08:26:17.422Z</time></trkpt><trkpt lat="45.2211118" lon="9.0635409"><ele>78.0</ele><time>2026-05-01T08:26:19.424Z</time></trkpt><trkpt lat="45.2210603" lon="9.0636006"><ele>78.0</ele><time>2026-05-01T08:26:21.424Z</time></trkpt><trkpt lat="45.2209871" lon="9.0636836"><ele>77.71428571428572</ele><time>2026-05-01T08:26:24.423Z</time></trkpt><trkpt lat="45.2209371" lon="9.063738"><ele>77.42857142857142</ele><time>2026-05-01T08:26:26.419Z</time></trkpt><trkpt lat="45.2208864" lon="9.0637937"><ele>77.14285714285714</ele><time>2026-05-01T08:26:28.424Z</time></trkpt><trkpt lat="45.2208156" lon="9.0638799"><ele>76.85714285714286</ele><time>2026-05-01T08:26:31.414Z</time></trkpt><trkpt lat="45.220765" lon="9.063938"><ele>76.57142857142858</ele><time>2026-05-01T08:26:33.415Z</time></trkpt><trkpt lat="45.2207111" lon="9.0639901"><ele>76.28571428571428</ele><time>2026-05-01T08:26:35.422Z</time></trkpt><trkpt lat="45.2206593" lon="9.0640473"><ele>76.0</ele><time>2026-05-01T08:26:37.423Z</time></trkpt><trkpt lat="45.2206072" lon="9.064098"><ele>76.0</ele><time>2026-05-01T08:26:39.429Z</time></trkpt><trkpt lat="45.2205485" lon="9.0641571"><ele>76.0</ele><time>2026-05-01T08:26:41.418Z</time></trkpt><trkpt lat="45.2204906" lon="9.0642017"><ele>76.0</ele><time>2026-05-01T08:26:43.42Z</time></trkpt><trkpt lat="45.2204317" lon="9.0642502"><ele>76.0</ele><time>2026-05-01T08:26:45.427Z</time></trkpt><trkpt lat="45.2203689" lon="9.0642848"><ele>76.0</ele><time>2026-05-01T08:26:47.424Z</time></trkpt><trkpt lat="45.2203037" lon="9.0643235"><ele>76.0</ele><time>2026-05-01T08:26:49.423Z</time></trkpt><trkpt lat="45.220238" lon="9.0643796"><ele>76.0</ele><time>2026-05-01T08:26:51.424Z</time></trkpt><trkpt lat="45.2201763" lon="9.0644346"><ele>76.0</ele><time>2026-05-01T08:26:53.419Z</time></trkpt><trkpt lat="45.2201182" lon="9.0644852"><ele>76.0</ele><time>2026-05-01T08:26:55.417Z</time></trkpt><trkpt lat="45.2200604" lon="9.0645348"><ele>76.0</ele><time>2026-05-01T08:26:57.42Z</time></trkpt><trkpt lat="45.2199996" lon="9.0645831"><ele>76.0</ele><time>2026-05-01T08:26:59.413Z</time></trkpt><trkpt lat="45.2199402" lon="9.0646339"><ele>76.0</ele><time>2026-05-01T08:27:01.424Z</time></trkpt><trkpt lat="45.21988" lon="9.0646834"><ele>76.0</ele><time>2026-05-01T08:27:03.421Z</time></trkpt><trkpt lat="45.2198178" lon="9.0647358"><ele>76.0</ele><time>2026-05-01T08:27:05.41Z</time></trkpt><trkpt lat="45.2197584" lon="9.0647887"><ele>76.0</ele><time>2026-05-01T08:27:07.411Z</time></trkpt><trkpt lat="45.2196912" lon="9.0648491"><ele>76.0</ele><time>2026-05-01T08:27:09.418Z</time></trkpt><trkpt lat="45.2196223" lon="9.0649113"><ele>76.0</ele><time>2026-05-01T08:27:11.414Z</time></trkpt><trkpt lat="45.2195517" lon="9.0649713"><ele>76.0</ele><time>2026-05-01T08:27:13.423Z</time></trkpt><trkpt lat="45.2194778" lon="9.0650244"><ele>76.0</ele><time>2026-05-01T08:27:15.419Z</time></trkpt><trkpt lat="45.2194096" lon="9.0650725"><ele>76.0</ele><time>2026-05-01T08:27:17.427Z</time></trkpt><trkpt lat="45.2193474" lon="9.0651232"><ele>76.0</ele><time>2026-05-01T08:27:19.429Z</time></trkpt><trkpt lat="45.2192914" lon="9.0651733"><ele>76.0</ele><time>2026-05-01T08:27:21.418Z</time></trkpt><trkpt lat="45.2192247" lon="9.0652238"><ele>76.0</ele><time>2026-05-01T08:27:24.43Z</time></trkpt><trkpt lat="45.2191692" lon="9.0652765"><ele>76.0</ele><time>2026-05-01T08:27:27.419Z</time></trkpt><trkpt lat="45.21909" lon="9.0653468"><ele>76.0</ele><time>2026-05-01T08:27:30.423Z</time></trkpt><trkpt lat="45.2190363" lon="9.0653956"><ele>76.0</ele><time>2026-05-01T08:27:32.419Z</time></trkpt><trkpt lat="45.2189813" lon="9.0654459"><ele>76.0</ele><time>2026-05-01T08:27:34.496Z</time></trkpt><trkpt lat="45.2189007" lon="9.065516"><ele>76.0</ele><time>2026-05-01T08:27:37.417Z</time></trkpt><trkpt lat="45.2188448" lon="9.0655675"><ele>76.0</ele><time>2026-05-01T08:27:39.418Z</time></trkpt><trkpt lat="45.2187641" lon="9.0656348"><ele>76.0</ele><time>2026-05-01T08:27:42.419Z</time></trkpt><trkpt lat="45.2187095" lon="9.0656799"><ele>76.0</ele><time>2026-05-01T08:27:44.421Z</time></trkpt><trkpt lat="45.2186484" lon="9.065727"><ele>76.0</ele><time>2026-05-01T08:27:46.492Z</time></trkpt><trkpt lat="45.2185686" lon="9.065795"><ele>76.0</ele><time>2026-05-01T08:27:49.416Z</time></trkpt><trkpt lat="45.2184912" lon="9.0658636"><ele>76.0</ele><time>2026-05-01T08:27:52.419Z</time></trkpt><trkpt lat="45.2184161" lon="9.0659291"><ele>76.0</ele><time>2026-05-01T08:27:55.426Z</time></trkpt><trkpt lat="45.2183344" lon="9.0659933"><ele>76.0</ele><time>2026-05-01T08:27:58.419Z</time></trkpt><trkpt lat="45.2182754" lon="9.0660374"><ele>76.0</ele><time>2026-05-01T08:28:00.418Z</time></trkpt><trkpt lat="45.2181922" lon="9.0661048"><ele>76.0</ele><time>2026-05-01T08:28:03.416Z</time></trkpt><trkpt lat="45.2181374" lon="9.0661502"><ele>76.0</ele><time>2026-05-01T08:28:05.419Z</time></trkpt><trkpt lat="45.2180502" lon="9.0662061"><ele>76.0</ele><time>2026-05-01T08:28:08.416Z</time></trkpt><trkpt lat="45.217998" lon="9.0662599"><ele>76.0</ele><time>2026-05-01T08:28:10.417Z</time></trkpt><trkpt lat="45.21794" lon="9.0663144"><ele>76.0</ele><time>2026-05-01T08:28:12.499Z</time></trkpt><trkpt lat="45.2178845" lon="9.0663664"><ele>76.0</ele><time>2026-05-01T08:28:14.429Z</time></trkpt><trkpt lat="45.2178281" lon="9.0664153"><ele>76.0</ele><time>2026-05-01T08:28:16.426Z</time></trkpt><trkpt lat="45.2177737" lon="9.0664641"><ele>76.0</ele><time>2026-05-01T08:28:18.424Z</time></trkpt><trkpt lat="45.2177151" lon="9.066515"><ele>76.0</ele><time>2026-05-01T08:28:20.42Z</time></trkpt><trkpt lat="45.2176406" lon="9.066583"><ele>76.0</ele><time>2026-05-01T08:28:23.432Z</time></trkpt><trkpt lat="45.2175813" lon="9.0666508"><ele>76.0</ele><time>2026-05-01T08:28:26.431Z</time></trkpt><trkpt lat="45.2175232" lon="9.0666997"><ele>76.0</ele><time>2026-05-01T08:28:28.428Z</time></trkpt><trkpt lat="45.2174615" lon="9.0667503"><ele>76.0</ele><time>2026-05-01T08:28:30.421Z</time></trkpt><trkpt lat="45.217386" lon="9.0668114"><ele>76.0</ele><time>2026-05-01T08:28:33.419Z</time></trkpt><trkpt lat="45.2173098" lon="9.0668716"><ele>76.0</ele><time>2026-05-01T08:28:36.417Z</time></trkpt><trkpt lat="45.2172784" lon="9.0669575"><ele>76.0</ele><time>2026-05-01T08:28:39.427Z</time></trkpt><trkpt lat="45.2172896" lon="9.067072"><ele>76.0</ele><time>2026-05-01T08:28:42.42Z</time></trkpt><trkpt lat="45.2173128" lon="9.0671611"><ele>76.0</ele><time>2026-05-01T08:28:44.418Z</time></trkpt><trkpt lat="45.2173312" lon="9.0672477"><ele>76.0</ele><time>2026-05-01T08:28:46.415Z</time></trkpt><trkpt lat="45.2173463" lon="9.0673616"><ele>76.0</ele><time>2026-05-01T08:28:49.428Z</time></trkpt><trkpt lat="45.2173703" lon="9.0674787"><ele>76.0</ele><time>2026-05-01T08:28:52.431Z</time></trkpt><trkpt lat="45.2173822" lon="9.0676116"><ele>75.66666666666666</ele><time>2026-05-01T08:28:55.418Z</time></trkpt><trkpt lat="45.2174034" lon="9.0677469"><ele>75.33333333333333</ele><time>2026-05-01T08:28:58.418Z</time></trkpt><trkpt lat="45.2174157" lon="9.0678355"><ele>75.0</ele><time>2026-05-01T08:29:00.416Z</time></trkpt><trkpt lat="45.2174289" lon="9.0679229"><ele>74.66666666666667</ele><time>2026-05-01T08:29:02.417Z</time></trkpt><trkpt lat="45.2174598" lon="9.0680372"><ele>74.33333333333334</ele><time>2026-05-01T08:29:05.492Z</time></trkpt><trkpt lat="45.2174744" lon="9.0681603"><ele>74.0</ele><time>2026-05-01T08:29:08.417Z</time></trkpt><trkpt lat="45.2174922" lon="9.0682544"><ele>73.85714285714286</ele><time>2026-05-01T08:29:10.423Z</time></trkpt><trkpt lat="45.217501" lon="9.0683442"><ele>73.71428571428571</ele><time>2026-05-01T08:29:12.418Z</time></trkpt><trkpt lat="45.217515" lon="9.0684381"><ele>73.57142857142857</ele><time>2026-05-01T08:29:14.424Z</time></trkpt><trkpt lat="45.2175304" lon="9.0685253"><ele>73.42857142857143</ele><time>2026-05-01T08:29:16.413Z</time></trkpt><trkpt lat="45.217578" lon="9.0686424"><ele>73.28571428571429</ele><time>2026-05-01T08:29:19.415Z</time></trkpt><trkpt lat="45.2176237" lon="9.0687421"><ele>73.14285714285714</ele><time>2026-05-01T08:29:21.422Z</time></trkpt><trkpt lat="45.2176599" lon="9.0688363"><ele>73.0</ele><time>2026-05-01T08:29:23.419Z</time></trkpt><trkpt lat="45.2176929" lon="9.0689217"><ele>73.0</ele><time>2026-05-01T08:29:25.427Z</time></trkpt><trkpt lat="45.2177345" lon="9.0690116"><ele>73.0</ele><time>2026-05-01T08:29:27.412Z</time></trkpt><trkpt lat="45.2177742" lon="9.0690974"><ele>73.0</ele><time>2026-05-01T08:29:29.422Z</time></trkpt><trkpt lat="45.2178115" lon="9.0691917"><ele>73.0</ele><time>2026-05-01T08:29:31.432Z</time></trkpt><trkpt lat="45.2178513" lon="9.0693053"><ele>73.0</ele><time>2026-05-01T08:29:34.416Z</time></trkpt><trkpt lat="45.217873" lon="9.069393"><ele>73.0</ele><time>2026-05-01T08:29:36.42Z</time></trkpt><trkpt lat="45.2179139" lon="9.0695107"><ele>73.16666666666666</ele><time>2026-05-01T08:29:39.417Z</time></trkpt><trkpt lat="45.2179469" lon="9.0696377"><ele>73.33333333333333</ele><time>2026-05-01T08:29:42.418Z</time></trkpt><trkpt lat="45.2179729" lon="9.0697714"><ele>73.5</ele><time>2026-05-01T08:29:45.422Z</time></trkpt><trkpt lat="45.2179894" lon="9.069866"><ele>73.66666666666667</ele><time>2026-05-01T08:29:47.417Z</time></trkpt><trkpt lat="45.2179967" lon="9.0699657"><ele>73.83333333333334</ele><time>2026-05-01T08:29:49.422Z</time></trkpt><trkpt lat="45.2180062" lon="9.0700613"><ele>74.0</ele><time>2026-05-01T08:29:51.427Z</time></trkpt><trkpt lat="45.2180141" lon="9.0701684"><ele>74.16666666666667</ele><time>2026-05-01T08:29:53.433Z</time></trkpt><trkpt lat="45.2180094" lon="9.0702761"><ele>74.33333333333334</ele><time>2026-05-01T08:29:55.411Z</time></trkpt><trkpt lat="45.2179982" lon="9.0703819"><ele>74.5</ele><time>2026-05-01T08:29:57.417Z</time></trkpt><trkpt lat="45.2179789" lon="9.0704845"><ele>74.66666666666667</ele><time>2026-05-01T08:29:59.418Z</time></trkpt><trkpt lat="45.2179324" lon="9.0705629"><ele>74.83333333333333</ele><time>2026-05-01T08:30:01.418Z</time></trkpt><trkpt lat="45.2178724" lon="9.0706298"><ele>75.0</ele><time>2026-05-01T08:30:03.428Z</time></trkpt><trkpt lat="45.2178141" lon="9.0707017"><ele>75.28571428571428</ele><time>2026-05-01T08:30:05.42Z</time></trkpt><trkpt lat="45.2177648" lon="9.07078"><ele>75.57142857142857</ele><time>2026-05-01T08:30:07.416Z</time></trkpt><trkpt lat="45.2177137" lon="9.0708519"><ele>75.85714285714286</ele><time>2026-05-01T08:30:09.413Z</time></trkpt><trkpt lat="45.2176611" lon="9.0709173"><ele>76.14285714285714</ele><time>2026-05-01T08:30:11.419Z</time></trkpt><trkpt lat="45.2176084" lon="9.0709673"><ele>76.42857142857143</ele><time>2026-05-01T08:30:13.419Z</time></trkpt><trkpt lat="45.2175434" lon="9.0710015"><ele>76.71428571428571</ele><time>2026-05-01T08:30:15.489Z</time></trkpt><trkpt lat="45.2174748" lon="9.0710272"><ele>77.0</ele><time>2026-05-01T08:30:17.429Z</time></trkpt><trkpt lat="45.2174039" lon="9.0710489"><ele>77.0</ele><time>2026-05-01T08:30:19.422Z</time></trkpt><trkpt lat="45.2173386" lon="9.071084"><ele>77.0</ele><time>2026-05-01T08:30:21.421Z</time></trkpt><trkpt lat="45.2172515" lon="9.0711319"><ele>77.0</ele><time>2026-05-01T08:30:24.413Z</time></trkpt><trkpt lat="45.217186" lon="9.0711718"><ele>77.0</ele><time>2026-05-01T08:30:26.425Z</time></trkpt><trkpt lat="45.2171226" lon="9.0712028"><ele>77.0</ele><time>2026-05-01T08:30:28.414Z</time></trkpt><trkpt lat="45.2170568" lon="9.0712402"><ele>77.0</ele><time>2026-05-01T08:30:30.428Z</time></trkpt><trkpt lat="45.2169862" lon="9.0712762"><ele>77.0</ele><time>2026-05-01T08:30:32.419Z</time></trkpt><trkpt lat="45.2169183" lon="9.071315"><ele>77.0</ele><time>2026-05-01T08:30:34.417Z</time></trkpt><trkpt lat="45.2168436" lon="9.0713578"><ele>77.0</ele><time>2026-05-01T08:30:36.416Z</time></trkpt><trkpt lat="45.2167823" lon="9.0713964"><ele>77.0</ele><time>2026-05-01T08:30:38.42Z</time></trkpt><trkpt lat="45.2167171" lon="9.0714432"><ele>77.0</ele><time>2026-05-01T08:30:40.417Z</time></trkpt><trkpt lat="45.2166626" lon="9.0715096"><ele>77.0</ele><time>2026-05-01T08:30:42.417Z</time></trkpt><trkpt lat="45.2166133" lon="9.0715776"><ele>77.0</ele><time>2026-05-01T08:30:44.413Z</time></trkpt><trkpt lat="45.2165478" lon="9.071666"><ele>76.28571428571429</ele><time>2026-05-01T08:30:47.41Z</time></trkpt><trkpt lat="45.2164831" lon="9.0717603"><ele>75.57142857142857</ele><time>2026-05-01T08:30:50.419Z</time></trkpt><trkpt lat="45.2164368" lon="9.0718299"><ele>74.85714285714286</ele><time>2026-05-01T08:30:52.418Z</time></trkpt><trkpt lat="45.2163893" lon="9.0719051"><ele>74.14285714285714</ele><time>2026-05-01T08:30:54.42Z</time></trkpt><trkpt lat="45.216344" lon="9.0719905"><ele>73.42857142857143</ele><time>2026-05-01T08:30:56.407Z</time></trkpt><trkpt lat="45.216297" lon="9.0720702"><ele>72.71428571428572</ele><time>2026-05-01T08:30:58.414Z</time></trkpt><trkpt lat="45.2162539" lon="9.0721466"><ele>72.0</ele><time>2026-05-01T08:31:00.427Z</time></trkpt><trkpt lat="45.2162051" lon="9.0722075"><ele>72.00000000000001</ele><time>2026-05-01T08:31:02.421Z</time></trkpt><trkpt lat="45.2161567" lon="9.0722676"><ele>72.0</ele><time>2026-05-01T08:31:04.432Z</time></trkpt><trkpt lat="45.2161067" lon="9.0723336"><ele>72.0</ele><time>2026-05-01T08:31:06.419Z</time></trkpt><trkpt lat="45.2160584" lon="9.0723961"><ele>72.0</ele><time>2026-05-01T08:31:08.419Z</time></trkpt><trkpt lat="45.216014" lon="9.0724625"><ele>72.0</ele><time>2026-05-01T08:31:10.417Z</time></trkpt><trkpt lat="45.2159608" lon="9.0725318"><ele>72.00000000000001</ele><time>2026-05-01T08:31:12.421Z</time></trkpt><trkpt lat="45.215912" lon="9.0726056"><ele>72.0</ele><time>2026-05-01T08:31:14.419Z</time></trkpt><trkpt lat="45.2158462" lon="9.0727045"><ele>71.85714285714286</ele><time>2026-05-01T08:31:17.416Z</time></trkpt><trkpt lat="45.2157952" lon="9.0727749"><ele>71.71428571428572</ele><time>2026-05-01T08:31:19.49Z</time></trkpt><trkpt lat="45.2157467" lon="9.0728448"><ele>71.57142857142857</ele><time>2026-05-01T08:31:21.428Z</time></trkpt><trkpt lat="45.2157006" lon="9.0729147"><ele>71.42857142857143</ele><time>2026-05-01T08:31:23.417Z</time></trkpt><trkpt lat="45.2156543" lon="9.072982"><ele>71.28571428571428</ele><time>2026-05-01T08:31:25.42Z</time></trkpt><trkpt lat="45.2156009" lon="9.0730547"><ele>71.14285714285714</ele><time>2026-05-01T08:31:27.418Z</time></trkpt><trkpt lat="45.2155515" lon="9.0731273"><ele>71.0</ele><time>2026-05-01T08:31:29.416Z</time></trkpt><trkpt lat="45.2155074" lon="9.0732004"><ele>71.33333333333334</ele><time>2026-05-01T08:31:31.414Z</time></trkpt><trkpt lat="45.2154466" lon="9.0732941"><ele>71.66666666666667</ele><time>2026-05-01T08:31:34.425Z</time></trkpt><trkpt lat="45.2153769" lon="9.0733813"><ele>72.0</ele><time>2026-05-01T08:31:37.415Z</time></trkpt><trkpt lat="45.2153012" lon="9.0734698"><ele>72.33333333333333</ele><time>2026-05-01T08:31:40.415Z</time></trkpt><trkpt lat="45.2152551" lon="9.0735311"><ele>72.66666666666666</ele><time>2026-05-01T08:31:42.424Z</time></trkpt><trkpt lat="45.2151879" lon="9.0736292"><ele>73.0</ele><time>2026-05-01T08:31:45.422Z</time></trkpt><trkpt lat="45.2151372" lon="9.0737045"><ele>73.0</ele><time>2026-05-01T08:31:47.41Z</time></trkpt><trkpt lat="45.2150847" lon="9.0737692"><ele>73.0</ele><time>2026-05-01T08:31:49.417Z</time></trkpt><trkpt lat="45.2150406" lon="9.0738351"><ele>73.0</ele><time>2026-05-01T08:31:51.423Z</time></trkpt><trkpt lat="45.2149886" lon="9.0738988"><ele>73.0</ele><time>2026-05-01T08:31:53.417Z</time></trkpt><trkpt lat="45.2149382" lon="9.0739748"><ele>73.0</ele><time>2026-05-01T08:31:55.422Z</time></trkpt><trkpt lat="45.2148951" lon="9.0740476"><ele>73.0</ele><time>2026-05-01T08:31:57.424Z</time></trkpt><trkpt lat="45.2148432" lon="9.0741213"><ele>73.0</ele><time>2026-05-01T08:31:59.415Z</time></trkpt><trkpt lat="45.2147632" lon="9.0741966"><ele>73.33333333333333</ele><time>2026-05-01T08:32:02.427Z</time></trkpt><trkpt lat="45.2146973" lon="9.0742556"><ele>73.66666666666666</ele><time>2026-05-01T08:32:04.419Z</time></trkpt><trkpt lat="45.2146232" lon="9.074287"><ele>74.0</ele><time>2026-05-01T08:32:06.419Z</time></trkpt><trkpt lat="45.2145494" lon="9.0743241"><ele>74.33333333333333</ele><time>2026-05-01T08:32:08.422Z</time></trkpt><trkpt lat="45.2144836" lon="9.0743614"><ele>74.66666666666667</ele><time>2026-05-01T08:32:10.413Z</time></trkpt><trkpt lat="45.2144152" lon="9.0744027"><ele>75.0</ele><time>2026-05-01T08:32:12.423Z</time></trkpt><trkpt lat="45.2143609" lon="9.0744727"><ele>75.0</ele><time>2026-05-01T08:32:14.416Z</time></trkpt><trkpt lat="45.2142999" lon="9.074548"><ele>75.0</ele><time>2026-05-01T08:32:16.418Z</time></trkpt><trkpt lat="45.2142418" lon="9.0746212"><ele>75.0</ele><time>2026-05-01T08:32:18.418Z</time></trkpt><trkpt lat="45.2141777" lon="9.0746965"><ele>75.0</ele><time>2026-05-01T08:32:20.415Z</time></trkpt><trkpt lat="45.2141257" lon="9.0747854"><ele>75.0</ele><time>2026-05-01T08:32:22.428Z</time></trkpt><trkpt lat="45.2140806" lon="9.0748609"><ele>75.0</ele><time>2026-05-01T08:32:24.422Z</time></trkpt><trkpt lat="45.2140337" lon="9.0749449"><ele>75.57142857142857</ele><time>2026-05-01T08:32:26.415Z</time></trkpt><trkpt lat="45.2139977" lon="9.0750183"><ele>76.14285714285714</ele><time>2026-05-01T08:32:28.418Z</time></trkpt><trkpt lat="45.2139588" lon="9.0750949"><ele>76.71428571428572</ele><time>2026-05-01T08:32:30.43Z</time></trkpt><trkpt lat="45.2139233" lon="9.0751777"><ele>77.28571428571428</ele><time>2026-05-01T08:32:32.422Z</time></trkpt><trkpt lat="45.2138751" lon="9.0752607"><ele>77.85714285714286</ele><time>2026-05-01T08:32:34.416Z</time></trkpt><trkpt lat="45.2138349" lon="9.0753482"><ele>78.42857142857143</ele><time>2026-05-01T08:32:36.418Z</time></trkpt><trkpt lat="45.2137887" lon="9.075423"><ele>79.0</ele><time>2026-05-01T08:32:38.417Z</time></trkpt><trkpt lat="45.2137421" lon="9.0755087"><ele>78.00000000000001</ele><time>2026-05-01T08:32:40.427Z</time></trkpt><trkpt lat="45.2136973" lon="9.0755827"><ele>77.0</ele><time>2026-05-01T08:32:42.419Z</time></trkpt><trkpt lat="45.2136547" lon="9.0756716"><ele>76.0</ele><time>2026-05-01T08:32:44.424Z</time></trkpt><trkpt lat="45.2136149" lon="9.0757481"><ele>75.0</ele><time>2026-05-01T08:32:46.416Z</time></trkpt><trkpt lat="45.2135618" lon="9.0758644"><ele>74.0</ele><time>2026-05-01T08:32:49.417Z</time></trkpt><trkpt lat="45.2135268" lon="9.0759547"><ele>73.00000000000001</ele><time>2026-05-01T08:32:51.419Z</time></trkpt><trkpt lat="45.2134931" lon="9.0760364"><ele>72.0</ele><time>2026-05-01T08:32:53.419Z</time></trkpt><trkpt lat="45.2134647" lon="9.0761166"><ele>72.00000000000001</ele><time>2026-05-01T08:32:55.486Z</time></trkpt><trkpt lat="45.2134344" lon="9.0762021"><ele>72.0</ele><time>2026-05-01T08:32:57.425Z</time></trkpt><trkpt lat="45.213404" lon="9.076286"><ele>72.0</ele><time>2026-05-01T08:32:59.416Z</time></trkpt><trkpt lat="45.2133719" lon="9.0763767"><ele>72.0</ele><time>2026-05-01T08:33:01.418Z</time></trkpt><trkpt lat="45.2133424" lon="9.0764616"><ele>72.0</ele><time>2026-05-01T08:33:03.413Z</time></trkpt><trkpt lat="45.2133107" lon="9.0765474"><ele>72.00000000000001</ele><time>2026-05-01T08:33:05.423Z</time></trkpt><trkpt lat="45.2132841" lon="9.076636"><ele>72.0</ele><time>2026-05-01T08:33:07.419Z</time></trkpt><trkpt lat="45.213258" lon="9.076722"><ele>72.28571428571429</ele><time>2026-05-01T08:33:09.422Z</time></trkpt><trkpt lat="45.2132333" lon="9.0768103"><ele>72.57142857142857</ele><time>2026-05-01T08:33:11.421Z</time></trkpt><trkpt lat="45.2132029" lon="9.0769001"><ele>72.85714285714286</ele><time>2026-05-01T08:33:13.429Z</time></trkpt><trkpt lat="45.2131808" lon="9.0769844"><ele>73.14285714285714</ele><time>2026-05-01T08:33:15.419Z</time></trkpt><trkpt lat="45.2131629" lon="9.0770761"><ele>73.42857142857143</ele><time>2026-05-01T08:33:17.422Z</time></trkpt><trkpt lat="45.2131513" lon="9.0771641"><ele>73.71428571428572</ele><time>2026-05-01T08:33:19.422Z</time></trkpt><trkpt lat="45.2131531" lon="9.0772804"><ele>74.0</ele><time>2026-05-01T08:33:21.418Z</time></trkpt><trkpt lat="45.213151" lon="9.0773843"><ele>74.66666666666667</ele><time>2026-05-01T08:33:23.42Z</time></trkpt><trkpt lat="45.2131451" lon="9.0775118"><ele>75.33333333333334</ele><time>2026-05-01T08:33:26.42Z</time></trkpt><trkpt lat="45.2131416" lon="9.0776443"><ele>76.0</ele><time>2026-05-01T08:33:29.421Z</time></trkpt><trkpt lat="45.213139" lon="9.0777359"><ele>76.66666666666667</ele><time>2026-05-01T08:33:31.424Z</time></trkpt><trkpt lat="45.2131393" lon="9.0778299"><ele>77.33333333333333</ele><time>2026-05-01T08:33:33.427Z</time></trkpt><trkpt lat="45.2131405" lon="9.0779673"><ele>78.0</ele><time>2026-05-01T08:33:36.414Z</time></trkpt><trkpt lat="45.2131323" lon="9.0780604"><ele>78.0</ele><time>2026-05-01T08:33:38.417Z</time></trkpt><trkpt lat="45.2131249" lon="9.0781564"><ele>78.0</ele><time>2026-05-01T08:33:40.419Z</time></trkpt><trkpt lat="45.213111" lon="9.0782443"><ele>78.0</ele><time>2026-05-01T08:33:42.417Z</time></trkpt><trkpt lat="45.2130951" lon="9.0783325"><ele>78.0</ele><time>2026-05-01T08:33:44.423Z</time></trkpt><trkpt lat="45.2131197" lon="9.0784407"><ele>78.0</ele><time>2026-05-01T08:33:47.425Z</time></trkpt><trkpt lat="45.2131913" lon="9.0785045"><ele>78.0</ele><time>2026-05-01T08:33:50.414Z</time></trkpt><trkpt lat="45.2132561" lon="9.0785419"><ele>78.0</ele><time>2026-05-01T08:33:52.426Z</time></trkpt><trkpt lat="45.2133218" lon="9.0785989"><ele>77.42857142857143</ele><time>2026-05-01T08:33:54.423Z</time></trkpt><trkpt lat="45.2133866" lon="9.0786534"><ele>76.85714285714285</ele><time>2026-05-01T08:33:56.426Z</time></trkpt><trkpt lat="45.2134421" lon="9.0787136"><ele>76.28571428571428</ele><time>2026-05-01T08:33:58.419Z</time></trkpt><trkpt lat="45.2134963" lon="9.078772"><ele>75.71428571428572</ele><time>2026-05-01T08:34:00.422Z</time></trkpt><trkpt lat="45.213552" lon="9.0788307"><ele>75.14285714285714</ele><time>2026-05-01T08:34:02.415Z</time></trkpt><trkpt lat="45.2136115" lon="9.0788944"><ele>74.57142857142857</ele><time>2026-05-01T08:34:04.416Z</time></trkpt><trkpt lat="45.2136737" lon="9.0789619"><ele>74.0</ele><time>2026-05-01T08:34:06.423Z</time></trkpt><trkpt lat="45.2137402" lon="9.0790313"><ele>74.0</ele><time>2026-05-01T08:34:08.408Z</time></trkpt><trkpt lat="45.2138061" lon="9.0790942"><ele>74.0</ele><time>2026-05-01T08:34:10.42Z</time></trkpt><trkpt lat="45.2138656" lon="9.0791678"><ele>74.0</ele><time>2026-05-01T08:34:12.422Z</time></trkpt><trkpt lat="45.2139251" lon="9.0792323"><ele>74.0</ele><time>2026-05-01T08:34:14.417Z</time></trkpt><trkpt lat="45.2139789" lon="9.0792894"><ele>74.0</ele><time>2026-05-01T08:34:16.412Z</time></trkpt><trkpt lat="45.2140494" lon="9.0793633"><ele>74.0</ele><time>2026-05-01T08:34:19.414Z</time></trkpt><trkpt lat="45.2141198" lon="9.0794448"><ele>75.0</ele><time>2026-05-01T08:34:22.422Z</time></trkpt><trkpt lat="45.2141706" lon="9.0794978"><ele>76.0</ele><time>2026-05-01T08:34:24.44Z</time></trkpt><trkpt lat="45.2142263" lon="9.0795449"><ele>77.0</ele><time>2026-05-01T08:34:26.426Z</time></trkpt><trkpt lat="45.2143055" lon="9.079626"><ele>78.0</ele><time>2026-05-01T08:34:29.426Z</time></trkpt><trkpt lat="45.2143622" lon="9.0796799"><ele>79.0</ele><time>2026-05-01T08:34:31.416Z</time></trkpt><trkpt lat="45.2144161" lon="9.0797356"><ele>80.0</ele><time>2026-05-01T08:34:33.419Z</time></trkpt><trkpt lat="45.2144714" lon="9.0797886"><ele>81.0</ele><time>2026-05-01T08:34:35.423Z</time></trkpt><trkpt lat="45.2145263" lon="9.0798382"><ele>81.0</ele><time>2026-05-01T08:34:37.422Z</time></trkpt><trkpt lat="45.2145807" lon="9.0798946"><ele>81.0</ele><time>2026-05-01T08:34:39.422Z</time></trkpt><trkpt lat="45.2146371" lon="9.0799594"><ele>81.0</ele><time>2026-05-01T08:34:41.423Z</time></trkpt><trkpt lat="45.2146926" lon="9.0800217"><ele>81.0</ele><time>2026-05-01T08:34:43.427Z</time></trkpt><trkpt lat="45.2147523" lon="9.0800759"><ele>81.0</ele><time>2026-05-01T08:34:45.423Z</time></trkpt><trkpt lat="45.2148095" lon="9.0801319"><ele>81.0</ele><time>2026-05-01T08:34:47.422Z</time></trkpt><trkpt lat="45.2148892" lon="9.0802004"><ele>81.0</ele><time>2026-05-01T08:34:50.416Z</time></trkpt><trkpt lat="45.2149509" lon="9.0802859"><ele>81.0</ele><time>2026-05-01T08:34:53.422Z</time></trkpt><trkpt lat="45.2149408" lon="9.0803915"><ele>81.0</ele><time>2026-05-01T08:34:56.419Z</time></trkpt><trkpt lat="45.2148827" lon="9.0804949"><ele>81.0</ele><time>2026-05-01T08:34:59.427Z</time></trkpt><trkpt lat="45.214834" lon="9.0805637"><ele>81.0</ele><time>2026-05-01T08:35:01.428Z</time></trkpt><trkpt lat="45.2147935" lon="9.0806506"><ele>81.0</ele><time>2026-05-01T08:35:03.42Z</time></trkpt><trkpt lat="45.2147471" lon="9.0807543"><ele>81.0</ele><time>2026-05-01T08:35:05.49Z</time></trkpt><trkpt lat="45.2147011" lon="9.080864"><ele>81.0</ele><time>2026-05-01T08:35:07.416Z</time></trkpt><trkpt lat="45.2146524" lon="9.0809529"><ele>81.0</ele><time>2026-05-01T08:35:09.418Z</time></trkpt><trkpt lat="45.2146103" lon="9.0810386"><ele>81.0</ele><time>2026-05-01T08:35:11.418Z</time></trkpt><trkpt lat="45.2145645" lon="9.0811282"><ele>81.0</ele><time>2026-05-01T08:35:13.418Z</time></trkpt><trkpt lat="45.2145172" lon="9.0812212"><ele>81.0</ele><time>2026-05-01T08:35:15.42Z</time></trkpt><trkpt lat="45.2144716" lon="9.0813153"><ele>81.0</ele><time>2026-05-01T08:35:17.421Z</time></trkpt><trkpt lat="45.2144308" lon="9.0814009"><ele>81.0</ele><time>2026-05-01T08:35:19.421Z</time></trkpt><trkpt lat="45.214387" lon="9.0814891"><ele>81.0</ele><time>2026-05-01T08:35:21.485Z</time></trkpt><trkpt lat="45.2143463" lon="9.0815698"><ele>81.0</ele><time>2026-05-01T08:35:23.418Z</time></trkpt><trkpt lat="45.2142979" lon="9.0816617"><ele>81.0</ele><time>2026-05-01T08:35:25.417Z</time></trkpt><trkpt lat="45.2142602" lon="9.0817472"><ele>81.0</ele><time>2026-05-01T08:35:27.419Z</time></trkpt><trkpt lat="45.2142181" lon="9.0818366"><ele>81.0</ele><time>2026-05-01T08:35:29.411Z</time></trkpt><trkpt lat="45.2141782" lon="9.081911"><ele>81.0</ele><time>2026-05-01T08:35:31.5Z</time></trkpt><trkpt lat="45.2141356" lon="9.0819912"><ele>81.0</ele><time>2026-05-01T08:35:33.432Z</time></trkpt><trkpt lat="45.2140959" lon="9.082079"><ele>81.0</ele><time>2026-05-01T08:35:35.419Z</time></trkpt><trkpt lat="45.2140488" lon="9.082172"><ele>81.0</ele><time>2026-05-01T08:35:37.417Z</time></trkpt><trkpt lat="45.2140024" lon="9.0822678"><ele>81.0</ele><time>2026-05-01T08:35:39.419Z</time></trkpt><trkpt lat="45.2139588" lon="9.082355"><ele>81.0</ele><time>2026-05-01T08:35:41.414Z</time></trkpt><trkpt lat="45.2139144" lon="9.0824355"><ele>81.0</ele><time>2026-05-01T08:35:43.417Z</time></trkpt><trkpt lat="45.2138699" lon="9.0825133"><ele>81.0</ele><time>2026-05-01T08:35:45.423Z</time></trkpt><trkpt lat="45.2138167" lon="9.082605"><ele>81.0</ele><time>2026-05-01T08:35:47.43Z</time></trkpt><trkpt lat="45.2137713" lon="9.0826852"><ele>81.0</ele><time>2026-05-01T08:35:49.414Z</time></trkpt><trkpt lat="45.2137307" lon="9.0827678"><ele>81.0</ele><time>2026-05-01T08:35:51.415Z</time></trkpt><trkpt lat="45.2136887" lon="9.0828501"><ele>81.0</ele><time>2026-05-01T08:35:53.42Z</time></trkpt><trkpt lat="45.2136375" lon="9.0829314"><ele>81.0</ele><time>2026-05-01T08:35:55.422Z</time></trkpt><trkpt lat="45.2135895" lon="9.0830101"><ele>81.0</ele><time>2026-05-01T08:35:57.415Z</time></trkpt><trkpt lat="45.2135388" lon="9.0830853"><ele>81.0</ele><time>2026-05-01T08:35:59.426Z</time></trkpt><trkpt lat="45.2134917" lon="9.0831609"><ele>81.0</ele><time>2026-05-01T08:36:01.409Z</time></trkpt><trkpt lat="45.2134424" lon="9.0832423"><ele>81.0</ele><time>2026-05-01T08:36:03.424Z</time></trkpt><trkpt lat="45.2134041" lon="9.0833255"><ele>81.0</ele><time>2026-05-01T08:36:05.423Z</time></trkpt><trkpt lat="45.2133443" lon="9.0834263"><ele>81.0</ele><time>2026-05-01T08:36:08.416Z</time></trkpt><trkpt lat="45.2132782" lon="9.0835245"><ele>81.0</ele><time>2026-05-01T08:36:11.42Z</time></trkpt><trkpt lat="45.2132241" lon="9.0836187"><ele>81.0</ele><time>2026-05-01T08:36:13.414Z</time></trkpt><trkpt lat="45.2131748" lon="9.0836974"><ele>81.0</ele><time>2026-05-01T08:36:15.421Z</time></trkpt><trkpt lat="45.2131123" lon="9.0837961"><ele>81.0</ele><time>2026-05-01T08:36:18.418Z</time></trkpt><trkpt lat="45.2130662" lon="9.0838722"><ele>81.0</ele><time>2026-05-01T08:36:20.423Z</time></trkpt><trkpt lat="45.2130222" lon="9.0839638"><ele>81.0</ele><time>2026-05-01T08:36:22.418Z</time></trkpt><trkpt lat="45.21298" lon="9.0840463"><ele>81.0</ele><time>2026-05-01T08:36:24.419Z</time></trkpt><trkpt lat="45.2129416" lon="9.0841183"><ele>81.0</ele><time>2026-05-01T08:36:26.417Z</time></trkpt><trkpt lat="45.2128858" lon="9.0842212"><ele>81.0</ele><time>2026-05-01T08:36:29.421Z</time></trkpt><trkpt lat="45.2128396" lon="9.0842953"><ele>81.0</ele><time>2026-05-01T08:36:31.415Z</time></trkpt><trkpt lat="45.2127951" lon="9.0843859"><ele>81.0</ele><time>2026-05-01T08:36:33.421Z</time></trkpt><trkpt lat="45.2127506" lon="9.084459"><ele>81.0</ele><time>2026-05-01T08:36:35.419Z</time></trkpt><trkpt lat="45.2127088" lon="9.0845338"><ele>81.0</ele><time>2026-05-01T08:36:37.422Z</time></trkpt><trkpt lat="45.2126643" lon="9.0846118"><ele>81.0</ele><time>2026-05-01T08:36:39.425Z</time></trkpt><trkpt lat="45.2126175" lon="9.0846979"><ele>81.0</ele><time>2026-05-01T08:36:41.5Z</time></trkpt><trkpt lat="45.2125703" lon="9.0847781"><ele>81.0</ele><time>2026-05-01T08:36:43.417Z</time></trkpt><trkpt lat="45.2125224" lon="9.08487"><ele>81.0</ele><time>2026-05-01T08:36:45.413Z</time></trkpt><trkpt lat="45.2124763" lon="9.0849622"><ele>81.0</ele><time>2026-05-01T08:36:47.426Z</time></trkpt><trkpt lat="45.2124253" lon="9.0850384"><ele>81.0</ele><time>2026-05-01T08:36:49.425Z</time></trkpt><trkpt lat="45.2123698" lon="9.0851163"><ele>81.0</ele><time>2026-05-01T08:36:51.426Z</time></trkpt><trkpt lat="45.2123201" lon="9.0852087"><ele>80.71428571428572</ele><time>2026-05-01T08:36:53.419Z</time></trkpt><trkpt lat="45.2122725" lon="9.0852925"><ele>80.42857142857143</ele><time>2026-05-01T08:36:55.421Z</time></trkpt><trkpt lat="45.2122295" lon="9.0853738"><ele>80.14285714285714</ele><time>2026-05-01T08:36:57.416Z</time></trkpt><trkpt lat="45.2121828" lon="9.0854497"><ele>79.85714285714286</ele><time>2026-05-01T08:36:59.421Z</time></trkpt><trkpt lat="45.212144" lon="9.0855248"><ele>79.57142857142857</ele><time>2026-05-01T08:37:01.418Z</time></trkpt><trkpt lat="45.2120998" lon="9.0855982"><ele>79.28571428571429</ele><time>2026-05-01T08:37:03.427Z</time></trkpt><trkpt lat="45.212048" lon="9.0856805"><ele>79.0</ele><time>2026-05-01T08:37:05.422Z</time></trkpt><trkpt lat="45.2120032" lon="9.085757"><ele>79.00000000000001</ele><time>2026-05-01T08:37:07.414Z</time></trkpt><trkpt lat="45.2119581" lon="9.0858254"><ele>79.0</ele><time>2026-05-01T08:37:09.411Z</time></trkpt><trkpt lat="45.2119138" lon="9.0858999"><ele>79.0</ele><time>2026-05-01T08:37:11.417Z</time></trkpt><trkpt lat="45.2118675" lon="9.0859833"><ele>79.0</ele><time>2026-05-01T08:37:13.427Z</time></trkpt><trkpt lat="45.2118256" lon="9.0860615"><ele>79.0</ele><time>2026-05-01T08:37:15.417Z</time></trkpt><trkpt lat="45.211784" lon="9.0861338"><ele>79.00000000000001</ele><time>2026-05-01T08:37:17.425Z</time></trkpt><trkpt lat="45.2117389" lon="9.0862037"><ele>79.0</ele><time>2026-05-01T08:37:19.426Z</time></trkpt><trkpt lat="45.2116915" lon="9.0862911"><ele>79.0</ele><time>2026-05-01T08:37:21.487Z</time></trkpt><trkpt lat="45.211651" lon="9.0863884"><ele>79.0</ele><time>2026-05-01T08:37:23.436Z</time></trkpt><trkpt lat="45.2116036" lon="9.0864782"><ele>79.0</ele><time>2026-05-01T08:37:25.416Z</time></trkpt><trkpt lat="45.2115576" lon="9.0865473"><ele>79.0</ele><time>2026-05-01T08:37:27.414Z</time></trkpt><trkpt lat="45.2115125" lon="9.0866253"><ele>79.0</ele><time>2026-05-01T08:37:29.407Z</time></trkpt><trkpt lat="45.2114649" lon="9.0867199"><ele>79.0</ele><time>2026-05-01T08:37:31.421Z</time></trkpt><trkpt lat="45.2114109" lon="9.0868092"><ele>78.83333333333333</ele><time>2026-05-01T08:37:33.416Z</time></trkpt><trkpt lat="45.2113588" lon="9.0868987"><ele>78.66666666666666</ele><time>2026-05-01T08:37:35.417Z</time></trkpt><trkpt lat="45.2113101" lon="9.0869814"><ele>78.5</ele><time>2026-05-01T08:37:37.419Z</time></trkpt><trkpt lat="45.2112645" lon="9.0870597"><ele>78.33333333333333</ele><time>2026-05-01T08:37:39.422Z</time></trkpt><trkpt lat="45.2112188" lon="9.0871426"><ele>78.16666666666667</ele><time>2026-05-01T08:37:41.42Z</time></trkpt><trkpt lat="45.2111665" lon="9.0872253"><ele>78.0</ele><time>2026-05-01T08:37:43.415Z</time></trkpt><trkpt lat="45.2111176" lon="9.0873126"><ele>78.0</ele><time>2026-05-01T08:37:45.424Z</time></trkpt><trkpt lat="45.2110664" lon="9.0874039"><ele>78.0</ele><time>2026-05-01T08:37:47.413Z</time></trkpt><trkpt lat="45.2110156" lon="9.087492"><ele>78.0</ele><time>2026-05-01T08:37:49.429Z</time></trkpt><trkpt lat="45.2109657" lon="9.0875789"><ele>78.0</ele><time>2026-05-01T08:37:51.421Z</time></trkpt><trkpt lat="45.2109141" lon="9.0876681"><ele>78.0</ele><time>2026-05-01T08:37:53.419Z</time></trkpt><trkpt lat="45.2108581" lon="9.0877704"><ele>78.0</ele><time>2026-05-01T08:37:55.419Z</time></trkpt><trkpt lat="45.2108073" lon="9.0878637"><ele>78.14285714285715</ele><time>2026-05-01T08:37:57.409Z</time></trkpt><trkpt lat="45.210759" lon="9.0879631"><ele>78.28571428571428</ele><time>2026-05-01T08:37:59.416Z</time></trkpt><trkpt lat="45.2107121" lon="9.0880458"><ele>78.42857142857143</ele><time>2026-05-01T08:38:01.422Z</time></trkpt><trkpt lat="45.210669" lon="9.0881114"><ele>78.57142857142858</ele><time>2026-05-01T08:38:03.419Z</time></trkpt><trkpt lat="45.2106278" lon="9.0881889"><ele>78.71428571428572</ele><time>2026-05-01T08:38:05.429Z</time></trkpt><trkpt lat="45.2105791" lon="9.0882634"><ele>78.85714285714286</ele><time>2026-05-01T08:38:07.417Z</time></trkpt><trkpt lat="45.2105357" lon="9.0883453"><ele>79.0</ele><time>2026-05-01T08:38:09.413Z</time></trkpt><trkpt lat="45.2104875" lon="9.0884275"><ele>79.00000000000001</ele><time>2026-05-01T08:38:11.418Z</time></trkpt><trkpt lat="45.2104452" lon="9.088516"><ele>79.0</ele><time>2026-05-01T08:38:13.415Z</time></trkpt><trkpt lat="45.210396" lon="9.0885958"><ele>79.0</ele><time>2026-05-01T08:38:15.491Z</time></trkpt><trkpt lat="45.2103488" lon="9.0886725"><ele>79.0</ele><time>2026-05-01T08:38:17.406Z</time></trkpt><trkpt lat="45.2102925" lon="9.0887581"><ele>79.0</ele><time>2026-05-01T08:38:20.423Z</time></trkpt><trkpt lat="45.2102255" lon="9.0887582"><ele>79.00000000000001</ele><time>2026-05-01T08:38:23.418Z</time></trkpt><trkpt lat="45.2101563" lon="9.0887105"><ele>79.0</ele><time>2026-05-01T08:38:26.414Z</time></trkpt><trkpt lat="45.2100805" lon="9.0886368"><ele>79.0</ele><time>2026-05-01T08:38:29.419Z</time></trkpt><trkpt lat="45.2100145" lon="9.0885542"><ele>79.0</ele><time>2026-05-01T08:38:32.415Z</time></trkpt><trkpt lat="45.2099336" lon="9.0884777"><ele>79.0</ele><time>2026-05-01T08:38:35.419Z</time></trkpt><trkpt lat="45.2098735" lon="9.0884226"><ele>79.0</ele><time>2026-05-01T08:38:37.413Z</time></trkpt><trkpt lat="45.2098083" lon="9.0883637"><ele>79.0</ele><time>2026-05-01T08:38:39.419Z</time></trkpt><trkpt lat="45.209741" lon="9.0882861"><ele>79.0</ele><time>2026-05-01T08:38:41.418Z</time></trkpt><trkpt lat="45.2096738" lon="9.0882184"><ele>79.00000000000001</ele><time>2026-05-01T08:38:43.411Z</time></trkpt><trkpt lat="45.2096064" lon="9.0881489"><ele>79.0</ele><time>2026-05-01T08:38:45.416Z</time></trkpt><trkpt lat="45.2095441" lon="9.0880964"><ele>79.0</ele><time>2026-05-01T08:38:47.433Z</time></trkpt><trkpt lat="45.2094866" lon="9.0880544"><ele>79.0</ele><time>2026-05-01T08:38:49.414Z</time></trkpt><trkpt lat="45.209426" lon="9.0879932"><ele>79.0</ele><time>2026-05-01T08:38:51.419Z</time></trkpt><trkpt lat="45.2093623" lon="9.0879396"><ele>79.00000000000001</ele><time>2026-05-01T08:38:53.421Z</time></trkpt><trkpt lat="45.2093079" lon="9.0878706"><ele>79.0</ele><time>2026-05-01T08:38:55.492Z</time></trkpt><trkpt lat="45.2092408" lon="9.0878053"><ele>79.00000000000001</ele><time>2026-05-01T08:38:57.422Z</time></trkpt><trkpt lat="45.2091744" lon="9.0877479"><ele>79.0</ele><time>2026-05-01T08:38:59.413Z</time></trkpt><trkpt lat="45.2091235" lon="9.0876847"><ele>79.0</ele><time>2026-05-01T08:39:01.419Z</time></trkpt><trkpt lat="45.2090702" lon="9.0876359"><ele>79.0</ele><time>2026-05-01T08:39:03.421Z</time></trkpt><trkpt lat="45.2090079" lon="9.0875848"><ele>79.0</ele><time>2026-05-01T08:39:05.429Z</time></trkpt><trkpt lat="45.2089541" lon="9.0875373"><ele>79.00000000000001</ele><time>2026-05-01T08:39:07.417Z</time></trkpt><trkpt lat="45.2088767" lon="9.0874763"><ele>79.0</ele><time>2026-05-01T08:39:10.431Z</time></trkpt><trkpt lat="45.2087876" lon="9.0874608"><ele>78.66666666666666</ele><time>2026-05-01T08:39:13.413Z</time></trkpt><trkpt lat="45.2087075" lon="9.0874997"><ele>78.33333333333333</ele><time>2026-05-01T08:39:16.416Z</time></trkpt><trkpt lat="45.208644" lon="9.08757"><ele>78.0</ele><time>2026-05-01T08:39:19.411Z</time></trkpt><trkpt lat="45.2085921" lon="9.0876893"><ele>77.66666666666667</ele><time>2026-05-01T08:39:22.417Z</time></trkpt><trkpt lat="45.2085475" lon="9.0877634"><ele>77.33333333333334</ele><time>2026-05-01T08:39:24.417Z</time></trkpt><trkpt lat="45.2084827" lon="9.0878604"><ele>77.0</ele><time>2026-05-01T08:39:27.419Z</time></trkpt><trkpt lat="45.208431" lon="9.0879173"><ele>77.0</ele><time>2026-05-01T08:39:29.421Z</time></trkpt><trkpt lat="45.208357" lon="9.0879612"><ele>77.0</ele><time>2026-05-01T08:39:31.425Z</time></trkpt><trkpt lat="45.2082791" lon="9.0879851"><ele>77.0</ele><time>2026-05-01T08:39:33.414Z</time></trkpt><trkpt lat="45.2082031" lon="9.0880004"><ele>77.0</ele><time>2026-05-01T08:39:35.415Z</time></trkpt><trkpt lat="45.2081297" lon="9.0879739"><ele>77.0</ele><time>2026-05-01T08:39:37.412Z</time></trkpt><trkpt lat="45.2080591" lon="9.087953"><ele>77.0</ele><time>2026-05-01T08:39:39.423Z</time></trkpt><trkpt lat="45.2079896" lon="9.0879328"><ele>77.28571428571429</ele><time>2026-05-01T08:39:41.42Z</time></trkpt><trkpt lat="45.2079222" lon="9.0879203"><ele>77.57142857142857</ele><time>2026-05-01T08:39:43.418Z</time></trkpt><trkpt lat="45.2078511" lon="9.0879189"><ele>77.85714285714286</ele><time>2026-05-01T08:39:45.412Z</time></trkpt><trkpt lat="45.2077841" lon="9.0879152"><ele>78.14285714285714</ele><time>2026-05-01T08:39:47.419Z</time></trkpt><trkpt lat="45.2077191" lon="9.0879178"><ele>78.42857142857143</ele><time>2026-05-01T08:39:49.419Z</time></trkpt><trkpt lat="45.2076373" lon="9.0879302"><ele>78.71428571428572</ele><time>2026-05-01T08:39:52.422Z</time></trkpt><trkpt lat="45.2075527" lon="9.0879116"><ele>79.0</ele><time>2026-05-01T08:39:55.418Z</time></trkpt><trkpt lat="45.2075208" lon="9.0878064"><ele>79.00000000000001</ele><time>2026-05-01T08:39:58.41Z</time></trkpt><trkpt lat="45.2075054" lon="9.08769"><ele>79.0</ele><time>2026-05-01T08:40:01.494Z</time></trkpt><trkpt lat="45.20747" lon="9.087611"><ele>79.0</ele><time>2026-05-01T08:40:03.422Z</time></trkpt><trkpt lat="45.2074238" lon="9.0875175"><ele>79.0</ele><time>2026-05-01T08:40:06.426Z</time></trkpt><trkpt lat="45.2073992" lon="9.0874348"><ele>79.0</ele><time>2026-05-01T08:40:09.428Z</time></trkpt><trkpt lat="45.2073975" lon="9.0873449"><ele>79.00000000000001</ele><time>2026-05-01T08:40:41.495Z</time></trkpt><trkpt lat="45.2073722" lon="9.087252"><ele>79.0</ele><time>2026-05-01T08:40:44.427Z</time></trkpt><trkpt lat="45.2073464" lon="9.0871464"><ele>77.28571428571429</ele><time>2026-05-01T08:40:47.414Z</time></trkpt><trkpt lat="45.207321" lon="9.087061"><ele>75.57142857142857</ele><time>2026-05-01T08:40:50.419Z</time></trkpt><trkpt lat="45.2072927" lon="9.0869629"><ele>73.85714285714286</ele><time>2026-05-01T08:40:54.414Z</time></trkpt><trkpt lat="45.2072641" lon="9.086883"><ele>72.14285714285714</ele><time>2026-05-01T08:41:08.417Z</time></trkpt><trkpt lat="45.2072428" lon="9.0867902"><ele>70.42857142857143</ele><time>2026-05-01T08:41:13.413Z</time></trkpt><trkpt lat="45.207234" lon="9.086697"><ele>68.71428571428572</ele><time>2026-05-01T08:41:19.468Z</time></trkpt><trkpt lat="45.2072089" lon="9.0866144"><ele>67.0</ele><time>2026-05-01T08:41:22.415Z</time></trkpt><trkpt lat="45.207198" lon="9.0865155"><ele>67.0</ele><time>2026-05-01T08:41:25.411Z</time></trkpt><trkpt lat="45.2071722" lon="9.0864222"><ele>67.0</ele><time>2026-05-01T08:41:28.412Z</time></trkpt><trkpt lat="45.207136" lon="9.0863367"><ele>67.0</ele><time>2026-05-01T08:41:32.488Z</time></trkpt><trkpt lat="45.2070971" lon="9.0862549"><ele>67.0</ele><time>2026-05-01T08:42:12.418Z</time></trkpt><trkpt lat="45.2070777" lon="9.0861429"><ele>67.0</ele><time>2026-05-01T08:42:22.417Z</time></trkpt><trkpt lat="45.2070418" lon="9.086055"><ele>67.0</ele><time>2026-05-01T08:42:29.416Z</time></trkpt><trkpt lat="45.2070156" lon="9.0859466"><ele>67.0</ele><time>2026-05-01T08:42:34.493Z</time></trkpt><trkpt lat="45.2069836" lon="9.0858436"><ele>67.5</ele><time>2026-05-01T08:42:38.412Z</time></trkpt><trkpt lat="45.2069422" lon="9.0857311"><ele>68.0</ele><time>2026-05-01T08:42:42.419Z</time></trkpt><trkpt lat="45.2069102" lon="9.0856132"><ele>68.5</ele><time>2026-05-01T08:42:45.418Z</time></trkpt><trkpt lat="45.2068808" lon="9.0855123"><ele>69.0</ele><time>2026-05-01T08:42:48.412Z</time></trkpt><trkpt lat="45.2068328" lon="9.0854009"><ele>69.5</ele><time>2026-05-01T08:42:51.412Z</time></trkpt><trkpt lat="45.2068064" lon="9.0853158"><ele>70.0</ele><time>2026-05-01T08:42:53.41Z</time></trkpt><trkpt lat="45.2067738" lon="9.0852163"><ele>70.0</ele><time>2026-05-01T08:42:57.413Z</time></trkpt><trkpt lat="45.2067127" lon="9.0851474"><ele>70.0</ele><time>2026-05-01T08:43:01.422Z</time></trkpt><trkpt lat="45.2066643" lon="9.0850725"><ele>70.0</ele><time>2026-05-01T08:43:04.416Z</time></trkpt><trkpt lat="45.2066184" lon="9.0850099"><ele>70.0</ele><time>2026-05-01T08:43:06.415Z</time></trkpt><trkpt lat="45.2065772" lon="9.0849375"><ele>70.0</ele><time>2026-05-01T08:43:08.417Z</time></trkpt><trkpt lat="45.2065404" lon="9.084862"><ele>70.0</ele><time>2026-05-01T08:43:10.416Z</time></trkpt><trkpt lat="45.2065138" lon="9.0847687"><ele>70.0</ele><time>2026-05-01T08:43:12.414Z</time></trkpt><trkpt lat="45.2065021" lon="9.0846776"><ele>70.16666666666666</ele><time>2026-05-01T08:43:14.488Z</time></trkpt><trkpt lat="45.2064993" lon="9.0845574"><ele>70.33333333333333</ele><time>2026-05-01T08:43:17.413Z</time></trkpt><trkpt lat="45.2065086" lon="9.0844388"><ele>70.5</ele><time>2026-05-01T08:43:20.421Z</time></trkpt><trkpt lat="45.2065087" lon="9.0843292"><ele>70.66666666666667</ele><time>2026-05-01T08:43:23.414Z</time></trkpt><trkpt lat="45.2064768" lon="9.0842388"><ele>70.83333333333334</ele><time>2026-05-01T08:43:26.415Z</time></trkpt><trkpt lat="45.2063978" lon="9.0841858"><ele>71.0</ele><time>2026-05-01T08:43:29.415Z</time></trkpt><trkpt lat="45.2063175" lon="9.0841596"><ele>69.42857142857143</ele><time>2026-05-01T08:43:32.413Z</time></trkpt><trkpt lat="45.2062351" lon="9.0841395"><ele>67.85714285714285</ele><time>2026-05-01T08:43:35.406Z</time></trkpt><trkpt lat="45.2061741" lon="9.0841158"><ele>66.28571428571428</ele><time>2026-05-01T08:43:37.41Z</time></trkpt><trkpt lat="45.2061061" lon="9.0841072"><ele>64.71428571428571</ele><time>2026-05-01T08:43:39.42Z</time></trkpt><trkpt lat="45.206019" lon="9.0840859"><ele>63.14285714285714</ele><time>2026-05-01T08:43:42.412Z</time></trkpt><trkpt lat="45.205954" lon="9.0840678"><ele>61.57142857142857</ele><time>2026-05-01T08:43:44.418Z</time></trkpt><trkpt lat="45.2058904" lon="9.0840441"><ele>60.0</ele><time>2026-05-01T08:43:46.418Z</time></trkpt><trkpt lat="45.2058222" lon="9.0840219"><ele>60.0</ele><time>2026-05-01T08:43:48.412Z</time></trkpt><trkpt lat="45.2057351" lon="9.0840015"><ele>60.0</ele><time>2026-05-01T08:43:51.422Z</time></trkpt><trkpt lat="45.2056565" lon="9.0839767"><ele>60.0</ele><time>2026-05-01T08:43:54.417Z</time></trkpt><trkpt lat="45.2055906" lon="9.0839551"><ele>60.0</ele><time>2026-05-01T08:43:56.413Z</time></trkpt><trkpt lat="45.2055223" lon="9.0839348"><ele>60.0</ele><time>2026-05-01T08:43:58.423Z</time></trkpt><trkpt lat="45.2054506" lon="9.0839225"><ele>60.0</ele><time>2026-05-01T08:44:00.413Z</time></trkpt><trkpt lat="45.205384" lon="9.0839"><ele>60.0</ele><time>2026-05-01T08:44:02.419Z</time></trkpt><trkpt lat="45.20531" lon="9.0838716"><ele>60.0</ele><time>2026-05-01T08:44:04.429Z</time></trkpt><trkpt lat="45.2052438" lon="9.0838512"><ele>60.0</ele><time>2026-05-01T08:44:06.417Z</time></trkpt><trkpt lat="45.2051818" lon="9.0838265"><ele>60.0</ele><time>2026-05-01T08:44:08.411Z</time></trkpt><trkpt lat="45.2051149" lon="9.0838049"><ele>60.0</ele><time>2026-05-01T08:44:10.49Z</time></trkpt><trkpt lat="45.2050488" lon="9.0837867"><ele>60.0</ele><time>2026-05-01T08:44:12.434Z</time></trkpt><trkpt lat="45.2049867" lon="9.0837664"><ele>60.0</ele><time>2026-05-01T08:44:14.407Z</time></trkpt><trkpt lat="45.2049231" lon="9.0837462"><ele>60.0</ele><time>2026-05-01T08:44:16.412Z</time></trkpt><trkpt lat="45.204856" lon="9.0837255"><ele>59.833333333333336</ele><time>2026-05-01T08:44:18.414Z</time></trkpt><trkpt lat="45.2047827" lon="9.0837107"><ele>59.66666666666667</ele><time>2026-05-01T08:44:20.426Z</time></trkpt><trkpt lat="45.2047177" lon="9.0836786"><ele>59.5</ele><time>2026-05-01T08:44:22.412Z</time></trkpt><trkpt lat="45.2046272" lon="9.0836507"><ele>59.333333333333336</ele><time>2026-05-01T08:44:25.417Z</time></trkpt><trkpt lat="45.2045393" lon="9.0836261"><ele>59.16666666666667</ele><time>2026-05-01T08:44:28.421Z</time></trkpt><trkpt lat="45.2044469" lon="9.0836022"><ele>59.0</ele><time>2026-05-01T08:44:31.426Z</time></trkpt><trkpt lat="45.2043816" lon="9.0835823"><ele>59.0</ele><time>2026-05-01T08:44:33.416Z</time></trkpt><trkpt lat="45.2043151" lon="9.0835617"><ele>59.0</ele><time>2026-05-01T08:44:35.493Z</time></trkpt><trkpt lat="45.2042458" lon="9.0835405"><ele>59.0</ele><time>2026-05-01T08:44:37.407Z</time></trkpt><trkpt lat="45.2041791" lon="9.0835225"><ele>59.0</ele><time>2026-05-01T08:44:39.414Z</time></trkpt><trkpt lat="45.2041123" lon="9.0835"><ele>59.0</ele><time>2026-05-01T08:44:41.421Z</time></trkpt><trkpt lat="45.2040489" lon="9.0834702"><ele>59.0</ele><time>2026-05-01T08:44:43.419Z</time></trkpt><trkpt lat="45.2039829" lon="9.0834472"><ele>59.0</ele><time>2026-05-01T08:44:45.422Z</time></trkpt><trkpt lat="45.2039166" lon="9.0834331"><ele>59.0</ele><time>2026-05-01T08:44:47.418Z</time></trkpt><trkpt lat="45.2038529" lon="9.0834131"><ele>59.0</ele><time>2026-05-01T08:44:49.415Z</time></trkpt><trkpt lat="45.2037877" lon="9.0833916"><ele>59.0</ele><time>2026-05-01T08:44:51.414Z</time></trkpt><trkpt lat="45.2037249" lon="9.0833722"><ele>59.0</ele><time>2026-05-01T08:44:53.427Z</time></trkpt><trkpt lat="45.2036636" lon="9.0833475"><ele>59.0</ele><time>2026-05-01T08:44:55.426Z</time></trkpt><trkpt lat="45.2035996" lon="9.083337"><ele>59.0</ele><time>2026-05-01T08:44:57.418Z</time></trkpt><trkpt lat="45.2035059" lon="9.0833146"><ele>59.0</ele><time>2026-05-01T08:45:00.423Z</time></trkpt><trkpt lat="45.2034428" lon="9.0832955"><ele>59.00000000000001</ele><time>2026-05-01T08:45:02.496Z</time></trkpt><trkpt lat="45.2033554" lon="9.0832769"><ele>59.0</ele><time>2026-05-01T08:45:05.412Z</time></trkpt><trkpt lat="45.2032669" lon="9.0832451"><ele>59.0</ele><time>2026-05-01T08:45:08.418Z</time></trkpt><trkpt lat="45.2031753" lon="9.0832116"><ele>59.0</ele><time>2026-05-01T08:45:11.409Z</time></trkpt><trkpt lat="45.2031093" lon="9.0831891"><ele>59.00000000000001</ele><time>2026-05-01T08:45:13.412Z</time></trkpt><trkpt lat="45.2030325" lon="9.0831577"><ele>59.0</ele><time>2026-05-01T08:45:16.491Z</time></trkpt><trkpt lat="45.2029525" lon="9.0831527"><ele>59.00000000000001</ele><time>2026-05-01T08:45:19.407Z</time></trkpt><trkpt lat="45.2029328" lon="9.0832411"><ele>59.0</ele><time>2026-05-01T08:45:22.417Z</time></trkpt><trkpt lat="45.2029406" lon="9.0833365"><ele>59.0</ele><time>2026-05-01T08:45:24.421Z</time></trkpt><trkpt lat="45.2029415" lon="9.0834297"><ele>59.0</ele><time>2026-05-01T08:45:26.422Z</time></trkpt><trkpt lat="45.2029535" lon="9.0835591"><ele>59.00000000000001</ele><time>2026-05-01T08:45:29.495Z</time></trkpt><trkpt lat="45.202968" lon="9.0836757"><ele>59.0</ele><time>2026-05-01T08:45:32.418Z</time></trkpt><trkpt lat="45.2029693" lon="9.0837918"><ele>59.16666666666667</ele><time>2026-05-01T08:45:35.414Z</time></trkpt><trkpt lat="45.2029758" lon="9.0839175"><ele>59.333333333333336</ele><time>2026-05-01T08:45:38.422Z</time></trkpt><trkpt lat="45.2029829" lon="9.0840399"><ele>59.5</ele><time>2026-05-01T08:45:41.411Z</time></trkpt><trkpt lat="45.2029892" lon="9.0841777"><ele>59.66666666666667</ele><time>2026-05-01T08:45:44.418Z</time></trkpt><trkpt lat="45.2029899" lon="9.0842695"><ele>59.833333333333336</ele><time>2026-05-01T08:45:46.409Z</time></trkpt><trkpt lat="45.2029937" lon="9.0844033"><ele>60.0</ele><time>2026-05-01T08:45:49.418Z</time></trkpt><trkpt lat="45.2030001" lon="9.0844956"><ele>59.666666666666664</ele><time>2026-05-01T08:45:51.419Z</time></trkpt><trkpt lat="45.2030097" lon="9.0846418"><ele>59.33333333333333</ele><time>2026-05-01T08:45:54.421Z</time></trkpt><trkpt lat="45.2030151" lon="9.0847757"><ele>59.0</ele><time>2026-05-01T08:45:57.41Z</time></trkpt><trkpt lat="45.2030207" lon="9.0849128"><ele>58.666666666666664</ele><time>2026-05-01T08:46:00.412Z</time></trkpt><trkpt lat="45.2030263" lon="9.0850117"><ele>58.33333333333333</ele><time>2026-05-01T08:46:02.41Z</time></trkpt><trkpt lat="45.203029" lon="9.085108"><ele>58.0</ele><time>2026-05-01T08:46:04.417Z</time></trkpt><trkpt lat="45.2030297" lon="9.0852067"><ele>58.00000000000001</ele><time>2026-05-01T08:46:06.412Z</time></trkpt><trkpt lat="45.2030304" lon="9.085307"><ele>58.0</ele><time>2026-05-01T08:46:08.422Z</time></trkpt><trkpt lat="45.2030374" lon="9.0854045"><ele>58.00000000000001</ele><time>2026-05-01T08:46:10.413Z</time></trkpt><trkpt lat="45.2030388" lon="9.0855033"><ele>58.00000000000001</ele><time>2026-05-01T08:46:12.42Z</time></trkpt><trkpt lat="45.2030449" lon="9.085604"><ele>58.0</ele><time>2026-05-01T08:46:14.416Z</time></trkpt><trkpt lat="45.2030501" lon="9.085701"><ele>58.00000000000001</ele><time>2026-05-01T08:46:16.428Z</time></trkpt><trkpt lat="45.2030555" lon="9.0857931"><ele>58.00000000000001</ele><time>2026-05-01T08:46:18.418Z</time></trkpt><trkpt lat="45.2030666" lon="9.0858879"><ele>58.00000000000001</ele><time>2026-05-01T08:46:20.414Z</time></trkpt><trkpt lat="45.203077" lon="9.0859808"><ele>58.0</ele><time>2026-05-01T08:46:22.413Z</time></trkpt><trkpt lat="45.2030863" lon="9.086076"><ele>58.00000000000001</ele><time>2026-05-01T08:46:24.416Z</time></trkpt><trkpt lat="45.2031039" lon="9.0861735"><ele>58.00000000000001</ele><time>2026-05-01T08:46:26.417Z</time></trkpt><trkpt lat="45.2031291" lon="9.0862839"><ele>58.0</ele><time>2026-05-01T08:46:28.422Z</time></trkpt><trkpt lat="45.2031459" lon="9.086384"><ele>58.00000000000001</ele><time>2026-05-01T08:46:30.417Z</time></trkpt><trkpt lat="45.2031774" lon="9.086466"><ele>58.00000000000001</ele><time>2026-05-01T08:46:32.417Z</time></trkpt><trkpt lat="45.2032098" lon="9.0865553"><ele>58.00000000000001</ele><time>2026-05-01T08:46:34.418Z</time></trkpt><trkpt lat="45.2032373" lon="9.0866439"><ele>58.0</ele><time>2026-05-01T08:46:36.417Z</time></trkpt><trkpt lat="45.2032644" lon="9.0867408"><ele>58.00000000000001</ele><time>2026-05-01T08:46:38.417Z</time></trkpt><trkpt lat="45.2032921" lon="9.086831"><ele>58.00000000000001</ele><time>2026-05-01T08:46:40.42Z</time></trkpt><trkpt lat="45.2033248" lon="9.0869184"><ele>58.0</ele><time>2026-05-01T08:46:42.426Z</time></trkpt><trkpt lat="45.2033627" lon="9.0870152"><ele>58.00000000000001</ele><time>2026-05-01T08:46:44.418Z</time></trkpt><trkpt lat="45.2034006" lon="9.0871063"><ele>58.00000000000001</ele><time>2026-05-01T08:46:46.418Z</time></trkpt><trkpt lat="45.2034258" lon="9.0871938"><ele>58.00000000000001</ele><time>2026-05-01T08:46:48.414Z</time></trkpt><trkpt lat="45.2034545" lon="9.0872742"><ele>58.0</ele><time>2026-05-01T08:46:50.418Z</time></trkpt><trkpt lat="45.2034858" lon="9.0873644"><ele>58.00000000000001</ele><time>2026-05-01T08:46:52.419Z</time></trkpt><trkpt lat="45.203515" lon="9.0874518"><ele>58.00000000000001</ele><time>2026-05-01T08:46:54.419Z</time></trkpt><trkpt lat="45.2035558" lon="9.087566"><ele>58.0</ele><time>2026-05-01T08:46:57.423Z</time></trkpt><trkpt lat="45.203585" lon="9.0876533"><ele>58.00000000000001</ele><time>2026-05-01T08:46:59.415Z</time></trkpt><trkpt lat="45.2036149" lon="9.087736"><ele>58.00000000000001</ele><time>2026-05-01T08:47:01.416Z</time></trkpt><trkpt lat="45.2036427" lon="9.087829"><ele>58.166666666666664</ele><time>2026-05-01T08:47:03.416Z</time></trkpt><trkpt lat="45.2036713" lon="9.0879195"><ele>58.33333333333333</ele><time>2026-05-01T08:47:05.416Z</time></trkpt><trkpt lat="45.2037119" lon="9.0880265"><ele>58.5</ele><time>2026-05-01T08:47:07.418Z</time></trkpt><trkpt lat="45.2037458" lon="9.0881195"><ele>58.66666666666667</ele><time>2026-05-01T08:47:09.416Z</time></trkpt><trkpt lat="45.2037909" lon="9.0882148"><ele>58.833333333333336</ele><time>2026-05-01T08:47:11.415Z</time></trkpt><trkpt lat="45.2038353" lon="9.0883086"><ele>59.0</ele><time>2026-05-01T08:47:13.408Z</time></trkpt><trkpt lat="45.203888" lon="9.0883943"><ele>59.16666666666667</ele><time>2026-05-01T08:47:15.407Z</time></trkpt><trkpt lat="45.2039527" lon="9.0884698"><ele>59.333333333333336</ele><time>2026-05-01T08:47:17.41Z</time></trkpt><trkpt lat="45.2040229" lon="9.0885383"><ele>59.5</ele><time>2026-05-01T08:47:19.419Z</time></trkpt><trkpt lat="45.2040915" lon="9.0885954"><ele>59.66666666666667</ele><time>2026-05-01T08:47:21.407Z</time></trkpt><trkpt lat="45.2041589" lon="9.088644"><ele>59.833333333333336</ele><time>2026-05-01T08:47:23.414Z</time></trkpt><trkpt lat="45.2042198" lon="9.0886968"><ele>60.0</ele><time>2026-05-01T08:47:25.414Z</time></trkpt><trkpt lat="45.2042871" lon="9.0887467"><ele>60.57142857142857</ele><time>2026-05-01T08:47:27.414Z</time></trkpt><trkpt lat="45.2043455" lon="9.0887974"><ele>61.14285714285714</ele><time>2026-05-01T08:47:29.414Z</time></trkpt><trkpt lat="45.2043985" lon="9.088853"><ele>61.71428571428571</ele><time>2026-05-01T08:47:31.418Z</time></trkpt><trkpt lat="45.2044603" lon="9.0889034"><ele>62.285714285714285</ele><time>2026-05-01T08:47:33.418Z</time></trkpt><trkpt lat="45.2045285" lon="9.0889568"><ele>62.85714285714285</ele><time>2026-05-01T08:47:35.43Z</time></trkpt><trkpt lat="45.2045899" lon="9.0890276"><ele>63.42857142857142</ele><time>2026-05-01T08:47:37.417Z</time></trkpt><trkpt lat="45.2046571" lon="9.0890935"><ele>64.0</ele><time>2026-05-01T08:47:39.419Z</time></trkpt><trkpt lat="45.2046962" lon="9.0891853"><ele>65.5</ele><time>2026-05-01T08:47:41.415Z</time></trkpt><trkpt lat="45.2047594" lon="9.0892749"><ele>67.0</ele><time>2026-05-01T08:47:43.416Z</time></trkpt><trkpt lat="45.2048299" lon="9.0893742"><ele>68.5</ele><time>2026-05-01T08:47:46.413Z</time></trkpt><trkpt lat="45.2048795" lon="9.0894413"><ele>70.0</ele><time>2026-05-01T08:47:48.407Z</time></trkpt><trkpt lat="45.2049455" lon="9.0895187"><ele>71.5</ele><time>2026-05-01T08:47:51.414Z</time></trkpt><trkpt lat="45.2049991" lon="9.0895899"><ele>73.0</ele><time>2026-05-01T08:47:53.413Z</time></trkpt><trkpt lat="45.2050419" lon="9.0896575"><ele>73.0</ele><time>2026-05-01T08:47:55.486Z</time></trkpt><trkpt lat="45.2051052" lon="9.0897458"><ele>73.0</ele><time>2026-05-01T08:47:58.414Z</time></trkpt><trkpt lat="45.205176" lon="9.0897982"><ele>73.0</ele><time>2026-05-01T08:48:01.409Z</time></trkpt><trkpt lat="45.2052491" lon="9.0898168"><ele>73.0</ele><time>2026-05-01T08:48:04.417Z</time></trkpt><trkpt lat="45.2053231" lon="9.0898741"><ele>73.0</ele><time>2026-05-01T08:48:07.416Z</time></trkpt><trkpt lat="45.2053911" lon="9.0899662"><ele>73.0</ele><time>2026-05-01T08:48:10.419Z</time></trkpt><trkpt lat="45.2054568" lon="9.0900582"><ele>73.85714285714286</ele><time>2026-05-01T08:48:13.421Z</time></trkpt><trkpt lat="45.2055082" lon="9.0901421"><ele>74.71428571428572</ele><time>2026-05-01T08:48:16.424Z</time></trkpt><trkpt lat="45.2055594" lon="9.0902167"><ele>75.57142857142858</ele><time>2026-05-01T08:48:19.412Z</time></trkpt><trkpt lat="45.2056277" lon="9.0902395"><ele>76.42857142857143</ele><time>2026-05-01T08:48:22.411Z</time></trkpt><trkpt lat="45.2056884" lon="9.0901571"><ele>77.28571428571429</ele><time>2026-05-01T08:48:25.412Z</time></trkpt><trkpt lat="45.2057355" lon="9.0900851"><ele>78.14285714285715</ele><time>2026-05-01T08:48:27.42Z</time></trkpt><trkpt lat="45.2057835" lon="9.0900178"><ele>79.0</ele><time>2026-05-01T08:48:29.417Z</time></trkpt><trkpt lat="45.2058303" lon="9.0899475"><ele>78.57142857142858</ele><time>2026-05-01T08:48:31.411Z</time></trkpt><trkpt lat="45.2058784" lon="9.0898897"><ele>78.14285714285714</ele><time>2026-05-01T08:48:33.413Z</time></trkpt><trkpt lat="45.2059255" lon="9.0898295"><ele>77.71428571428572</ele><time>2026-05-01T08:48:35.483Z</time></trkpt><trkpt lat="45.2059721" lon="9.0897667"><ele>77.28571428571429</ele><time>2026-05-01T08:48:37.415Z</time></trkpt><trkpt lat="45.2060276" lon="9.0897035"><ele>76.85714285714286</ele><time>2026-05-01T08:48:39.418Z</time></trkpt><trkpt lat="45.2060774" lon="9.0896312"><ele>76.42857142857143</ele><time>2026-05-01T08:48:41.415Z</time></trkpt><trkpt lat="45.206128" lon="9.089558"><ele>76.0</ele><time>2026-05-01T08:48:43.41Z</time></trkpt><trkpt lat="45.2061799" lon="9.0894935"><ele>76.0</ele><time>2026-05-01T08:48:45.41Z</time></trkpt><trkpt lat="45.2062324" lon="9.0894237"><ele>76.0</ele><time>2026-05-01T08:48:47.413Z</time></trkpt><trkpt lat="45.2062843" lon="9.0893567"><ele>76.0</ele><time>2026-05-01T08:48:49.415Z</time></trkpt><trkpt lat="45.206336" lon="9.08929"><ele>76.0</ele><time>2026-05-01T08:48:51.408Z</time></trkpt><trkpt lat="45.2063887" lon="9.0892212"><ele>76.0</ele><time>2026-05-01T08:48:53.416Z</time></trkpt><trkpt lat="45.2064462" lon="9.0891558"><ele>76.0</ele><time>2026-05-01T08:48:55.411Z</time></trkpt><trkpt lat="45.2064961" lon="9.0890956"><ele>76.0</ele><time>2026-05-01T08:48:57.412Z</time></trkpt><trkpt lat="45.2065461" lon="9.0890335"><ele>76.16666666666666</ele><time>2026-05-01T08:48:59.418Z</time></trkpt><trkpt lat="45.2065967" lon="9.0889708"><ele>76.33333333333333</ele><time>2026-05-01T08:49:01.418Z</time></trkpt><trkpt lat="45.2066437" lon="9.0889052"><ele>76.5</ele><time>2026-05-01T08:49:03.415Z</time></trkpt><trkpt lat="45.2067138" lon="9.0888264"><ele>76.66666666666667</ele><time>2026-05-01T08:49:06.417Z</time></trkpt><trkpt lat="45.2067791" lon="9.0887419"><ele>76.83333333333334</ele><time>2026-05-01T08:49:09.417Z</time></trkpt><trkpt lat="45.2068494" lon="9.0886628"><ele>77.0</ele><time>2026-05-01T08:49:12.413Z</time></trkpt><trkpt lat="45.2069207" lon="9.0885766"><ele>77.0</ele><time>2026-05-01T08:49:15.418Z</time></trkpt><trkpt lat="45.2069937" lon="9.0884893"><ele>77.0</ele><time>2026-05-01T08:49:18.484Z</time></trkpt><trkpt lat="45.2070406" lon="9.0884263"><ele>77.0</ele><time>2026-05-01T08:49:20.418Z</time></trkpt><trkpt lat="45.2070907" lon="9.0883563"><ele>77.0</ele><time>2026-05-01T08:49:22.426Z</time></trkpt><trkpt lat="45.2071398" lon="9.0882955"><ele>77.0</ele><time>2026-05-01T08:49:24.421Z</time></trkpt><trkpt lat="45.2071902" lon="9.0882403"><ele>77.0</ele><time>2026-05-01T08:49:26.416Z</time></trkpt><trkpt lat="45.2072452" lon="9.0881825"><ele>77.0</ele><time>2026-05-01T08:49:28.411Z</time></trkpt><trkpt lat="45.2072965" lon="9.0881205"><ele>77.33333333333334</ele><time>2026-05-01T08:49:30.416Z</time></trkpt><trkpt lat="45.2073644" lon="9.0880401"><ele>77.66666666666667</ele><time>2026-05-01T08:49:33.414Z</time></trkpt><trkpt lat="45.2074187" lon="9.0879825"><ele>78.0</ele><time>2026-05-01T08:49:36.416Z</time></trkpt><trkpt lat="45.2074948" lon="9.087929"><ele>78.33333333333333</ele><time>2026-05-01T08:49:39.418Z</time></trkpt><trkpt lat="45.2075529" lon="9.0878881"><ele>78.66666666666666</ele><time>2026-05-01T08:49:41.425Z</time></trkpt><trkpt lat="45.2076459" lon="9.0878827"><ele>79.0</ele><time>2026-05-01T08:49:44.49Z</time></trkpt><trkpt lat="45.2077109" lon="9.0878791"><ele>79.0</ele><time>2026-05-01T08:49:46.416Z</time></trkpt><trkpt lat="45.2078004" lon="9.087876"><ele>79.0</ele><time>2026-05-01T08:49:49.407Z</time></trkpt><trkpt lat="45.2078937" lon="9.0878843"><ele>79.0</ele><time>2026-05-01T08:49:52.408Z</time></trkpt><trkpt lat="45.207981" lon="9.0879014"><ele>79.0</ele><time>2026-05-01T08:49:55.419Z</time></trkpt><trkpt lat="45.2080647" lon="9.087912"><ele>79.0</ele><time>2026-05-01T08:49:58.41Z</time></trkpt><trkpt lat="45.2081282" lon="9.0879268"><ele>79.0</ele><time>2026-05-01T08:50:00.419Z</time></trkpt><trkpt lat="45.2081928" lon="9.0879574"><ele>78.60000000000001</ele><time>2026-05-01T08:50:02.418Z</time></trkpt><trkpt lat="45.2082821" lon="9.0879693"><ele>78.2</ele><time>2026-05-01T08:50:05.409Z</time></trkpt><trkpt lat="45.2083737" lon="9.0879533"><ele>77.80000000000001</ele><time>2026-05-01T08:50:08.412Z</time></trkpt><trkpt lat="45.2084558" lon="9.0879081"><ele>77.4</ele><time>2026-05-01T08:50:11.418Z</time></trkpt><trkpt lat="45.2085312" lon="9.0878213"><ele>77.0</ele><time>2026-05-01T08:50:14.422Z</time></trkpt><trkpt lat="45.2085931" lon="9.0877298"><ele>77.0</ele><time>2026-05-01T08:50:17.416Z</time></trkpt><trkpt lat="45.2086423" lon="9.0876266"><ele>77.0</ele><time>2026-05-01T08:50:20.419Z</time></trkpt><trkpt lat="45.2086899" lon="9.0875209"><ele>77.0</ele><time>2026-05-01T08:50:23.495Z</time></trkpt><trkpt lat="45.2087648" lon="9.0874486"><ele>77.0</ele><time>2026-05-01T08:50:26.412Z</time></trkpt><trkpt lat="45.2088354" lon="9.0874307"><ele>77.0</ele><time>2026-05-01T08:50:28.413Z</time></trkpt><trkpt lat="45.2089242" lon="9.0874717"><ele>77.0</ele><time>2026-05-01T08:50:31.412Z</time></trkpt><trkpt lat="45.2089809" lon="9.0875165"><ele>77.28571428571429</ele><time>2026-05-01T08:50:33.418Z</time></trkpt><trkpt lat="45.2090448" lon="9.0875731"><ele>77.57142857142857</ele><time>2026-05-01T08:50:36.499Z</time></trkpt><trkpt lat="45.209097" lon="9.0876241"><ele>77.85714285714286</ele><time>2026-05-01T08:50:38.418Z</time></trkpt><trkpt lat="45.2091521" lon="9.08768"><ele>78.14285714285714</ele><time>2026-05-01T08:50:40.416Z</time></trkpt><trkpt lat="45.209227" lon="9.0877525"><ele>78.42857142857143</ele><time>2026-05-01T08:50:43.415Z</time></trkpt><trkpt lat="45.2092872" lon="9.0877961"><ele>78.71428571428572</ele><time>2026-05-01T08:50:45.423Z</time></trkpt><trkpt lat="45.2093405" lon="9.0878533"><ele>79.0</ele><time>2026-05-01T08:50:47.408Z</time></trkpt><trkpt lat="45.209413" lon="9.0879263"><ele>79.00000000000001</ele><time>2026-05-01T08:50:50.404Z</time></trkpt><trkpt lat="45.2094721" lon="9.0879783"><ele>79.0</ele><time>2026-05-01T08:50:52.413Z</time></trkpt><trkpt lat="45.2095283" lon="9.0880331"><ele>79.0</ele><time>2026-05-01T08:50:54.421Z</time></trkpt><trkpt lat="45.2096028" lon="9.0881087"><ele>79.0</ele><time>2026-05-01T08:50:57.431Z</time></trkpt><trkpt lat="45.2096589" lon="9.0881636"><ele>79.0</ele><time>2026-05-01T08:50:59.415Z</time></trkpt><trkpt lat="45.2097143" lon="9.0882236"><ele>79.00000000000001</ele><time>2026-05-01T08:51:01.412Z</time></trkpt><trkpt lat="45.2097679" lon="9.0882769"><ele>79.0</ele><time>2026-05-01T08:51:03.427Z</time></trkpt><trkpt lat="45.2098226" lon="9.0883347"><ele>79.00000000000001</ele><time>2026-05-01T08:51:05.412Z</time></trkpt><trkpt lat="45.2098763" lon="9.0883881"><ele>79.0</ele><time>2026-05-01T08:51:07.407Z</time></trkpt><trkpt lat="45.2099323" lon="9.0884378"><ele>79.0</ele><time>2026-05-01T08:51:09.411Z</time></trkpt><trkpt lat="45.2100033" lon="9.088515"><ele>79.0</ele><time>2026-05-01T08:51:12.498Z</time></trkpt><trkpt lat="45.2100723" lon="9.0885813"><ele>79.0</ele><time>2026-05-01T08:51:15.42Z</time></trkpt><trkpt lat="45.2101246" lon="9.0886527"><ele>79.00000000000001</ele><time>2026-05-01T08:51:18.414Z</time></trkpt><trkpt lat="45.2101815" lon="9.0887103"><ele>79.0</ele><time>2026-05-01T08:51:21.416Z</time></trkpt><trkpt lat="45.2102438" lon="9.0887477"><ele>79.0</ele><time>2026-05-01T08:51:24.41Z</time></trkpt><trkpt lat="45.2103121" lon="9.0887378"><ele>79.0</ele><time>2026-05-01T08:51:27.409Z</time></trkpt><trkpt lat="45.2103709" lon="9.088639"><ele>79.0</ele><time>2026-05-01T08:51:30.406Z</time></trkpt><trkpt lat="45.2104143" lon="9.0885626"><ele>79.0</ele><time>2026-05-01T08:51:32.414Z</time></trkpt><trkpt lat="45.2104727" lon="9.0884693"><ele>79.0</ele><time>2026-05-01T08:51:35.416Z</time></trkpt><trkpt lat="45.2105349" lon="9.0883575"><ele>79.0</ele><time>2026-05-01T08:51:38.414Z</time></trkpt><trkpt lat="45.2105783" lon="9.0882795"><ele>79.00000000000001</ele><time>2026-05-01T08:51:40.477Z</time></trkpt><trkpt lat="45.2106229" lon="9.0881966"><ele>79.0</ele><time>2026-05-01T08:51:42.421Z</time></trkpt><trkpt lat="45.2106629" lon="9.0881191"><ele>79.0</ele><time>2026-05-01T08:51:44.413Z</time></trkpt><trkpt lat="45.2107108" lon="9.0880348"><ele>79.0</ele><time>2026-05-01T08:51:46.414Z</time></trkpt><trkpt lat="45.2107551" lon="9.0879502"><ele>79.0</ele><time>2026-05-01T08:51:48.418Z</time></trkpt><trkpt lat="45.2108037" lon="9.0878716"><ele>79.00000000000001</ele><time>2026-05-01T08:51:50.492Z</time></trkpt><trkpt lat="45.2108491" lon="9.0877941"><ele>79.0</ele><time>2026-05-01T08:51:52.413Z</time></trkpt><trkpt lat="45.2108903" lon="9.0877178"><ele>79.0</ele><time>2026-05-01T08:51:54.412Z</time></trkpt><trkpt lat="45.2109494" lon="9.0876156"><ele>79.0</ele><time>2026-05-01T08:51:57.408Z</time></trkpt><trkpt lat="45.2109939" lon="9.0875319"><ele>79.0</ele><time>2026-05-01T08:51:59.416Z</time></trkpt><trkpt lat="45.2110365" lon="9.0874572"><ele>79.0</ele><time>2026-05-01T08:52:01.425Z</time></trkpt><trkpt lat="45.2110794" lon="9.0873773"><ele>79.0</ele><time>2026-05-01T08:52:03.408Z</time></trkpt><trkpt lat="45.2111323" lon="9.0872968"><ele>79.0</ele><time>2026-05-01T08:52:05.411Z</time></trkpt><trkpt lat="45.2111764" lon="9.0872163"><ele>78.83333333333333</ele><time>2026-05-01T08:52:07.405Z</time></trkpt><trkpt lat="45.2112221" lon="9.0871351"><ele>78.66666666666666</ele><time>2026-05-01T08:52:09.412Z</time></trkpt><trkpt lat="45.2112686" lon="9.0870488"><ele>78.5</ele><time>2026-05-01T08:52:11.417Z</time></trkpt><trkpt lat="45.2113099" lon="9.0869735"><ele>78.33333333333333</ele><time>2026-05-01T08:52:13.409Z</time></trkpt><trkpt lat="45.2113706" lon="9.0868645"><ele>78.16666666666667</ele><time>2026-05-01T08:52:16.413Z</time></trkpt><trkpt lat="45.2114183" lon="9.0867783"><ele>78.0</ele><time>2026-05-01T08:52:18.417Z</time></trkpt><trkpt lat="45.2114669" lon="9.0867072"><ele>78.0</ele><time>2026-05-01T08:52:20.409Z</time></trkpt><trkpt lat="45.2115157" lon="9.0866223"><ele>78.0</ele><time>2026-05-01T08:52:22.411Z</time></trkpt><trkpt lat="45.2115695" lon="9.0865424"><ele>78.0</ele><time>2026-05-01T08:52:24.412Z</time></trkpt><trkpt lat="45.2116175" lon="9.0864488"><ele>78.0</ele><time>2026-05-01T08:52:26.419Z</time></trkpt><trkpt lat="45.2116614" lon="9.0863701"><ele>78.0</ele><time>2026-05-01T08:52:28.416Z</time></trkpt><trkpt lat="45.2116973" lon="9.0862921"><ele>78.0</ele><time>2026-05-01T08:52:30.414Z</time></trkpt><trkpt lat="45.2117387" lon="9.0862016"><ele>78.0</ele><time>2026-05-01T08:52:32.415Z</time></trkpt><trkpt lat="45.2117886" lon="9.0861291"><ele>78.14285714285715</ele><time>2026-05-01T08:52:34.415Z</time></trkpt><trkpt lat="45.2118389" lon="9.0860486"><ele>78.28571428571428</ele><time>2026-05-01T08:52:36.406Z</time></trkpt><trkpt lat="45.2118877" lon="9.0859781"><ele>78.42857142857143</ele><time>2026-05-01T08:52:38.415Z</time></trkpt><trkpt lat="45.2119255" lon="9.0859019"><ele>78.57142857142858</ele><time>2026-05-01T08:52:40.416Z</time></trkpt><trkpt lat="45.2119682" lon="9.0858185"><ele>78.71428571428572</ele><time>2026-05-01T08:52:42.419Z</time></trkpt><trkpt lat="45.2120145" lon="9.0857469"><ele>78.85714285714286</ele><time>2026-05-01T08:52:44.427Z</time></trkpt><trkpt lat="45.2120619" lon="9.0856717"><ele>79.0</ele><time>2026-05-01T08:52:46.418Z</time></trkpt><trkpt lat="45.212116" lon="9.0855933"><ele>79.0</ele><time>2026-05-01T08:52:48.412Z</time></trkpt><trkpt lat="45.2121594" lon="9.0855123"><ele>79.0</ele><time>2026-05-01T08:52:50.417Z</time></trkpt><trkpt lat="45.2122092" lon="9.0854312"><ele>79.0</ele><time>2026-05-01T08:52:52.403Z</time></trkpt><trkpt lat="45.2122534" lon="9.0853383"><ele>79.0</ele><time>2026-05-01T08:52:54.421Z</time></trkpt><trkpt lat="45.2123073" lon="9.0852355"><ele>79.0</ele><time>2026-05-01T08:52:57.408Z</time></trkpt><trkpt lat="45.2123527" lon="9.0851649"><ele>79.0</ele><time>2026-05-01T08:52:59.412Z</time></trkpt><trkpt lat="45.2124011" lon="9.0850901"><ele>79.28571428571429</ele><time>2026-05-01T08:53:01.412Z</time></trkpt><trkpt lat="45.2124402" lon="9.0850171"><ele>79.57142857142857</ele><time>2026-05-01T08:53:03.413Z</time></trkpt><trkpt lat="45.2124817" lon="9.0849419"><ele>79.85714285714286</ele><time>2026-05-01T08:53:05.414Z</time></trkpt><trkpt lat="45.2125211" lon="9.0848672"><ele>80.14285714285714</ele><time>2026-05-01T08:53:07.418Z</time></trkpt><trkpt lat="45.2125595" lon="9.084789"><ele>80.42857142857143</ele><time>2026-05-01T08:53:09.415Z</time></trkpt><trkpt lat="45.2126074" lon="9.0847097"><ele>80.71428571428572</ele><time>2026-05-01T08:53:11.415Z</time></trkpt><trkpt lat="45.2126507" lon="9.0846369"><ele>81.0</ele><time>2026-05-01T08:53:13.411Z</time></trkpt><trkpt lat="45.212699" lon="9.0845596"><ele>81.0</ele><time>2026-05-01T08:53:15.414Z</time></trkpt><trkpt lat="45.2127429" lon="9.084475"><ele>81.0</ele><time>2026-05-01T08:53:17.42Z</time></trkpt><trkpt lat="45.2127874" lon="9.0843845"><ele>81.0</ele><time>2026-05-01T08:53:19.426Z</time></trkpt><trkpt lat="45.2128411" lon="9.0843044"><ele>81.0</ele><time>2026-05-01T08:53:21.419Z</time></trkpt><trkpt lat="45.2128897" lon="9.0842165"><ele>81.0</ele><time>2026-05-01T08:53:23.406Z</time></trkpt><trkpt lat="45.2129426" lon="9.0841123"><ele>81.0</ele><time>2026-05-01T08:53:25.409Z</time></trkpt><trkpt lat="45.2129908" lon="9.0840127"><ele>81.16666666666667</ele><time>2026-05-01T08:53:27.417Z</time></trkpt><trkpt lat="45.2130316" lon="9.0839397"><ele>81.33333333333333</ele><time>2026-05-01T08:53:29.416Z</time></trkpt><trkpt lat="45.2130888" lon="9.083849"><ele>81.5</ele><time>2026-05-01T08:53:32.413Z</time></trkpt><trkpt lat="45.2131509" lon="9.0837496"><ele>81.66666666666666</ele><time>2026-05-01T08:53:35.433Z</time></trkpt><trkpt lat="45.2131969" lon="9.0836708"><ele>81.83333333333333</ele><time>2026-05-01T08:53:37.419Z</time></trkpt><trkpt lat="45.2132463" lon="9.0835716"><ele>82.0</ele><time>2026-05-01T08:53:39.415Z</time></trkpt><trkpt lat="45.2132974" lon="9.0834774"><ele>81.85714285714285</ele><time>2026-05-01T08:53:41.413Z</time></trkpt><trkpt lat="45.2133481" lon="9.0833975"><ele>81.71428571428571</ele><time>2026-05-01T08:53:43.419Z</time></trkpt><trkpt lat="45.2133898" lon="9.0833277"><ele>81.57142857142857</ele><time>2026-05-01T08:53:45.412Z</time></trkpt><trkpt lat="45.2134438" lon="9.0832471"><ele>81.42857142857142</ele><time>2026-05-01T08:53:47.487Z</time></trkpt><trkpt lat="45.2134944" lon="9.0831641"><ele>81.28571428571428</ele><time>2026-05-01T08:53:49.426Z</time></trkpt><trkpt lat="45.2135381" lon="9.0830746"><ele>81.14285714285714</ele><time>2026-05-01T08:53:51.414Z</time></trkpt><trkpt lat="45.2135804" lon="9.0830002"><ele>81.0</ele><time>2026-05-01T08:53:53.415Z</time></trkpt><trkpt lat="45.2136186" lon="9.0829288"><ele>81.0</ele><time>2026-05-01T08:53:55.413Z</time></trkpt><trkpt lat="45.2136775" lon="9.0828374"><ele>81.0</ele><time>2026-05-01T08:53:58.415Z</time></trkpt><trkpt lat="45.2137189" lon="9.0827659"><ele>81.0</ele><time>2026-05-01T08:54:00.498Z</time></trkpt><trkpt lat="45.2137648" lon="9.082684"><ele>81.0</ele><time>2026-05-01T08:54:02.415Z</time></trkpt><trkpt lat="45.2138114" lon="9.0826014"><ele>81.0</ele><time>2026-05-01T08:54:04.421Z</time></trkpt><trkpt lat="45.2138553" lon="9.0825056"><ele>81.0</ele><time>2026-05-01T08:54:06.412Z</time></trkpt><trkpt lat="45.2138977" lon="9.0824323"><ele>81.0</ele><time>2026-05-01T08:54:08.415Z</time></trkpt><trkpt lat="45.2139356" lon="9.0823585"><ele>80.85714285714286</ele><time>2026-05-01T08:54:10.408Z</time></trkpt><trkpt lat="45.2139748" lon="9.0822854"><ele>80.71428571428571</ele><time>2026-05-01T08:54:12.411Z</time></trkpt><trkpt lat="45.214028" lon="9.0821841"><ele>80.57142857142857</ele><time>2026-05-01T08:54:15.41Z</time></trkpt><trkpt lat="45.2140701" lon="9.0821065"><ele>80.42857142857143</ele><time>2026-05-01T08:54:17.407Z</time></trkpt><trkpt lat="45.2141131" lon="9.0820227"><ele>80.28571428571429</ele><time>2026-05-01T08:54:19.423Z</time></trkpt><trkpt lat="45.2141572" lon="9.0819424"><ele>80.14285714285714</ele><time>2026-05-01T08:54:21.416Z</time></trkpt><trkpt lat="45.2141953" lon="9.0818586"><ele>80.0</ele><time>2026-05-01T08:54:23.409Z</time></trkpt><trkpt lat="45.2142383" lon="9.0817752"><ele>80.0</ele><time>2026-05-01T08:54:25.411Z</time></trkpt><trkpt lat="45.2142871" lon="9.0816903"><ele>80.0</ele><time>2026-05-01T08:54:27.41Z</time></trkpt><trkpt lat="45.2143234" lon="9.0815948"><ele>80.0</ele><time>2026-05-01T08:54:29.411Z</time></trkpt><trkpt lat="45.2143742" lon="9.0815114"><ele>80.0</ele><time>2026-05-01T08:54:31.414Z</time></trkpt><trkpt lat="45.2144162" lon="9.0814269"><ele>80.0</ele><time>2026-05-01T08:54:33.416Z</time></trkpt><trkpt lat="45.2144588" lon="9.081339"><ele>80.0</ele><time>2026-05-01T08:54:35.408Z</time></trkpt><trkpt lat="45.2144997" lon="9.0812497"><ele>80.16666666666667</ele><time>2026-05-01T08:54:37.418Z</time></trkpt><trkpt lat="45.2145461" lon="9.0811581"><ele>80.33333333333334</ele><time>2026-05-01T08:54:39.412Z</time></trkpt><trkpt lat="45.2145926" lon="9.0810617"><ele>80.5</ele><time>2026-05-01T08:54:41.487Z</time></trkpt><trkpt lat="45.21464" lon="9.080974"><ele>80.66666666666667</ele><time>2026-05-01T08:54:43.413Z</time></trkpt><trkpt lat="45.2146911" lon="9.0808646"><ele>80.83333333333333</ele><time>2026-05-01T08:54:46.417Z</time></trkpt><trkpt lat="45.2147271" lon="9.0807873"><ele>81.0</ele><time>2026-05-01T08:54:48.42Z</time></trkpt><trkpt lat="45.2147644" lon="9.0807061"><ele>81.0</ele><time>2026-05-01T08:54:50.418Z</time></trkpt><trkpt lat="45.2148002" lon="9.0806325"><ele>81.0</ele><time>2026-05-01T08:54:52.414Z</time></trkpt><trkpt lat="45.2148339" lon="9.0805307"><ele>81.0</ele><time>2026-05-01T08:54:55.414Z</time></trkpt><trkpt lat="45.2148693" lon="9.0804386"><ele>81.0</ele><time>2026-05-01T08:54:58.412Z</time></trkpt><trkpt lat="45.2149128" lon="9.0803405"><ele>81.0</ele><time>2026-05-01T08:55:01.414Z</time></trkpt><trkpt lat="45.2148942" lon="9.080234"><ele>81.0</ele><time>2026-05-01T08:55:05.41Z</time></trkpt><trkpt lat="45.2148202" lon="9.080175"><ele>81.0</ele><time>2026-05-01T08:55:08.417Z</time></trkpt><trkpt lat="45.2147678" lon="9.0801226"><ele>81.0</ele><time>2026-05-01T08:55:10.412Z</time></trkpt><trkpt lat="45.2147136" lon="9.0800708"><ele>81.0</ele><time>2026-05-01T08:55:12.412Z</time></trkpt><trkpt lat="45.2146597" lon="9.0800111"><ele>81.0</ele><time>2026-05-01T08:55:14.412Z</time></trkpt><trkpt lat="45.2145853" lon="9.0799337"><ele>81.0</ele><time>2026-05-01T08:55:17.483Z</time></trkpt><trkpt lat="45.2145281" lon="9.0798746"><ele>81.0</ele><time>2026-05-01T08:55:19.488Z</time></trkpt><trkpt lat="45.2144745" lon="9.0798164"><ele>81.0</ele><time>2026-05-01T08:55:21.416Z</time></trkpt><trkpt lat="45.2144138" lon="9.0797604"><ele>81.0</ele><time>2026-05-01T08:55:23.418Z</time></trkpt><trkpt lat="45.2143528" lon="9.0797057"><ele>81.0</ele><time>2026-05-01T08:55:25.42Z</time></trkpt><trkpt lat="45.2142959" lon="9.0796436"><ele>81.0</ele><time>2026-05-01T08:55:27.413Z</time></trkpt><trkpt lat="45.2142314" lon="9.0795799"><ele>81.0</ele><time>2026-05-01T08:55:29.411Z</time></trkpt><trkpt lat="45.2141648" lon="9.0795101"><ele>81.0</ele><time>2026-05-01T08:55:31.414Z</time></trkpt><trkpt lat="45.214106" lon="9.0794463"><ele>81.0</ele><time>2026-05-01T08:55:33.416Z</time></trkpt><trkpt lat="45.2140427" lon="9.0793819"><ele>80.5</ele><time>2026-05-01T08:55:35.406Z</time></trkpt><trkpt lat="45.2139703" lon="9.0793125"><ele>80.0</ele><time>2026-05-01T08:55:37.417Z</time></trkpt><trkpt lat="45.2138982" lon="9.0792385"><ele>79.5</ele><time>2026-05-01T08:55:39.408Z</time></trkpt><trkpt lat="45.2138236" lon="9.0791618"><ele>79.0</ele><time>2026-05-01T08:55:41.414Z</time></trkpt><trkpt lat="45.2137586" lon="9.0790909"><ele>78.5</ele><time>2026-05-01T08:55:43.414Z</time></trkpt><trkpt lat="45.2136934" lon="9.0790204"><ele>78.0</ele><time>2026-05-01T08:55:45.413Z</time></trkpt><trkpt lat="45.2136332" lon="9.0789529"><ele>77.33333333333333</ele><time>2026-05-01T08:55:47.414Z</time></trkpt><trkpt lat="45.2135769" lon="9.0788847"><ele>76.66666666666667</ele><time>2026-05-01T08:55:49.418Z</time></trkpt><trkpt lat="45.2135295" lon="9.0788246"><ele>76.0</ele><time>2026-05-01T08:55:51.412Z</time></trkpt><trkpt lat="45.2134667" lon="9.0787515"><ele>75.33333333333334</ele><time>2026-05-01T08:55:54.415Z</time></trkpt><trkpt lat="45.2133937" lon="9.0786739"><ele>74.66666666666667</ele><time>2026-05-01T08:55:57.412Z</time></trkpt><trkpt lat="45.2133356" lon="9.0786112"><ele>74.0</ele><time>2026-05-01T08:55:59.494Z</time></trkpt><trkpt lat="45.2132707" lon="9.0785429"><ele>74.0</ele><time>2026-05-01T08:56:02.411Z</time></trkpt><trkpt lat="45.2131963" lon="9.0784834"><ele>74.0</ele><time>2026-05-01T08:56:05.424Z</time></trkpt><trkpt lat="45.2131275" lon="9.078424"><ele>74.0</ele><time>2026-05-01T08:56:08.414Z</time></trkpt><trkpt lat="45.2130947" lon="9.0783"><ele>74.0</ele><time>2026-05-01T08:56:11.41Z</time></trkpt><trkpt lat="45.2131225" lon="9.0781921"><ele>74.0</ele><time>2026-05-01T08:56:14.415Z</time></trkpt><trkpt lat="45.2131295" lon="9.0780845"><ele>74.0</ele><time>2026-05-01T08:56:17.41Z</time></trkpt><trkpt lat="45.2131363" lon="9.0779652"><ele>74.0</ele><time>2026-05-01T08:56:20.408Z</time></trkpt><trkpt lat="45.2131407" lon="9.0778357"><ele>74.0</ele><time>2026-05-01T08:56:23.415Z</time></trkpt><trkpt lat="45.213142" lon="9.0777422"><ele>74.0</ele><time>2026-05-01T08:56:25.41Z</time></trkpt><trkpt lat="45.2131424" lon="9.0776435"><ele>74.0</ele><time>2026-05-01T08:56:27.41Z</time></trkpt><trkpt lat="45.2131412" lon="9.0775487"><ele>74.0</ele><time>2026-05-01T08:56:29.414Z</time></trkpt><trkpt lat="45.2131406" lon="9.0774167"><ele>74.0</ele><time>2026-05-01T08:56:32.415Z</time></trkpt><trkpt lat="45.2131458" lon="9.0772803"><ele>74.0</ele><time>2026-05-01T08:56:35.408Z</time></trkpt><trkpt lat="45.2131509" lon="9.0771509"><ele>74.0</ele><time>2026-05-01T08:56:38.418Z</time></trkpt><trkpt lat="45.2131571" lon="9.0770534"><ele>74.0</ele><time>2026-05-01T08:56:41.423Z</time></trkpt><trkpt lat="45.2131703" lon="9.0769343"><ele>74.0</ele><time>2026-05-01T08:56:44.421Z</time></trkpt><trkpt lat="45.2131931" lon="9.0768424"><ele>74.0</ele><time>2026-05-01T08:56:46.409Z</time></trkpt><trkpt lat="45.2132253" lon="9.0767464"><ele>74.0</ele><time>2026-05-01T08:56:48.415Z</time></trkpt><trkpt lat="45.213262" lon="9.0766491"><ele>73.66666666666667</ele><time>2026-05-01T08:56:50.414Z</time></trkpt><trkpt lat="45.2133032" lon="9.0765479"><ele>73.33333333333334</ele><time>2026-05-01T08:56:52.418Z</time></trkpt><trkpt lat="45.2133329" lon="9.076443"><ele>73.0</ele><time>2026-05-01T08:56:54.416Z</time></trkpt><trkpt lat="45.2133642" lon="9.0763442"><ele>72.66666666666667</ele><time>2026-05-01T08:56:56.494Z</time></trkpt><trkpt lat="45.2133963" lon="9.0762439"><ele>72.33333333333333</ele><time>2026-05-01T08:56:58.414Z</time></trkpt><trkpt lat="45.213439" lon="9.0761491"><ele>72.0</ele><time>2026-05-01T08:57:00.413Z</time></trkpt><trkpt lat="45.21347" lon="9.0760393"><ele>72.0</ele><time>2026-05-01T08:57:02.409Z</time></trkpt><trkpt lat="45.2135097" lon="9.0759272"><ele>72.0</ele><time>2026-05-01T08:57:04.414Z</time></trkpt><trkpt lat="45.2135527" lon="9.0758238"><ele>72.0</ele><time>2026-05-01T08:57:06.419Z</time></trkpt><trkpt lat="45.2135977" lon="9.0757173"><ele>72.0</ele><time>2026-05-01T08:57:08.417Z</time></trkpt><trkpt lat="45.2136369" lon="9.0756237"><ele>72.0</ele><time>2026-05-01T08:57:10.413Z</time></trkpt><trkpt lat="45.2136854" lon="9.0755369"><ele>72.0</ele><time>2026-05-01T08:57:12.416Z</time></trkpt><trkpt lat="45.2137261" lon="9.0754532"><ele>72.42857142857143</ele><time>2026-05-01T08:57:14.42Z</time></trkpt><trkpt lat="45.2137724" lon="9.0753801"><ele>72.85714285714286</ele><time>2026-05-01T08:57:16.415Z</time></trkpt><trkpt lat="45.2138222" lon="9.0753035"><ele>73.28571428571428</ele><time>2026-05-01T08:57:18.41Z</time></trkpt><trkpt lat="45.213869" lon="9.0752188"><ele>73.71428571428572</ele><time>2026-05-01T08:57:20.418Z</time></trkpt><trkpt lat="45.2139134" lon="9.0751385"><ele>74.14285714285714</ele><time>2026-05-01T08:57:22.409Z</time></trkpt><trkpt lat="45.2139566" lon="9.0750628"><ele>74.57142857142857</ele><time>2026-05-01T08:57:24.415Z</time></trkpt><trkpt lat="45.2139938" lon="9.0749789"><ele>75.0</ele><time>2026-05-01T08:57:26.422Z</time></trkpt><trkpt lat="45.2140369" lon="9.0748993"><ele>75.0</ele><time>2026-05-01T08:57:28.407Z</time></trkpt><trkpt lat="45.2140852" lon="9.0748188"><ele>75.0</ele><time>2026-05-01T08:57:30.41Z</time></trkpt><trkpt lat="45.2141461" lon="9.0747195"><ele>75.0</ele><time>2026-05-01T08:57:33.414Z</time></trkpt><trkpt lat="45.2141937" lon="9.0746454"><ele>75.0</ele><time>2026-05-01T08:57:35.417Z</time></trkpt><trkpt lat="45.2142449" lon="9.0745613"><ele>75.0</ele><time>2026-05-01T08:57:37.426Z</time></trkpt><trkpt lat="45.2142936" lon="9.0744926"><ele>75.0</ele><time>2026-05-01T08:57:39.422Z</time></trkpt><trkpt lat="45.2143489" lon="9.0744328"><ele>74.99999999999999</ele><time>2026-05-01T08:57:41.409Z</time></trkpt><trkpt lat="45.2144028" lon="9.0743784"><ele>75.0</ele><time>2026-05-01T08:57:43.415Z</time></trkpt><trkpt lat="45.214473" lon="9.0743196"><ele>75.0</ele><time>2026-05-01T08:57:45.426Z</time></trkpt><trkpt lat="45.2145369" lon="9.0742796"><ele>75.0</ele><time>2026-05-01T08:57:47.418Z</time></trkpt><trkpt lat="45.214599" lon="9.0742382"><ele>75.0</ele><time>2026-05-01T08:57:49.408Z</time></trkpt><trkpt lat="45.2146739" lon="9.0742104"><ele>74.99999999999999</ele><time>2026-05-01T08:57:51.411Z</time></trkpt><trkpt lat="45.2147384" lon="9.0741568"><ele>75.0</ele><time>2026-05-01T08:57:53.416Z</time></trkpt><trkpt lat="45.2148035" lon="9.0740998"><ele>74.66666666666667</ele><time>2026-05-01T08:57:55.418Z</time></trkpt><trkpt lat="45.2148572" lon="9.0740379"><ele>74.33333333333333</ele><time>2026-05-01T08:57:57.418Z</time></trkpt><trkpt lat="45.2149097" lon="9.073962"><ele>74.0</ele><time>2026-05-01T08:57:59.402Z</time></trkpt><trkpt lat="45.2149745" lon="9.0738705"><ele>73.66666666666666</ele><time>2026-05-01T08:58:02.407Z</time></trkpt><trkpt lat="45.2150302" lon="9.0737973"><ele>73.33333333333333</ele><time>2026-05-01T08:58:05.494Z</time></trkpt><trkpt lat="45.2150926" lon="9.0737119"><ele>73.0</ele><time>2026-05-01T08:58:08.414Z</time></trkpt><trkpt lat="45.2151498" lon="9.0736232"><ele>73.0</ele><time>2026-05-01T08:58:11.411Z</time></trkpt><trkpt lat="45.2151948" lon="9.0735528"><ele>73.0</ele><time>2026-05-01T08:58:13.412Z</time></trkpt><trkpt lat="45.2152416" lon="9.0734875"><ele>73.0</ele><time>2026-05-01T08:58:15.412Z</time></trkpt><trkpt lat="45.2152911" lon="9.0734198"><ele>73.0</ele><time>2026-05-01T08:58:17.415Z</time></trkpt><trkpt lat="45.2153379" lon="9.0733582"><ele>73.0</ele><time>2026-05-01T08:58:19.413Z</time></trkpt><trkpt lat="45.2154089" lon="9.0732792"><ele>73.0</ele><time>2026-05-01T08:58:22.418Z</time></trkpt><trkpt lat="45.2154632" lon="9.0732073"><ele>73.0</ele><time>2026-05-01T08:58:24.413Z</time></trkpt><trkpt lat="45.2155076" lon="9.0731153"><ele>73.14285714285714</ele><time>2026-05-01T08:58:26.425Z</time></trkpt><trkpt lat="45.2155598" lon="9.0730463"><ele>73.28571428571429</ele><time>2026-05-01T08:58:28.415Z</time></trkpt><trkpt lat="45.2156178" lon="9.0729676"><ele>73.42857142857143</ele><time>2026-05-01T08:58:30.401Z</time></trkpt><trkpt lat="45.2156663" lon="9.0728994"><ele>73.57142857142857</ele><time>2026-05-01T08:58:32.489Z</time></trkpt><trkpt lat="45.2157209" lon="9.072824"><ele>73.71428571428571</ele><time>2026-05-01T08:58:34.414Z</time></trkpt><trkpt lat="45.2157708" lon="9.0727519"><ele>73.85714285714286</ele><time>2026-05-01T08:58:36.411Z</time></trkpt><trkpt lat="45.2158178" lon="9.0726859"><ele>74.0</ele><time>2026-05-01T08:58:38.415Z</time></trkpt><trkpt lat="45.2158691" lon="9.0726172"><ele>74.0</ele><time>2026-05-01T08:58:40.412Z</time></trkpt><trkpt lat="45.2159255" lon="9.0725479"><ele>74.0</ele><time>2026-05-01T08:58:42.41Z</time></trkpt><trkpt lat="45.2159848" lon="9.0724852"><ele>74.0</ele><time>2026-05-01T08:58:44.415Z</time></trkpt><trkpt lat="45.2160393" lon="9.0724175"><ele>74.0</ele><time>2026-05-01T08:58:46.411Z</time></trkpt><trkpt lat="45.2160943" lon="9.0723344"><ele>74.0</ele><time>2026-05-01T08:58:48.409Z</time></trkpt><trkpt lat="45.2161458" lon="9.0722625"><ele>74.0</ele><time>2026-05-01T08:58:50.408Z</time></trkpt><trkpt lat="45.2162018" lon="9.0721835"><ele>73.66666666666667</ele><time>2026-05-01T08:58:52.407Z</time></trkpt><trkpt lat="45.2162648" lon="9.0721003"><ele>73.33333333333334</ele><time>2026-05-01T08:58:54.423Z</time></trkpt><trkpt lat="45.2163163" lon="9.0720074"><ele>73.0</ele><time>2026-05-01T08:58:56.415Z</time></trkpt><trkpt lat="45.2163539" lon="9.0719263"><ele>72.66666666666667</ele><time>2026-05-01T08:58:58.495Z</time></trkpt><trkpt lat="45.2164017" lon="9.0718467"><ele>72.33333333333333</ele><time>2026-05-01T08:59:00.414Z</time></trkpt><trkpt lat="45.2164461" lon="9.071775"><ele>72.0</ele><time>2026-05-01T08:59:02.41Z</time></trkpt><trkpt lat="45.2164987" lon="9.0716926"><ele>72.16666666666667</ele><time>2026-05-01T08:59:04.419Z</time></trkpt><trkpt lat="45.2165497" lon="9.0716182"><ele>72.33333333333333</ele><time>2026-05-01T08:59:06.421Z</time></trkpt><trkpt lat="45.2166007" lon="9.0715479"><ele>72.5</ele><time>2026-05-01T08:59:08.414Z</time></trkpt><trkpt lat="45.2166453" lon="9.0714812"><ele>72.66666666666666</ele><time>2026-05-01T08:59:10.41Z</time></trkpt><trkpt lat="45.2167122" lon="9.0714028"><ele>72.83333333333333</ele><time>2026-05-01T08:59:13.406Z</time></trkpt><trkpt lat="45.2167924" lon="9.0713428"><ele>73.0</ele><time>2026-05-01T08:59:16.425Z</time></trkpt><trkpt lat="45.2168701" lon="9.0712947"><ele>73.0</ele><time>2026-05-01T08:59:19.414Z</time></trkpt><trkpt lat="45.2169374" lon="9.0712637"><ele>73.0</ele><time>2026-05-01T08:59:21.42Z</time></trkpt><trkpt lat="45.2170205" lon="9.0712201"><ele>73.0</ele><time>2026-05-01T08:59:23.411Z</time></trkpt><trkpt lat="45.2170859" lon="9.0711787"><ele>73.0</ele><time>2026-05-01T08:59:25.418Z</time></trkpt><trkpt lat="45.2171714" lon="9.0711256"><ele>73.0</ele><time>2026-05-01T08:59:28.409Z</time></trkpt><trkpt lat="45.2172579" lon="9.0710824"><ele>73.0</ele><time>2026-05-01T08:59:31.419Z</time></trkpt><trkpt lat="45.2173464" lon="9.0710334"><ele>73.33333333333333</ele><time>2026-05-01T08:59:34.42Z</time></trkpt><trkpt lat="45.2174224" lon="9.0709856"><ele>73.66666666666666</ele><time>2026-05-01T08:59:37.418Z</time></trkpt><trkpt lat="45.2175052" lon="9.0709382"><ele>74.0</ele><time>2026-05-01T08:59:40.411Z</time></trkpt><trkpt lat="45.217567" lon="9.0709147"><ele>74.33333333333333</ele><time>2026-05-01T08:59:42.416Z</time></trkpt><trkpt lat="45.2176558" lon="9.0708797"><ele>74.66666666666667</ele><time>2026-05-01T08:59:45.415Z</time></trkpt><trkpt lat="45.2177212" lon="9.0707964"><ele>75.0</ele><time>2026-05-01T08:59:47.421Z</time></trkpt><trkpt lat="45.2177794" lon="9.0707072"><ele>75.0</ele><time>2026-05-01T08:59:49.411Z</time></trkpt><trkpt lat="45.2178407" lon="9.0706121"><ele>75.0</ele><time>2026-05-01T08:59:51.416Z</time></trkpt><trkpt lat="45.2178953" lon="9.0705207"><ele>75.0</ele><time>2026-05-01T08:59:53.412Z</time></trkpt><trkpt lat="45.2179375" lon="9.070452"><ele>75.0</ele><time>2026-05-01T08:59:55.42Z</time></trkpt><trkpt lat="45.2179801" lon="9.0703852"><ele>75.0</ele><time>2026-05-01T08:59:57.422Z</time></trkpt><trkpt lat="45.2180025" lon="9.0702666"><ele>75.0</ele><time>2026-05-01T09:00:00.409Z</time></trkpt><trkpt lat="45.2180045" lon="9.0701747"><ele>75.0</ele><time>2026-05-01T09:00:02.489Z</time></trkpt><trkpt lat="45.2180023" lon="9.070078"><ele>75.0</ele><time>2026-05-01T09:00:04.404Z</time></trkpt><trkpt lat="45.217994" lon="9.0699516"><ele>75.0</ele><time>2026-05-01T09:00:07.409Z</time></trkpt><trkpt lat="45.2179675" lon="9.0698377"><ele>75.0</ele><time>2026-05-01T09:00:10.408Z</time></trkpt><trkpt lat="45.2179448" lon="9.0697168"><ele>75.0</ele><time>2026-05-01T09:00:13.408Z</time></trkpt><trkpt lat="45.21793" lon="9.0696097"><ele>75.0</ele><time>2026-05-01T09:00:16.409Z</time></trkpt><trkpt lat="45.2179007" lon="9.0694909"><ele>74.85714285714285</ele><time>2026-05-01T09:00:19.411Z</time></trkpt><trkpt lat="45.2178787" lon="9.0693955"><ele>74.71428571428571</ele><time>2026-05-01T09:00:21.412Z</time></trkpt><trkpt lat="45.217852" lon="9.0693103"><ele>74.57142857142857</ele><time>2026-05-01T09:00:23.409Z</time></trkpt><trkpt lat="45.21782" lon="9.0692117"><ele>74.42857142857142</ele><time>2026-05-01T09:00:25.416Z</time></trkpt><trkpt lat="45.217783" lon="9.0691182"><ele>74.28571428571428</ele><time>2026-05-01T09:00:27.412Z</time></trkpt><trkpt lat="45.2177401" lon="9.0690249"><ele>74.14285714285714</ele><time>2026-05-01T09:00:29.41Z</time></trkpt><trkpt lat="45.21769" lon="9.0689334"><ele>74.0</ele><time>2026-05-01T09:00:31.414Z</time></trkpt><trkpt lat="45.2176548" lon="9.0688354"><ele>74.0</ele><time>2026-05-01T09:00:33.405Z</time></trkpt><trkpt lat="45.2176101" lon="9.0687408"><ele>74.0</ele><time>2026-05-01T09:00:35.41Z</time></trkpt><trkpt lat="45.2175716" lon="9.068638"><ele>74.0</ele><time>2026-05-01T09:00:37.41Z</time></trkpt><trkpt lat="45.2175368" lon="9.0685441"><ele>74.0</ele><time>2026-05-01T09:00:39.416Z</time></trkpt><trkpt lat="45.2175034" lon="9.0684457"><ele>74.0</ele><time>2026-05-01T09:00:41.418Z</time></trkpt><trkpt lat="45.2174815" lon="9.0683571"><ele>74.0</ele><time>2026-05-01T09:00:43.412Z</time></trkpt><trkpt lat="45.2174722" lon="9.0682323"><ele>74.0</ele><time>2026-05-01T09:00:46.418Z</time></trkpt><trkpt lat="45.2174629" lon="9.0681391"><ele>74.0</ele><time>2026-05-01T09:00:48.422Z</time></trkpt><trkpt lat="45.2174505" lon="9.0680405"><ele>74.0</ele><time>2026-05-01T09:00:50.416Z</time></trkpt><trkpt lat="45.2174329" lon="9.067946"><ele>74.0</ele><time>2026-05-01T09:00:52.415Z</time></trkpt><trkpt lat="45.2174193" lon="9.06785"><ele>74.0</ele><time>2026-05-01T09:00:54.417Z</time></trkpt><trkpt lat="45.2174013" lon="9.0677604"><ele>74.0</ele><time>2026-05-01T09:00:56.416Z</time></trkpt><trkpt lat="45.217385" lon="9.0676559"><ele>74.0</ele><time>2026-05-01T09:00:58.417Z</time></trkpt><trkpt lat="45.2173673" lon="9.0675564"><ele>74.0</ele><time>2026-05-01T09:01:00.412Z</time></trkpt><trkpt lat="45.2173524" lon="9.0674533"><ele>74.0</ele><time>2026-05-01T09:01:02.413Z</time></trkpt><trkpt lat="45.2173358" lon="9.067347"><ele>74.0</ele><time>2026-05-01T09:01:04.415Z</time></trkpt><trkpt lat="45.217321" lon="9.0672554"><ele>74.0</ele><time>2026-05-01T09:01:06.418Z</time></trkpt><trkpt lat="45.2173067" lon="9.0671633"><ele>74.0</ele><time>2026-05-01T09:01:08.412Z</time></trkpt><trkpt lat="45.2172878" lon="9.0670703"><ele>74.0</ele><time>2026-05-01T09:01:10.407Z</time></trkpt><trkpt lat="45.2172635" lon="9.0669757"><ele>74.0</ele><time>2026-05-01T09:01:12.416Z</time></trkpt><trkpt lat="45.2172694" lon="9.0668859"><ele>74.33333333333334</ele><time>2026-05-01T09:01:14.41Z</time></trkpt><trkpt lat="45.2173349" lon="9.0667984"><ele>74.66666666666667</ele><time>2026-05-01T09:01:17.413Z</time></trkpt><trkpt lat="45.2174083" lon="9.0667452"><ele>75.0</ele><time>2026-05-01T09:01:19.414Z</time></trkpt><trkpt lat="45.2174798" lon="9.0666928"><ele>75.33333333333333</ele><time>2026-05-01T09:01:21.411Z</time></trkpt><trkpt lat="45.2175371" lon="9.0666482"><ele>75.66666666666666</ele><time>2026-05-01T09:01:23.419Z</time></trkpt><trkpt lat="45.2176167" lon="9.0665862"><ele>76.0</ele><time>2026-05-01T09:01:26.415Z</time></trkpt><trkpt lat="45.217675" lon="9.0665413"><ele>76.0</ele><time>2026-05-01T09:01:28.41Z</time></trkpt><trkpt lat="45.2177515" lon="9.0664618"><ele>76.0</ele><time>2026-05-01T09:01:31.422Z</time></trkpt><trkpt lat="45.2178105" lon="9.0664101"><ele>76.0</ele><time>2026-05-01T09:01:33.492Z</time></trkpt><trkpt lat="45.2178751" lon="9.0663701"><ele>76.0</ele><time>2026-05-01T09:01:35.405Z</time></trkpt><trkpt lat="45.2179329" lon="9.0663167"><ele>76.0</ele><time>2026-05-01T09:01:37.415Z</time></trkpt><trkpt lat="45.2179897" lon="9.0662657"><ele>76.0</ele><time>2026-05-01T09:01:39.407Z</time></trkpt><trkpt lat="45.2180443" lon="9.0662119"><ele>76.0</ele><time>2026-05-01T09:01:41.412Z</time></trkpt><trkpt lat="45.2181001" lon="9.0661696"><ele>76.0</ele><time>2026-05-01T09:01:43.423Z</time></trkpt><trkpt lat="45.2181563" lon="9.0661278"><ele>76.0</ele><time>2026-05-01T09:01:45.41Z</time></trkpt><trkpt lat="45.2182365" lon="9.0660643"><ele>76.0</ele><time>2026-05-01T09:01:48.49Z</time></trkpt><trkpt lat="45.2182964" lon="9.0660128"><ele>76.0</ele><time>2026-05-01T09:01:50.42Z</time></trkpt><trkpt lat="45.218357" lon="9.065965"><ele>76.0</ele><time>2026-05-01T09:01:52.415Z</time></trkpt><trkpt lat="45.2184138" lon="9.0659112"><ele>76.0</ele><time>2026-05-01T09:01:54.412Z</time></trkpt><trkpt lat="45.2184697" lon="9.0658577"><ele>76.0</ele><time>2026-05-01T09:01:56.421Z</time></trkpt><trkpt lat="45.2185292" lon="9.0658068"><ele>76.0</ele><time>2026-05-01T09:01:58.406Z</time></trkpt><trkpt lat="45.218588" lon="9.0657526"><ele>76.0</ele><time>2026-05-01T09:02:00.416Z</time></trkpt><trkpt lat="45.2186473" lon="9.0656996"><ele>76.0</ele><time>2026-05-01T09:02:02.407Z</time></trkpt><trkpt lat="45.2187326" lon="9.0656356"><ele>76.0</ele><time>2026-05-01T09:02:05.411Z</time></trkpt><trkpt lat="45.2187938" lon="9.0655951"><ele>76.0</ele><time>2026-05-01T09:02:07.415Z</time></trkpt><trkpt lat="45.2188511" lon="9.0655517"><ele>76.0</ele><time>2026-05-01T09:02:09.414Z</time></trkpt><trkpt lat="45.2189055" lon="9.0655012"><ele>76.0</ele><time>2026-05-01T09:02:11.408Z</time></trkpt><trkpt lat="45.2189595" lon="9.0654538"><ele>76.0</ele><time>2026-05-01T09:02:13.417Z</time></trkpt><trkpt lat="45.2190173" lon="9.0654055"><ele>76.0</ele><time>2026-05-01T09:02:15.412Z</time></trkpt><trkpt lat="45.2190743" lon="9.0653549"><ele>76.0</ele><time>2026-05-01T09:02:17.419Z</time></trkpt><trkpt lat="45.2191324" lon="9.0653045"><ele>76.0</ele><time>2026-05-01T09:02:19.419Z</time></trkpt><trkpt lat="45.2191925" lon="9.0652496"><ele>76.0</ele><time>2026-05-01T09:02:21.407Z</time></trkpt><trkpt lat="45.2192523" lon="9.0651977"><ele>76.0</ele><time>2026-05-01T09:02:23.415Z</time></trkpt><trkpt lat="45.2193116" lon="9.0651455"><ele>76.0</ele><time>2026-05-01T09:02:25.406Z</time></trkpt><trkpt lat="45.2193684" lon="9.0650969"><ele>76.0</ele><time>2026-05-01T09:02:27.414Z</time></trkpt><trkpt lat="45.219426" lon="9.0650469"><ele>76.0</ele><time>2026-05-01T09:02:29.409Z</time></trkpt><trkpt lat="45.2194854" lon="9.0649884"><ele>76.0</ele><time>2026-05-01T09:02:31.411Z</time></trkpt><trkpt lat="45.2195482" lon="9.0649405"><ele>76.0</ele><time>2026-05-01T09:02:33.417Z</time></trkpt><trkpt lat="45.2196069" lon="9.0648986"><ele>76.0</ele><time>2026-05-01T09:02:35.408Z</time></trkpt><trkpt lat="45.2196683" lon="9.0648518"><ele>76.0</ele><time>2026-05-01T09:02:37.404Z</time></trkpt><trkpt lat="45.2197273" lon="9.0647971"><ele>76.0</ele><time>2026-05-01T09:02:39.417Z</time></trkpt><trkpt lat="45.2198064" lon="9.0647287"><ele>76.0</ele><time>2026-05-01T09:02:42.416Z</time></trkpt><trkpt lat="45.2198631" lon="9.0646827"><ele>76.0</ele><time>2026-05-01T09:02:44.426Z</time></trkpt><trkpt lat="45.2199219" lon="9.0646314"><ele>76.0</ele><time>2026-05-01T09:02:46.41Z</time></trkpt><trkpt lat="45.2199846" lon="9.0645841"><ele>76.0</ele><time>2026-05-01T09:02:48.403Z</time></trkpt><trkpt lat="45.2200582" lon="9.0645317"><ele>76.0</ele><time>2026-05-01T09:02:50.482Z</time></trkpt><trkpt lat="45.2201089" lon="9.0644785"><ele>76.0</ele><time>2026-05-01T09:02:52.418Z</time></trkpt><trkpt lat="45.2201618" lon="9.0644276"><ele>76.0</ele><time>2026-05-01T09:02:54.411Z</time></trkpt><trkpt lat="45.2202228" lon="9.0643762"><ele>76.0</ele><time>2026-05-01T09:02:56.412Z</time></trkpt><trkpt lat="45.2202818" lon="9.0643232"><ele>76.0</ele><time>2026-05-01T09:02:58.409Z</time></trkpt><trkpt lat="45.2203467" lon="9.0642742"><ele>76.0</ele><time>2026-05-01T09:03:00.407Z</time></trkpt><trkpt lat="45.2204189" lon="9.0642393"><ele>76.0</ele><time>2026-05-01T09:03:02.417Z</time></trkpt><trkpt lat="45.2204878" lon="9.0641865"><ele>76.0</ele><time>2026-05-01T09:03:04.414Z</time></trkpt><trkpt lat="45.22055" lon="9.0641305"><ele>76.0</ele><time>2026-05-01T09:03:06.417Z</time></trkpt><trkpt lat="45.2206099" lon="9.0640646"><ele>76.0</ele><time>2026-05-01T09:03:08.412Z</time></trkpt><trkpt lat="45.2206655" lon="9.0639995"><ele>76.0</ele><time>2026-05-01T09:03:10.406Z</time></trkpt><trkpt lat="45.2207297" lon="9.0639425"><ele>76.0</ele><time>2026-05-01T09:03:12.417Z</time></trkpt><trkpt lat="45.2207932" lon="9.0638772"><ele>76.0</ele><time>2026-05-01T09:03:14.427Z</time></trkpt><trkpt lat="45.2208528" lon="9.0638111"><ele>76.0</ele><time>2026-05-01T09:03:16.411Z</time></trkpt><trkpt lat="45.2209153" lon="9.063744"><ele>76.0</ele><time>2026-05-01T09:03:18.412Z</time></trkpt><trkpt lat="45.2209752" lon="9.0636793"><ele>76.0</ele><time>2026-05-01T09:03:20.409Z</time></trkpt><trkpt lat="45.2210275" lon="9.0636187"><ele>76.0</ele><time>2026-05-01T09:03:22.415Z</time></trkpt><trkpt lat="45.2210777" lon="9.0635548"><ele>76.0</ele><time>2026-05-01T09:03:24.414Z</time></trkpt><trkpt lat="45.2211354" lon="9.0634952"><ele>76.0</ele><time>2026-05-01T09:03:26.41Z</time></trkpt><trkpt lat="45.2211887" lon="9.0634337"><ele>76.0</ele><time>2026-05-01T09:03:28.406Z</time></trkpt><trkpt lat="45.2212445" lon="9.0633683"><ele>76.0</ele><time>2026-05-01T09:03:30.417Z</time></trkpt><trkpt lat="45.2212858" lon="9.0632957"><ele>76.0</ele><time>2026-05-01T09:03:32.418Z</time></trkpt><trkpt lat="45.2212999" lon="9.0632066"><ele>76.0</ele><time>2026-05-01T09:03:34.411Z</time></trkpt><trkpt lat="45.2212667" lon="9.0631111"><ele>76.33333333333333</ele><time>2026-05-01T09:03:36.417Z</time></trkpt><trkpt lat="45.2212249" lon="9.0630184"><ele>76.66666666666666</ele><time>2026-05-01T09:03:38.417Z</time></trkpt><trkpt lat="45.2211791" lon="9.0629164"><ele>77.0</ele><time>2026-05-01T09:03:40.411Z</time></trkpt><trkpt lat="45.221136" lon="9.0628207"><ele>77.33333333333333</ele><time>2026-05-01T09:03:42.408Z</time></trkpt><trkpt lat="45.2210886" lon="9.0627258"><ele>77.66666666666667</ele><time>2026-05-01T09:03:44.401Z</time></trkpt><trkpt lat="45.2210459" lon="9.0626367"><ele>78.0</ele><time>2026-05-01T09:03:46.411Z</time></trkpt><trkpt lat="45.2210001" lon="9.0625385"><ele>77.83333333333333</ele><time>2026-05-01T09:03:48.41Z</time></trkpt><trkpt lat="45.2209479" lon="9.0624443"><ele>77.66666666666667</ele><time>2026-05-01T09:03:50.413Z</time></trkpt><trkpt lat="45.2208992" lon="9.0623458"><ele>77.5</ele><time>2026-05-01T09:03:52.414Z</time></trkpt><trkpt lat="45.2208519" lon="9.0622509"><ele>77.33333333333334</ele><time>2026-05-01T09:03:54.411Z</time></trkpt><trkpt lat="45.220806" lon="9.0621613"><ele>77.16666666666667</ele><time>2026-05-01T09:03:56.489Z</time></trkpt><trkpt lat="45.2207603" lon="9.0620779"><ele>77.0</ele><time>2026-05-01T09:03:58.411Z</time></trkpt><trkpt lat="45.2207174" lon="9.0619977"><ele>77.0</ele><time>2026-05-01T09:04:00.409Z</time></trkpt><trkpt lat="45.2206715" lon="9.0619107"><ele>77.0</ele><time>2026-05-01T09:04:02.41Z</time></trkpt><trkpt lat="45.2206317" lon="9.061825"><ele>77.0</ele><time>2026-05-01T09:04:04.41Z</time></trkpt><trkpt lat="45.2205923" lon="9.0617261"><ele>77.0</ele><time>2026-05-01T09:04:06.414Z</time></trkpt><trkpt lat="45.2205533" lon="9.0616342"><ele>77.0</ele><time>2026-05-01T09:04:08.423Z</time></trkpt><trkpt lat="45.2205112" lon="9.0615532"><ele>77.0</ele><time>2026-05-01T09:04:10.422Z</time></trkpt><trkpt lat="45.2204686" lon="9.061465"><ele>77.0</ele><time>2026-05-01T09:04:12.417Z</time></trkpt><trkpt lat="45.2204431" lon="9.0613744"><ele>77.0</ele><time>2026-05-01T09:04:14.404Z</time></trkpt><trkpt lat="45.2204703" lon="9.061285"><ele>77.0</ele><time>2026-05-01T09:04:16.413Z</time></trkpt><trkpt lat="45.2205342" lon="9.0612045"><ele>77.0</ele><time>2026-05-01T09:04:18.416Z</time></trkpt><trkpt lat="45.2206077" lon="9.0611203"><ele>77.0</ele><time>2026-05-01T09:04:20.494Z</time></trkpt><trkpt lat="45.2206717" lon="9.0610484"><ele>77.0</ele><time>2026-05-01T09:04:22.486Z</time></trkpt><trkpt lat="45.220731" lon="9.0609852"><ele>77.0</ele><time>2026-05-01T09:04:24.415Z</time></trkpt><trkpt lat="45.220795" lon="9.0609246"><ele>77.0</ele><time>2026-05-01T09:04:26.412Z</time></trkpt><trkpt lat="45.2208518" lon="9.0608519"><ele>77.0</ele><time>2026-05-01T09:04:28.414Z</time></trkpt><trkpt lat="45.2209164" lon="9.0607878"><ele>77.0</ele><time>2026-05-01T09:04:30.415Z</time></trkpt><trkpt lat="45.2209678" lon="9.0607292"><ele>77.0</ele><time>2026-05-01T09:04:32.406Z</time></trkpt><trkpt lat="45.2210216" lon="9.0606658"><ele>77.0</ele><time>2026-05-01T09:04:34.409Z</time></trkpt><trkpt lat="45.2210789" lon="9.0606038"><ele>77.0</ele><time>2026-05-01T09:04:36.41Z</time></trkpt><trkpt lat="45.2211278" lon="9.0605433"><ele>76.85714285714286</ele><time>2026-05-01T09:04:38.408Z</time></trkpt><trkpt lat="45.2211794" lon="9.0604794"><ele>76.71428571428572</ele><time>2026-05-01T09:04:40.407Z</time></trkpt><trkpt lat="45.2212373" lon="9.0604204"><ele>76.57142857142857</ele><time>2026-05-01T09:04:42.406Z</time></trkpt><trkpt lat="45.2212996" lon="9.0603565"><ele>76.42857142857143</ele><time>2026-05-01T09:04:44.41Z</time></trkpt><trkpt lat="45.2213555" lon="9.0602915"><ele>76.28571428571429</ele><time>2026-05-01T09:04:46.48Z</time></trkpt><trkpt lat="45.2214132" lon="9.0602297"><ele>76.14285714285714</ele><time>2026-05-01T09:04:48.401Z</time></trkpt><trkpt lat="45.2214721" lon="9.0601631"><ele>76.0</ele><time>2026-05-01T09:04:50.42Z</time></trkpt><trkpt lat="45.2215338" lon="9.0601052"><ele>76.0</ele><time>2026-05-01T09:04:52.409Z</time></trkpt><trkpt lat="45.2215869" lon="9.0600327"><ele>76.0</ele><time>2026-05-01T09:04:54.408Z</time></trkpt><trkpt lat="45.2216526" lon="9.0599536"><ele>76.0</ele><time>2026-05-01T09:04:56.411Z</time></trkpt><trkpt lat="45.2217176" lon="9.0598893"><ele>76.0</ele><time>2026-05-01T09:04:58.41Z</time></trkpt><trkpt lat="45.2217816" lon="9.0598163"><ele>76.0</ele><time>2026-05-01T09:05:00.412Z</time></trkpt><trkpt lat="45.2218479" lon="9.0597434"><ele>76.0</ele><time>2026-05-01T09:05:02.413Z</time></trkpt><trkpt lat="45.2219078" lon="9.0596686"><ele>75.42857142857143</ele><time>2026-05-01T09:05:04.417Z</time></trkpt><trkpt lat="45.2219658" lon="9.0596105"><ele>74.85714285714286</ele><time>2026-05-01T09:05:06.413Z</time></trkpt><trkpt lat="45.2220204" lon="9.0595421"><ele>74.28571428571429</ele><time>2026-05-01T09:05:08.41Z</time></trkpt><trkpt lat="45.2220756" lon="9.0594848"><ele>73.71428571428572</ele><time>2026-05-01T09:05:10.415Z</time></trkpt><trkpt lat="45.222136" lon="9.0594221"><ele>73.14285714285714</ele><time>2026-05-01T09:05:12.483Z</time></trkpt><trkpt lat="45.2221944" lon="9.0593561"><ele>72.57142857142858</ele><time>2026-05-01T09:05:14.416Z</time></trkpt><trkpt lat="45.222252" lon="9.0592853"><ele>72.0</ele><time>2026-05-01T09:05:16.414Z</time></trkpt><trkpt lat="45.2223053" lon="9.0592122"><ele>71.83333333333333</ele><time>2026-05-01T09:05:18.411Z</time></trkpt><trkpt lat="45.2223528" lon="9.0591419"><ele>71.66666666666667</ele><time>2026-05-01T09:05:20.407Z</time></trkpt><trkpt lat="45.2224177" lon="9.0590504"><ele>71.5</ele><time>2026-05-01T09:05:23.414Z</time></trkpt><trkpt lat="45.2224705" lon="9.058985"><ele>71.33333333333334</ele><time>2026-05-01T09:05:25.41Z</time></trkpt><trkpt lat="45.2225291" lon="9.0589328"><ele>71.16666666666667</ele><time>2026-05-01T09:05:27.412Z</time></trkpt><trkpt lat="45.2225968" lon="9.0589413"><ele>71.0</ele><time>2026-05-01T09:05:30.41Z</time></trkpt><trkpt lat="45.2226721" lon="9.059015"><ele>71.0</ele><time>2026-05-01T09:05:33.408Z</time></trkpt><trkpt lat="45.2227217" lon="9.0590806"><ele>71.0</ele><time>2026-05-01T09:05:35.41Z</time></trkpt><trkpt lat="45.2227893" lon="9.0591667"><ele>71.0</ele><time>2026-05-01T09:05:38.413Z</time></trkpt><trkpt lat="45.2228406" lon="9.0592217"><ele>71.0</ele><time>2026-05-01T09:05:40.412Z</time></trkpt><trkpt lat="45.2228891" lon="9.0592836"><ele>71.0</ele><time>2026-05-01T09:05:42.413Z</time></trkpt><trkpt lat="45.2229338" lon="9.0593479"><ele>71.0</ele><time>2026-05-01T09:05:44.409Z</time></trkpt><trkpt lat="45.2229826" lon="9.0594105"><ele>71.0</ele><time>2026-05-01T09:05:46.415Z</time></trkpt><trkpt lat="45.2230314" lon="9.0594693"><ele>71.83333333333334</ele><time>2026-05-01T09:05:48.409Z</time></trkpt><trkpt lat="45.2231031" lon="9.0595596"><ele>72.66666666666667</ele><time>2026-05-01T09:05:51.407Z</time></trkpt><trkpt lat="45.2231587" lon="9.0596251"><ele>73.5</ele><time>2026-05-01T09:05:53.488Z</time></trkpt><trkpt lat="45.2232333" lon="9.0597117"><ele>74.33333333333333</ele><time>2026-05-01T09:05:56.418Z</time></trkpt><trkpt lat="45.2232909" lon="9.0598004"><ele>75.16666666666666</ele><time>2026-05-01T09:05:59.414Z</time></trkpt><trkpt lat="45.2233583" lon="9.0598814"><ele>76.0</ele><time>2026-05-01T09:06:01.418Z</time></trkpt><trkpt lat="45.223421" lon="9.0599637"><ele>76.28571428571428</ele><time>2026-05-01T09:06:03.412Z</time></trkpt><trkpt lat="45.2234798" lon="9.0600302"><ele>76.57142857142858</ele><time>2026-05-01T09:06:05.414Z</time></trkpt><trkpt lat="45.2235308" lon="9.0600926"><ele>76.85714285714286</ele><time>2026-05-01T09:06:07.409Z</time></trkpt><trkpt lat="45.2235827" lon="9.0601468"><ele>77.14285714285714</ele><time>2026-05-01T09:06:09.406Z</time></trkpt><trkpt lat="45.2236402" lon="9.0602038"><ele>77.42857142857142</ele><time>2026-05-01T09:06:11.409Z</time></trkpt><trkpt lat="45.2237136" lon="9.0602593"><ele>77.71428571428572</ele><time>2026-05-01T09:06:13.418Z</time></trkpt><trkpt lat="45.223776" lon="9.0603071"><ele>78.0</ele><time>2026-05-01T09:06:15.416Z</time></trkpt><trkpt lat="45.2238439" lon="9.0603665"><ele>78.0</ele><time>2026-05-01T09:06:18.412Z</time></trkpt><trkpt lat="45.22393" lon="9.0604264"><ele>78.0</ele><time>2026-05-01T09:06:21.409Z</time></trkpt><trkpt lat="45.2240079" lon="9.0604611"><ele>78.0</ele><time>2026-05-01T09:06:23.417Z</time></trkpt><trkpt lat="45.2240919" lon="9.0604975"><ele>78.0</ele><time>2026-05-01T09:06:25.411Z</time></trkpt><trkpt lat="45.2241487" lon="9.0605539"><ele>78.0</ele><time>2026-05-01T09:06:27.414Z</time></trkpt><trkpt lat="45.2242102" lon="9.0606303"><ele>78.0</ele><time>2026-05-01T09:06:30.414Z</time></trkpt><trkpt lat="45.2242566" lon="9.0606963"><ele>77.83333333333333</ele><time>2026-05-01T09:06:32.408Z</time></trkpt><trkpt lat="45.2243057" lon="9.0607802"><ele>77.66666666666667</ele><time>2026-05-01T09:06:34.419Z</time></trkpt><trkpt lat="45.2243703" lon="9.0608721"><ele>77.5</ele><time>2026-05-01T09:06:37.407Z</time></trkpt><trkpt lat="45.2244311" lon="9.0609291"><ele>77.33333333333334</ele><time>2026-05-01T09:06:39.407Z</time></trkpt><trkpt lat="45.2245078" lon="9.0609395"><ele>77.16666666666667</ele><time>2026-05-01T09:06:41.42Z</time></trkpt><trkpt lat="45.2245747" lon="9.060875"><ele>77.0</ele><time>2026-05-01T09:06:43.41Z</time></trkpt><trkpt lat="45.2246225" lon="9.0607776"><ele>76.85714285714286</ele><time>2026-05-01T09:06:45.411Z</time></trkpt><trkpt lat="45.2246616" lon="9.0607015"><ele>76.71428571428572</ele><time>2026-05-01T09:06:47.41Z</time></trkpt><trkpt lat="45.2246949" lon="9.0606207"><ele>76.57142857142857</ele><time>2026-05-01T09:06:49.408Z</time></trkpt><trkpt lat="45.224736" lon="9.0605474"><ele>76.42857142857143</ele><time>2026-05-01T09:06:51.405Z</time></trkpt><trkpt lat="45.2247697" lon="9.0604461"><ele>76.28571428571429</ele><time>2026-05-01T09:06:54.419Z</time></trkpt><trkpt lat="45.2247882" lon="9.0603373"><ele>76.14285714285714</ele><time>2026-05-01T09:06:57.413Z</time></trkpt><trkpt lat="45.2248" lon="9.0602462"><ele>76.0</ele><time>2026-05-01T09:06:59.415Z</time></trkpt><trkpt lat="45.2248" lon="9.0601193"><ele>76.0</ele><time>2026-05-01T09:07:01.415Z</time></trkpt><trkpt lat="45.2247956" lon="9.059971"><ele>76.0</ele><time>2026-05-01T09:07:03.412Z</time></trkpt><trkpt lat="45.2247825" lon="9.0598628"><ele>76.0</ele><time>2026-05-01T09:07:05.408Z</time></trkpt><trkpt lat="45.2247764" lon="9.059766"><ele>76.0</ele><time>2026-05-01T09:07:07.41Z</time></trkpt><trkpt lat="45.2247621" lon="9.0596745"><ele>76.0</ele><time>2026-05-01T09:07:09.414Z</time></trkpt><trkpt lat="45.2247409" lon="9.0595549"><ele>76.0</ele><time>2026-05-01T09:07:12.403Z</time></trkpt><trkpt lat="45.2247231" lon="9.0594355"><ele>76.14285714285714</ele><time>2026-05-01T09:07:15.417Z</time></trkpt><trkpt lat="45.2246963" lon="9.0593065"><ele>76.28571428571429</ele><time>2026-05-01T09:07:18.413Z</time></trkpt><trkpt lat="45.224681" lon="9.0592122"><ele>76.42857142857143</ele><time>2026-05-01T09:07:20.414Z</time></trkpt><trkpt lat="45.2246793" lon="9.0591119"><ele>76.57142857142857</ele><time>2026-05-01T09:07:22.41Z</time></trkpt><trkpt lat="45.2246881" lon="9.0590147"><ele>76.71428571428572</ele><time>2026-05-01T09:07:24.413Z</time></trkpt><trkpt lat="45.2247141" lon="9.0589194"><ele>76.85714285714286</ele><time>2026-05-01T09:07:26.415Z</time></trkpt><trkpt lat="45.224753" lon="9.0588409"><ele>77.0</ele><time>2026-05-01T09:07:28.407Z</time></trkpt><trkpt lat="45.224808" lon="9.05876"><ele>76.83333333333334</ele><time>2026-05-01T09:07:30.423Z</time></trkpt><trkpt lat="45.2248699" lon="9.058687"><ele>76.66666666666667</ele><time>2026-05-01T09:07:32.411Z</time></trkpt><trkpt lat="45.2249419" lon="9.0586125"><ele>76.5</ele><time>2026-05-01T09:07:34.415Z</time></trkpt><trkpt lat="45.2250023" lon="9.0585291"><ele>76.33333333333333</ele><time>2026-05-01T09:07:36.418Z</time></trkpt><trkpt lat="45.2250521" lon="9.0584729"><ele>76.16666666666666</ele><time>2026-05-01T09:07:38.421Z</time></trkpt><trkpt lat="45.2251267" lon="9.0583925"><ele>76.0</ele><time>2026-05-01T09:07:41.414Z</time></trkpt><trkpt lat="45.2251784" lon="9.0583389"><ele>75.83333333333333</ele><time>2026-05-01T09:07:43.407Z</time></trkpt><trkpt lat="45.2252536" lon="9.0582549"><ele>75.66666666666666</ele><time>2026-05-01T09:07:46.411Z</time></trkpt><trkpt lat="45.2253039" lon="9.0581869"><ele>75.5</ele><time>2026-05-01T09:07:49.402Z</time></trkpt><trkpt lat="45.2253382" lon="9.0580992"><ele>75.33333333333333</ele><time>2026-05-01T09:07:52.487Z</time></trkpt><trkpt lat="45.2253758" lon="9.0580066"><ele>75.16666666666667</ele><time>2026-05-01T09:07:55.404Z</time></trkpt><trkpt lat="45.2254367" lon="9.0579143"><ele>75.0</ele><time>2026-05-01T09:07:58.414Z</time></trkpt><trkpt lat="45.2254915" lon="9.0578149"><ele>74.99999999999999</ele><time>2026-05-01T09:08:01.418Z</time></trkpt><trkpt lat="45.2255179" lon="9.0577225"><ele>75.0</ele><time>2026-05-01T09:08:03.415Z</time></trkpt><trkpt lat="45.2255514" lon="9.0576438"><ele>75.0</ele><time>2026-05-01T09:08:05.419Z</time></trkpt><trkpt lat="45.2255894" lon="9.057549"><ele>75.0</ele><time>2026-05-01T09:08:07.414Z</time></trkpt><trkpt lat="45.2256286" lon="9.0574728"><ele>75.0</ele><time>2026-05-01T09:08:09.409Z</time></trkpt><trkpt lat="45.22567" lon="9.0573855"><ele>74.99999999999999</ele><time>2026-05-01T09:08:11.411Z</time></trkpt><trkpt lat="45.2257113" lon="9.0572998"><ele>75.0</ele><time>2026-05-01T09:08:13.407Z</time></trkpt><trkpt lat="45.2257517" lon="9.0572157"><ele>75.33333333333333</ele><time>2026-05-01T09:08:15.41Z</time></trkpt><trkpt lat="45.2258164" lon="9.0571107"><ele>75.66666666666667</ele><time>2026-05-01T09:08:18.418Z</time></trkpt><trkpt lat="45.2258591" lon="9.0570289"><ele>76.0</ele><time>2026-05-01T09:08:20.407Z</time></trkpt><trkpt lat="45.2259097" lon="9.056945"><ele>76.33333333333334</ele><time>2026-05-01T09:08:22.422Z</time></trkpt><trkpt lat="45.2259612" lon="9.0568661"><ele>76.66666666666667</ele><time>2026-05-01T09:08:24.412Z</time></trkpt><trkpt lat="45.2260117" lon="9.0568014"><ele>77.0</ele><time>2026-05-01T09:08:26.413Z</time></trkpt><trkpt lat="45.2260865" lon="9.0567242"><ele>77.0</ele><time>2026-05-01T09:08:29.405Z</time></trkpt><trkpt lat="45.2261446" lon="9.0566771"><ele>77.0</ele><time>2026-05-01T09:08:31.485Z</time></trkpt><trkpt lat="45.2262034" lon="9.0565689"><ele>77.0</ele><time>2026-05-01T09:08:34.415Z</time></trkpt><trkpt lat="45.226241" lon="9.0564864"><ele>77.0</ele><time>2026-05-01T09:08:36.411Z</time></trkpt><trkpt lat="45.2262853" lon="9.0563817"><ele>77.0</ele><time>2026-05-01T09:08:39.41Z</time></trkpt><trkpt lat="45.2263186" lon="9.0562969"><ele>77.0</ele><time>2026-05-01T09:08:41.422Z</time></trkpt><trkpt lat="45.2263481" lon="9.0562063"><ele>77.0</ele><time>2026-05-01T09:08:43.409Z</time></trkpt><trkpt lat="45.2263847" lon="9.0561304"><ele>77.0</ele><time>2026-05-01T09:08:45.488Z</time></trkpt><trkpt lat="45.2264162" lon="9.0560475"><ele>77.0</ele><time>2026-05-01T09:08:47.406Z</time></trkpt><trkpt lat="45.2264546" lon="9.0559654"><ele>77.0</ele><time>2026-05-01T09:08:49.407Z</time></trkpt><trkpt lat="45.2264838" lon="9.0558756"><ele>77.0</ele><time>2026-05-01T09:08:51.423Z</time></trkpt><trkpt lat="45.2265193" lon="9.055784"><ele>77.0</ele><time>2026-05-01T09:08:53.406Z</time></trkpt><trkpt lat="45.2265521" lon="9.0556889"><ele>77.0</ele><time>2026-05-01T09:08:55.413Z</time></trkpt><trkpt lat="45.2265847" lon="9.0555865"><ele>76.83333333333334</ele><time>2026-05-01T09:08:57.414Z</time></trkpt><trkpt lat="45.2266182" lon="9.0554995"><ele>76.66666666666667</ele><time>2026-05-01T09:08:59.425Z</time></trkpt><trkpt lat="45.2266519" lon="9.0554015"><ele>76.5</ele><time>2026-05-01T09:09:01.403Z</time></trkpt><trkpt lat="45.2266762" lon="9.0552886"><ele>76.33333333333333</ele><time>2026-05-01T09:09:03.411Z</time></trkpt><trkpt lat="45.2267104" lon="9.0551899"><ele>76.16666666666666</ele><time>2026-05-01T09:09:05.409Z</time></trkpt><trkpt lat="45.2267431" lon="9.0550988"><ele>76.0</ele><time>2026-05-01T09:09:07.412Z</time></trkpt><trkpt lat="45.2267709" lon="9.055006"><ele>75.83333333333333</ele><time>2026-05-01T09:09:09.411Z</time></trkpt><trkpt lat="45.2268047" lon="9.0549186"><ele>75.66666666666666</ele><time>2026-05-01T09:09:11.493Z</time></trkpt><trkpt lat="45.2268446" lon="9.0548273"><ele>75.5</ele><time>2026-05-01T09:09:13.416Z</time></trkpt><trkpt lat="45.2268893" lon="9.0547231"><ele>75.33333333333333</ele><time>2026-05-01T09:09:15.404Z</time></trkpt><trkpt lat="45.2269344" lon="9.0546179"><ele>75.16666666666667</ele><time>2026-05-01T09:09:17.41Z</time></trkpt><trkpt lat="45.2269597" lon="9.054504"><ele>75.0</ele><time>2026-05-01T09:09:19.407Z</time></trkpt><trkpt lat="45.2269873" lon="9.0544004"><ele>75.0</ele><time>2026-05-01T09:09:21.413Z</time></trkpt><trkpt lat="45.2270176" lon="9.0543184"><ele>75.0</ele><time>2026-05-01T09:09:23.413Z</time></trkpt><trkpt lat="45.2270594" lon="9.0541997"><ele>75.0</ele><time>2026-05-01T09:09:26.413Z</time></trkpt><trkpt lat="45.2271002" lon="9.0540814"><ele>75.0</ele><time>2026-05-01T09:09:29.402Z</time></trkpt><trkpt lat="45.2271347" lon="9.0540012"><ele>75.0</ele><time>2026-05-01T09:09:31.408Z</time></trkpt><trkpt lat="45.2271657" lon="9.0539182"><ele>75.0</ele><time>2026-05-01T09:09:33.417Z</time></trkpt><trkpt lat="45.2271885" lon="9.0538301"><ele>75.28571428571428</ele><time>2026-05-01T09:09:35.413Z</time></trkpt><trkpt lat="45.2272195" lon="9.05374"><ele>75.57142857142857</ele><time>2026-05-01T09:09:37.492Z</time></trkpt><trkpt lat="45.2272572" lon="9.0536541"><ele>75.85714285714286</ele><time>2026-05-01T09:09:39.413Z</time></trkpt><trkpt lat="45.2272991" lon="9.0535834"><ele>76.14285714285714</ele><time>2026-05-01T09:09:41.415Z</time></trkpt><trkpt lat="45.2273526" lon="9.0535002"><ele>76.42857142857143</ele><time>2026-05-01T09:09:43.418Z</time></trkpt><trkpt lat="45.2274377" lon="9.0534828"><ele>76.71428571428571</ele><time>2026-05-01T09:09:46.399Z</time></trkpt><trkpt lat="45.2275108" lon="9.0535027"><ele>77.0</ele><time>2026-05-01T09:09:48.408Z</time></trkpt><trkpt lat="45.2275773" lon="9.0535368"><ele>77.0</ele><time>2026-05-01T09:09:50.497Z</time></trkpt><trkpt lat="45.2276415" lon="9.0535794"><ele>77.0</ele><time>2026-05-01T09:09:52.417Z</time></trkpt><trkpt lat="45.2277258" lon="9.0536159"><ele>77.0</ele><time>2026-05-01T09:09:54.416Z</time></trkpt><trkpt lat="45.2277886" lon="9.0536597"><ele>77.0</ele><time>2026-05-01T09:09:56.413Z</time></trkpt><trkpt lat="45.2278747" lon="9.0537073"><ele>77.0</ele><time>2026-05-01T09:09:59.41Z</time></trkpt><trkpt lat="45.2279418" lon="9.0537555"><ele>77.0</ele><time>2026-05-01T09:10:01.493Z</time></trkpt><trkpt lat="45.2280084" lon="9.0537956"><ele>77.0</ele><time>2026-05-01T09:10:03.501Z</time></trkpt><trkpt lat="45.2280738" lon="9.0538337"><ele>77.0</ele><time>2026-05-01T09:10:05.405Z</time></trkpt><trkpt lat="45.2281357" lon="9.053872"><ele>77.0</ele><time>2026-05-01T09:10:07.412Z</time></trkpt><trkpt lat="45.2282007" lon="9.0539094"><ele>77.0</ele><time>2026-05-01T09:10:09.416Z</time></trkpt><trkpt lat="45.2282702" lon="9.0539516"><ele>77.0</ele><time>2026-05-01T09:10:11.41Z</time></trkpt><trkpt lat="45.2283573" lon="9.0539767"><ele>77.0</ele><time>2026-05-01T09:10:14.411Z</time></trkpt><trkpt lat="45.2284204" lon="9.053937"><ele>77.0</ele><time>2026-05-01T09:10:16.407Z</time></trkpt><trkpt lat="45.2284673" lon="9.0538771"><ele>76.83333333333334</ele><time>2026-05-01T09:10:18.402Z</time></trkpt><trkpt lat="45.2285296" lon="9.0537805"><ele>76.66666666666667</ele><time>2026-05-01T09:10:21.421Z</time></trkpt><trkpt lat="45.228572" lon="9.0537067"><ele>76.5</ele><time>2026-05-01T09:10:23.41Z</time></trkpt><trkpt lat="45.228611" lon="9.0536359"><ele>76.33333333333333</ele><time>2026-05-01T09:10:25.405Z</time></trkpt><trkpt lat="45.2286491" lon="9.0535592"><ele>76.16666666666666</ele><time>2026-05-01T09:10:27.413Z</time></trkpt><trkpt lat="45.2286633" lon="9.0534394"><ele>76.0</ele><time>2026-05-01T09:10:29.487Z</time></trkpt><trkpt lat="45.2286718" lon="9.0532875"><ele>76.0</ele><time>2026-05-01T09:10:31.411Z</time></trkpt><trkpt lat="45.2286726" lon="9.0531375"><ele>76.0</ele><time>2026-05-01T09:10:33.407Z</time></trkpt><trkpt lat="45.2286804" lon="9.0530156"><ele>76.0</ele><time>2026-05-01T09:10:35.411Z</time></trkpt><trkpt lat="45.2286882" lon="9.052907"><ele>76.0</ele><time>2026-05-01T09:10:37.405Z</time></trkpt><trkpt lat="45.2286973" lon="9.052811"><ele>76.0</ele><time>2026-05-01T09:10:39.401Z</time></trkpt><trkpt lat="45.2287154" lon="9.0526991"><ele>76.0</ele><time>2026-05-01T09:10:41.414Z</time></trkpt><trkpt lat="45.2287281" lon="9.0525793"><ele>76.0</ele><time>2026-05-01T09:10:43.409Z</time></trkpt><trkpt lat="45.2287404" lon="9.0524433"><ele>76.0</ele><time>2026-05-01T09:10:45.409Z</time></trkpt><trkpt lat="45.2287476" lon="9.052316"><ele>76.0</ele><time>2026-05-01T09:10:47.406Z</time></trkpt><trkpt lat="45.2287589" lon="9.0521974"><ele>76.0</ele><time>2026-05-01T09:10:49.41Z</time></trkpt><trkpt lat="45.2287676" lon="9.0520972"><ele>76.0</ele><time>2026-05-01T09:10:51.41Z</time></trkpt><trkpt lat="45.2287724" lon="9.0519932"><ele>76.0</ele><time>2026-05-01T09:10:53.409Z</time></trkpt><trkpt lat="45.228783" lon="9.0518896"><ele>76.0</ele><time>2026-05-01T09:10:55.416Z</time></trkpt><trkpt lat="45.2287865" lon="9.0517764"><ele>76.0</ele><time>2026-05-01T09:10:57.424Z</time></trkpt><trkpt lat="45.2287853" lon="9.0516819"><ele>76.0</ele><time>2026-05-01T09:10:59.421Z</time></trkpt><trkpt lat="45.2287557" lon="9.0515963"><ele>76.0</ele><time>2026-05-01T09:11:01.411Z</time></trkpt><trkpt lat="45.2286887" lon="9.0515281"><ele>76.0</ele><time>2026-05-01T09:11:03.405Z</time></trkpt><trkpt lat="45.2286188" lon="9.0515208"><ele>76.0</ele><time>2026-05-01T09:11:05.489Z</time></trkpt><trkpt lat="45.2285577" lon="9.0514874"><ele>76.0</ele><time>2026-05-01T09:11:07.416Z</time></trkpt><trkpt lat="45.2285232" lon="9.051382"><ele>76.5</ele><time>2026-05-01T09:11:09.397Z</time></trkpt><trkpt lat="45.228524" lon="9.0512618"><ele>77.0</ele><time>2026-05-01T09:11:11.411Z</time></trkpt><trkpt lat="45.2285455" lon="9.0511406"><ele>77.5</ele><time>2026-05-01T09:11:13.413Z</time></trkpt><trkpt lat="45.2285604" lon="9.0510282"><ele>78.0</ele><time>2026-05-01T09:11:15.413Z</time></trkpt><trkpt lat="45.2285768" lon="9.0509242"><ele>78.5</ele><time>2026-05-01T09:11:17.408Z</time></trkpt><trkpt lat="45.2285942" lon="9.0508193"><ele>79.0</ele><time>2026-05-01T09:11:19.408Z</time></trkpt><trkpt lat="45.2286147" lon="9.0507122"><ele>79.0</ele><time>2026-05-01T09:11:21.416Z</time></trkpt><trkpt lat="45.2286341" lon="9.0506049"><ele>79.0</ele><time>2026-05-01T09:11:23.409Z</time></trkpt><trkpt lat="45.228661" lon="9.0504979"><ele>79.0</ele><time>2026-05-01T09:11:25.407Z</time></trkpt><trkpt lat="45.2286865" lon="9.0503905"><ele>79.0</ele><time>2026-05-01T09:11:27.42Z</time></trkpt><trkpt lat="45.2287226" lon="9.0502955"><ele>79.0</ele><time>2026-05-01T09:11:29.412Z</time></trkpt><trkpt lat="45.2287251" lon="9.0501895"><ele>79.0</ele><time>2026-05-01T09:11:31.481Z</time></trkpt><trkpt lat="45.2286918" lon="9.0501075"><ele>79.0</ele><time>2026-05-01T09:11:33.419Z</time></trkpt><trkpt lat="45.2286192" lon="9.0500733"><ele>79.0</ele><time>2026-05-01T09:11:35.409Z</time></trkpt><trkpt lat="45.2285392" lon="9.0500642"><ele>79.0</ele><time>2026-05-01T09:11:37.419Z</time></trkpt><trkpt lat="45.2284496" lon="9.0500331"><ele>79.0</ele><time>2026-05-01T09:11:39.408Z</time></trkpt><trkpt lat="45.2283842" lon="9.0499589"><ele>79.0</ele><time>2026-05-01T09:11:41.406Z</time></trkpt><trkpt lat="45.2283793" lon="9.0498352"><ele>79.0</ele><time>2026-05-01T09:11:43.409Z</time></trkpt><trkpt lat="45.2283857" lon="9.049735"><ele>79.0</ele><time>2026-05-01T09:11:45.412Z</time></trkpt><trkpt lat="45.2284028" lon="9.049636"><ele>79.0</ele><time>2026-05-01T09:11:47.412Z</time></trkpt><trkpt lat="45.2284145" lon="9.0495348"><ele>79.0</ele><time>2026-05-01T09:11:49.418Z</time></trkpt><trkpt lat="45.2284235" lon="9.0494255"><ele>79.0</ele><time>2026-05-01T09:11:51.402Z</time></trkpt><trkpt lat="45.2284394" lon="9.0493215"><ele>79.0</ele><time>2026-05-01T09:11:53.413Z</time></trkpt><trkpt lat="45.2284517" lon="9.0491901"><ele>79.0</ele><time>2026-05-01T09:11:56.414Z</time></trkpt><trkpt lat="45.2284619" lon="9.0490964"><ele>79.00000000000001</ele><time>2026-05-01T09:11:58.415Z</time></trkpt><trkpt lat="45.2284703" lon="9.0489917"><ele>79.0</ele><time>2026-05-01T09:12:00.42Z</time></trkpt><trkpt lat="45.2284758" lon="9.0488822"><ele>79.0</ele><time>2026-05-01T09:12:02.407Z</time></trkpt><trkpt lat="45.2284899" lon="9.048791"><ele>79.0</ele><time>2026-05-01T09:12:04.418Z</time></trkpt><trkpt lat="45.2284998" lon="9.0486956"><ele>79.0</ele><time>2026-05-01T09:12:06.414Z</time></trkpt><trkpt lat="45.2285112" lon="9.048589"><ele>79.00000000000001</ele><time>2026-05-01T09:12:08.414Z</time></trkpt><trkpt lat="45.2285218" lon="9.0484906"><ele>79.0</ele><time>2026-05-01T09:12:10.419Z</time></trkpt><trkpt lat="45.2285333" lon="9.0483544"><ele>78.57142857142858</ele><time>2026-05-01T09:12:13.419Z</time></trkpt><trkpt lat="45.2285459" lon="9.0482598"><ele>78.14285714285714</ele><time>2026-05-01T09:12:15.418Z</time></trkpt><trkpt lat="45.2285545" lon="9.0481554"><ele>77.71428571428572</ele><time>2026-05-01T09:12:17.416Z</time></trkpt><trkpt lat="45.2285646" lon="9.0480403"><ele>77.28571428571429</ele><time>2026-05-01T09:12:19.418Z</time></trkpt><trkpt lat="45.2285766" lon="9.0479439"><ele>76.85714285714286</ele><time>2026-05-01T09:12:21.411Z</time></trkpt><trkpt lat="45.2285923" lon="9.0478538"><ele>76.42857142857143</ele><time>2026-05-01T09:12:23.41Z</time></trkpt><trkpt lat="45.2286025" lon="9.0477649"><ele>76.0</ele><time>2026-05-01T09:12:25.413Z</time></trkpt><trkpt lat="45.2286175" lon="9.0476656"><ele>76.0</ele><time>2026-05-01T09:12:27.491Z</time></trkpt><trkpt lat="45.2286302" lon="9.0475614"><ele>76.0</ele><time>2026-05-01T09:12:29.41Z</time></trkpt><trkpt lat="45.2286446" lon="9.0474679"><ele>76.0</ele><time>2026-05-01T09:12:31.403Z</time></trkpt><trkpt lat="45.2286565" lon="9.0473686"><ele>76.0</ele><time>2026-05-01T09:12:33.41Z</time></trkpt><trkpt lat="45.2286672" lon="9.0472657"><ele>76.0</ele><time>2026-05-01T09:12:35.415Z</time></trkpt><trkpt lat="45.2286723" lon="9.0471514"><ele>76.0</ele><time>2026-05-01T09:12:37.404Z</time></trkpt><trkpt lat="45.2286672" lon="9.0470222"><ele>75.83333333333333</ele><time>2026-05-01T09:12:40.41Z</time></trkpt><trkpt lat="45.2286054" lon="9.0469239"><ele>75.66666666666666</ele><time>2026-05-01T09:12:43.414Z</time></trkpt><trkpt lat="45.2285414" lon="9.046913"><ele>75.5</ele><time>2026-05-01T09:12:45.411Z</time></trkpt><trkpt lat="45.2284422" lon="9.0469146"><ele>75.33333333333333</ele><time>2026-05-01T09:12:48.406Z</time></trkpt><trkpt lat="45.2283776" lon="9.0469027"><ele>75.16666666666667</ele><time>2026-05-01T09:12:50.409Z</time></trkpt><trkpt lat="45.2282895" lon="9.0468732"><ele>75.0</ele><time>2026-05-01T09:12:53.486Z</time></trkpt><trkpt lat="45.228223" lon="9.0468508"><ele>74.99999999999999</ele><time>2026-05-01T09:12:55.414Z</time></trkpt><trkpt lat="45.2281448" lon="9.0468366"><ele>75.0</ele><time>2026-05-01T09:12:57.41Z</time></trkpt><trkpt lat="45.2280765" lon="9.0468209"><ele>75.0</ele><time>2026-05-01T09:12:59.41Z</time></trkpt><trkpt lat="45.2280144" lon="9.0467946"><ele>75.0</ele><time>2026-05-01T09:13:01.404Z</time></trkpt><trkpt lat="45.2279502" lon="9.0467674"><ele>75.0</ele><time>2026-05-01T09:13:03.41Z</time></trkpt><trkpt lat="45.2278782" lon="9.0467484"><ele>74.99999999999999</ele><time>2026-05-01T09:13:05.417Z</time></trkpt><trkpt lat="45.2278059" lon="9.0467246"><ele>75.0</ele><time>2026-05-01T09:13:07.417Z</time></trkpt><trkpt lat="45.2277395" lon="9.0467054"><ele>74.99999999999999</ele><time>2026-05-01T09:13:09.409Z</time></trkpt><trkpt lat="45.2276695" lon="9.0466917"><ele>75.0</ele><time>2026-05-01T09:13:11.408Z</time></trkpt><trkpt lat="45.2276023" lon="9.0466754"><ele>75.0</ele><time>2026-05-01T09:13:13.41Z</time></trkpt><trkpt lat="45.227527" lon="9.0466586"><ele>75.0</ele><time>2026-05-01T09:13:15.409Z</time></trkpt><trkpt lat="45.2274402" lon="9.0466365"><ele>75.0</ele><time>2026-05-01T09:13:18.406Z</time></trkpt><trkpt lat="45.2273704" lon="9.0466126"><ele>74.99999999999999</ele><time>2026-05-01T09:13:20.41Z</time></trkpt><trkpt lat="45.2273072" lon="9.0465692"><ele>75.0</ele><time>2026-05-01T09:13:22.414Z</time></trkpt><trkpt lat="45.227248" lon="9.0465241"><ele>74.83333333333333</ele><time>2026-05-01T09:13:24.421Z</time></trkpt><trkpt lat="45.2271999" lon="9.0464221"><ele>74.66666666666667</ele><time>2026-05-01T09:13:27.417Z</time></trkpt><trkpt lat="45.2271794" lon="9.0462997"><ele>74.5</ele><time>2026-05-01T09:13:30.491Z</time></trkpt><trkpt lat="45.2271795" lon="9.0461856"><ele>74.33333333333334</ele><time>2026-05-01T09:13:32.409Z</time></trkpt><trkpt lat="45.2271821" lon="9.0460867"><ele>74.16666666666667</ele><time>2026-05-01T09:13:34.421Z</time></trkpt><trkpt lat="45.2271748" lon="9.0459759"><ele>74.0</ele><time>2026-05-01T09:13:36.42Z</time></trkpt><trkpt lat="45.2271623" lon="9.0458742"><ele>74.0</ele><time>2026-05-01T09:13:38.419Z</time></trkpt><trkpt lat="45.227151" lon="9.0457793"><ele>74.0</ele><time>2026-05-01T09:13:40.414Z</time></trkpt><trkpt lat="45.2270955" lon="9.0456922"><ele>74.0</ele><time>2026-05-01T09:13:43.406Z</time></trkpt><trkpt lat="45.227027" lon="9.0456779"><ele>74.0</ele><time>2026-05-01T09:13:45.484Z</time></trkpt><trkpt lat="45.2269445" lon="9.0456918"><ele>74.0</ele><time>2026-05-01T09:13:47.412Z</time></trkpt><trkpt lat="45.2268514" lon="9.0457665"><ele>74.0</ele><time>2026-05-01T09:13:49.403Z</time></trkpt><trkpt lat="45.2267816" lon="9.0458389"><ele>74.0</ele><time>2026-05-01T09:13:51.412Z</time></trkpt><trkpt lat="45.2267751" lon="9.0459668"><ele>74.0</ele><time>2026-05-01T09:13:53.405Z</time></trkpt><trkpt lat="45.2268034" lon="9.0461421"><ele>74.0</ele><time>2026-05-01T09:13:55.407Z</time></trkpt><trkpt lat="45.2268165" lon="9.0462397"><ele>74.0</ele><time>2026-05-01T09:13:56.413Z</time></trkpt><trkpt lat="45.2268288" lon="9.0464105"><ele>74.0</ele><time>2026-05-01T09:13:58.411Z</time></trkpt><trkpt lat="45.2268057" lon="9.0465551"><ele>73.2</ele><time>2026-05-01T09:14:00.411Z</time></trkpt><trkpt lat="45.2267433" lon="9.0466651"><ele>72.4</ele><time>2026-05-01T09:14:02.407Z</time></trkpt><trkpt lat="45.2266361" lon="9.0467281"><ele>71.6</ele><time>2026-05-01T09:14:04.418Z</time></trkpt><trkpt lat="45.226519" lon="9.0467703"><ele>70.8</ele><time>2026-05-01T09:14:06.407Z</time></trkpt><trkpt lat="45.2264522" lon="9.0467814"><ele>70.0</ele><time>2026-05-01T09:14:07.41Z</time></trkpt><trkpt lat="45.2263357" lon="9.046791"><ele>68.8</ele><time>2026-05-01T09:14:09.417Z</time></trkpt><trkpt lat="45.2262184" lon="9.0468005"><ele>67.6</ele><time>2026-05-01T09:14:11.408Z</time></trkpt><trkpt lat="45.2261157" lon="9.0468206"><ele>66.4</ele><time>2026-05-01T09:14:13.408Z</time></trkpt><trkpt lat="45.2260143" lon="9.0468402"><ele>65.2</ele><time>2026-05-01T09:14:15.416Z</time></trkpt><trkpt lat="45.2259216" lon="9.0468548"><ele>64.0</ele><time>2026-05-01T09:14:17.427Z</time></trkpt><trkpt lat="45.2258337" lon="9.046869"><ele>63.99999999999999</ele><time>2026-05-01T09:14:19.401Z</time></trkpt><trkpt lat="45.2257609" lon="9.0468704"><ele>64.0</ele><time>2026-05-01T09:14:21.404Z</time></trkpt><trkpt lat="45.2256887" lon="9.046882"><ele>64.0</ele><time>2026-05-01T09:14:23.411Z</time></trkpt><trkpt lat="45.2255995" lon="9.0469068"><ele>64.0</ele><time>2026-05-01T09:14:26.409Z</time></trkpt><trkpt lat="45.2255077" lon="9.0469322"><ele>63.99999999999999</ele><time>2026-05-01T09:14:29.426Z</time></trkpt><trkpt lat="45.2254435" lon="9.0469628"><ele>64.0</ele><time>2026-05-01T09:14:31.407Z</time></trkpt><trkpt lat="45.2253731" lon="9.0470504"><ele>64.16666666666666</ele><time>2026-05-01T09:14:34.486Z</time></trkpt><trkpt lat="45.2253172" lon="9.0471147"><ele>64.33333333333333</ele><time>2026-05-01T09:14:36.41Z</time></trkpt><trkpt lat="45.2252653" lon="9.0471851"><ele>64.5</ele><time>2026-05-01T09:14:38.413Z</time></trkpt><trkpt lat="45.2252199" lon="9.0472638"><ele>64.66666666666667</ele><time>2026-05-01T09:14:40.405Z</time></trkpt><trkpt lat="45.2251626" lon="9.047361"><ele>64.83333333333334</ele><time>2026-05-01T09:14:43.415Z</time></trkpt><trkpt lat="45.225115" lon="9.0474536"><ele>65.0</ele><time>2026-05-01T09:14:46.418Z</time></trkpt><trkpt lat="45.2250563" lon="9.0475402"><ele>65.16666666666667</ele><time>2026-05-01T09:14:49.414Z</time></trkpt><trkpt lat="45.2250101" lon="9.0476092"><ele>65.33333333333334</ele><time>2026-05-01T09:14:51.407Z</time></trkpt><trkpt lat="45.2249487" lon="9.0477008"><ele>65.5</ele><time>2026-05-01T09:14:54.417Z</time></trkpt><trkpt lat="45.2249087" lon="9.0477814"><ele>65.66666666666667</ele><time>2026-05-01T09:14:56.425Z</time></trkpt><trkpt lat="45.2248636" lon="9.047848"><ele>65.83333333333333</ele><time>2026-05-01T09:14:58.406Z</time></trkpt><trkpt lat="45.2247982" lon="9.0479489"><ele>66.0</ele><time>2026-05-01T09:15:01.417Z</time></trkpt><trkpt lat="45.2247519" lon="9.0480382"><ele>66.0</ele><time>2026-05-01T09:15:04.412Z</time></trkpt><trkpt lat="45.2247112" lon="9.0481076"><ele>66.0</ele><time>2026-05-01T09:15:06.415Z</time></trkpt><trkpt lat="45.2246767" lon="9.0481921"><ele>66.0</ele><time>2026-05-01T09:15:08.414Z</time></trkpt><trkpt lat="45.2246517" lon="9.0482847"><ele>66.0</ele><time>2026-05-01T09:15:10.418Z</time></trkpt><trkpt lat="45.2246445" lon="9.0483986"><ele>66.0</ele><time>2026-05-01T09:15:12.414Z</time></trkpt><trkpt lat="45.2246548" lon="9.0484972"><ele>66.0</ele><time>2026-05-01T09:15:14.409Z</time></trkpt><trkpt lat="45.2246748" lon="9.0485997"><ele>66.0</ele><time>2026-05-01T09:15:16.407Z</time></trkpt><trkpt lat="45.2246896" lon="9.0486977"><ele>65.83333333333333</ele><time>2026-05-01T09:15:18.415Z</time></trkpt><trkpt lat="45.2247097" lon="9.0488141"><ele>65.66666666666667</ele><time>2026-05-01T09:15:20.427Z</time></trkpt><trkpt lat="45.2247193" lon="9.0489564"><ele>65.5</ele><time>2026-05-01T09:15:22.41Z</time></trkpt><trkpt lat="45.2247368" lon="9.0490629"><ele>65.33333333333334</ele><time>2026-05-01T09:15:24.407Z</time></trkpt><trkpt lat="45.2247381" lon="9.0491658"><ele>65.16666666666667</ele><time>2026-05-01T09:15:26.404Z</time></trkpt><trkpt lat="45.2247366" lon="9.0492621"><ele>65.0</ele><time>2026-05-01T09:15:28.409Z</time></trkpt><trkpt lat="45.2247268" lon="9.0493747"><ele>65.00000000000001</ele><time>2026-05-01T09:15:30.411Z</time></trkpt><trkpt lat="45.2247332" lon="9.049467"><ele>65.0</ele><time>2026-05-01T09:15:32.409Z</time></trkpt><trkpt lat="45.2247288" lon="9.0495642"><ele>65.0</ele><time>2026-05-01T09:15:34.406Z</time></trkpt><trkpt lat="45.2247195" lon="9.0496722"><ele>65.0</ele><time>2026-05-01T09:15:36.409Z</time></trkpt><trkpt lat="45.224687" lon="9.0497798"><ele>65.0</ele><time>2026-05-01T09:15:38.408Z</time></trkpt><trkpt lat="45.2246464" lon="9.0498823"><ele>65.00000000000001</ele><time>2026-05-01T09:15:40.491Z</time></trkpt><trkpt lat="45.2246202" lon="9.0499755"><ele>65.0</ele><time>2026-05-01T09:15:42.42Z</time></trkpt><trkpt lat="45.2245946" lon="9.0500647"><ele>65.42857142857143</ele><time>2026-05-01T09:15:44.411Z</time></trkpt><trkpt lat="45.2245731" lon="9.0501506"><ele>65.85714285714286</ele><time>2026-05-01T09:15:46.415Z</time></trkpt><trkpt lat="45.2245393" lon="9.050278"><ele>66.28571428571428</ele><time>2026-05-01T09:15:49.426Z</time></trkpt><trkpt lat="45.2245236" lon="9.0503697"><ele>66.71428571428572</ele><time>2026-05-01T09:15:51.412Z</time></trkpt><trkpt lat="45.2245086" lon="9.0504596"><ele>67.14285714285714</ele><time>2026-05-01T09:15:53.407Z</time></trkpt><trkpt lat="45.2244916" lon="9.0505552"><ele>67.57142857142857</ele><time>2026-05-01T09:15:55.414Z</time></trkpt><trkpt lat="45.2244775" lon="9.0506583"><ele>68.0</ele><time>2026-05-01T09:15:57.405Z</time></trkpt><trkpt lat="45.2244594" lon="9.0507496"><ele>67.71428571428571</ele><time>2026-05-01T09:15:59.414Z</time></trkpt><trkpt lat="45.2244186" lon="9.0508423"><ele>67.42857142857143</ele><time>2026-05-01T09:16:02.413Z</time></trkpt><trkpt lat="45.2243973" lon="9.0509515"><ele>67.14285714285714</ele><time>2026-05-01T09:16:05.48Z</time></trkpt><trkpt lat="45.2243521" lon="9.0510562"><ele>66.85714285714286</ele><time>2026-05-01T09:16:08.406Z</time></trkpt><trkpt lat="45.2243089" lon="9.0511383"><ele>66.57142857142857</ele><time>2026-05-01T09:16:11.402Z</time></trkpt><trkpt lat="45.224251" lon="9.0511903"><ele>66.28571428571428</ele><time>2026-05-01T09:16:14.409Z</time></trkpt><trkpt lat="45.224188" lon="9.0512034"><ele>66.0</ele><time>2026-05-01T09:16:17.406Z</time></trkpt><trkpt lat="45.2241267" lon="9.0512838"><ele>66.0</ele><time>2026-05-01T09:16:21.414Z</time></trkpt><trkpt lat="45.2240829" lon="9.0513798"><ele>66.0</ele><time>2026-05-01T09:16:29.411Z</time></trkpt><trkpt lat="45.2241574" lon="9.0514094"><ele>66.0</ele><time>2026-05-01T09:16:35.401Z</time></trkpt><trkpt lat="45.2241991" lon="9.0514831"><ele>66.0</ele><time>2026-05-01T09:16:39.408Z</time></trkpt><trkpt lat="45.2242196" lon="9.0515852"><ele>66.0</ele><time>2026-05-01T09:16:42.409Z</time></trkpt><trkpt lat="45.2242665" lon="9.0516832"><ele>66.0</ele><time>2026-05-01T09:16:47.404Z</time></trkpt><trkpt lat="45.2243007" lon="9.0517772"><ele>65.71428571428571</ele><time>2026-05-01T09:16:50.411Z</time></trkpt><trkpt lat="45.2243033" lon="9.0518746"><ele>65.42857142857143</ele><time>2026-05-01T09:16:53.408Z</time></trkpt><trkpt lat="45.2243242" lon="9.0519795"><ele>65.14285714285714</ele><time>2026-05-01T09:16:56.4Z</time></trkpt><trkpt lat="45.2243247" lon="9.0520694"><ele>64.85714285714286</ele><time>2026-05-01T09:16:59.479Z</time></trkpt><trkpt lat="45.2243361" lon="9.0521688"><ele>64.57142857142857</ele><time>2026-05-01T09:17:02.404Z</time></trkpt><trkpt lat="45.2243702" lon="9.0522544"><ele>64.28571428571428</ele><time>2026-05-01T09:17:05.414Z</time></trkpt><trkpt lat="45.2243981" lon="9.0523396"><ele>64.0</ele><time>2026-05-01T09:17:08.414Z</time></trkpt><trkpt lat="45.2244232" lon="9.0524486"><ele>63.666666666666664</ele><time>2026-05-01T09:17:11.404Z</time></trkpt><trkpt lat="45.2244417" lon="9.0525548"><ele>63.33333333333333</ele><time>2026-05-01T09:17:14.409Z</time></trkpt><trkpt lat="45.2244614" lon="9.0526757"><ele>63.0</ele><time>2026-05-01T09:17:17.4Z</time></trkpt><trkpt lat="45.224483" lon="9.0527987"><ele>62.66666666666667</ele><time>2026-05-01T09:17:20.408Z</time></trkpt><trkpt lat="45.224501" lon="9.0529173"><ele>62.333333333333336</ele><time>2026-05-01T09:17:23.494Z</time></trkpt><trkpt lat="45.2245033" lon="9.0530348"><ele>62.0</ele><time>2026-05-01T09:17:26.406Z</time></trkpt><trkpt lat="45.2245141" lon="9.0531645"><ele>62.00000000000001</ele><time>2026-05-01T09:17:29.409Z</time></trkpt><trkpt lat="45.2245187" lon="9.053285"><ele>62.0</ele><time>2026-05-01T09:17:32.407Z</time></trkpt><trkpt lat="45.2245256" lon="9.0534117"><ele>62.0</ele><time>2026-05-01T09:17:35.41Z</time></trkpt><trkpt lat="45.224533" lon="9.0535312"><ele>62.0</ele><time>2026-05-01T09:17:38.415Z</time></trkpt><trkpt lat="45.2245422" lon="9.0536563"><ele>62.00000000000001</ele><time>2026-05-01T09:17:41.402Z</time></trkpt><trkpt lat="45.2245353" lon="9.0537863"><ele>62.0</ele><time>2026-05-01T09:17:44.403Z</time></trkpt><trkpt lat="45.2245393" lon="9.053916"><ele>62.00000000000001</ele><time>2026-05-01T09:17:47.417Z</time></trkpt><trkpt lat="45.2245388" lon="9.0540355"><ele>62.0</ele><time>2026-05-01T09:17:50.414Z</time></trkpt><trkpt lat="45.2245448" lon="9.0541586"><ele>62.0</ele><time>2026-05-01T09:17:53.404Z</time></trkpt><trkpt lat="45.2245581" lon="9.0542701"><ele>62.0</ele><time>2026-05-01T09:17:56.409Z</time></trkpt><trkpt lat="45.2245779" lon="9.0543928"><ele>62.00000000000001</ele><time>2026-05-01T09:17:59.416Z</time></trkpt><trkpt lat="45.2246221" lon="9.0544722"><ele>62.0</ele><time>2026-05-01T09:18:02.402Z</time></trkpt><trkpt lat="45.2247051" lon="9.054461"><ele>62.00000000000001</ele><time>2026-05-01T09:18:05.404Z</time></trkpt><trkpt lat="45.2247788" lon="9.0543896"><ele>62.0</ele><time>2026-05-01T09:18:08.415Z</time></trkpt><trkpt lat="45.2248415" lon="9.054331"><ele>62.0</ele><time>2026-05-01T09:18:11.412Z</time></trkpt><trkpt lat="45.2249134" lon="9.054271"><ele>62.0</ele><time>2026-05-01T09:18:14.406Z</time></trkpt><trkpt lat="45.2249782" lon="9.0542113"><ele>62.00000000000001</ele><time>2026-05-01T09:18:17.486Z</time></trkpt><trkpt lat="45.2250431" lon="9.0541369"><ele>62.0</ele><time>2026-05-01T09:18:20.411Z</time></trkpt><trkpt lat="45.2251224" lon="9.0540725"><ele>61.833333333333336</ele><time>2026-05-01T09:18:23.417Z</time></trkpt><trkpt lat="45.2251912" lon="9.0540077"><ele>61.66666666666667</ele><time>2026-05-01T09:18:26.407Z</time></trkpt><trkpt lat="45.2252543" lon="9.0539437"><ele>61.5</ele><time>2026-05-01T09:18:29.413Z</time></trkpt><trkpt lat="45.2253221" lon="9.0538803"><ele>61.33333333333333</ele><time>2026-05-01T09:18:32.411Z</time></trkpt><trkpt lat="45.2253908" lon="9.0538196"><ele>61.166666666666664</ele><time>2026-05-01T09:18:35.408Z</time></trkpt><trkpt lat="45.2254567" lon="9.0537507"><ele>61.0</ele><time>2026-05-01T09:18:38.404Z</time></trkpt><trkpt lat="45.2255298" lon="9.0536892"><ele>60.99999999999999</ele><time>2026-05-01T09:18:41.407Z</time></trkpt><trkpt lat="45.2256035" lon="9.0536198"><ele>61.0</ele><time>2026-05-01T09:18:44.405Z</time></trkpt><trkpt lat="45.2256784" lon="9.05355"><ele>61.0</ele><time>2026-05-01T09:18:47.412Z</time></trkpt><trkpt lat="45.2257475" lon="9.0534862"><ele>61.0</ele><time>2026-05-01T09:18:50.407Z</time></trkpt><trkpt lat="45.2258237" lon="9.0534135"><ele>60.99999999999999</ele><time>2026-05-01T09:18:53.495Z</time></trkpt><trkpt lat="45.2259085" lon="9.0533506"><ele>61.0</ele><time>2026-05-01T09:18:56.4Z</time></trkpt><trkpt lat="45.2259678" lon="9.0533122"><ele>61.28571428571428</ele><time>2026-05-01T09:18:58.408Z</time></trkpt><trkpt lat="45.2260554" lon="9.053284"><ele>61.57142857142857</ele><time>2026-05-01T09:19:01.402Z</time></trkpt><trkpt lat="45.2261227" lon="9.0532624"><ele>61.857142857142854</ele><time>2026-05-01T09:19:03.404Z</time></trkpt><trkpt lat="45.2261895" lon="9.0532573"><ele>62.14285714285714</ele><time>2026-05-01T09:19:05.406Z</time></trkpt><trkpt lat="45.2262758" lon="9.0532492"><ele>62.42857142857143</ele><time>2026-05-01T09:19:08.408Z</time></trkpt><trkpt lat="45.2263408" lon="9.053237"><ele>62.714285714285715</ele><time>2026-05-01T09:19:10.415Z</time></trkpt><trkpt lat="45.2264092" lon="9.0532296"><ele>63.0</ele><time>2026-05-01T09:19:12.409Z</time></trkpt><trkpt lat="45.2264997" lon="9.0532224"><ele>63.42857142857143</ele><time>2026-05-01T09:19:15.416Z</time></trkpt><trkpt lat="45.2265659" lon="9.0532103"><ele>63.85714285714286</ele><time>2026-05-01T09:19:17.409Z</time></trkpt><trkpt lat="45.2266319" lon="9.0531924"><ele>64.28571428571428</ele><time>2026-05-01T09:19:19.492Z</time></trkpt><trkpt lat="45.2266994" lon="9.0531777"><ele>64.71428571428572</ele><time>2026-05-01T09:19:21.426Z</time></trkpt><trkpt lat="45.2267648" lon="9.0531567"><ele>65.14285714285714</ele><time>2026-05-01T09:19:23.405Z</time></trkpt><trkpt lat="45.2268247" lon="9.0531225"><ele>65.57142857142857</ele><time>2026-05-01T09:19:25.406Z</time></trkpt><trkpt lat="45.2268816" lon="9.0530804"><ele>66.0</ele><time>2026-05-01T09:19:27.406Z</time></trkpt><trkpt lat="45.2269386" lon="9.0530361"><ele>66.0</ele><time>2026-05-01T09:19:29.409Z</time></trkpt><trkpt lat="45.2270235" lon="9.0529857"><ele>66.0</ele><time>2026-05-01T09:19:32.414Z</time></trkpt><trkpt lat="45.2271145" lon="9.0529553"><ele>66.0</ele><time>2026-05-01T09:19:35.412Z</time></trkpt><trkpt lat="45.2271778" lon="9.0529541"><ele>66.0</ele><time>2026-05-01T09:19:37.404Z</time></trkpt><trkpt lat="45.2272665" lon="9.0529724"><ele>66.0</ele><time>2026-05-01T09:19:40.417Z</time></trkpt><trkpt lat="45.2273258" lon="9.0530099"><ele>66.0</ele><time>2026-05-01T09:19:42.41Z</time></trkpt><trkpt lat="45.227389" lon="9.0530372"><ele>66.83333333333333</ele><time>2026-05-01T09:19:44.405Z</time></trkpt><trkpt lat="45.2274503" lon="9.0530645"><ele>67.66666666666667</ele><time>2026-05-01T09:19:46.407Z</time></trkpt><trkpt lat="45.2275377" lon="9.0530996"><ele>68.5</ele><time>2026-05-01T09:19:49.411Z</time></trkpt><trkpt lat="45.2276246" lon="9.0531317"><ele>69.33333333333334</ele><time>2026-05-01T09:19:52.405Z</time></trkpt><trkpt lat="45.2277057" lon="9.0531753"><ele>70.16666666666667</ele><time>2026-05-01T09:19:55.412Z</time></trkpt><trkpt lat="45.2277748" lon="9.0532391"><ele>71.0</ele><time>2026-05-01T09:19:58.406Z</time></trkpt><trkpt lat="45.2278544" lon="9.0533082"><ele>72.0</ele><time>2026-05-01T09:20:01.403Z</time></trkpt><trkpt lat="45.2279224" lon="9.0533887"><ele>73.0</ele><time>2026-05-01T09:20:04.415Z</time></trkpt><trkpt lat="45.227973" lon="9.0534459"><ele>74.0</ele><time>2026-05-01T09:20:06.412Z</time></trkpt><trkpt lat="45.2280493" lon="9.0535164"><ele>75.0</ele><time>2026-05-01T09:20:09.41Z</time></trkpt><trkpt lat="45.2281407" lon="9.053559"><ele>76.0</ele><time>2026-05-01T09:20:12.428Z</time></trkpt><trkpt lat="45.2282062" lon="9.0535708"><ele>77.0</ele><time>2026-05-01T09:20:14.403Z</time></trkpt><trkpt lat="45.2282986" lon="9.0535778"><ele>76.83333333333334</ele><time>2026-05-01T09:20:17.415Z</time></trkpt><trkpt lat="45.228383" lon="9.0535732"><ele>76.66666666666667</ele><time>2026-05-01T09:20:20.411Z</time></trkpt><trkpt lat="45.2284662" lon="9.0535633"><ele>76.5</ele><time>2026-05-01T09:20:23.412Z</time></trkpt><trkpt lat="45.2285437" lon="9.053537"><ele>76.33333333333333</ele><time>2026-05-01T09:20:26.412Z</time></trkpt><trkpt lat="45.2286007" lon="9.05346"><ele>76.16666666666666</ele><time>2026-05-01T09:20:29.407Z</time></trkpt><trkpt lat="45.2286212" lon="9.0533748"><ele>76.0</ele><time>2026-05-01T09:20:31.406Z</time></trkpt><trkpt lat="45.2286382" lon="9.0532749"><ele>76.0</ele><time>2026-05-01T09:20:33.396Z</time></trkpt><trkpt lat="45.2286501" lon="9.0531601"><ele>76.0</ele><time>2026-05-01T09:20:35.417Z</time></trkpt><trkpt lat="45.2286557" lon="9.0530513"><ele>76.0</ele><time>2026-05-01T09:20:37.403Z</time></trkpt><trkpt lat="45.2286647" lon="9.0529477"><ele>76.0</ele><time>2026-05-01T09:20:39.409Z</time></trkpt><trkpt lat="45.2286861" lon="9.052818"><ele>76.0</ele><time>2026-05-01T09:20:42.412Z</time></trkpt><trkpt lat="45.2286949" lon="9.0527278"><ele>76.0</ele><time>2026-05-01T09:20:44.406Z</time></trkpt><trkpt lat="45.2287039" lon="9.0526359"><ele>76.0</ele><time>2026-05-01T09:20:46.42Z</time></trkpt><trkpt lat="45.228712" lon="9.0525418"><ele>76.0</ele><time>2026-05-01T09:20:48.425Z</time></trkpt><trkpt lat="45.2287213" lon="9.0524477"><ele>76.0</ele><time>2026-05-01T09:20:50.475Z</time></trkpt><trkpt lat="45.2287292" lon="9.0523506"><ele>76.0</ele><time>2026-05-01T09:20:52.492Z</time></trkpt><trkpt lat="45.2287359" lon="9.052256"><ele>76.0</ele><time>2026-05-01T09:20:54.409Z</time></trkpt><trkpt lat="45.2287402" lon="9.0521631"><ele>76.0</ele><time>2026-05-01T09:20:56.406Z</time></trkpt><trkpt lat="45.2287427" lon="9.0520699"><ele>76.0</ele><time>2026-05-01T09:20:58.407Z</time></trkpt><trkpt lat="45.2287518" lon="9.051973"><ele>76.0</ele><time>2026-05-01T09:21:00.411Z</time></trkpt><trkpt lat="45.2287702" lon="9.0518763"><ele>76.0</ele><time>2026-05-01T09:21:02.409Z</time></trkpt><trkpt lat="45.2287802" lon="9.0517793"><ele>76.0</ele><time>2026-05-01T09:21:04.413Z</time></trkpt><trkpt lat="45.228784" lon="9.0516487"><ele>76.0</ele><time>2026-05-01T09:21:07.403Z</time></trkpt><trkpt lat="45.2287424" lon="9.0515507"><ele>76.0</ele><time>2026-05-01T09:21:10.41Z</time></trkpt><trkpt lat="45.228665" lon="9.0515263"><ele>76.0</ele><time>2026-05-01T09:21:13.401Z</time></trkpt><trkpt lat="45.2286025" lon="9.051512"><ele>76.5</ele><time>2026-05-01T09:21:15.404Z</time></trkpt><trkpt lat="45.2285328" lon="9.051442"><ele>77.0</ele><time>2026-05-01T09:21:18.403Z</time></trkpt><trkpt lat="45.2285083" lon="9.0513423"><ele>77.5</ele><time>2026-05-01T09:21:21.406Z</time></trkpt><trkpt lat="45.2285332" lon="9.0512211"><ele>78.0</ele><time>2026-05-01T09:21:25.412Z</time></trkpt><trkpt lat="45.2285576" lon="9.0511215"><ele>78.5</ele><time>2026-05-01T09:21:28.409Z</time></trkpt><trkpt lat="45.2285743" lon="9.0510254"><ele>79.0</ele><time>2026-05-01T09:21:31.404Z</time></trkpt><trkpt lat="45.2285965" lon="9.0509121"><ele>79.0</ele><time>2026-05-01T09:21:34.403Z</time></trkpt><trkpt lat="45.2286211" lon="9.0508018"><ele>79.0</ele><time>2026-05-01T09:21:37.418Z</time></trkpt><trkpt lat="45.2286397" lon="9.0506853"><ele>79.0</ele><time>2026-05-01T09:21:40.408Z</time></trkpt><trkpt lat="45.22866" lon="9.0505953"><ele>79.0</ele><time>2026-05-01T09:21:42.401Z</time></trkpt><trkpt lat="45.2286784" lon="9.0505029"><ele>79.0</ele><time>2026-05-01T09:21:44.409Z</time></trkpt><trkpt lat="45.2287045" lon="9.0503945"><ele>79.0</ele><time>2026-05-01T09:21:47.417Z</time></trkpt><trkpt lat="45.2287291" lon="9.0502714"><ele>79.0</ele><time>2026-05-01T09:21:50.404Z</time></trkpt><trkpt lat="45.2287203" lon="9.050148"><ele>79.0</ele><time>2026-05-01T09:21:53.403Z</time></trkpt><trkpt lat="45.2286452" lon="9.050077"><ele>79.0</ele><time>2026-05-01T09:21:56.415Z</time></trkpt><trkpt lat="45.2285535" lon="9.0500406"><ele>79.0</ele><time>2026-05-01T09:21:59.402Z</time></trkpt><trkpt lat="45.2284827" lon="9.0500263"><ele>79.0</ele><time>2026-05-01T09:22:01.412Z</time></trkpt><trkpt lat="45.228416" lon="9.0499955"><ele>79.0</ele><time>2026-05-01T09:22:03.421Z</time></trkpt><trkpt lat="45.2283687" lon="9.0499288"><ele>78.83333333333333</ele><time>2026-05-01T09:22:05.408Z</time></trkpt><trkpt lat="45.2283781" lon="9.0498286"><ele>78.66666666666666</ele><time>2026-05-01T09:22:07.403Z</time></trkpt><trkpt lat="45.2283995" lon="9.0497046"><ele>78.5</ele><time>2026-05-01T09:22:10.413Z</time></trkpt><trkpt lat="45.228416" lon="9.049613"><ele>78.33333333333333</ele><time>2026-05-01T09:22:12.408Z</time></trkpt><trkpt lat="45.2284318" lon="9.049482"><ele>78.16666666666667</ele><time>2026-05-01T09:22:15.404Z</time></trkpt><trkpt lat="45.2284499" lon="9.0493586"><ele>78.0</ele><time>2026-05-01T09:22:18.402Z</time></trkpt><trkpt lat="45.2284576" lon="9.0492643"><ele>78.0</ele><time>2026-05-01T09:22:20.406Z</time></trkpt><trkpt lat="45.2284634" lon="9.0491729"><ele>78.0</ele><time>2026-05-01T09:22:22.411Z</time></trkpt><trkpt lat="45.228475" lon="9.0490836"><ele>78.0</ele><time>2026-05-01T09:22:24.412Z</time></trkpt><trkpt lat="45.2284788" lon="9.0489802"><ele>78.0</ele><time>2026-05-01T09:22:26.408Z</time></trkpt><trkpt lat="45.2284916" lon="9.0488864"><ele>78.0</ele><time>2026-05-01T09:22:28.41Z</time></trkpt><trkpt lat="45.2285083" lon="9.0487702"><ele>78.0</ele><time>2026-05-01T09:22:31.415Z</time></trkpt><trkpt lat="45.2285131" lon="9.048681"><ele>78.0</ele><time>2026-05-01T09:22:33.411Z</time></trkpt><trkpt lat="45.2285257" lon="9.0485882"><ele>78.16666666666667</ele><time>2026-05-01T09:22:35.418Z</time></trkpt><trkpt lat="45.2285344" lon="9.0484958"><ele>78.33333333333333</ele><time>2026-05-01T09:22:37.405Z</time></trkpt><trkpt lat="45.2285466" lon="9.0483921"><ele>78.5</ele><time>2026-05-01T09:22:39.4Z</time></trkpt><trkpt lat="45.2285553" lon="9.0482962"><ele>78.66666666666666</ele><time>2026-05-01T09:22:41.412Z</time></trkpt><trkpt lat="45.2285705" lon="9.0481764"><ele>78.83333333333333</ele><time>2026-05-01T09:22:44.403Z</time></trkpt><trkpt lat="45.2285864" lon="9.0480453"><ele>79.0</ele><time>2026-05-01T09:22:47.405Z</time></trkpt><trkpt lat="45.2285969" lon="9.0479494"><ele>78.57142857142858</ele><time>2026-05-01T09:22:49.402Z</time></trkpt><trkpt lat="45.2286091" lon="9.047856"><ele>78.14285714285714</ele><time>2026-05-01T09:22:51.409Z</time></trkpt><trkpt lat="45.2286162" lon="9.0477593"><ele>77.71428571428572</ele><time>2026-05-01T09:22:53.411Z</time></trkpt><trkpt lat="45.2286266" lon="9.0476674"><ele>77.28571428571429</ele><time>2026-05-01T09:22:55.413Z</time></trkpt><trkpt lat="45.2286358" lon="9.0475768"><ele>76.85714285714286</ele><time>2026-05-01T09:22:57.408Z</time></trkpt><trkpt lat="45.228659" lon="9.047447"><ele>76.42857142857143</ele><time>2026-05-01T09:23:00.42Z</time></trkpt><trkpt lat="45.2286763" lon="9.0473553"><ele>76.0</ele><time>2026-05-01T09:23:02.412Z</time></trkpt><trkpt lat="45.2286826" lon="9.0472604"><ele>75.85714285714285</ele><time>2026-05-01T09:23:04.408Z</time></trkpt><trkpt lat="45.2286871" lon="9.0471686"><ele>75.71428571428572</ele><time>2026-05-01T09:23:06.406Z</time></trkpt><trkpt lat="45.2286876" lon="9.0470503"><ele>75.57142857142857</ele><time>2026-05-01T09:23:09.415Z</time></trkpt><trkpt lat="45.2286525" lon="9.0469694"><ele>75.42857142857142</ele><time>2026-05-01T09:23:12.411Z</time></trkpt><trkpt lat="45.228604" lon="9.0469121"><ele>75.28571428571428</ele><time>2026-05-01T09:23:14.41Z</time></trkpt><trkpt lat="45.2285552" lon="9.0468435"><ele>75.14285714285714</ele><time>2026-05-01T09:23:16.406Z</time></trkpt><trkpt lat="45.228517" lon="9.0467693"><ele>75.0</ele><time>2026-05-01T09:23:18.411Z</time></trkpt><trkpt lat="45.2285054" lon="9.0466419"><ele>75.42857142857142</ele><time>2026-05-01T09:23:21.409Z</time></trkpt><trkpt lat="45.2285056" lon="9.0465414"><ele>75.85714285714286</ele><time>2026-05-01T09:23:23.423Z</time></trkpt><trkpt lat="45.2285026" lon="9.0464515"><ele>76.28571428571428</ele><time>2026-05-01T09:23:25.408Z</time></trkpt><trkpt lat="45.2284971" lon="9.0463573"><ele>76.71428571428571</ele><time>2026-05-01T09:23:27.414Z</time></trkpt><trkpt lat="45.2284916" lon="9.0462232"><ele>77.14285714285714</ele><time>2026-05-01T09:23:30.413Z</time></trkpt><trkpt lat="45.2284923" lon="9.0461295"><ele>77.57142857142857</ele><time>2026-05-01T09:23:32.482Z</time></trkpt><trkpt lat="45.2284978" lon="9.0460403"><ele>78.0</ele><time>2026-05-01T09:23:34.409Z</time></trkpt><trkpt lat="45.228493" lon="9.0459188"><ele>78.0</ele><time>2026-05-01T09:23:37.416Z</time></trkpt><trkpt lat="45.2284845" lon="9.0458026"><ele>78.0</ele><time>2026-05-01T09:23:40.414Z</time></trkpt><trkpt lat="45.2284903" lon="9.0457113"><ele>78.0</ele><time>2026-05-01T09:23:42.415Z</time></trkpt><trkpt lat="45.2284882" lon="9.0455865"><ele>78.0</ele><time>2026-05-01T09:23:45.407Z</time></trkpt><trkpt lat="45.2284792" lon="9.0454967"><ele>78.0</ele><time>2026-05-01T09:23:47.504Z</time></trkpt><trkpt lat="45.2284888" lon="9.0454066"><ele>78.0</ele><time>2026-05-01T09:23:49.419Z</time></trkpt><trkpt lat="45.2284937" lon="9.0453038"><ele>78.0</ele><time>2026-05-01T09:23:51.41Z</time></trkpt><trkpt lat="45.2285042" lon="9.0452037"><ele>78.0</ele><time>2026-05-01T09:23:53.414Z</time></trkpt><trkpt lat="45.2285468" lon="9.0450769"><ele>78.0</ele><time>2026-05-01T09:23:56.41Z</time></trkpt><trkpt lat="45.228576" lon="9.0449799"><ele>78.0</ele><time>2026-05-01T09:23:58.412Z</time></trkpt><trkpt lat="45.2286126" lon="9.0449017"><ele>78.0</ele><time>2026-05-01T09:24:00.405Z</time></trkpt><trkpt lat="45.2286562" lon="9.0448184"><ele>78.0</ele><time>2026-05-01T09:24:02.405Z</time></trkpt><trkpt lat="45.2286956" lon="9.0447416"><ele>78.0</ele><time>2026-05-01T09:24:04.412Z</time></trkpt><trkpt lat="45.2287377" lon="9.0446692"><ele>78.0</ele><time>2026-05-01T09:24:06.421Z</time></trkpt><trkpt lat="45.2287791" lon="9.0445986"><ele>78.0</ele><time>2026-05-01T09:24:08.407Z</time></trkpt><trkpt lat="45.2288211" lon="9.0445289"><ele>78.0</ele><time>2026-05-01T09:24:10.414Z</time></trkpt><trkpt lat="45.2288624" lon="9.0444543"><ele>78.0</ele><time>2026-05-01T09:24:12.413Z</time></trkpt><trkpt lat="45.2289008" lon="9.0443735"><ele>78.0</ele><time>2026-05-01T09:24:14.416Z</time></trkpt><trkpt lat="45.2289495" lon="9.0442959"><ele>78.0</ele><time>2026-05-01T09:24:16.42Z</time></trkpt><trkpt lat="45.2290004" lon="9.044226"><ele>78.0</ele><time>2026-05-01T09:24:18.404Z</time></trkpt><trkpt lat="45.2290474" lon="9.0441557"><ele>78.0</ele><time>2026-05-01T09:24:20.409Z</time></trkpt><trkpt lat="45.2291054" lon="9.0440693"><ele>78.14285714285715</ele><time>2026-05-01T09:24:23.415Z</time></trkpt><trkpt lat="45.2291531" lon="9.0440035"><ele>78.28571428571428</ele><time>2026-05-01T09:24:25.405Z</time></trkpt><trkpt lat="45.2291975" lon="9.0439392"><ele>78.42857142857143</ele><time>2026-05-01T09:24:27.413Z</time></trkpt><trkpt lat="45.2292558" lon="9.0438605"><ele>78.57142857142858</ele><time>2026-05-01T09:24:30.413Z</time></trkpt><trkpt lat="45.2293014" lon="9.0437956"><ele>78.71428571428572</ele><time>2026-05-01T09:24:32.41Z</time></trkpt><trkpt lat="45.2293494" lon="9.0437298"><ele>78.85714285714286</ele><time>2026-05-01T09:24:34.416Z</time></trkpt><trkpt lat="45.2293975" lon="9.0436561"><ele>79.0</ele><time>2026-05-01T09:24:36.414Z</time></trkpt><trkpt lat="45.2294483" lon="9.0435887"><ele>79.00000000000001</ele><time>2026-05-01T09:24:38.412Z</time></trkpt><trkpt lat="45.2295023" lon="9.0435217"><ele>79.0</ele><time>2026-05-01T09:24:40.418Z</time></trkpt><trkpt lat="45.2295555" lon="9.0434464"><ele>79.0</ele><time>2026-05-01T09:24:42.41Z</time></trkpt><trkpt lat="45.2296035" lon="9.0433772"><ele>79.0</ele><time>2026-05-01T09:24:44.404Z</time></trkpt><trkpt lat="45.2296476" lon="9.0433007"><ele>79.0</ele><time>2026-05-01T09:24:46.411Z</time></trkpt><trkpt lat="45.2296993" lon="9.0432347"><ele>79.00000000000001</ele><time>2026-05-01T09:24:48.411Z</time></trkpt><trkpt lat="45.2297488" lon="9.0431659"><ele>79.0</ele><time>2026-05-01T09:24:50.422Z</time></trkpt><trkpt lat="45.2298123" lon="9.04309"><ele>78.85714285714286</ele><time>2026-05-01T09:24:53.4Z</time></trkpt><trkpt lat="45.2298784" lon="9.0430009"><ele>78.71428571428572</ele><time>2026-05-01T09:24:56.404Z</time></trkpt><trkpt lat="45.2299389" lon="9.042952"><ele>78.57142857142858</ele><time>2026-05-01T09:24:58.405Z</time></trkpt><trkpt lat="45.2300045" lon="9.0429276"><ele>78.42857142857143</ele><time>2026-05-01T09:25:00.41Z</time></trkpt><trkpt lat="45.2300774" lon="9.0429265"><ele>78.28571428571428</ele><time>2026-05-01T09:25:02.408Z</time></trkpt><trkpt lat="45.2301448" lon="9.0429522"><ele>78.14285714285715</ele><time>2026-05-01T09:25:04.416Z</time></trkpt><trkpt lat="45.2301993" lon="9.0430017"><ele>78.0</ele><time>2026-05-01T09:25:06.403Z</time></trkpt><trkpt lat="45.2302544" lon="9.0430654"><ele>78.0</ele><time>2026-05-01T09:25:08.41Z</time></trkpt><trkpt lat="45.230309" lon="9.0431322"><ele>78.0</ele><time>2026-05-01T09:25:10.408Z</time></trkpt><trkpt lat="45.2303654" lon="9.0431916"><ele>78.0</ele><time>2026-05-01T09:25:12.417Z</time></trkpt><trkpt lat="45.2304163" lon="9.0432547"><ele>78.0</ele><time>2026-05-01T09:25:14.403Z</time></trkpt><trkpt lat="45.2304735" lon="9.0433173"><ele>78.0</ele><time>2026-05-01T09:25:16.403Z</time></trkpt><trkpt lat="45.2305252" lon="9.0433842"><ele>78.0</ele><time>2026-05-01T09:25:18.401Z</time></trkpt><trkpt lat="45.2305732" lon="9.043447"><ele>78.0</ele><time>2026-05-01T09:25:20.409Z</time></trkpt><trkpt lat="45.2306248" lon="9.0435106"><ele>78.14285714285715</ele><time>2026-05-01T09:25:22.407Z</time></trkpt><trkpt lat="45.2306794" lon="9.043574"><ele>78.28571428571428</ele><time>2026-05-01T09:25:24.413Z</time></trkpt><trkpt lat="45.2307313" lon="9.0436498"><ele>78.42857142857143</ele><time>2026-05-01T09:25:26.404Z</time></trkpt><trkpt lat="45.2307859" lon="9.0437197"><ele>78.57142857142858</ele><time>2026-05-01T09:25:28.398Z</time></trkpt><trkpt lat="45.2308383" lon="9.043794"><ele>78.71428571428572</ele><time>2026-05-01T09:25:30.404Z</time></trkpt><trkpt lat="45.2308962" lon="9.0438698"><ele>78.85714285714286</ele><time>2026-05-01T09:25:32.407Z</time></trkpt><trkpt lat="45.2309438" lon="9.0439342"><ele>79.0</ele><time>2026-05-01T09:25:34.409Z</time></trkpt><trkpt lat="45.2310077" lon="9.0440168"><ele>79.00000000000001</ele><time>2026-05-01T09:25:37.399Z</time></trkpt><trkpt lat="45.2310568" lon="9.0440883"><ele>79.0</ele><time>2026-05-01T09:25:39.408Z</time></trkpt><trkpt lat="45.2311035" lon="9.0441496"><ele>79.0</ele><time>2026-05-01T09:25:41.411Z</time></trkpt><trkpt lat="45.2311475" lon="9.0442189"><ele>79.0</ele><time>2026-05-01T09:25:43.415Z</time></trkpt><trkpt lat="45.2311966" lon="9.0442805"><ele>79.0</ele><time>2026-05-01T09:25:45.402Z</time></trkpt><trkpt lat="45.2312492" lon="9.0443475"><ele>79.00000000000001</ele><time>2026-05-01T09:25:47.408Z</time></trkpt><trkpt lat="45.2312983" lon="9.0444132"><ele>79.0</ele><time>2026-05-01T09:25:49.416Z</time></trkpt><trkpt lat="45.2313421" lon="9.0444825"><ele>79.00000000000001</ele><time>2026-05-01T09:25:51.401Z</time></trkpt><trkpt lat="45.2313919" lon="9.0445411"><ele>79.0</ele><time>2026-05-01T09:25:53.408Z</time></trkpt><trkpt lat="45.2314362" lon="9.04461"><ele>79.0</ele><time>2026-05-01T09:25:55.408Z</time></trkpt><trkpt lat="45.2314881" lon="9.0446805"><ele>79.0</ele><time>2026-05-01T09:25:57.409Z</time></trkpt><trkpt lat="45.2315376" lon="9.0447497"><ele>79.0</ele><time>2026-05-01T09:25:59.411Z</time></trkpt><trkpt lat="45.23159" lon="9.0448233"><ele>79.00000000000001</ele><time>2026-05-01T09:26:01.477Z</time></trkpt><trkpt lat="45.231642" lon="9.0448826"><ele>79.0</ele><time>2026-05-01T09:26:03.421Z</time></trkpt><trkpt lat="45.2316924" lon="9.0449512"><ele>78.71428571428572</ele><time>2026-05-01T09:26:05.408Z</time></trkpt><trkpt lat="45.2317431" lon="9.0450125"><ele>78.42857142857143</ele><time>2026-05-01T09:26:07.404Z</time></trkpt><trkpt lat="45.2317948" lon="9.0450757"><ele>78.14285714285714</ele><time>2026-05-01T09:26:09.404Z</time></trkpt><trkpt lat="45.2318476" lon="9.0451436"><ele>77.85714285714286</ele><time>2026-05-01T09:26:11.404Z</time></trkpt><trkpt lat="45.231895" lon="9.0452055"><ele>77.57142857142857</ele><time>2026-05-01T09:26:13.405Z</time></trkpt><trkpt lat="45.2319458" lon="9.0452691"><ele>77.28571428571429</ele><time>2026-05-01T09:26:15.407Z</time></trkpt><trkpt lat="45.231992" lon="9.0453391"><ele>77.0</ele><time>2026-05-01T09:26:17.411Z</time></trkpt><trkpt lat="45.232041" lon="9.0454054"><ele>77.0</ele><time>2026-05-01T09:26:19.406Z</time></trkpt><trkpt lat="45.2320882" lon="9.0454747"><ele>77.0</ele><time>2026-05-01T09:26:21.404Z</time></trkpt><trkpt lat="45.2321409" lon="9.0455445"><ele>77.0</ele><time>2026-05-01T09:26:23.418Z</time></trkpt><trkpt lat="45.2321956" lon="9.0456134"><ele>77.0</ele><time>2026-05-01T09:26:25.404Z</time></trkpt><trkpt lat="45.2322478" lon="9.0456859"><ele>77.0</ele><time>2026-05-01T09:26:27.414Z</time></trkpt><trkpt lat="45.2322997" lon="9.0457517"><ele>77.0</ele><time>2026-05-01T09:26:29.412Z</time></trkpt><trkpt lat="45.2323504" lon="9.0458123"><ele>77.0</ele><time>2026-05-01T09:26:31.407Z</time></trkpt><trkpt lat="45.2324093" lon="9.0458906"><ele>77.66666666666667</ele><time>2026-05-01T09:26:34.411Z</time></trkpt><trkpt lat="45.2324715" lon="9.0459786"><ele>78.33333333333334</ele><time>2026-05-01T09:26:37.401Z</time></trkpt><trkpt lat="45.2325386" lon="9.0460599"><ele>79.0</ele><time>2026-05-01T09:26:40.493Z</time></trkpt><trkpt lat="45.2326018" lon="9.0461513"><ele>79.66666666666667</ele><time>2026-05-01T09:26:43.409Z</time></trkpt><trkpt lat="45.2326449" lon="9.0462189"><ele>80.33333333333333</ele><time>2026-05-01T09:26:45.403Z</time></trkpt><trkpt lat="45.2326938" lon="9.04628"><ele>81.0</ele><time>2026-05-01T09:26:47.411Z</time></trkpt><trkpt lat="45.2327443" lon="9.0463443"><ele>81.0</ele><time>2026-05-01T09:26:49.417Z</time></trkpt><trkpt lat="45.232822" lon="9.0463303"><ele>81.0</ele><time>2026-05-01T09:26:52.406Z</time></trkpt><trkpt lat="45.2328652" lon="9.0462651"><ele>81.0</ele><time>2026-05-01T09:26:54.409Z</time></trkpt><trkpt lat="45.2329054" lon="9.0461879"><ele>81.0</ele><time>2026-05-01T09:26:56.406Z</time></trkpt><trkpt lat="45.2329638" lon="9.0460848"><ele>81.0</ele><time>2026-05-01T09:26:59.406Z</time></trkpt><trkpt lat="45.2330076" lon="9.0460081"><ele>81.0</ele><time>2026-05-01T09:27:01.406Z</time></trkpt><trkpt lat="45.2330446" lon="9.0459304"><ele>81.0</ele><time>2026-05-01T09:27:03.412Z</time></trkpt><trkpt lat="45.2331023" lon="9.0458218"><ele>80.83333333333333</ele><time>2026-05-01T09:27:06.405Z</time></trkpt><trkpt lat="45.2331445" lon="9.0457416"><ele>80.66666666666667</ele><time>2026-05-01T09:27:08.414Z</time></trkpt><trkpt lat="45.2331973" lon="9.0456834"><ele>80.5</ele><time>2026-05-01T09:27:10.414Z</time></trkpt><trkpt lat="45.2332823" lon="9.0456466"><ele>80.33333333333334</ele><time>2026-05-01T09:27:13.415Z</time></trkpt><trkpt lat="45.2333609" lon="9.0457031"><ele>80.16666666666667</ele><time>2026-05-01T09:27:16.41Z</time></trkpt><trkpt lat="45.233433" lon="9.0457864"><ele>80.0</ele><time>2026-05-01T09:27:19.402Z</time></trkpt><trkpt lat="45.2335031" lon="9.0458744"><ele>79.83333333333334</ele><time>2026-05-01T09:27:22.41Z</time></trkpt><trkpt lat="45.2335743" lon="9.0459577"><ele>79.66666666666667</ele><time>2026-05-01T09:27:25.418Z</time></trkpt><trkpt lat="45.2336264" lon="9.0460156"><ele>79.5</ele><time>2026-05-01T09:27:27.412Z</time></trkpt><trkpt lat="45.2337013" lon="9.0460964"><ele>79.33333333333333</ele><time>2026-05-01T09:27:30.416Z</time></trkpt><trkpt lat="45.2337751" lon="9.046182"><ele>79.16666666666666</ele><time>2026-05-01T09:27:33.409Z</time></trkpt><trkpt lat="45.233833" lon="9.0462371"><ele>79.0</ele><time>2026-05-01T09:27:35.409Z</time></trkpt><trkpt lat="45.2338866" lon="9.0462871"><ele>79.00000000000001</ele><time>2026-05-01T09:27:37.41Z</time></trkpt><trkpt lat="45.2339397" lon="9.0463374"><ele>79.0</ele><time>2026-05-01T09:27:39.41Z</time></trkpt><trkpt lat="45.233997" lon="9.0463896"><ele>79.0</ele><time>2026-05-01T09:27:41.403Z</time></trkpt><trkpt lat="45.2340537" lon="9.0464459"><ele>79.0</ele><time>2026-05-01T09:27:43.407Z</time></trkpt><trkpt lat="45.2341116" lon="9.0464883"><ele>79.0</ele><time>2026-05-01T09:27:45.417Z</time></trkpt><trkpt lat="45.2341855" lon="9.0465492"><ele>79.00000000000001</ele><time>2026-05-01T09:27:48.41Z</time></trkpt><trkpt lat="45.2342558" lon="9.0466044"><ele>79.0</ele><time>2026-05-01T09:27:51.408Z</time></trkpt><trkpt lat="45.2343285" lon="9.0466654"><ele>79.14285714285715</ele><time>2026-05-01T09:27:54.408Z</time></trkpt><trkpt lat="45.2343847" lon="9.0467085"><ele>79.28571428571429</ele><time>2026-05-01T09:27:56.403Z</time></trkpt><trkpt lat="45.2344451" lon="9.0467556"><ele>79.42857142857143</ele><time>2026-05-01T09:27:58.407Z</time></trkpt><trkpt lat="45.2345036" lon="9.0468029"><ele>79.57142857142858</ele><time>2026-05-01T09:28:00.396Z</time></trkpt><trkpt lat="45.2345619" lon="9.0468496"><ele>79.71428571428572</ele><time>2026-05-01T09:28:02.408Z</time></trkpt><trkpt lat="45.2346186" lon="9.0468966"><ele>79.85714285714286</ele><time>2026-05-01T09:28:04.408Z</time></trkpt><trkpt lat="45.234702" lon="9.0469525"><ele>80.0</ele><time>2026-05-01T09:28:07.402Z</time></trkpt><trkpt lat="45.2347565" lon="9.0470014"><ele>80.66666666666667</ele><time>2026-05-01T09:28:09.407Z</time></trkpt><trkpt lat="45.2348146" lon="9.0470499"><ele>81.33333333333334</ele><time>2026-05-01T09:28:11.41Z</time></trkpt><trkpt lat="45.2348809" lon="9.0471221"><ele>82.0</ele><time>2026-05-01T09:28:14.419Z</time></trkpt><trkpt lat="45.2349718" lon="9.04717"><ele>82.66666666666667</ele><time>2026-05-01T09:28:17.41Z</time></trkpt><trkpt lat="45.23503" lon="9.047227"><ele>83.33333333333333</ele><time>2026-05-01T09:28:19.409Z</time></trkpt><trkpt lat="45.2350818" lon="9.0472781"><ele>84.0</ele><time>2026-05-01T09:28:21.413Z</time></trkpt><trkpt lat="45.2351591" lon="9.0473456"><ele>84.0</ele><time>2026-05-01T09:28:24.406Z</time></trkpt><trkpt lat="45.2352507" lon="9.0473715"><ele>84.0</ele><time>2026-05-01T09:28:27.411Z</time></trkpt><trkpt lat="45.2353221" lon="9.0474042"><ele>84.0</ele><time>2026-05-01T09:28:29.414Z</time></trkpt><trkpt lat="45.235385" lon="9.0474346"><ele>84.0</ele><time>2026-05-01T09:28:31.413Z</time></trkpt><trkpt lat="45.2354737" lon="9.0474777"><ele>84.0</ele><time>2026-05-01T09:28:34.408Z</time></trkpt><trkpt lat="45.2355336" lon="9.0475102"><ele>84.0</ele><time>2026-05-01T09:28:36.413Z</time></trkpt><trkpt lat="45.235599" lon="9.0475433"><ele>84.5</ele><time>2026-05-01T09:28:38.418Z</time></trkpt><trkpt lat="45.2356879" lon="9.0475823"><ele>85.0</ele><time>2026-05-01T09:28:41.41Z</time></trkpt><trkpt lat="45.2357537" lon="9.0476343"><ele>85.5</ele><time>2026-05-01T09:28:43.425Z</time></trkpt><trkpt lat="45.2358351" lon="9.0476957"><ele>86.0</ele><time>2026-05-01T09:28:46.409Z</time></trkpt><trkpt lat="45.2359099" lon="9.0477775"><ele>86.5</ele><time>2026-05-01T09:28:49.49Z</time></trkpt><trkpt lat="45.2359914" lon="9.0478371"><ele>87.0</ele><time>2026-05-01T09:28:52.407Z</time></trkpt><trkpt lat="45.2360694" lon="9.0479164"><ele>87.0</ele><time>2026-05-01T09:28:55.411Z</time></trkpt><trkpt lat="45.2361383" lon="9.0480039"><ele>87.0</ele><time>2026-05-01T09:28:58.405Z</time></trkpt><trkpt lat="45.2361794" lon="9.0480741"><ele>87.0</ele><time>2026-05-01T09:29:00.407Z</time></trkpt><trkpt lat="45.2362318" lon="9.0481307"><ele>87.0</ele><time>2026-05-01T09:29:02.476Z</time></trkpt><trkpt lat="45.236276" lon="9.0481998"><ele>87.0</ele><time>2026-05-01T09:29:04.484Z</time></trkpt><trkpt lat="45.2363359" lon="9.0482858"><ele>87.0</ele><time>2026-05-01T09:29:07.414Z</time></trkpt><trkpt lat="45.2363781" lon="9.0483536"><ele>87.0</ele><time>2026-05-01T09:29:09.402Z</time></trkpt><trkpt lat="45.2364231" lon="9.0484257"><ele>87.0</ele><time>2026-05-01T09:29:11.412Z</time></trkpt><trkpt lat="45.2364944" lon="9.0485156"><ele>87.0</ele><time>2026-05-01T09:29:14.41Z</time></trkpt><trkpt lat="45.2365433" lon="9.0485784"><ele>87.0</ele><time>2026-05-01T09:29:16.402Z</time></trkpt><trkpt lat="45.2365965" lon="9.0486456"><ele>87.0</ele><time>2026-05-01T09:29:18.406Z</time></trkpt><trkpt lat="45.2366667" lon="9.0486984"><ele>87.0</ele><time>2026-05-01T09:29:21.412Z</time></trkpt><trkpt lat="45.2367407" lon="9.048737"><ele>87.0</ele><time>2026-05-01T09:29:24.405Z</time></trkpt><trkpt lat="45.2368203" lon="9.0487415"><ele>87.0</ele><time>2026-05-01T09:29:27.411Z</time></trkpt><trkpt lat="45.2368949" lon="9.0486772"><ele>87.0</ele><time>2026-05-01T09:29:31.403Z</time></trkpt><trkpt lat="45.2369199" lon="9.0485915"><ele>87.0</ele><time>2026-05-01T09:29:33.408Z</time></trkpt><trkpt lat="45.2369251" lon="9.048494"><ele>87.0</ele><time>2026-05-01T09:29:35.421Z</time></trkpt><trkpt lat="45.2369262" lon="9.0483991"><ele>87.0</ele><time>2026-05-01T09:29:37.413Z</time></trkpt><trkpt lat="45.2369303" lon="9.0482967"><ele>87.0</ele><time>2026-05-01T09:29:39.405Z</time></trkpt><trkpt lat="45.2369256" lon="9.0481916"><ele>87.0</ele><time>2026-05-01T09:29:41.408Z</time></trkpt><trkpt lat="45.2369248" lon="9.0480537"><ele>87.0</ele><time>2026-05-01T09:29:44.408Z</time></trkpt><trkpt lat="45.2369209" lon="9.0479505"><ele>87.0</ele><time>2026-05-01T09:29:46.403Z</time></trkpt><trkpt lat="45.2369301" lon="9.0478435"><ele>87.0</ele><time>2026-05-01T09:29:48.41Z</time></trkpt><trkpt lat="45.2369209" lon="9.0477261"><ele>87.0</ele><time>2026-05-01T09:29:50.407Z</time></trkpt><trkpt lat="45.2369104" lon="9.0476103"><ele>87.0</ele><time>2026-05-01T09:29:52.402Z</time></trkpt><trkpt lat="45.2369095" lon="9.0474994"><ele>87.0</ele><time>2026-05-01T09:29:54.407Z</time></trkpt><trkpt lat="45.2369088" lon="9.0473918"><ele>87.28571428571428</ele><time>2026-05-01T09:29:56.411Z</time></trkpt><trkpt lat="45.2369106" lon="9.0472877"><ele>87.57142857142857</ele><time>2026-05-01T09:29:58.408Z</time></trkpt><trkpt lat="45.2369075" lon="9.0471769"><ele>87.85714285714286</ele><time>2026-05-01T09:30:00.41Z</time></trkpt><trkpt lat="45.2369088" lon="9.0470728"><ele>88.14285714285714</ele><time>2026-05-01T09:30:02.411Z</time></trkpt><trkpt lat="45.2369041" lon="9.0469619"><ele>88.42857142857143</ele><time>2026-05-01T09:30:04.408Z</time></trkpt><trkpt lat="45.2369004" lon="9.046857"><ele>88.71428571428571</ele><time>2026-05-01T09:30:06.408Z</time></trkpt><trkpt lat="45.2369011" lon="9.046758"><ele>89.0</ele><time>2026-05-01T09:30:08.404Z</time></trkpt><trkpt lat="45.2369013" lon="9.0466587"><ele>88.83333333333334</ele><time>2026-05-01T09:30:10.394Z</time></trkpt><trkpt lat="45.2369056" lon="9.0465269"><ele>88.66666666666667</ele><time>2026-05-01T09:30:13.401Z</time></trkpt><trkpt lat="45.2369022" lon="9.0464293"><ele>88.5</ele><time>2026-05-01T09:30:15.402Z</time></trkpt><trkpt lat="45.236906" lon="9.0463176"><ele>88.33333333333333</ele><time>2026-05-01T09:30:17.409Z</time></trkpt><trkpt lat="45.2369037" lon="9.046226"><ele>88.16666666666666</ele><time>2026-05-01T09:30:19.405Z</time></trkpt><trkpt lat="45.2369037" lon="9.0461176"><ele>88.0</ele><time>2026-05-01T09:30:21.402Z</time></trkpt><trkpt lat="45.2368984" lon="9.0460108"><ele>88.0</ele><time>2026-05-01T09:30:23.4Z</time></trkpt><trkpt lat="45.2368942" lon="9.045915"><ele>88.0</ele><time>2026-05-01T09:30:25.407Z</time></trkpt><trkpt lat="45.2368854" lon="9.0458228"><ele>88.0</ele><time>2026-05-01T09:30:27.411Z</time></trkpt><trkpt lat="45.2368848" lon="9.0457029"><ele>88.0</ele><time>2026-05-01T09:30:29.408Z</time></trkpt><trkpt lat="45.2368894" lon="9.0456081"><ele>88.0</ele><time>2026-05-01T09:30:31.414Z</time></trkpt><trkpt lat="45.236883" lon="9.0455057"><ele>88.0</ele><time>2026-05-01T09:30:33.413Z</time></trkpt><trkpt lat="45.2368834" lon="9.045411"><ele>88.0</ele><time>2026-05-01T09:30:35.408Z</time></trkpt><trkpt lat="45.2368773" lon="9.045321"><ele>88.14285714285714</ele><time>2026-05-01T09:30:37.489Z</time></trkpt><trkpt lat="45.2368667" lon="9.0452085"><ele>88.28571428571428</ele><time>2026-05-01T09:30:39.41Z</time></trkpt><trkpt lat="45.2368602" lon="9.0451029"><ele>88.42857142857142</ele><time>2026-05-01T09:30:41.408Z</time></trkpt><trkpt lat="45.236865" lon="9.0450055"><ele>88.57142857142857</ele><time>2026-05-01T09:30:43.404Z</time></trkpt><trkpt lat="45.2368743" lon="9.0448977"><ele>88.71428571428571</ele><time>2026-05-01T09:30:45.406Z</time></trkpt><trkpt lat="45.2368913" lon="9.044806"><ele>88.85714285714285</ele><time>2026-05-01T09:30:47.402Z</time></trkpt><trkpt lat="45.2369116" lon="9.0447065"><ele>89.0</ele><time>2026-05-01T09:30:49.407Z</time></trkpt><trkpt lat="45.236937" lon="9.0445841"><ele>89.0</ele><time>2026-05-01T09:30:51.406Z</time></trkpt><trkpt lat="45.2369494" lon="9.0444683"><ele>89.0</ele><time>2026-05-01T09:30:53.41Z</time></trkpt><trkpt lat="45.2369712" lon="9.0443666"><ele>89.0</ele><time>2026-05-01T09:30:55.41Z</time></trkpt><trkpt lat="45.2369971" lon="9.044278"><ele>89.0</ele><time>2026-05-01T09:30:57.417Z</time></trkpt><trkpt lat="45.2370279" lon="9.0441547"><ele>89.0</ele><time>2026-05-01T09:31:00.414Z</time></trkpt><trkpt lat="45.2370594" lon="9.0440381"><ele>89.0</ele><time>2026-05-01T09:31:02.407Z</time></trkpt><trkpt lat="45.2370878" lon="9.0439555"><ele>88.85714285714285</ele><time>2026-05-01T09:31:04.414Z</time></trkpt><trkpt lat="45.2371103" lon="9.0438716"><ele>88.71428571428571</ele><time>2026-05-01T09:31:06.418Z</time></trkpt><trkpt lat="45.2371274" lon="9.0437802"><ele>88.57142857142857</ele><time>2026-05-01T09:31:08.407Z</time></trkpt><trkpt lat="45.237162" lon="9.0436942"><ele>88.42857142857142</ele><time>2026-05-01T09:31:10.406Z</time></trkpt><trkpt lat="45.2371966" lon="9.0435996"><ele>88.28571428571428</ele><time>2026-05-01T09:31:12.401Z</time></trkpt><trkpt lat="45.237225" lon="9.0434982"><ele>88.14285714285714</ele><time>2026-05-01T09:31:14.405Z</time></trkpt><trkpt lat="45.2372523" lon="9.0434031"><ele>88.0</ele><time>2026-05-01T09:31:16.408Z</time></trkpt><trkpt lat="45.2372841" lon="9.043301"><ele>87.66666666666666</ele><time>2026-05-01T09:31:18.408Z</time></trkpt><trkpt lat="45.2373139" lon="9.0431974"><ele>87.33333333333333</ele><time>2026-05-01T09:31:20.429Z</time></trkpt><trkpt lat="45.2373353" lon="9.0430873"><ele>87.0</ele><time>2026-05-01T09:31:22.41Z</time></trkpt><trkpt lat="45.2373698" lon="9.0429777"><ele>86.66666666666667</ele><time>2026-05-01T09:31:24.405Z</time></trkpt><trkpt lat="45.2374002" lon="9.0428842"><ele>86.33333333333334</ele><time>2026-05-01T09:31:26.484Z</time></trkpt><trkpt lat="45.2374439" lon="9.0427957"><ele>86.0</ele><time>2026-05-01T09:31:28.415Z</time></trkpt><trkpt lat="45.2374883" lon="9.0427054"><ele>86.0</ele><time>2026-05-01T09:31:30.419Z</time></trkpt><trkpt lat="45.2375447" lon="9.042625"><ele>86.0</ele><time>2026-05-01T09:31:32.408Z</time></trkpt><trkpt lat="45.2376063" lon="9.0425417"><ele>86.0</ele><time>2026-05-01T09:31:34.405Z</time></trkpt><trkpt lat="45.2376663" lon="9.0424582"><ele>86.0</ele><time>2026-05-01T09:31:36.408Z</time></trkpt><trkpt lat="45.2377234" lon="9.042383"><ele>86.0</ele><time>2026-05-01T09:31:38.403Z</time></trkpt><trkpt lat="45.2377786" lon="9.0423088"><ele>86.0</ele><time>2026-05-01T09:31:40.403Z</time></trkpt><trkpt lat="45.2378368" lon="9.0422368"><ele>86.0</ele><time>2026-05-01T09:31:42.407Z</time></trkpt><trkpt lat="45.2378961" lon="9.0421562"><ele>86.0</ele><time>2026-05-01T09:31:44.41Z</time></trkpt><trkpt lat="45.2379522" lon="9.0420723"><ele>86.0</ele><time>2026-05-01T09:31:46.404Z</time></trkpt><trkpt lat="45.2380107" lon="9.0419935"><ele>86.0</ele><time>2026-05-01T09:31:48.41Z</time></trkpt><trkpt lat="45.2380661" lon="9.0419086"><ele>86.0</ele><time>2026-05-01T09:31:50.417Z</time></trkpt><trkpt lat="45.2381281" lon="9.0418332"><ele>86.0</ele><time>2026-05-01T09:31:52.484Z</time></trkpt><trkpt lat="45.238184" lon="9.0417649"><ele>86.16666666666667</ele><time>2026-05-01T09:31:54.407Z</time></trkpt><trkpt lat="45.2382426" lon="9.0416871"><ele>86.33333333333334</ele><time>2026-05-01T09:31:56.408Z</time></trkpt><trkpt lat="45.2383007" lon="9.0416083"><ele>86.5</ele><time>2026-05-01T09:31:58.41Z</time></trkpt><trkpt lat="45.2383604" lon="9.0415292"><ele>86.66666666666667</ele><time>2026-05-01T09:32:00.408Z</time></trkpt><trkpt lat="45.2384205" lon="9.04145"><ele>86.83333333333333</ele><time>2026-05-01T09:32:02.407Z</time></trkpt><trkpt lat="45.2384827" lon="9.0413543"><ele>87.0</ele><time>2026-05-01T09:32:04.412Z</time></trkpt><trkpt lat="45.238543" lon="9.041285"><ele>86.66666666666667</ele><time>2026-05-01T09:32:06.402Z</time></trkpt><trkpt lat="45.2386069" lon="9.0412071"><ele>86.33333333333333</ele><time>2026-05-01T09:32:08.412Z</time></trkpt><trkpt lat="45.2386734" lon="9.0411352"><ele>86.0</ele><time>2026-05-01T09:32:10.413Z</time></trkpt><trkpt lat="45.2387424" lon="9.0410454"><ele>85.66666666666666</ele><time>2026-05-01T09:32:12.423Z</time></trkpt><trkpt lat="45.2388127" lon="9.040957"><ele>85.33333333333333</ele><time>2026-05-01T09:32:14.406Z</time></trkpt><trkpt lat="45.2388768" lon="9.0408741"><ele>85.0</ele><time>2026-05-01T09:32:16.402Z</time></trkpt><trkpt lat="45.2389401" lon="9.0408005"><ele>85.33333333333333</ele><time>2026-05-01T09:32:18.401Z</time></trkpt><trkpt lat="45.238994" lon="9.0407361"><ele>85.66666666666666</ele><time>2026-05-01T09:32:20.412Z</time></trkpt><trkpt lat="45.2390432" lon="9.0406681"><ele>86.0</ele><time>2026-05-01T09:32:22.421Z</time></trkpt><trkpt lat="45.2391046" lon="9.0405901"><ele>86.33333333333333</ele><time>2026-05-01T09:32:24.422Z</time></trkpt><trkpt lat="45.2391661" lon="9.0404975"><ele>86.66666666666667</ele><time>2026-05-01T09:32:26.406Z</time></trkpt><trkpt lat="45.2392233" lon="9.0404048"><ele>87.0</ele><time>2026-05-01T09:32:28.411Z</time></trkpt><trkpt lat="45.239281" lon="9.0403323"><ele>87.0</ele><time>2026-05-01T09:32:30.472Z</time></trkpt><trkpt lat="45.239332" lon="9.0402686"><ele>87.0</ele><time>2026-05-01T09:32:32.41Z</time></trkpt><trkpt lat="45.2393856" lon="9.0402049"><ele>87.0</ele><time>2026-05-01T09:32:34.405Z</time></trkpt><trkpt lat="45.2394373" lon="9.04013"><ele>87.0</ele><time>2026-05-01T09:32:36.41Z</time></trkpt><trkpt lat="45.2394905" lon="9.0400686"><ele>87.0</ele><time>2026-05-01T09:32:38.417Z</time></trkpt><trkpt lat="45.2395517" lon="9.0399946"><ele>87.0</ele><time>2026-05-01T09:32:40.409Z</time></trkpt><trkpt lat="45.2396033" lon="9.0399202"><ele>87.0</ele><time>2026-05-01T09:32:42.403Z</time></trkpt><trkpt lat="45.2396622" lon="9.0398563"><ele>87.0</ele><time>2026-05-01T09:32:44.402Z</time></trkpt><trkpt lat="45.2397208" lon="9.0397783"><ele>87.0</ele><time>2026-05-01T09:32:46.405Z</time></trkpt><trkpt lat="45.2397717" lon="9.0397081"><ele>87.0</ele><time>2026-05-01T09:32:48.405Z</time></trkpt><trkpt lat="45.2398274" lon="9.0396455"><ele>87.0</ele><time>2026-05-01T09:32:50.399Z</time></trkpt><trkpt lat="45.2398798" lon="9.039589"><ele>87.0</ele><time>2026-05-01T09:32:52.409Z</time></trkpt><trkpt lat="45.2399324" lon="9.0395087"><ele>87.0</ele><time>2026-05-01T09:32:55.406Z</time></trkpt><trkpt lat="45.2399698" lon="9.0394322"><ele>87.0</ele><time>2026-05-01T09:32:59.419Z</time></trkpt><trkpt lat="45.2399525" lon="9.0393459"><ele>87.0</ele><time>2026-05-01T09:33:02.408Z</time></trkpt><trkpt lat="45.2399111" lon="9.0392528"><ele>87.0</ele><time>2026-05-01T09:33:07.403Z</time></trkpt><trkpt lat="45.2398597" lon="9.0391576"><ele>87.0</ele><time>2026-05-01T09:33:10.406Z</time></trkpt><trkpt lat="45.239824" lon="9.0390554"><ele>87.0</ele><time>2026-05-01T09:33:13.402Z</time></trkpt><trkpt lat="45.2397772" lon="9.0389419"><ele>87.0</ele><time>2026-05-01T09:33:16.41Z</time></trkpt><trkpt lat="45.2397364" lon="9.0388613"><ele>87.0</ele><time>2026-05-01T09:33:18.406Z</time></trkpt><trkpt lat="45.2396979" lon="9.038773"><ele>87.0</ele><time>2026-05-01T09:33:20.41Z</time></trkpt><trkpt lat="45.2396766" lon="9.0386879"><ele>87.0</ele><time>2026-05-01T09:33:22.41Z</time></trkpt><trkpt lat="45.2396433" lon="9.0385716"><ele>87.0</ele><time>2026-05-01T09:33:26.405Z</time></trkpt><trkpt lat="45.2396177" lon="9.0384756"><ele>87.0</ele><time>2026-05-01T09:33:29.398Z</time></trkpt><trkpt lat="45.23956" lon="9.0383707"><ele>87.0</ele><time>2026-05-01T09:33:32.415Z</time></trkpt><trkpt lat="45.2395179" lon="9.0382919"><ele>87.0</ele><time>2026-05-01T09:33:34.407Z</time></trkpt><trkpt lat="45.239498" lon="9.0381923"><ele>86.0</ele><time>2026-05-01T09:33:36.412Z</time></trkpt><trkpt lat="45.2394856" lon="9.0380843"><ele>85.0</ele><time>2026-05-01T09:33:38.409Z</time></trkpt><trkpt lat="45.2395029" lon="9.037995"><ele>84.0</ele><time>2026-05-01T09:33:40.41Z</time></trkpt><trkpt lat="45.2395572" lon="9.037895"><ele>83.0</ele><time>2026-05-01T09:33:42.407Z</time></trkpt><trkpt lat="45.2396152" lon="9.037782"><ele>82.0</ele><time>2026-05-01T09:33:44.402Z</time></trkpt><trkpt lat="45.2396306" lon="9.0376822"><ele>81.0</ele><time>2026-05-01T09:33:46.483Z</time></trkpt><trkpt lat="45.239592" lon="9.0375627"><ele>80.66666666666667</ele><time>2026-05-01T09:33:48.403Z</time></trkpt><trkpt lat="45.2395193" lon="9.0374651"><ele>80.33333333333333</ele><time>2026-05-01T09:33:50.409Z</time></trkpt><trkpt lat="45.2394496" lon="9.0373993"><ele>80.0</ele><time>2026-05-01T09:33:52.412Z</time></trkpt><trkpt lat="45.2393812" lon="9.0373273"><ele>79.66666666666666</ele><time>2026-05-01T09:33:54.403Z</time></trkpt><trkpt lat="45.2393242" lon="9.0372856"><ele>79.33333333333333</ele><time>2026-05-01T09:33:56.407Z</time></trkpt><trkpt lat="45.2392383" lon="9.0372304"><ele>79.0</ele><time>2026-05-01T09:33:58.483Z</time></trkpt><trkpt lat="45.2391494" lon="9.037158"><ele>79.0</ele><time>2026-05-01T09:34:00.406Z</time></trkpt><trkpt lat="45.2390553" lon="9.0370757"><ele>79.0</ele><time>2026-05-01T09:34:02.4Z</time></trkpt><trkpt lat="45.2389863" lon="9.0370253"><ele>79.0</ele><time>2026-05-01T09:34:03.402Z</time></trkpt><trkpt lat="45.2389202" lon="9.0369745"><ele>79.0</ele><time>2026-05-01T09:34:04.411Z</time></trkpt><trkpt lat="45.2388218" lon="9.0368841"><ele>79.0</ele><time>2026-05-01T09:34:06.403Z</time></trkpt><trkpt lat="45.2387367" lon="9.0368115"><ele>77.60000000000001</ele><time>2026-05-01T09:34:08.405Z</time></trkpt><trkpt lat="45.2386662" lon="9.0367509"><ele>76.2</ele><time>2026-05-01T09:34:09.402Z</time></trkpt><trkpt lat="45.2385997" lon="9.0367006"><ele>74.80000000000001</ele><time>2026-05-01T09:34:10.406Z</time></trkpt><trkpt lat="45.23849" lon="9.0366438"><ele>73.4</ele><time>2026-05-01T09:34:12.406Z</time></trkpt><trkpt lat="45.2383929" lon="9.0365848"><ele>72.0</ele><time>2026-05-01T09:34:14.407Z</time></trkpt><trkpt lat="45.2382926" lon="9.0365176"><ele>72.00000000000001</ele><time>2026-05-01T09:34:16.394Z</time></trkpt><trkpt lat="45.238218" lon="9.0364766"><ele>72.0</ele><time>2026-05-01T09:34:17.406Z</time></trkpt><trkpt lat="45.2381549" lon="9.036441"><ele>72.0</ele><time>2026-05-01T09:34:18.413Z</time></trkpt><trkpt lat="45.2380917" lon="9.0363982"><ele>72.0</ele><time>2026-05-01T09:34:19.41Z</time></trkpt><trkpt lat="45.2380285" lon="9.0363657"><ele>72.0</ele><time>2026-05-01T09:34:20.407Z</time></trkpt><trkpt lat="45.2379654" lon="9.0363203"><ele>72.00000000000001</ele><time>2026-05-01T09:34:21.41Z</time></trkpt><trkpt lat="45.2379042" lon="9.0362741"><ele>72.0</ele><time>2026-05-01T09:34:22.405Z</time></trkpt><trkpt lat="45.2378469" lon="9.0362197"><ele>71.33333333333333</ele><time>2026-05-01T09:34:23.489Z</time></trkpt><trkpt lat="45.2377892" lon="9.0361721"><ele>70.66666666666667</ele><time>2026-05-01T09:34:24.412Z</time></trkpt><trkpt lat="45.2377334" lon="9.0361119"><ele>70.0</ele><time>2026-05-01T09:34:25.412Z</time></trkpt><trkpt lat="45.2376731" lon="9.0360545"><ele>69.33333333333334</ele><time>2026-05-01T09:34:26.408Z</time></trkpt><trkpt lat="45.2376181" lon="9.0359968"><ele>68.66666666666667</ele><time>2026-05-01T09:34:27.412Z</time></trkpt><trkpt lat="45.2375671" lon="9.0359346"><ele>68.0</ele><time>2026-05-01T09:34:28.405Z</time></trkpt><trkpt lat="45.2374511" lon="9.0358295"><ele>68.16666666666667</ele><time>2026-05-01T09:34:30.407Z</time></trkpt><trkpt lat="45.2373751" lon="9.0357857"><ele>68.33333333333334</ele><time>2026-05-01T09:34:31.411Z</time></trkpt><trkpt lat="45.237308" lon="9.0357421"><ele>68.5</ele><time>2026-05-01T09:34:32.414Z</time></trkpt><trkpt lat="45.237243" lon="9.0356917"><ele>68.66666666666667</ele><time>2026-05-01T09:34:33.403Z</time></trkpt><trkpt lat="45.2371317" lon="9.0356153"><ele>68.83333333333333</ele><time>2026-05-01T09:34:35.417Z</time></trkpt><trkpt lat="45.2370606" lon="9.0355557"><ele>69.0</ele><time>2026-05-01T09:34:37.404Z</time></trkpt><trkpt lat="45.2369804" lon="9.0354891"><ele>69.0</ele><time>2026-05-01T09:34:39.402Z</time></trkpt><trkpt lat="45.2368931" lon="9.0354193"><ele>69.0</ele><time>2026-05-01T09:34:41.416Z</time></trkpt><trkpt lat="45.2367987" lon="9.0353256"><ele>69.0</ele><time>2026-05-01T09:34:43.407Z</time></trkpt><trkpt lat="45.236719" lon="9.0352785"><ele>69.0</ele><time>2026-05-01T09:34:45.41Z</time></trkpt><trkpt lat="45.2366533" lon="9.0352781"><ele>69.0</ele><time>2026-05-01T09:34:47.408Z</time></trkpt><trkpt lat="45.2365936" lon="9.0353449"><ele>69.0</ele><time>2026-05-01T09:34:50.404Z</time></trkpt><trkpt lat="45.2365605" lon="9.035446"><ele>69.0</ele><time>2026-05-01T09:34:54.41Z</time></trkpt><trkpt lat="45.2365526" lon="9.0355448"><ele>69.0</ele><time>2026-05-01T09:34:56.413Z</time></trkpt><trkpt lat="45.2365392" lon="9.0356358"><ele>69.0</ele><time>2026-05-01T09:34:58.412Z</time></trkpt><trkpt lat="45.2365003" lon="9.0357193"><ele>69.0</ele><time>2026-05-01T09:35:00.428Z</time></trkpt><trkpt lat="45.2364686" lon="9.0358153"><ele>69.0</ele><time>2026-05-01T09:35:02.413Z</time></trkpt><trkpt lat="45.2364229" lon="9.0359122"><ele>69.0</ele><time>2026-05-01T09:35:04.412Z</time></trkpt><trkpt lat="45.2363778" lon="9.0359826"><ele>69.0</ele><time>2026-05-01T09:35:06.413Z</time></trkpt><trkpt lat="45.2363197" lon="9.0360824"><ele>68.66666666666667</ele><time>2026-05-01T09:35:09.411Z</time></trkpt><trkpt lat="45.2362794" lon="9.0361566"><ele>68.33333333333333</ele><time>2026-05-01T09:35:11.403Z</time></trkpt><trkpt lat="45.2362141" lon="9.0362658"><ele>68.0</ele><time>2026-05-01T09:35:14.417Z</time></trkpt><trkpt lat="45.2361595" lon="9.0363471"><ele>67.66666666666666</ele><time>2026-05-01T09:35:16.41Z</time></trkpt><trkpt lat="45.2361092" lon="9.0364348"><ele>67.33333333333333</ele><time>2026-05-01T09:35:18.415Z</time></trkpt><trkpt lat="45.236059" lon="9.0364999"><ele>67.0</ele><time>2026-05-01T09:35:20.403Z</time></trkpt><trkpt lat="45.2360144" lon="9.0366011"><ele>66.83333333333333</ele><time>2026-05-01T09:35:22.406Z</time></trkpt><trkpt lat="45.2359655" lon="9.0366807"><ele>66.66666666666666</ele><time>2026-05-01T09:35:24.42Z</time></trkpt><trkpt lat="45.235925" lon="9.0367513"><ele>66.5</ele><time>2026-05-01T09:35:26.408Z</time></trkpt><trkpt lat="45.2358766" lon="9.036857"><ele>66.33333333333333</ele><time>2026-05-01T09:35:29.413Z</time></trkpt><trkpt lat="45.2358179" lon="9.0369392"><ele>66.16666666666667</ele><time>2026-05-01T09:35:32.417Z</time></trkpt><trkpt lat="45.2357503" lon="9.0370335"><ele>66.0</ele><time>2026-05-01T09:35:35.404Z</time></trkpt><trkpt lat="45.2356984" lon="9.0371317"><ele>66.0</ele><time>2026-05-01T09:35:38.408Z</time></trkpt><trkpt lat="45.2356318" lon="9.0372142"><ele>67.0</ele><time>2026-05-01T09:35:41.412Z</time></trkpt><trkpt lat="45.2355548" lon="9.0372562"><ele>67.0</ele><time>2026-05-01T09:35:45.41Z</time></trkpt><trkpt lat="45.2354863" lon="9.0370338"><ele>67.0</ele><time>2026-05-01T09:36:22.4Z</time></trkpt></trkseg></trk></gpx>